<?xml version="1.0" encoding="UTF-8" standalone="no" ?>
<gpx xmlns="http://www.topografix.com/GPX/1/1" xmlns:xsi="http://www.w3.org/2001/XMLSchema-instance" xsi:schemaLocation="http://www.topografix.com/GPX/1/1 http://www.topografix.com/GPX/1/1/gpx.xsd" version="1.1" creator="VisuGPX - https://www.visugpx.com">
  <metadata>
    <name>2018-03-16 Bike ride-Val d-Azergues 31km</name>
    <desc><![CDATA[2018-03-16 Bike ride-Val d-Azergues 31km]]></desc>
  </metadata>
  <wpt lat="45.92446" lon="4.73716">
    <ele>174</ele>
    <name><![CDATA[2018-03-16 10:40 (Start)]]></name>
  </wpt>
  <wpt lat="45.92457" lon="4.73712">
    <ele>174</ele>
    <name><![CDATA[2018-03-16 10:40 (End)]]></name>
  </wpt>
  <trk>
    <name><![CDATA[2018-03-16 10:40]]></name>
    <trkseg>
      <trkpt lat="45.92446" lon="4.73716">
        <ele>174</ele>
        <time>2018-03-16T09:40:12.508Z</time>
      </trkpt>
      <trkpt lat="45.92453" lon="4.73709">
        <ele>174</ele>
        <time>2018-03-16T09:40:36Z</time>
      </trkpt>
      <trkpt lat="45.92454" lon="4.73707">
        <ele>174</ele>
        <time>2018-03-16T09:40:37Z</time>
      </trkpt>
      <trkpt lat="45.92457" lon="4.73697">
        <ele>174</ele>
        <time>2018-03-16T09:40:43.526Z</time>
      </trkpt>
      <trkpt lat="45.92457" lon="4.73695">
        <ele>174</ele>
        <time>2018-03-16T09:40:41Z</time>
      </trkpt>
      <trkpt lat="45.92459" lon="4.73684">
        <ele>174</ele>
        <time>2018-03-16T09:40:44Z</time>
      </trkpt>
      <trkpt lat="45.9246" lon="4.7368">
        <ele>174</ele>
        <time>2018-03-16T09:40:45Z</time>
      </trkpt>
      <trkpt lat="45.92461" lon="4.73672">
        <ele>174</ele>
        <time>2018-03-16T09:40:47Z</time>
      </trkpt>
      <trkpt lat="45.92462" lon="4.73667">
        <ele>174</ele>
        <time>2018-03-16T09:40:48Z</time>
      </trkpt>
      <trkpt lat="45.92463" lon="4.73659">
        <ele>174</ele>
        <time>2018-03-16T09:40:50Z</time>
      </trkpt>
      <trkpt lat="45.92464" lon="4.73655">
        <ele>174</ele>
        <time>2018-03-16T09:40:51Z</time>
      </trkpt>
      <trkpt lat="45.92468" lon="4.73647">
        <ele>174</ele>
        <time>2018-03-16T09:40:53Z</time>
      </trkpt>
      <trkpt lat="45.9247" lon="4.73645">
        <ele>174</ele>
        <time>2018-03-16T09:40:54Z</time>
      </trkpt>
      <trkpt lat="45.92473" lon="4.73643">
        <ele>174</ele>
        <time>2018-03-16T09:40:55Z</time>
      </trkpt>
      <trkpt lat="45.92482" lon="4.73641">
        <ele>174</ele>
        <time>2018-03-16T09:40:56Z</time>
      </trkpt>
      <trkpt lat="45.92488" lon="4.73642">
        <ele>174</ele>
        <time>2018-03-16T09:40:58Z</time>
      </trkpt>
      <trkpt lat="45.92494" lon="4.73642">
        <ele>174</ele>
        <time>2018-03-16T09:40:59Z</time>
      </trkpt>
      <trkpt lat="45.92501" lon="4.73642">
        <ele>174</ele>
        <time>2018-03-16T09:41:01Z</time>
      </trkpt>
      <trkpt lat="45.92503" lon="4.73641">
        <ele>174</ele>
        <time>2018-03-16T09:41:02Z</time>
      </trkpt>
      <trkpt lat="45.92509" lon="4.73641">
        <ele>174</ele>
        <time>2018-03-16T09:41:03Z</time>
      </trkpt>
      <trkpt lat="45.92513" lon="4.73641">
        <ele>174</ele>
        <time>2018-03-16T09:41:04Z</time>
      </trkpt>
      <trkpt lat="45.92517" lon="4.7364">
        <ele>173</ele>
        <time>2018-03-16T09:41:05Z</time>
      </trkpt>
      <trkpt lat="45.92523" lon="4.7364">
        <ele>173</ele>
        <time>2018-03-16T09:41:06Z</time>
      </trkpt>
      <trkpt lat="45.92532" lon="4.73638">
        <ele>173</ele>
        <time>2018-03-16T09:41:08Z</time>
      </trkpt>
      <trkpt lat="45.92536" lon="4.73638">
        <ele>173</ele>
        <time>2018-03-16T09:41:09Z</time>
      </trkpt>
      <trkpt lat="45.92544" lon="4.73636">
        <ele>173</ele>
        <time>2018-03-16T09:41:11Z</time>
      </trkpt>
      <trkpt lat="45.92549" lon="4.73634">
        <ele>173</ele>
        <time>2018-03-16T09:41:12Z</time>
      </trkpt>
      <trkpt lat="45.92557" lon="4.73632">
        <ele>173</ele>
        <time>2018-03-16T09:41:14Z</time>
      </trkpt>
      <trkpt lat="45.92561" lon="4.73631">
        <ele>173</ele>
        <time>2018-03-16T09:41:15Z</time>
      </trkpt>
      <trkpt lat="45.9257" lon="4.73629">
        <ele>173</ele>
        <time>2018-03-16T09:41:17Z</time>
      </trkpt>
      <trkpt lat="45.92574" lon="4.73627">
        <ele>173</ele>
        <time>2018-03-16T09:41:18Z</time>
      </trkpt>
      <trkpt lat="45.92578" lon="4.73627">
        <ele>173</ele>
        <time>2018-03-16T09:41:19Z</time>
      </trkpt>
      <trkpt lat="45.92583" lon="4.73625">
        <ele>173</ele>
        <time>2018-03-16T09:41:20Z</time>
      </trkpt>
      <trkpt lat="45.92588" lon="4.73625">
        <ele>172</ele>
        <time>2018-03-16T09:41:21Z</time>
      </trkpt>
      <trkpt lat="45.92592" lon="4.73625">
        <ele>173</ele>
        <time>2018-03-16T09:41:22Z</time>
      </trkpt>
      <trkpt lat="45.92601" lon="4.73625">
        <ele>173</ele>
        <time>2018-03-16T09:41:24Z</time>
      </trkpt>
      <trkpt lat="45.92605" lon="4.73627">
        <ele>173</ele>
        <time>2018-03-16T09:41:25Z</time>
      </trkpt>
      <trkpt lat="45.9261" lon="4.7363">
        <ele>173</ele>
        <time>2018-03-16T09:41:26Z</time>
      </trkpt>
      <trkpt lat="45.92615" lon="4.73634">
        <ele>173</ele>
        <time>2018-03-16T09:41:27Z</time>
      </trkpt>
      <trkpt lat="45.92618" lon="4.73641">
        <ele>173</ele>
        <time>2018-03-16T09:41:28Z</time>
      </trkpt>
      <trkpt lat="45.92622" lon="4.73645">
        <ele>173</ele>
        <time>2018-03-16T09:41:29Z</time>
      </trkpt>
      <trkpt lat="45.92625" lon="4.73651">
        <ele>173</ele>
        <time>2018-03-16T09:41:30Z</time>
      </trkpt>
      <trkpt lat="45.92628" lon="4.73657">
        <ele>173</ele>
        <time>2018-03-16T09:41:31Z</time>
      </trkpt>
      <trkpt lat="45.92631" lon="4.73663">
        <ele>173</ele>
        <time>2018-03-16T09:41:32Z</time>
      </trkpt>
      <trkpt lat="45.92634" lon="4.73669">
        <ele>173</ele>
        <time>2018-03-16T09:41:33Z</time>
      </trkpt>
      <trkpt lat="45.92637" lon="4.73675">
        <ele>173</ele>
        <time>2018-03-16T09:41:34Z</time>
      </trkpt>
      <trkpt lat="45.9264" lon="4.73681">
        <ele>173</ele>
        <time>2018-03-16T09:41:35Z</time>
      </trkpt>
      <trkpt lat="45.92643" lon="4.73686">
        <ele>173</ele>
        <time>2018-03-16T09:41:36Z</time>
      </trkpt>
      <trkpt lat="45.92646" lon="4.73691">
        <ele>173</ele>
        <time>2018-03-16T09:41:37Z</time>
      </trkpt>
      <trkpt lat="45.92651" lon="4.73696">
        <ele>173</ele>
        <time>2018-03-16T09:41:38Z</time>
      </trkpt>
      <trkpt lat="45.92655" lon="4.73699">
        <ele>173</ele>
        <time>2018-03-16T09:41:39Z</time>
      </trkpt>
      <trkpt lat="45.92659" lon="4.73703">
        <ele>173</ele>
        <time>2018-03-16T09:41:40Z</time>
      </trkpt>
      <trkpt lat="45.92664" lon="4.73706">
        <ele>173</ele>
        <time>2018-03-16T09:41:41Z</time>
      </trkpt>
      <trkpt lat="45.92669" lon="4.73709">
        <ele>174</ele>
        <time>2018-03-16T09:41:42Z</time>
      </trkpt>
      <trkpt lat="45.92674" lon="4.73712">
        <ele>174</ele>
        <time>2018-03-16T09:41:43Z</time>
      </trkpt>
      <trkpt lat="45.92679" lon="4.73714">
        <ele>173</ele>
        <time>2018-03-16T09:41:44Z</time>
      </trkpt>
      <trkpt lat="45.92684" lon="4.73715">
        <ele>173</ele>
        <time>2018-03-16T09:41:45Z</time>
      </trkpt>
      <trkpt lat="45.92689" lon="4.73716">
        <ele>173</ele>
        <time>2018-03-16T09:41:46Z</time>
      </trkpt>
      <trkpt lat="45.92694" lon="4.73718">
        <ele>173</ele>
        <time>2018-03-16T09:41:47Z</time>
      </trkpt>
      <trkpt lat="45.92699" lon="4.73718">
        <ele>173</ele>
        <time>2018-03-16T09:41:48Z</time>
      </trkpt>
      <trkpt lat="45.92705" lon="4.73719">
        <ele>173</ele>
        <time>2018-03-16T09:41:49Z</time>
      </trkpt>
      <trkpt lat="45.9271" lon="4.7372">
        <ele>173</ele>
        <time>2018-03-16T09:41:50Z</time>
      </trkpt>
      <trkpt lat="45.92715" lon="4.73721">
        <ele>173</ele>
        <time>2018-03-16T09:41:51Z</time>
      </trkpt>
      <trkpt lat="45.9272" lon="4.73721">
        <ele>173</ele>
        <time>2018-03-16T09:41:52Z</time>
      </trkpt>
      <trkpt lat="45.92726" lon="4.73722">
        <ele>173</ele>
        <time>2018-03-16T09:41:53Z</time>
      </trkpt>
      <trkpt lat="45.92731" lon="4.73723">
        <ele>173</ele>
        <time>2018-03-16T09:41:54Z</time>
      </trkpt>
      <trkpt lat="45.92736" lon="4.73724">
        <ele>173</ele>
        <time>2018-03-16T09:41:55Z</time>
      </trkpt>
      <trkpt lat="45.92742" lon="4.73726">
        <ele>173</ele>
        <time>2018-03-16T09:41:56Z</time>
      </trkpt>
      <trkpt lat="45.92747" lon="4.73727">
        <ele>173</ele>
        <time>2018-03-16T09:41:57Z</time>
      </trkpt>
      <trkpt lat="45.92755" lon="4.73729">
        <ele>172</ele>
        <time>2018-03-16T09:41:59Z</time>
      </trkpt>
      <trkpt lat="45.92756" lon="4.73728">
        <ele>172</ele>
        <time>2018-03-16T09:42:00Z</time>
      </trkpt>
      <trkpt lat="45.92762" lon="4.73731">
        <ele>172</ele>
        <time>2018-03-16T09:42:01Z</time>
      </trkpt>
      <trkpt lat="45.92765" lon="4.73733">
        <ele>172</ele>
        <time>2018-03-16T09:42:02Z</time>
      </trkpt>
      <trkpt lat="45.92773" lon="4.73736">
        <ele>172</ele>
        <time>2018-03-16T09:42:04Z</time>
      </trkpt>
      <trkpt lat="45.92775" lon="4.73737">
        <ele>172</ele>
        <time>2018-03-16T09:42:05Z</time>
      </trkpt>
      <trkpt lat="45.92779" lon="4.73743">
        <ele>172</ele>
        <time>2018-03-16T09:42:08Z</time>
      </trkpt>
      <trkpt lat="45.92785" lon="4.7375">
        <ele>172</ele>
        <time>2018-03-16T09:42:09Z</time>
      </trkpt>
      <trkpt lat="45.92792" lon="4.73757">
        <ele>173</ele>
        <time>2018-03-16T09:42:11Z</time>
      </trkpt>
      <trkpt lat="45.92796" lon="4.7376">
        <ele>173</ele>
        <time>2018-03-16T09:42:12Z</time>
      </trkpt>
      <trkpt lat="45.928" lon="4.73762">
        <ele>173</ele>
        <time>2018-03-16T09:42:13Z</time>
      </trkpt>
      <trkpt lat="45.92805" lon="4.73764">
        <ele>173</ele>
        <time>2018-03-16T09:42:14Z</time>
      </trkpt>
      <trkpt lat="45.92809" lon="4.73766">
        <ele>173</ele>
        <time>2018-03-16T09:42:15Z</time>
      </trkpt>
      <trkpt lat="45.92814" lon="4.73769">
        <ele>173</ele>
        <time>2018-03-16T09:42:16Z</time>
      </trkpt>
      <trkpt lat="45.92818" lon="4.73772">
        <ele>173</ele>
        <time>2018-03-16T09:42:17Z</time>
      </trkpt>
      <trkpt lat="45.92823" lon="4.73776">
        <ele>173</ele>
        <time>2018-03-16T09:42:18Z</time>
      </trkpt>
      <trkpt lat="45.92828" lon="4.7378">
        <ele>173</ele>
        <time>2018-03-16T09:42:19Z</time>
      </trkpt>
      <trkpt lat="45.92832" lon="4.73783">
        <ele>173</ele>
        <time>2018-03-16T09:42:20Z</time>
      </trkpt>
      <trkpt lat="45.92837" lon="4.73788">
        <ele>173</ele>
        <time>2018-03-16T09:42:21Z</time>
      </trkpt>
      <trkpt lat="45.92841" lon="4.73792">
        <ele>173</ele>
        <time>2018-03-16T09:42:22Z</time>
      </trkpt>
      <trkpt lat="45.92846" lon="4.73796">
        <ele>173</ele>
        <time>2018-03-16T09:42:23Z</time>
      </trkpt>
      <trkpt lat="45.9285" lon="4.738">
        <ele>173</ele>
        <time>2018-03-16T09:42:24Z</time>
      </trkpt>
      <trkpt lat="45.92854" lon="4.73806">
        <ele>173</ele>
        <time>2018-03-16T09:42:25Z</time>
      </trkpt>
      <trkpt lat="45.92856" lon="4.73814">
        <ele>173</ele>
        <time>2018-03-16T09:42:26Z</time>
      </trkpt>
      <trkpt lat="45.92859" lon="4.73821">
        <ele>173</ele>
        <time>2018-03-16T09:42:27Z</time>
      </trkpt>
      <trkpt lat="45.92861" lon="4.73828">
        <ele>173</ele>
        <time>2018-03-16T09:42:28Z</time>
      </trkpt>
      <trkpt lat="45.92863" lon="4.73836">
        <ele>173</ele>
        <time>2018-03-16T09:42:29Z</time>
      </trkpt>
      <trkpt lat="45.92865" lon="4.73844">
        <ele>173</ele>
        <time>2018-03-16T09:42:30Z</time>
      </trkpt>
      <trkpt lat="45.92867" lon="4.73851">
        <ele>173</ele>
        <time>2018-03-16T09:42:31Z</time>
      </trkpt>
      <trkpt lat="45.92868" lon="4.73857">
        <ele>173</ele>
        <time>2018-03-16T09:42:32Z</time>
      </trkpt>
      <trkpt lat="45.92868" lon="4.73865">
        <ele>173</ele>
        <time>2018-03-16T09:42:33Z</time>
      </trkpt>
      <trkpt lat="45.92871" lon="4.73872">
        <ele>173</ele>
        <time>2018-03-16T09:42:34Z</time>
      </trkpt>
      <trkpt lat="45.92873" lon="4.73881">
        <ele>173</ele>
        <time>2018-03-16T09:42:35Z</time>
      </trkpt>
      <trkpt lat="45.92876" lon="4.73887">
        <ele>173</ele>
        <time>2018-03-16T09:42:36Z</time>
      </trkpt>
      <trkpt lat="45.92878" lon="4.73896">
        <ele>173</ele>
        <time>2018-03-16T09:42:37Z</time>
      </trkpt>
      <trkpt lat="45.92879" lon="4.73903">
        <ele>173</ele>
        <time>2018-03-16T09:42:38Z</time>
      </trkpt>
      <trkpt lat="45.92879" lon="4.73912">
        <ele>173</ele>
        <time>2018-03-16T09:42:39Z</time>
      </trkpt>
      <trkpt lat="45.9288" lon="4.7392">
        <ele>172</ele>
        <time>2018-03-16T09:42:40Z</time>
      </trkpt>
      <trkpt lat="45.92881" lon="4.73928">
        <ele>172</ele>
        <time>2018-03-16T09:42:41Z</time>
      </trkpt>
      <trkpt lat="45.9288" lon="4.73934">
        <ele>172</ele>
        <time>2018-03-16T09:42:42Z</time>
      </trkpt>
      <trkpt lat="45.9288" lon="4.73942">
        <ele>172</ele>
        <time>2018-03-16T09:42:43Z</time>
      </trkpt>
      <trkpt lat="45.9288" lon="4.73949">
        <ele>172</ele>
        <time>2018-03-16T09:42:44Z</time>
      </trkpt>
      <trkpt lat="45.9288" lon="4.73956">
        <ele>172</ele>
        <time>2018-03-16T09:42:45Z</time>
      </trkpt>
      <trkpt lat="45.9288" lon="4.73963">
        <ele>172</ele>
        <time>2018-03-16T09:42:46Z</time>
      </trkpt>
      <trkpt lat="45.92879" lon="4.7397">
        <ele>172</ele>
        <time>2018-03-16T09:42:47Z</time>
      </trkpt>
      <trkpt lat="45.92879" lon="4.73977">
        <ele>172</ele>
        <time>2018-03-16T09:42:48Z</time>
      </trkpt>
      <trkpt lat="45.92879" lon="4.73985">
        <ele>172</ele>
        <time>2018-03-16T09:42:49Z</time>
      </trkpt>
      <trkpt lat="45.92878" lon="4.73993">
        <ele>172</ele>
        <time>2018-03-16T09:42:50Z</time>
      </trkpt>
      <trkpt lat="45.92877" lon="4.73999">
        <ele>172</ele>
        <time>2018-03-16T09:42:51Z</time>
      </trkpt>
      <trkpt lat="45.92875" lon="4.74006">
        <ele>172</ele>
        <time>2018-03-16T09:42:52Z</time>
      </trkpt>
      <trkpt lat="45.92874" lon="4.74014">
        <ele>172</ele>
        <time>2018-03-16T09:42:53Z</time>
      </trkpt>
      <trkpt lat="45.92872" lon="4.7402">
        <ele>172</ele>
        <time>2018-03-16T09:42:54Z</time>
      </trkpt>
      <trkpt lat="45.92872" lon="4.74027">
        <ele>172</ele>
        <time>2018-03-16T09:42:55Z</time>
      </trkpt>
      <trkpt lat="45.92872" lon="4.74034">
        <ele>172</ele>
        <time>2018-03-16T09:42:56Z</time>
      </trkpt>
      <trkpt lat="45.92869" lon="4.74041">
        <ele>172</ele>
        <time>2018-03-16T09:42:57Z</time>
      </trkpt>
      <trkpt lat="45.92866" lon="4.74046">
        <ele>172</ele>
        <time>2018-03-16T09:42:58Z</time>
      </trkpt>
      <trkpt lat="45.92862" lon="4.74052">
        <ele>172</ele>
        <time>2018-03-16T09:42:59Z</time>
      </trkpt>
      <trkpt lat="45.92858" lon="4.74057">
        <ele>172</ele>
        <time>2018-03-16T09:43:00Z</time>
      </trkpt>
      <trkpt lat="45.92854" lon="4.74063">
        <ele>172</ele>
        <time>2018-03-16T09:43:01Z</time>
      </trkpt>
      <trkpt lat="45.92849" lon="4.74068">
        <ele>172</ele>
        <time>2018-03-16T09:43:02Z</time>
      </trkpt>
      <trkpt lat="45.92846" lon="4.74073">
        <ele>172</ele>
        <time>2018-03-16T09:43:03Z</time>
      </trkpt>
      <trkpt lat="45.92842" lon="4.74078">
        <ele>171</ele>
        <time>2018-03-16T09:43:04Z</time>
      </trkpt>
      <trkpt lat="45.92838" lon="4.74083">
        <ele>171</ele>
        <time>2018-03-16T09:43:05Z</time>
      </trkpt>
      <trkpt lat="45.92834" lon="4.74087">
        <ele>171</ele>
        <time>2018-03-16T09:43:06Z</time>
      </trkpt>
      <trkpt lat="45.9283" lon="4.74092">
        <ele>171</ele>
        <time>2018-03-16T09:43:07Z</time>
      </trkpt>
      <trkpt lat="45.92825" lon="4.74097">
        <ele>171</ele>
        <time>2018-03-16T09:43:08Z</time>
      </trkpt>
      <trkpt lat="45.9282" lon="4.74101">
        <ele>171</ele>
        <time>2018-03-16T09:43:09Z</time>
      </trkpt>
      <trkpt lat="45.92816" lon="4.74106">
        <ele>172</ele>
        <time>2018-03-16T09:43:10Z</time>
      </trkpt>
      <trkpt lat="45.92812" lon="4.7411">
        <ele>172</ele>
        <time>2018-03-16T09:43:11Z</time>
      </trkpt>
      <trkpt lat="45.92807" lon="4.74115">
        <ele>172</ele>
        <time>2018-03-16T09:43:12Z</time>
      </trkpt>
      <trkpt lat="45.92803" lon="4.7412">
        <ele>172</ele>
        <time>2018-03-16T09:43:13Z</time>
      </trkpt>
      <trkpt lat="45.92799" lon="4.74126">
        <ele>172</ele>
        <time>2018-03-16T09:43:14Z</time>
      </trkpt>
      <trkpt lat="45.92794" lon="4.7413">
        <ele>172</ele>
        <time>2018-03-16T09:43:15Z</time>
      </trkpt>
      <trkpt lat="45.9279" lon="4.74133">
        <ele>172</ele>
        <time>2018-03-16T09:43:16Z</time>
      </trkpt>
      <trkpt lat="45.92786" lon="4.74137">
        <ele>172</ele>
        <time>2018-03-16T09:43:17Z</time>
      </trkpt>
      <trkpt lat="45.92782" lon="4.74142">
        <ele>172</ele>
        <time>2018-03-16T09:43:18Z</time>
      </trkpt>
      <trkpt lat="45.92778" lon="4.74146">
        <ele>172</ele>
        <time>2018-03-16T09:43:19Z</time>
      </trkpt>
      <trkpt lat="45.92774" lon="4.7415">
        <ele>172</ele>
        <time>2018-03-16T09:43:20Z</time>
      </trkpt>
      <trkpt lat="45.9277" lon="4.74155">
        <ele>172</ele>
        <time>2018-03-16T09:43:21Z</time>
      </trkpt>
      <trkpt lat="45.92766" lon="4.74159">
        <ele>172</ele>
        <time>2018-03-16T09:43:22Z</time>
      </trkpt>
      <trkpt lat="45.92762" lon="4.74164">
        <ele>172</ele>
        <time>2018-03-16T09:43:23Z</time>
      </trkpt>
      <trkpt lat="45.92758" lon="4.74168">
        <ele>172</ele>
        <time>2018-03-16T09:43:24Z</time>
      </trkpt>
      <trkpt lat="45.92754" lon="4.74172">
        <ele>172</ele>
        <time>2018-03-16T09:43:25Z</time>
      </trkpt>
      <trkpt lat="45.9275" lon="4.74177">
        <ele>172</ele>
        <time>2018-03-16T09:43:26Z</time>
      </trkpt>
      <trkpt lat="45.92746" lon="4.74181">
        <ele>172</ele>
        <time>2018-03-16T09:43:27Z</time>
      </trkpt>
      <trkpt lat="45.92742" lon="4.74186">
        <ele>172</ele>
        <time>2018-03-16T09:43:28Z</time>
      </trkpt>
      <trkpt lat="45.92738" lon="4.74191">
        <ele>171</ele>
        <time>2018-03-16T09:43:29Z</time>
      </trkpt>
      <trkpt lat="45.92735" lon="4.74196">
        <ele>171</ele>
        <time>2018-03-16T09:43:30Z</time>
      </trkpt>
      <trkpt lat="45.92731" lon="4.74201">
        <ele>171</ele>
        <time>2018-03-16T09:43:31Z</time>
      </trkpt>
      <trkpt lat="45.92728" lon="4.74206">
        <ele>171</ele>
        <time>2018-03-16T09:43:32Z</time>
      </trkpt>
      <trkpt lat="45.92724" lon="4.74212">
        <ele>171</ele>
        <time>2018-03-16T09:43:33Z</time>
      </trkpt>
      <trkpt lat="45.9272" lon="4.74217">
        <ele>171</ele>
        <time>2018-03-16T09:43:34Z</time>
      </trkpt>
      <trkpt lat="45.92716" lon="4.74223">
        <ele>171</ele>
        <time>2018-03-16T09:43:35Z</time>
      </trkpt>
      <trkpt lat="45.92713" lon="4.74228">
        <ele>171</ele>
        <time>2018-03-16T09:43:36Z</time>
      </trkpt>
      <trkpt lat="45.9271" lon="4.74234">
        <ele>171</ele>
        <time>2018-03-16T09:43:37Z</time>
      </trkpt>
      <trkpt lat="45.92706" lon="4.74239">
        <ele>171</ele>
        <time>2018-03-16T09:43:38Z</time>
      </trkpt>
      <trkpt lat="45.92703" lon="4.74246">
        <ele>171</ele>
        <time>2018-03-16T09:43:39Z</time>
      </trkpt>
      <trkpt lat="45.92698" lon="4.74252">
        <ele>171</ele>
        <time>2018-03-16T09:43:40Z</time>
      </trkpt>
      <trkpt lat="45.92695" lon="4.74257">
        <ele>171</ele>
        <time>2018-03-16T09:43:41Z</time>
      </trkpt>
      <trkpt lat="45.92691" lon="4.74264">
        <ele>171</ele>
        <time>2018-03-16T09:43:42Z</time>
      </trkpt>
      <trkpt lat="45.92688" lon="4.7427">
        <ele>171</ele>
        <time>2018-03-16T09:43:43Z</time>
      </trkpt>
      <trkpt lat="45.92685" lon="4.74276">
        <ele>171</ele>
        <time>2018-03-16T09:43:44Z</time>
      </trkpt>
      <trkpt lat="45.92681" lon="4.74282">
        <ele>171</ele>
        <time>2018-03-16T09:43:45Z</time>
      </trkpt>
      <trkpt lat="45.92678" lon="4.74288">
        <ele>171</ele>
        <time>2018-03-16T09:43:46Z</time>
      </trkpt>
      <trkpt lat="45.92674" lon="4.74293">
        <ele>171</ele>
        <time>2018-03-16T09:43:47Z</time>
      </trkpt>
      <trkpt lat="45.92671" lon="4.74299">
        <ele>171</ele>
        <time>2018-03-16T09:43:48Z</time>
      </trkpt>
      <trkpt lat="45.92668" lon="4.74305">
        <ele>171</ele>
        <time>2018-03-16T09:43:49Z</time>
      </trkpt>
      <trkpt lat="45.92665" lon="4.74311">
        <ele>171</ele>
        <time>2018-03-16T09:43:50Z</time>
      </trkpt>
      <trkpt lat="45.92661" lon="4.74317">
        <ele>171</ele>
        <time>2018-03-16T09:43:51Z</time>
      </trkpt>
      <trkpt lat="45.92658" lon="4.74323">
        <ele>171</ele>
        <time>2018-03-16T09:43:52Z</time>
      </trkpt>
      <trkpt lat="45.92655" lon="4.74331">
        <ele>171</ele>
        <time>2018-03-16T09:43:53Z</time>
      </trkpt>
      <trkpt lat="45.92651" lon="4.74337">
        <ele>171</ele>
        <time>2018-03-16T09:43:54Z</time>
      </trkpt>
      <trkpt lat="45.92648" lon="4.74343">
        <ele>171</ele>
        <time>2018-03-16T09:43:55Z</time>
      </trkpt>
      <trkpt lat="45.92645" lon="4.7435">
        <ele>171</ele>
        <time>2018-03-16T09:43:56Z</time>
      </trkpt>
      <trkpt lat="45.92641" lon="4.74357">
        <ele>171</ele>
        <time>2018-03-16T09:43:57Z</time>
      </trkpt>
      <trkpt lat="45.92638" lon="4.74363">
        <ele>171</ele>
        <time>2018-03-16T09:43:58Z</time>
      </trkpt>
      <trkpt lat="45.92634" lon="4.74369">
        <ele>171</ele>
        <time>2018-03-16T09:43:59Z</time>
      </trkpt>
      <trkpt lat="45.9263" lon="4.74375">
        <ele>170</ele>
        <time>2018-03-16T09:44:00Z</time>
      </trkpt>
      <trkpt lat="45.92627" lon="4.74382">
        <ele>170</ele>
        <time>2018-03-16T09:44:01Z</time>
      </trkpt>
      <trkpt lat="45.92624" lon="4.74388">
        <ele>170</ele>
        <time>2018-03-16T09:44:02Z</time>
      </trkpt>
      <trkpt lat="45.9262" lon="4.74396">
        <ele>170</ele>
        <time>2018-03-16T09:44:03Z</time>
      </trkpt>
      <trkpt lat="45.92617" lon="4.74403">
        <ele>170</ele>
        <time>2018-03-16T09:44:04Z</time>
      </trkpt>
      <trkpt lat="45.92614" lon="4.7441">
        <ele>170</ele>
        <time>2018-03-16T09:44:05Z</time>
      </trkpt>
      <trkpt lat="45.9261" lon="4.74417">
        <ele>170</ele>
        <time>2018-03-16T09:44:06Z</time>
      </trkpt>
      <trkpt lat="45.92605" lon="4.74424">
        <ele>170</ele>
        <time>2018-03-16T09:44:07Z</time>
      </trkpt>
      <trkpt lat="45.92602" lon="4.7443">
        <ele>170</ele>
        <time>2018-03-16T09:44:08Z</time>
      </trkpt>
      <trkpt lat="45.92598" lon="4.74436">
        <ele>170</ele>
        <time>2018-03-16T09:44:09Z</time>
      </trkpt>
      <trkpt lat="45.92595" lon="4.74443">
        <ele>170</ele>
        <time>2018-03-16T09:44:10Z</time>
      </trkpt>
      <trkpt lat="45.92591" lon="4.7445">
        <ele>170</ele>
        <time>2018-03-16T09:44:11Z</time>
      </trkpt>
      <trkpt lat="45.92587" lon="4.74457">
        <ele>170</ele>
        <time>2018-03-16T09:44:12Z</time>
      </trkpt>
      <trkpt lat="45.92583" lon="4.74464">
        <ele>170</ele>
        <time>2018-03-16T09:44:13Z</time>
      </trkpt>
      <trkpt lat="45.92579" lon="4.74471">
        <ele>170</ele>
        <time>2018-03-16T09:44:14Z</time>
      </trkpt>
      <trkpt lat="45.92576" lon="4.74478">
        <ele>170</ele>
        <time>2018-03-16T09:44:15Z</time>
      </trkpt>
      <trkpt lat="45.92572" lon="4.74485">
        <ele>170</ele>
        <time>2018-03-16T09:44:16Z</time>
      </trkpt>
      <trkpt lat="45.92568" lon="4.74492">
        <ele>170</ele>
        <time>2018-03-16T09:44:17Z</time>
      </trkpt>
      <trkpt lat="45.92564" lon="4.74498">
        <ele>170</ele>
        <time>2018-03-16T09:44:18Z</time>
      </trkpt>
      <trkpt lat="45.9256" lon="4.74505">
        <ele>170</ele>
        <time>2018-03-16T09:44:19Z</time>
      </trkpt>
      <trkpt lat="45.92557" lon="4.74512">
        <ele>170</ele>
        <time>2018-03-16T09:44:20Z</time>
      </trkpt>
      <trkpt lat="45.92553" lon="4.74518">
        <ele>170</ele>
        <time>2018-03-16T09:44:21Z</time>
      </trkpt>
      <trkpt lat="45.92549" lon="4.74525">
        <ele>170</ele>
        <time>2018-03-16T09:44:22Z</time>
      </trkpt>
      <trkpt lat="45.92545" lon="4.74532">
        <ele>170</ele>
        <time>2018-03-16T09:44:23Z</time>
      </trkpt>
      <trkpt lat="45.92542" lon="4.74539">
        <ele>170</ele>
        <time>2018-03-16T09:44:24Z</time>
      </trkpt>
      <trkpt lat="45.92538" lon="4.74545">
        <ele>171</ele>
        <time>2018-03-16T09:44:25Z</time>
      </trkpt>
      <trkpt lat="45.92534" lon="4.74552">
        <ele>171</ele>
        <time>2018-03-16T09:44:26Z</time>
      </trkpt>
      <trkpt lat="45.9253" lon="4.74558">
        <ele>171</ele>
        <time>2018-03-16T09:44:27Z</time>
      </trkpt>
      <trkpt lat="45.92525" lon="4.74563">
        <ele>171</ele>
        <time>2018-03-16T09:44:28Z</time>
      </trkpt>
      <trkpt lat="45.9252" lon="4.74569">
        <ele>171</ele>
        <time>2018-03-16T09:44:29Z</time>
      </trkpt>
      <trkpt lat="45.92516" lon="4.74574">
        <ele>171</ele>
        <time>2018-03-16T09:44:30Z</time>
      </trkpt>
      <trkpt lat="45.92512" lon="4.74579">
        <ele>171</ele>
        <time>2018-03-16T09:44:31Z</time>
      </trkpt>
      <trkpt lat="45.92508" lon="4.74584">
        <ele>171</ele>
        <time>2018-03-16T09:44:32Z</time>
      </trkpt>
      <trkpt lat="45.92504" lon="4.74589">
        <ele>171</ele>
        <time>2018-03-16T09:44:33Z</time>
      </trkpt>
      <trkpt lat="45.92499" lon="4.74594">
        <ele>171</ele>
        <time>2018-03-16T09:44:34Z</time>
      </trkpt>
      <trkpt lat="45.92495" lon="4.746">
        <ele>171</ele>
        <time>2018-03-16T09:44:35Z</time>
      </trkpt>
      <trkpt lat="45.92491" lon="4.74606">
        <ele>171</ele>
        <time>2018-03-16T09:44:36Z</time>
      </trkpt>
      <trkpt lat="45.92487" lon="4.74611">
        <ele>171</ele>
        <time>2018-03-16T09:44:37Z</time>
      </trkpt>
      <trkpt lat="45.92483" lon="4.74616">
        <ele>171</ele>
        <time>2018-03-16T09:44:38Z</time>
      </trkpt>
      <trkpt lat="45.92479" lon="4.74621">
        <ele>171</ele>
        <time>2018-03-16T09:44:39Z</time>
      </trkpt>
      <trkpt lat="45.92475" lon="4.74626">
        <ele>171</ele>
        <time>2018-03-16T09:44:40Z</time>
      </trkpt>
      <trkpt lat="45.92471" lon="4.74632">
        <ele>171</ele>
        <time>2018-03-16T09:44:41Z</time>
      </trkpt>
      <trkpt lat="45.92467" lon="4.74637">
        <ele>171</ele>
        <time>2018-03-16T09:44:42Z</time>
      </trkpt>
      <trkpt lat="45.92463" lon="4.74643">
        <ele>171</ele>
        <time>2018-03-16T09:44:43Z</time>
      </trkpt>
      <trkpt lat="45.9246" lon="4.74649">
        <ele>171</ele>
        <time>2018-03-16T09:44:44Z</time>
      </trkpt>
      <trkpt lat="45.92457" lon="4.74655">
        <ele>171</ele>
        <time>2018-03-16T09:44:45Z</time>
      </trkpt>
      <trkpt lat="45.92454" lon="4.74661">
        <ele>171</ele>
        <time>2018-03-16T09:44:46Z</time>
      </trkpt>
      <trkpt lat="45.92452" lon="4.74668">
        <ele>171</ele>
        <time>2018-03-16T09:44:47Z</time>
      </trkpt>
      <trkpt lat="45.92449" lon="4.74676">
        <ele>171</ele>
        <time>2018-03-16T09:44:48Z</time>
      </trkpt>
      <trkpt lat="45.92443" lon="4.74683">
        <ele>171</ele>
        <time>2018-03-16T09:44:49Z</time>
      </trkpt>
      <trkpt lat="45.92439" lon="4.7469">
        <ele>171</ele>
        <time>2018-03-16T09:44:50Z</time>
      </trkpt>
      <trkpt lat="45.92436" lon="4.74698">
        <ele>171</ele>
        <time>2018-03-16T09:44:51Z</time>
      </trkpt>
      <trkpt lat="45.92434" lon="4.74704">
        <ele>171</ele>
        <time>2018-03-16T09:44:52Z</time>
      </trkpt>
      <trkpt lat="45.92432" lon="4.7471">
        <ele>171</ele>
        <time>2018-03-16T09:44:53Z</time>
      </trkpt>
      <trkpt lat="45.9243" lon="4.74717">
        <ele>171</ele>
        <time>2018-03-16T09:44:54Z</time>
      </trkpt>
      <trkpt lat="45.92428" lon="4.74723">
        <ele>171</ele>
        <time>2018-03-16T09:44:55Z</time>
      </trkpt>
      <trkpt lat="45.92425" lon="4.74731">
        <ele>171</ele>
        <time>2018-03-16T09:44:56Z</time>
      </trkpt>
      <trkpt lat="45.92422" lon="4.74738">
        <ele>171</ele>
        <time>2018-03-16T09:44:57Z</time>
      </trkpt>
      <trkpt lat="45.9242" lon="4.74745">
        <ele>172</ele>
        <time>2018-03-16T09:44:58Z</time>
      </trkpt>
      <trkpt lat="45.92417" lon="4.74753">
        <ele>172</ele>
        <time>2018-03-16T09:44:59Z</time>
      </trkpt>
      <trkpt lat="45.92414" lon="4.74761">
        <ele>172</ele>
        <time>2018-03-16T09:45:00Z</time>
      </trkpt>
      <trkpt lat="45.92412" lon="4.7477">
        <ele>172</ele>
        <time>2018-03-16T09:45:01Z</time>
      </trkpt>
      <trkpt lat="45.9241" lon="4.74779">
        <ele>171</ele>
        <time>2018-03-16T09:45:02Z</time>
      </trkpt>
      <trkpt lat="45.92407" lon="4.74786">
        <ele>171</ele>
        <time>2018-03-16T09:45:03Z</time>
      </trkpt>
      <trkpt lat="45.92405" lon="4.74794">
        <ele>171</ele>
        <time>2018-03-16T09:45:04Z</time>
      </trkpt>
      <trkpt lat="45.92404" lon="4.74801">
        <ele>171</ele>
        <time>2018-03-16T09:45:05Z</time>
      </trkpt>
      <trkpt lat="45.92402" lon="4.74809">
        <ele>171</ele>
        <time>2018-03-16T09:45:06Z</time>
      </trkpt>
      <trkpt lat="45.92401" lon="4.74817">
        <ele>171</ele>
        <time>2018-03-16T09:45:07Z</time>
      </trkpt>
      <trkpt lat="45.92399" lon="4.74824">
        <ele>171</ele>
        <time>2018-03-16T09:45:08Z</time>
      </trkpt>
      <trkpt lat="45.92397" lon="4.74833">
        <ele>171</ele>
        <time>2018-03-16T09:45:09Z</time>
      </trkpt>
      <trkpt lat="45.92395" lon="4.7484">
        <ele>171</ele>
        <time>2018-03-16T09:45:10Z</time>
      </trkpt>
      <trkpt lat="45.92393" lon="4.74848">
        <ele>171</ele>
        <time>2018-03-16T09:45:11Z</time>
      </trkpt>
      <trkpt lat="45.92391" lon="4.74855">
        <ele>171</ele>
        <time>2018-03-16T09:45:12Z</time>
      </trkpt>
      <trkpt lat="45.92388" lon="4.74863">
        <ele>171</ele>
        <time>2018-03-16T09:45:13Z</time>
      </trkpt>
      <trkpt lat="45.92386" lon="4.7487">
        <ele>171</ele>
        <time>2018-03-16T09:45:14Z</time>
      </trkpt>
      <trkpt lat="45.92383" lon="4.74876">
        <ele>171</ele>
        <time>2018-03-16T09:45:15Z</time>
      </trkpt>
      <trkpt lat="45.9238" lon="4.74884">
        <ele>171</ele>
        <time>2018-03-16T09:45:16Z</time>
      </trkpt>
      <trkpt lat="45.92377" lon="4.74891">
        <ele>171</ele>
        <time>2018-03-16T09:45:17Z</time>
      </trkpt>
      <trkpt lat="45.92375" lon="4.74899">
        <ele>171</ele>
        <time>2018-03-16T09:45:18Z</time>
      </trkpt>
      <trkpt lat="45.92372" lon="4.74906">
        <ele>171</ele>
        <time>2018-03-16T09:45:19Z</time>
      </trkpt>
      <trkpt lat="45.92369" lon="4.74914">
        <ele>171</ele>
        <time>2018-03-16T09:45:20Z</time>
      </trkpt>
      <trkpt lat="45.92367" lon="4.74921">
        <ele>170</ele>
        <time>2018-03-16T09:45:21Z</time>
      </trkpt>
      <trkpt lat="45.92364" lon="4.74929">
        <ele>170</ele>
        <time>2018-03-16T09:45:22Z</time>
      </trkpt>
      <trkpt lat="45.9236" lon="4.74936">
        <ele>170</ele>
        <time>2018-03-16T09:45:23Z</time>
      </trkpt>
      <trkpt lat="45.92358" lon="4.74943">
        <ele>170</ele>
        <time>2018-03-16T09:45:24Z</time>
      </trkpt>
      <trkpt lat="45.92355" lon="4.7495">
        <ele>170</ele>
        <time>2018-03-16T09:45:25Z</time>
      </trkpt>
      <trkpt lat="45.92352" lon="4.74958">
        <ele>170</ele>
        <time>2018-03-16T09:45:26Z</time>
      </trkpt>
      <trkpt lat="45.9235" lon="4.74965">
        <ele>170</ele>
        <time>2018-03-16T09:45:27Z</time>
      </trkpt>
      <trkpt lat="45.92347" lon="4.74972">
        <ele>170</ele>
        <time>2018-03-16T09:45:28Z</time>
      </trkpt>
      <trkpt lat="45.92345" lon="4.74978">
        <ele>170</ele>
        <time>2018-03-16T09:45:29Z</time>
      </trkpt>
      <trkpt lat="45.92342" lon="4.74986">
        <ele>170</ele>
        <time>2018-03-16T09:45:30Z</time>
      </trkpt>
      <trkpt lat="45.9234" lon="4.74993">
        <ele>170</ele>
        <time>2018-03-16T09:45:31Z</time>
      </trkpt>
      <trkpt lat="45.92338" lon="4.75001">
        <ele>170</ele>
        <time>2018-03-16T09:45:32Z</time>
      </trkpt>
      <trkpt lat="45.92335" lon="4.75008">
        <ele>170</ele>
        <time>2018-03-16T09:45:33Z</time>
      </trkpt>
      <trkpt lat="45.92331" lon="4.75015">
        <ele>171</ele>
        <time>2018-03-16T09:45:34Z</time>
      </trkpt>
      <trkpt lat="45.92328" lon="4.75021">
        <ele>171</ele>
        <time>2018-03-16T09:45:35Z</time>
      </trkpt>
      <trkpt lat="45.92325" lon="4.75028">
        <ele>171</ele>
        <time>2018-03-16T09:45:36Z</time>
      </trkpt>
      <trkpt lat="45.92321" lon="4.75034">
        <ele>171</ele>
        <time>2018-03-16T09:45:37Z</time>
      </trkpt>
      <trkpt lat="45.92317" lon="4.7504">
        <ele>172</ele>
        <time>2018-03-16T09:45:38Z</time>
      </trkpt>
      <trkpt lat="45.92313" lon="4.75046">
        <ele>172</ele>
        <time>2018-03-16T09:45:39Z</time>
      </trkpt>
      <trkpt lat="45.92309" lon="4.75052">
        <ele>172</ele>
        <time>2018-03-16T09:45:40Z</time>
      </trkpt>
      <trkpt lat="45.92305" lon="4.75057">
        <ele>172</ele>
        <time>2018-03-16T09:45:41Z</time>
      </trkpt>
      <trkpt lat="45.92301" lon="4.75063">
        <ele>172</ele>
        <time>2018-03-16T09:45:42Z</time>
      </trkpt>
      <trkpt lat="45.92297" lon="4.75067">
        <ele>172</ele>
        <time>2018-03-16T09:45:43Z</time>
      </trkpt>
      <trkpt lat="45.92293" lon="4.75073">
        <ele>172</ele>
        <time>2018-03-16T09:45:44Z</time>
      </trkpt>
      <trkpt lat="45.92289" lon="4.75077">
        <ele>172</ele>
        <time>2018-03-16T09:45:45Z</time>
      </trkpt>
      <trkpt lat="45.92284" lon="4.75082">
        <ele>172</ele>
        <time>2018-03-16T09:45:46Z</time>
      </trkpt>
      <trkpt lat="45.9228" lon="4.75086">
        <ele>173</ele>
        <time>2018-03-16T09:45:47Z</time>
      </trkpt>
      <trkpt lat="45.92276" lon="4.75091">
        <ele>173</ele>
        <time>2018-03-16T09:45:48Z</time>
      </trkpt>
      <trkpt lat="45.92271" lon="4.75096">
        <ele>173</ele>
        <time>2018-03-16T09:45:49Z</time>
      </trkpt>
      <trkpt lat="45.92267" lon="4.75101">
        <ele>173</ele>
        <time>2018-03-16T09:45:50Z</time>
      </trkpt>
      <trkpt lat="45.92262" lon="4.75106">
        <ele>174</ele>
        <time>2018-03-16T09:45:51Z</time>
      </trkpt>
      <trkpt lat="45.92258" lon="4.75111">
        <ele>174</ele>
        <time>2018-03-16T09:45:52Z</time>
      </trkpt>
      <trkpt lat="45.92254" lon="4.75115">
        <ele>174</ele>
        <time>2018-03-16T09:45:53Z</time>
      </trkpt>
      <trkpt lat="45.92249" lon="4.75121">
        <ele>174</ele>
        <time>2018-03-16T09:45:54Z</time>
      </trkpt>
      <trkpt lat="45.92245" lon="4.75125">
        <ele>174</ele>
        <time>2018-03-16T09:45:55Z</time>
      </trkpt>
      <trkpt lat="45.92241" lon="4.75131">
        <ele>174</ele>
        <time>2018-03-16T09:45:56Z</time>
      </trkpt>
      <trkpt lat="45.92238" lon="4.75136">
        <ele>174</ele>
        <time>2018-03-16T09:45:57Z</time>
      </trkpt>
      <trkpt lat="45.92234" lon="4.75141">
        <ele>174</ele>
        <time>2018-03-16T09:45:58Z</time>
      </trkpt>
      <trkpt lat="45.92231" lon="4.75147">
        <ele>174</ele>
        <time>2018-03-16T09:45:59Z</time>
      </trkpt>
      <trkpt lat="45.92228" lon="4.75152">
        <ele>174</ele>
        <time>2018-03-16T09:46:00Z</time>
      </trkpt>
      <trkpt lat="45.92226" lon="4.75159">
        <ele>174</ele>
        <time>2018-03-16T09:46:01Z</time>
      </trkpt>
      <trkpt lat="45.92223" lon="4.75165">
        <ele>174</ele>
        <time>2018-03-16T09:46:02Z</time>
      </trkpt>
      <trkpt lat="45.92219" lon="4.75176">
        <ele>175</ele>
        <time>2018-03-16T09:46:04Z</time>
      </trkpt>
      <trkpt lat="45.92218" lon="4.75183">
        <ele>175</ele>
        <time>2018-03-16T09:46:05Z</time>
      </trkpt>
      <trkpt lat="45.92217" lon="4.75191">
        <ele>175</ele>
        <time>2018-03-16T09:46:06Z</time>
      </trkpt>
      <trkpt lat="45.92215" lon="4.75197">
        <ele>175</ele>
        <time>2018-03-16T09:46:07Z</time>
      </trkpt>
      <trkpt lat="45.92214" lon="4.75204">
        <ele>175</ele>
        <time>2018-03-16T09:46:08Z</time>
      </trkpt>
      <trkpt lat="45.92212" lon="4.75211">
        <ele>175</ele>
        <time>2018-03-16T09:46:09Z</time>
      </trkpt>
      <trkpt lat="45.92211" lon="4.75217">
        <ele>175</ele>
        <time>2018-03-16T09:46:10Z</time>
      </trkpt>
      <trkpt lat="45.92211" lon="4.75224">
        <ele>175</ele>
        <time>2018-03-16T09:46:11Z</time>
      </trkpt>
      <trkpt lat="45.9221" lon="4.75231">
        <ele>175</ele>
        <time>2018-03-16T09:46:12Z</time>
      </trkpt>
      <trkpt lat="45.9221" lon="4.75238">
        <ele>175</ele>
        <time>2018-03-16T09:46:13Z</time>
      </trkpt>
      <trkpt lat="45.92211" lon="4.75247">
        <ele>175</ele>
        <time>2018-03-16T09:46:14Z</time>
      </trkpt>
      <trkpt lat="45.9221" lon="4.75251">
        <ele>175</ele>
        <time>2018-03-16T09:46:15Z</time>
      </trkpt>
      <trkpt lat="45.9221" lon="4.75264">
        <ele>176</ele>
        <time>2018-03-16T09:46:17Z</time>
      </trkpt>
      <trkpt lat="45.9221" lon="4.75271">
        <ele>176</ele>
        <time>2018-03-16T09:46:18Z</time>
      </trkpt>
      <trkpt lat="45.9221" lon="4.75278">
        <ele>176</ele>
        <time>2018-03-16T09:46:19Z</time>
      </trkpt>
      <trkpt lat="45.9221" lon="4.75284">
        <ele>176</ele>
        <time>2018-03-16T09:46:20Z</time>
      </trkpt>
      <trkpt lat="45.9221" lon="4.75296">
        <ele>176</ele>
        <time>2018-03-16T09:46:22Z</time>
      </trkpt>
      <trkpt lat="45.92209" lon="4.75301">
        <ele>176</ele>
        <time>2018-03-16T09:46:23Z</time>
      </trkpt>
      <trkpt lat="45.92209" lon="4.75308">
        <ele>176</ele>
        <time>2018-03-16T09:46:24Z</time>
      </trkpt>
      <trkpt lat="45.92209" lon="4.75314">
        <ele>176</ele>
        <time>2018-03-16T09:46:25Z</time>
      </trkpt>
      <trkpt lat="45.92207" lon="4.75326">
        <ele>176</ele>
        <time>2018-03-16T09:46:27Z</time>
      </trkpt>
      <trkpt lat="45.92207" lon="4.75333">
        <ele>176</ele>
        <time>2018-03-16T09:46:28Z</time>
      </trkpt>
      <trkpt lat="45.92204" lon="4.75345">
        <ele>177</ele>
        <time>2018-03-16T09:46:30Z</time>
      </trkpt>
      <trkpt lat="45.92203" lon="4.75352">
        <ele>177</ele>
        <time>2018-03-16T09:46:31Z</time>
      </trkpt>
      <trkpt lat="45.922" lon="4.75358">
        <ele>177</ele>
        <time>2018-03-16T09:46:32Z</time>
      </trkpt>
      <trkpt lat="45.92198" lon="4.75363">
        <ele>177</ele>
        <time>2018-03-16T09:46:33Z</time>
      </trkpt>
      <trkpt lat="45.92196" lon="4.7537">
        <ele>177</ele>
        <time>2018-03-16T09:46:34Z</time>
      </trkpt>
      <trkpt lat="45.92193" lon="4.75375">
        <ele>177</ele>
        <time>2018-03-16T09:46:35Z</time>
      </trkpt>
      <trkpt lat="45.92191" lon="4.75382">
        <ele>177</ele>
        <time>2018-03-16T09:46:36Z</time>
      </trkpt>
      <trkpt lat="45.92188" lon="4.75387">
        <ele>177</ele>
        <time>2018-03-16T09:46:37Z</time>
      </trkpt>
      <trkpt lat="45.92187" lon="4.75394">
        <ele>177</ele>
        <time>2018-03-16T09:46:38Z</time>
      </trkpt>
      <trkpt lat="45.92184" lon="4.754">
        <ele>177</ele>
        <time>2018-03-16T09:46:39Z</time>
      </trkpt>
      <trkpt lat="45.92181" lon="4.75407">
        <ele>177</ele>
        <time>2018-03-16T09:46:40Z</time>
      </trkpt>
      <trkpt lat="45.92178" lon="4.75414">
        <ele>177</ele>
        <time>2018-03-16T09:46:41Z</time>
      </trkpt>
      <trkpt lat="45.92175" lon="4.7542">
        <ele>177</ele>
        <time>2018-03-16T09:46:42Z</time>
      </trkpt>
      <trkpt lat="45.92172" lon="4.75428">
        <ele>177</ele>
        <time>2018-03-16T09:46:43Z</time>
      </trkpt>
      <trkpt lat="45.92169" lon="4.75435">
        <ele>177</ele>
        <time>2018-03-16T09:46:44Z</time>
      </trkpt>
      <trkpt lat="45.92166" lon="4.75442">
        <ele>177</ele>
        <time>2018-03-16T09:46:45Z</time>
      </trkpt>
      <trkpt lat="45.92163" lon="4.75449">
        <ele>176</ele>
        <time>2018-03-16T09:46:46Z</time>
      </trkpt>
      <trkpt lat="45.9216" lon="4.75458">
        <ele>176</ele>
        <time>2018-03-16T09:46:47Z</time>
      </trkpt>
      <trkpt lat="45.92157" lon="4.75466">
        <ele>176</ele>
        <time>2018-03-16T09:46:48Z</time>
      </trkpt>
      <trkpt lat="45.92154" lon="4.75473">
        <ele>176</ele>
        <time>2018-03-16T09:46:49Z</time>
      </trkpt>
      <trkpt lat="45.92151" lon="4.7548">
        <ele>176</ele>
        <time>2018-03-16T09:46:50Z</time>
      </trkpt>
      <trkpt lat="45.92148" lon="4.75487">
        <ele>176</ele>
        <time>2018-03-16T09:46:51Z</time>
      </trkpt>
      <trkpt lat="45.92144" lon="4.75493">
        <ele>176</ele>
        <time>2018-03-16T09:46:52Z</time>
      </trkpt>
      <trkpt lat="45.92141" lon="4.755">
        <ele>175</ele>
        <time>2018-03-16T09:46:53Z</time>
      </trkpt>
      <trkpt lat="45.92138" lon="4.75506">
        <ele>174</ele>
        <time>2018-03-16T09:46:54Z</time>
      </trkpt>
      <trkpt lat="45.92135" lon="4.75513">
        <ele>174</ele>
        <time>2018-03-16T09:46:55Z</time>
      </trkpt>
      <trkpt lat="45.92132" lon="4.75519">
        <ele>174</ele>
        <time>2018-03-16T09:46:56Z</time>
      </trkpt>
      <trkpt lat="45.92128" lon="4.75524">
        <ele>174</ele>
        <time>2018-03-16T09:46:57Z</time>
      </trkpt>
      <trkpt lat="45.92124" lon="4.75531">
        <ele>174</ele>
        <time>2018-03-16T09:46:58Z</time>
      </trkpt>
      <trkpt lat="45.9212" lon="4.75537">
        <ele>174</ele>
        <time>2018-03-16T09:46:59Z</time>
      </trkpt>
      <trkpt lat="45.92116" lon="4.75544">
        <ele>174</ele>
        <time>2018-03-16T09:47:00Z</time>
      </trkpt>
      <trkpt lat="45.92113" lon="4.75551">
        <ele>174</ele>
        <time>2018-03-16T09:47:01Z</time>
      </trkpt>
      <trkpt lat="45.92109" lon="4.75557">
        <ele>174</ele>
        <time>2018-03-16T09:47:02Z</time>
      </trkpt>
      <trkpt lat="45.92105" lon="4.75563">
        <ele>174</ele>
        <time>2018-03-16T09:47:03Z</time>
      </trkpt>
      <trkpt lat="45.92101" lon="4.75571">
        <ele>174</ele>
        <time>2018-03-16T09:47:04Z</time>
      </trkpt>
      <trkpt lat="45.92097" lon="4.75578">
        <ele>174</ele>
        <time>2018-03-16T09:47:05Z</time>
      </trkpt>
      <trkpt lat="45.92094" lon="4.75585">
        <ele>174</ele>
        <time>2018-03-16T09:47:06Z</time>
      </trkpt>
      <trkpt lat="45.9209" lon="4.75592">
        <ele>174</ele>
        <time>2018-03-16T09:47:07Z</time>
      </trkpt>
      <trkpt lat="45.92087" lon="4.75599">
        <ele>174</ele>
        <time>2018-03-16T09:47:08Z</time>
      </trkpt>
      <trkpt lat="45.92083" lon="4.75606">
        <ele>175</ele>
        <time>2018-03-16T09:47:09Z</time>
      </trkpt>
      <trkpt lat="45.9208" lon="4.75612">
        <ele>175</ele>
        <time>2018-03-16T09:47:10Z</time>
      </trkpt>
      <trkpt lat="45.92076" lon="4.75619">
        <ele>175</ele>
        <time>2018-03-16T09:47:11Z</time>
      </trkpt>
      <trkpt lat="45.92072" lon="4.75626">
        <ele>175</ele>
        <time>2018-03-16T09:47:12Z</time>
      </trkpt>
      <trkpt lat="45.92069" lon="4.75632">
        <ele>175</ele>
        <time>2018-03-16T09:47:13Z</time>
      </trkpt>
      <trkpt lat="45.92065" lon="4.75639">
        <ele>175</ele>
        <time>2018-03-16T09:47:14Z</time>
      </trkpt>
      <trkpt lat="45.92061" lon="4.75645">
        <ele>175</ele>
        <time>2018-03-16T09:47:15Z</time>
      </trkpt>
      <trkpt lat="45.92059" lon="4.75654">
        <ele>175</ele>
        <time>2018-03-16T09:47:16Z</time>
      </trkpt>
      <trkpt lat="45.92055" lon="4.7566">
        <ele>175</ele>
        <time>2018-03-16T09:47:17Z</time>
      </trkpt>
      <trkpt lat="45.92052" lon="4.75665">
        <ele>175</ele>
        <time>2018-03-16T09:47:18Z</time>
      </trkpt>
      <trkpt lat="45.92049" lon="4.75671">
        <ele>175</ele>
        <time>2018-03-16T09:47:19Z</time>
      </trkpt>
      <trkpt lat="45.92046" lon="4.75676">
        <ele>175</ele>
        <time>2018-03-16T09:47:20Z</time>
      </trkpt>
      <trkpt lat="45.92043" lon="4.75683">
        <ele>175</ele>
        <time>2018-03-16T09:47:21Z</time>
      </trkpt>
      <trkpt lat="45.9204" lon="4.75688">
        <ele>175</ele>
        <time>2018-03-16T09:47:22Z</time>
      </trkpt>
      <trkpt lat="45.92036" lon="4.75695">
        <ele>175</ele>
        <time>2018-03-16T09:47:23Z</time>
      </trkpt>
      <trkpt lat="45.92033" lon="4.75701">
        <ele>175</ele>
        <time>2018-03-16T09:47:24Z</time>
      </trkpt>
      <trkpt lat="45.9203" lon="4.75708">
        <ele>175</ele>
        <time>2018-03-16T09:47:25Z</time>
      </trkpt>
      <trkpt lat="45.92026" lon="4.75714">
        <ele>175</ele>
        <time>2018-03-16T09:47:26Z</time>
      </trkpt>
      <trkpt lat="45.92023" lon="4.75721">
        <ele>175</ele>
        <time>2018-03-16T09:47:27Z</time>
      </trkpt>
      <trkpt lat="45.9202" lon="4.75727">
        <ele>175</ele>
        <time>2018-03-16T09:47:28Z</time>
      </trkpt>
      <trkpt lat="45.92016" lon="4.75732">
        <ele>175</ele>
        <time>2018-03-16T09:47:29Z</time>
      </trkpt>
      <trkpt lat="45.92012" lon="4.75739">
        <ele>174</ele>
        <time>2018-03-16T09:47:30Z</time>
      </trkpt>
      <trkpt lat="45.92008" lon="4.75746">
        <ele>174</ele>
        <time>2018-03-16T09:47:31Z</time>
      </trkpt>
      <trkpt lat="45.92005" lon="4.75751">
        <ele>174</ele>
        <time>2018-03-16T09:47:32Z</time>
      </trkpt>
      <trkpt lat="45.92001" lon="4.75759">
        <ele>174</ele>
        <time>2018-03-16T09:47:33Z</time>
      </trkpt>
      <trkpt lat="45.91998" lon="4.75765">
        <ele>174</ele>
        <time>2018-03-16T09:47:34Z</time>
      </trkpt>
      <trkpt lat="45.91995" lon="4.75772">
        <ele>174</ele>
        <time>2018-03-16T09:47:35Z</time>
      </trkpt>
      <trkpt lat="45.91991" lon="4.75778">
        <ele>174</ele>
        <time>2018-03-16T09:47:36Z</time>
      </trkpt>
      <trkpt lat="45.91987" lon="4.75786">
        <ele>173</ele>
        <time>2018-03-16T09:47:37Z</time>
      </trkpt>
      <trkpt lat="45.91984" lon="4.75792">
        <ele>173</ele>
        <time>2018-03-16T09:47:38Z</time>
      </trkpt>
      <trkpt lat="45.9198" lon="4.75798">
        <ele>173</ele>
        <time>2018-03-16T09:47:39Z</time>
      </trkpt>
      <trkpt lat="45.91977" lon="4.75805">
        <ele>173</ele>
        <time>2018-03-16T09:47:40Z</time>
      </trkpt>
      <trkpt lat="45.91972" lon="4.75811">
        <ele>173</ele>
        <time>2018-03-16T09:47:41Z</time>
      </trkpt>
      <trkpt lat="45.91969" lon="4.75817">
        <ele>173</ele>
        <time>2018-03-16T09:47:42Z</time>
      </trkpt>
      <trkpt lat="45.91964" lon="4.75822">
        <ele>173</ele>
        <time>2018-03-16T09:47:43Z</time>
      </trkpt>
      <trkpt lat="45.9196" lon="4.7583">
        <ele>173</ele>
        <time>2018-03-16T09:47:44Z</time>
      </trkpt>
      <trkpt lat="45.91956" lon="4.75837">
        <ele>172</ele>
        <time>2018-03-16T09:47:45Z</time>
      </trkpt>
      <trkpt lat="45.91952" lon="4.75844">
        <ele>172</ele>
        <time>2018-03-16T09:47:46Z</time>
      </trkpt>
      <trkpt lat="45.91948" lon="4.75851">
        <ele>172</ele>
        <time>2018-03-16T09:47:47Z</time>
      </trkpt>
      <trkpt lat="45.91945" lon="4.75858">
        <ele>172</ele>
        <time>2018-03-16T09:47:48Z</time>
      </trkpt>
      <trkpt lat="45.91941" lon="4.75865">
        <ele>172</ele>
        <time>2018-03-16T09:47:49Z</time>
      </trkpt>
      <trkpt lat="45.91938" lon="4.75871">
        <ele>172</ele>
        <time>2018-03-16T09:47:50Z</time>
      </trkpt>
      <trkpt lat="45.91934" lon="4.75877">
        <ele>172</ele>
        <time>2018-03-16T09:47:51Z</time>
      </trkpt>
      <trkpt lat="45.91933" lon="4.75883">
        <ele>172</ele>
        <time>2018-03-16T09:47:52Z</time>
      </trkpt>
      <trkpt lat="45.9193" lon="4.7589">
        <ele>172</ele>
        <time>2018-03-16T09:47:53Z</time>
      </trkpt>
      <trkpt lat="45.91926" lon="4.75897">
        <ele>172</ele>
        <time>2018-03-16T09:47:54Z</time>
      </trkpt>
      <trkpt lat="45.91924" lon="4.75905">
        <ele>172</ele>
        <time>2018-03-16T09:47:55Z</time>
      </trkpt>
      <trkpt lat="45.91922" lon="4.75911">
        <ele>172</ele>
        <time>2018-03-16T09:47:56Z</time>
      </trkpt>
      <trkpt lat="45.9192" lon="4.75918">
        <ele>172</ele>
        <time>2018-03-16T09:47:57Z</time>
      </trkpt>
      <trkpt lat="45.91918" lon="4.75924">
        <ele>172</ele>
        <time>2018-03-16T09:47:58Z</time>
      </trkpt>
      <trkpt lat="45.91916" lon="4.75932">
        <ele>173</ele>
        <time>2018-03-16T09:47:59Z</time>
      </trkpt>
      <trkpt lat="45.91913" lon="4.75939">
        <ele>173</ele>
        <time>2018-03-16T09:48:00Z</time>
      </trkpt>
      <trkpt lat="45.91912" lon="4.75946">
        <ele>173</ele>
        <time>2018-03-16T09:48:01Z</time>
      </trkpt>
      <trkpt lat="45.9191" lon="4.75953">
        <ele>173</ele>
        <time>2018-03-16T09:48:02Z</time>
      </trkpt>
      <trkpt lat="45.91908" lon="4.75961">
        <ele>173</ele>
        <time>2018-03-16T09:48:03Z</time>
      </trkpt>
      <trkpt lat="45.91907" lon="4.75969">
        <ele>173</ele>
        <time>2018-03-16T09:48:04Z</time>
      </trkpt>
      <trkpt lat="45.91905" lon="4.75976">
        <ele>173</ele>
        <time>2018-03-16T09:48:05Z</time>
      </trkpt>
      <trkpt lat="45.91903" lon="4.75984">
        <ele>173</ele>
        <time>2018-03-16T09:48:06Z</time>
      </trkpt>
      <trkpt lat="45.91901" lon="4.75991">
        <ele>173</ele>
        <time>2018-03-16T09:48:07Z</time>
      </trkpt>
      <trkpt lat="45.91899" lon="4.75998">
        <ele>173</ele>
        <time>2018-03-16T09:48:08Z</time>
      </trkpt>
      <trkpt lat="45.91898" lon="4.76005">
        <ele>173</ele>
        <time>2018-03-16T09:48:09Z</time>
      </trkpt>
      <trkpt lat="45.91896" lon="4.76013">
        <ele>173</ele>
        <time>2018-03-16T09:48:10Z</time>
      </trkpt>
      <trkpt lat="45.91894" lon="4.7602">
        <ele>173</ele>
        <time>2018-03-16T09:48:11Z</time>
      </trkpt>
      <trkpt lat="45.91892" lon="4.76027">
        <ele>173</ele>
        <time>2018-03-16T09:48:12Z</time>
      </trkpt>
      <trkpt lat="45.91889" lon="4.76035">
        <ele>173</ele>
        <time>2018-03-16T09:48:13Z</time>
      </trkpt>
      <trkpt lat="45.91887" lon="4.76041">
        <ele>173</ele>
        <time>2018-03-16T09:48:14Z</time>
      </trkpt>
      <trkpt lat="45.91885" lon="4.76048">
        <ele>173</ele>
        <time>2018-03-16T09:48:15Z</time>
      </trkpt>
      <trkpt lat="45.91882" lon="4.76055">
        <ele>173</ele>
        <time>2018-03-16T09:48:16Z</time>
      </trkpt>
      <trkpt lat="45.9188" lon="4.76062">
        <ele>173</ele>
        <time>2018-03-16T09:48:17Z</time>
      </trkpt>
      <trkpt lat="45.91878" lon="4.7607">
        <ele>173</ele>
        <time>2018-03-16T09:48:18Z</time>
      </trkpt>
      <trkpt lat="45.91877" lon="4.76077">
        <ele>173</ele>
        <time>2018-03-16T09:48:19Z</time>
      </trkpt>
      <trkpt lat="45.91875" lon="4.76084">
        <ele>173</ele>
        <time>2018-03-16T09:48:20Z</time>
      </trkpt>
      <trkpt lat="45.91873" lon="4.76092">
        <ele>173</ele>
        <time>2018-03-16T09:48:21Z</time>
      </trkpt>
      <trkpt lat="45.91872" lon="4.76099">
        <ele>173</ele>
        <time>2018-03-16T09:48:22Z</time>
      </trkpt>
      <trkpt lat="45.91869" lon="4.76107">
        <ele>173</ele>
        <time>2018-03-16T09:48:23Z</time>
      </trkpt>
      <trkpt lat="45.91867" lon="4.76115">
        <ele>173</ele>
        <time>2018-03-16T09:48:24Z</time>
      </trkpt>
      <trkpt lat="45.91865" lon="4.76123">
        <ele>173</ele>
        <time>2018-03-16T09:48:25Z</time>
      </trkpt>
      <trkpt lat="45.91863" lon="4.76132">
        <ele>173</ele>
        <time>2018-03-16T09:48:26Z</time>
      </trkpt>
      <trkpt lat="45.91861" lon="4.7614">
        <ele>173</ele>
        <time>2018-03-16T09:48:27Z</time>
      </trkpt>
      <trkpt lat="45.9186" lon="4.76148">
        <ele>173</ele>
        <time>2018-03-16T09:48:28Z</time>
      </trkpt>
      <trkpt lat="45.91858" lon="4.76155">
        <ele>173</ele>
        <time>2018-03-16T09:48:29Z</time>
      </trkpt>
      <trkpt lat="45.91855" lon="4.76163">
        <ele>173</ele>
        <time>2018-03-16T09:48:30Z</time>
      </trkpt>
      <trkpt lat="45.91854" lon="4.7617">
        <ele>172</ele>
        <time>2018-03-16T09:48:31Z</time>
      </trkpt>
      <trkpt lat="45.91853" lon="4.76177">
        <ele>172</ele>
        <time>2018-03-16T09:48:32Z</time>
      </trkpt>
      <trkpt lat="45.91851" lon="4.76184">
        <ele>172</ele>
        <time>2018-03-16T09:48:33Z</time>
      </trkpt>
      <trkpt lat="45.91849" lon="4.76192">
        <ele>172</ele>
        <time>2018-03-16T09:48:34Z</time>
      </trkpt>
      <trkpt lat="45.91847" lon="4.76199">
        <ele>172</ele>
        <time>2018-03-16T09:48:35Z</time>
      </trkpt>
      <trkpt lat="45.91845" lon="4.76207">
        <ele>172</ele>
        <time>2018-03-16T09:48:36Z</time>
      </trkpt>
      <trkpt lat="45.91843" lon="4.76215">
        <ele>172</ele>
        <time>2018-03-16T09:48:37Z</time>
      </trkpt>
      <trkpt lat="45.91841" lon="4.76222">
        <ele>172</ele>
        <time>2018-03-16T09:48:38Z</time>
      </trkpt>
      <trkpt lat="45.91839" lon="4.7623">
        <ele>172</ele>
        <time>2018-03-16T09:48:39Z</time>
      </trkpt>
      <trkpt lat="45.91837" lon="4.76238">
        <ele>173</ele>
        <time>2018-03-16T09:48:40Z</time>
      </trkpt>
      <trkpt lat="45.91835" lon="4.76245">
        <ele>173</ele>
        <time>2018-03-16T09:48:41Z</time>
      </trkpt>
      <trkpt lat="45.91833" lon="4.76253">
        <ele>173</ele>
        <time>2018-03-16T09:48:42Z</time>
      </trkpt>
      <trkpt lat="45.9183" lon="4.7626">
        <ele>174</ele>
        <time>2018-03-16T09:48:43Z</time>
      </trkpt>
      <trkpt lat="45.91828" lon="4.76267">
        <ele>174</ele>
        <time>2018-03-16T09:48:44Z</time>
      </trkpt>
      <trkpt lat="45.91826" lon="4.76275">
        <ele>174</ele>
        <time>2018-03-16T09:48:45Z</time>
      </trkpt>
      <trkpt lat="45.91824" lon="4.76282">
        <ele>174</ele>
        <time>2018-03-16T09:48:46Z</time>
      </trkpt>
      <trkpt lat="45.91822" lon="4.76289">
        <ele>174</ele>
        <time>2018-03-16T09:48:47Z</time>
      </trkpt>
      <trkpt lat="45.91821" lon="4.76297">
        <ele>174</ele>
        <time>2018-03-16T09:48:48Z</time>
      </trkpt>
      <trkpt lat="45.91819" lon="4.76304">
        <ele>174</ele>
        <time>2018-03-16T09:48:49Z</time>
      </trkpt>
      <trkpt lat="45.91817" lon="4.76312">
        <ele>174</ele>
        <time>2018-03-16T09:48:50Z</time>
      </trkpt>
      <trkpt lat="45.91816" lon="4.76319">
        <ele>174</ele>
        <time>2018-03-16T09:48:51Z</time>
      </trkpt>
      <trkpt lat="45.91814" lon="4.76325">
        <ele>174</ele>
        <time>2018-03-16T09:48:52Z</time>
      </trkpt>
      <trkpt lat="45.91815" lon="4.76332">
        <ele>174</ele>
        <time>2018-03-16T09:48:53Z</time>
      </trkpt>
      <trkpt lat="45.91813" lon="4.7634">
        <ele>174</ele>
        <time>2018-03-16T09:48:54Z</time>
      </trkpt>
      <trkpt lat="45.91814" lon="4.76348">
        <ele>174</ele>
        <time>2018-03-16T09:48:55Z</time>
      </trkpt>
      <trkpt lat="45.91813" lon="4.76355">
        <ele>174</ele>
        <time>2018-03-16T09:48:56Z</time>
      </trkpt>
      <trkpt lat="45.91812" lon="4.76362">
        <ele>174</ele>
        <time>2018-03-16T09:48:57Z</time>
      </trkpt>
      <trkpt lat="45.91811" lon="4.76371">
        <ele>174</ele>
        <time>2018-03-16T09:48:58Z</time>
      </trkpt>
      <trkpt lat="45.91811" lon="4.76379">
        <ele>174</ele>
        <time>2018-03-16T09:48:59Z</time>
      </trkpt>
      <trkpt lat="45.91809" lon="4.76385">
        <ele>174</ele>
        <time>2018-03-16T09:49:00Z</time>
      </trkpt>
      <trkpt lat="45.91808" lon="4.76393">
        <ele>174</ele>
        <time>2018-03-16T09:49:01Z</time>
      </trkpt>
      <trkpt lat="45.91808" lon="4.76401">
        <ele>173</ele>
        <time>2018-03-16T09:49:02Z</time>
      </trkpt>
      <trkpt lat="45.91808" lon="4.76408">
        <ele>173</ele>
        <time>2018-03-16T09:49:03Z</time>
      </trkpt>
      <trkpt lat="45.91808" lon="4.76415">
        <ele>173</ele>
        <time>2018-03-16T09:49:04Z</time>
      </trkpt>
      <trkpt lat="45.91808" lon="4.76424">
        <ele>173</ele>
        <time>2018-03-16T09:49:05Z</time>
      </trkpt>
      <trkpt lat="45.91807" lon="4.76431">
        <ele>173</ele>
        <time>2018-03-16T09:49:06Z</time>
      </trkpt>
      <trkpt lat="45.91807" lon="4.76438">
        <ele>173</ele>
        <time>2018-03-16T09:49:07Z</time>
      </trkpt>
      <trkpt lat="45.91807" lon="4.76446">
        <ele>173</ele>
        <time>2018-03-16T09:49:08Z</time>
      </trkpt>
      <trkpt lat="45.91806" lon="4.76452">
        <ele>173</ele>
        <time>2018-03-16T09:49:09Z</time>
      </trkpt>
      <trkpt lat="45.91806" lon="4.7646">
        <ele>173</ele>
        <time>2018-03-16T09:49:10Z</time>
      </trkpt>
      <trkpt lat="45.91804" lon="4.76465">
        <ele>173</ele>
        <time>2018-03-16T09:49:11Z</time>
      </trkpt>
      <trkpt lat="45.91803" lon="4.76471">
        <ele>173</ele>
        <time>2018-03-16T09:49:12Z</time>
      </trkpt>
      <trkpt lat="45.91803" lon="4.76479">
        <ele>173</ele>
        <time>2018-03-16T09:49:13Z</time>
      </trkpt>
      <trkpt lat="45.91802" lon="4.76485">
        <ele>173</ele>
        <time>2018-03-16T09:49:14Z</time>
      </trkpt>
      <trkpt lat="45.91801" lon="4.76492">
        <ele>173</ele>
        <time>2018-03-16T09:49:15Z</time>
      </trkpt>
      <trkpt lat="45.91801" lon="4.76499">
        <ele>173</ele>
        <time>2018-03-16T09:49:16Z</time>
      </trkpt>
      <trkpt lat="45.91801" lon="4.76507">
        <ele>173</ele>
        <time>2018-03-16T09:49:17Z</time>
      </trkpt>
      <trkpt lat="45.918" lon="4.76515">
        <ele>173</ele>
        <time>2018-03-16T09:49:18Z</time>
      </trkpt>
      <trkpt lat="45.91799" lon="4.76522">
        <ele>173</ele>
        <time>2018-03-16T09:49:19Z</time>
      </trkpt>
      <trkpt lat="45.91798" lon="4.7653">
        <ele>173</ele>
        <time>2018-03-16T09:49:20Z</time>
      </trkpt>
      <trkpt lat="45.91798" lon="4.76537">
        <ele>173</ele>
        <time>2018-03-16T09:49:21Z</time>
      </trkpt>
      <trkpt lat="45.91797" lon="4.76544">
        <ele>173</ele>
        <time>2018-03-16T09:49:22Z</time>
      </trkpt>
      <trkpt lat="45.91796" lon="4.76552">
        <ele>173</ele>
        <time>2018-03-16T09:49:23Z</time>
      </trkpt>
      <trkpt lat="45.91795" lon="4.7656">
        <ele>173</ele>
        <time>2018-03-16T09:49:24Z</time>
      </trkpt>
      <trkpt lat="45.91794" lon="4.76567">
        <ele>173</ele>
        <time>2018-03-16T09:49:25Z</time>
      </trkpt>
      <trkpt lat="45.91794" lon="4.76575">
        <ele>173</ele>
        <time>2018-03-16T09:49:26Z</time>
      </trkpt>
      <trkpt lat="45.91793" lon="4.76583">
        <ele>173</ele>
        <time>2018-03-16T09:49:27Z</time>
      </trkpt>
      <trkpt lat="45.91792" lon="4.76592">
        <ele>173</ele>
        <time>2018-03-16T09:49:28Z</time>
      </trkpt>
      <trkpt lat="45.9179" lon="4.766">
        <ele>173</ele>
        <time>2018-03-16T09:49:29Z</time>
      </trkpt>
      <trkpt lat="45.91789" lon="4.76608">
        <ele>173</ele>
        <time>2018-03-16T09:49:30Z</time>
      </trkpt>
      <trkpt lat="45.91789" lon="4.76616">
        <ele>173</ele>
        <time>2018-03-16T09:49:31Z</time>
      </trkpt>
      <trkpt lat="45.91787" lon="4.76623">
        <ele>173</ele>
        <time>2018-03-16T09:49:32Z</time>
      </trkpt>
      <trkpt lat="45.91786" lon="4.76631">
        <ele>173</ele>
        <time>2018-03-16T09:49:33Z</time>
      </trkpt>
      <trkpt lat="45.91784" lon="4.76639">
        <ele>173</ele>
        <time>2018-03-16T09:49:34Z</time>
      </trkpt>
      <trkpt lat="45.91783" lon="4.76647">
        <ele>173</ele>
        <time>2018-03-16T09:49:35Z</time>
      </trkpt>
      <trkpt lat="45.91783" lon="4.76655">
        <ele>173</ele>
        <time>2018-03-16T09:49:36Z</time>
      </trkpt>
      <trkpt lat="45.91782" lon="4.76664">
        <ele>173</ele>
        <time>2018-03-16T09:49:37Z</time>
      </trkpt>
      <trkpt lat="45.91781" lon="4.76673">
        <ele>172</ele>
        <time>2018-03-16T09:49:38Z</time>
      </trkpt>
      <trkpt lat="45.9178" lon="4.76681">
        <ele>172</ele>
        <time>2018-03-16T09:49:39Z</time>
      </trkpt>
      <trkpt lat="45.91778" lon="4.7669">
        <ele>172</ele>
        <time>2018-03-16T09:49:40Z</time>
      </trkpt>
      <trkpt lat="45.91778" lon="4.76699">
        <ele>172</ele>
        <time>2018-03-16T09:49:41Z</time>
      </trkpt>
      <trkpt lat="45.91778" lon="4.76709">
        <ele>172</ele>
        <time>2018-03-16T09:49:42Z</time>
      </trkpt>
      <trkpt lat="45.91776" lon="4.76718">
        <ele>172</ele>
        <time>2018-03-16T09:49:43Z</time>
      </trkpt>
      <trkpt lat="45.91775" lon="4.76726">
        <ele>172</ele>
        <time>2018-03-16T09:49:44Z</time>
      </trkpt>
      <trkpt lat="45.91774" lon="4.76735">
        <ele>172</ele>
        <time>2018-03-16T09:49:45Z</time>
      </trkpt>
      <trkpt lat="45.91774" lon="4.76743">
        <ele>172</ele>
        <time>2018-03-16T09:49:46Z</time>
      </trkpt>
      <trkpt lat="45.91774" lon="4.76751">
        <ele>171</ele>
        <time>2018-03-16T09:49:47Z</time>
      </trkpt>
      <trkpt lat="45.91774" lon="4.76759">
        <ele>171</ele>
        <time>2018-03-16T09:49:48Z</time>
      </trkpt>
      <trkpt lat="45.91773" lon="4.76768">
        <ele>171</ele>
        <time>2018-03-16T09:49:49Z</time>
      </trkpt>
      <trkpt lat="45.91773" lon="4.76777">
        <ele>171</ele>
        <time>2018-03-16T09:49:50Z</time>
      </trkpt>
      <trkpt lat="45.91773" lon="4.76785">
        <ele>171</ele>
        <time>2018-03-16T09:49:51Z</time>
      </trkpt>
      <trkpt lat="45.91774" lon="4.76795">
        <ele>171</ele>
        <time>2018-03-16T09:49:52Z</time>
      </trkpt>
      <trkpt lat="45.91773" lon="4.76805">
        <ele>171</ele>
        <time>2018-03-16T09:49:53Z</time>
      </trkpt>
      <trkpt lat="45.91774" lon="4.76814">
        <ele>171</ele>
        <time>2018-03-16T09:49:54Z</time>
      </trkpt>
      <trkpt lat="45.91774" lon="4.76823">
        <ele>171</ele>
        <time>2018-03-16T09:49:55Z</time>
      </trkpt>
      <trkpt lat="45.91774" lon="4.76833">
        <ele>171</ele>
        <time>2018-03-16T09:49:56Z</time>
      </trkpt>
      <trkpt lat="45.91773" lon="4.76842">
        <ele>171</ele>
        <time>2018-03-16T09:49:57Z</time>
      </trkpt>
      <trkpt lat="45.91772" lon="4.76852">
        <ele>170</ele>
        <time>2018-03-16T09:49:58Z</time>
      </trkpt>
      <trkpt lat="45.91772" lon="4.76862">
        <ele>170</ele>
        <time>2018-03-16T09:49:59Z</time>
      </trkpt>
      <trkpt lat="45.91771" lon="4.76872">
        <ele>170</ele>
        <time>2018-03-16T09:50:00Z</time>
      </trkpt>
      <trkpt lat="45.91771" lon="4.76882">
        <ele>170</ele>
        <time>2018-03-16T09:50:01Z</time>
      </trkpt>
      <trkpt lat="45.9177" lon="4.76892">
        <ele>170</ele>
        <time>2018-03-16T09:50:02Z</time>
      </trkpt>
      <trkpt lat="45.91771" lon="4.76904">
        <ele>170</ele>
        <time>2018-03-16T09:50:03Z</time>
      </trkpt>
      <trkpt lat="45.91771" lon="4.76914">
        <ele>171</ele>
        <time>2018-03-16T09:50:04Z</time>
      </trkpt>
      <trkpt lat="45.9177" lon="4.76924">
        <ele>170</ele>
        <time>2018-03-16T09:50:05Z</time>
      </trkpt>
      <trkpt lat="45.9177" lon="4.76933">
        <ele>170</ele>
        <time>2018-03-16T09:50:06Z</time>
      </trkpt>
      <trkpt lat="45.91769" lon="4.76943">
        <ele>169</ele>
        <time>2018-03-16T09:50:07Z</time>
      </trkpt>
      <trkpt lat="45.91768" lon="4.76952">
        <ele>169</ele>
        <time>2018-03-16T09:50:08Z</time>
      </trkpt>
      <trkpt lat="45.91766" lon="4.76961">
        <ele>169</ele>
        <time>2018-03-16T09:50:09Z</time>
      </trkpt>
      <trkpt lat="45.91764" lon="4.7697">
        <ele>169</ele>
        <time>2018-03-16T09:50:10Z</time>
      </trkpt>
      <trkpt lat="45.91763" lon="4.76979">
        <ele>169</ele>
        <time>2018-03-16T09:50:11Z</time>
      </trkpt>
      <trkpt lat="45.91761" lon="4.76987">
        <ele>169</ele>
        <time>2018-03-16T09:50:12Z</time>
      </trkpt>
      <trkpt lat="45.91761" lon="4.76994">
        <ele>169</ele>
        <time>2018-03-16T09:50:13Z</time>
      </trkpt>
      <trkpt lat="45.91759" lon="4.77003">
        <ele>169</ele>
        <time>2018-03-16T09:50:14Z</time>
      </trkpt>
      <trkpt lat="45.91758" lon="4.77013">
        <ele>169</ele>
        <time>2018-03-16T09:50:15Z</time>
      </trkpt>
      <trkpt lat="45.91757" lon="4.77023">
        <ele>169</ele>
        <time>2018-03-16T09:50:16Z</time>
      </trkpt>
      <trkpt lat="45.91756" lon="4.77031">
        <ele>169</ele>
        <time>2018-03-16T09:50:17Z</time>
      </trkpt>
      <trkpt lat="45.91755" lon="4.7704">
        <ele>169</ele>
        <time>2018-03-16T09:50:18Z</time>
      </trkpt>
      <trkpt lat="45.91754" lon="4.77048">
        <ele>169</ele>
        <time>2018-03-16T09:50:19Z</time>
      </trkpt>
      <trkpt lat="45.91753" lon="4.77057">
        <ele>169</ele>
        <time>2018-03-16T09:50:20Z</time>
      </trkpt>
      <trkpt lat="45.91751" lon="4.77066">
        <ele>169</ele>
        <time>2018-03-16T09:50:21Z</time>
      </trkpt>
      <trkpt lat="45.9175" lon="4.77075">
        <ele>170</ele>
        <time>2018-03-16T09:50:22Z</time>
      </trkpt>
      <trkpt lat="45.91749" lon="4.77083">
        <ele>169</ele>
        <time>2018-03-16T09:50:23Z</time>
      </trkpt>
      <trkpt lat="45.91747" lon="4.77091">
        <ele>169</ele>
        <time>2018-03-16T09:50:24Z</time>
      </trkpt>
      <trkpt lat="45.91746" lon="4.77101">
        <ele>170</ele>
        <time>2018-03-16T09:50:25Z</time>
      </trkpt>
      <trkpt lat="45.91745" lon="4.77111">
        <ele>170</ele>
        <time>2018-03-16T09:50:26Z</time>
      </trkpt>
      <trkpt lat="45.91744" lon="4.77119">
        <ele>170</ele>
        <time>2018-03-16T09:50:27Z</time>
      </trkpt>
      <trkpt lat="45.91742" lon="4.77127">
        <ele>170</ele>
        <time>2018-03-16T09:50:28Z</time>
      </trkpt>
      <trkpt lat="45.91741" lon="4.77137">
        <ele>170</ele>
        <time>2018-03-16T09:50:29Z</time>
      </trkpt>
      <trkpt lat="45.9174" lon="4.77145">
        <ele>170</ele>
        <time>2018-03-16T09:50:30Z</time>
      </trkpt>
      <trkpt lat="45.91739" lon="4.77153">
        <ele>170</ele>
        <time>2018-03-16T09:50:31Z</time>
      </trkpt>
      <trkpt lat="45.91737" lon="4.77162">
        <ele>170</ele>
        <time>2018-03-16T09:50:32Z</time>
      </trkpt>
      <trkpt lat="45.91736" lon="4.7717">
        <ele>170</ele>
        <time>2018-03-16T09:50:33Z</time>
      </trkpt>
      <trkpt lat="45.91735" lon="4.77178">
        <ele>170</ele>
        <time>2018-03-16T09:50:34Z</time>
      </trkpt>
      <trkpt lat="45.91734" lon="4.77187">
        <ele>170</ele>
        <time>2018-03-16T09:50:35Z</time>
      </trkpt>
      <trkpt lat="45.91733" lon="4.77195">
        <ele>170</ele>
        <time>2018-03-16T09:50:36Z</time>
      </trkpt>
      <trkpt lat="45.91732" lon="4.77205">
        <ele>170</ele>
        <time>2018-03-16T09:50:37Z</time>
      </trkpt>
      <trkpt lat="45.91732" lon="4.77215">
        <ele>170</ele>
        <time>2018-03-16T09:50:38Z</time>
      </trkpt>
      <trkpt lat="45.91731" lon="4.77224">
        <ele>170</ele>
        <time>2018-03-16T09:50:39Z</time>
      </trkpt>
      <trkpt lat="45.91729" lon="4.77232">
        <ele>170</ele>
        <time>2018-03-16T09:50:40Z</time>
      </trkpt>
      <trkpt lat="45.91728" lon="4.77241">
        <ele>169</ele>
        <time>2018-03-16T09:50:41Z</time>
      </trkpt>
      <trkpt lat="45.91727" lon="4.77249">
        <ele>169</ele>
        <time>2018-03-16T09:50:42Z</time>
      </trkpt>
      <trkpt lat="45.91725" lon="4.77258">
        <ele>170</ele>
        <time>2018-03-16T09:50:43Z</time>
      </trkpt>
      <trkpt lat="45.91724" lon="4.77265">
        <ele>170</ele>
        <time>2018-03-16T09:50:44Z</time>
      </trkpt>
      <trkpt lat="45.91722" lon="4.77274">
        <ele>170</ele>
        <time>2018-03-16T09:50:45Z</time>
      </trkpt>
      <trkpt lat="45.91722" lon="4.7728">
        <ele>170</ele>
        <time>2018-03-16T09:50:46Z</time>
      </trkpt>
      <trkpt lat="45.91721" lon="4.77288">
        <ele>170</ele>
        <time>2018-03-16T09:50:47Z</time>
      </trkpt>
      <trkpt lat="45.9172" lon="4.77295">
        <ele>170</ele>
        <time>2018-03-16T09:50:48Z</time>
      </trkpt>
      <trkpt lat="45.91719" lon="4.77303">
        <ele>170</ele>
        <time>2018-03-16T09:50:49Z</time>
      </trkpt>
      <trkpt lat="45.91718" lon="4.77312">
        <ele>170</ele>
        <time>2018-03-16T09:50:50Z</time>
      </trkpt>
      <trkpt lat="45.91717" lon="4.7732">
        <ele>170</ele>
        <time>2018-03-16T09:50:51Z</time>
      </trkpt>
      <trkpt lat="45.91714" lon="4.77328">
        <ele>170</ele>
        <time>2018-03-16T09:50:52Z</time>
      </trkpt>
      <trkpt lat="45.91712" lon="4.77336">
        <ele>171</ele>
        <time>2018-03-16T09:50:53Z</time>
      </trkpt>
      <trkpt lat="45.91712" lon="4.77344">
        <ele>171</ele>
        <time>2018-03-16T09:50:54Z</time>
      </trkpt>
      <trkpt lat="45.91711" lon="4.7735">
        <ele>171</ele>
        <time>2018-03-16T09:50:55Z</time>
      </trkpt>
      <trkpt lat="45.9171" lon="4.77357">
        <ele>171</ele>
        <time>2018-03-16T09:50:56Z</time>
      </trkpt>
      <trkpt lat="45.91709" lon="4.77365">
        <ele>171</ele>
        <time>2018-03-16T09:50:57Z</time>
      </trkpt>
      <trkpt lat="45.91707" lon="4.77373">
        <ele>171</ele>
        <time>2018-03-16T09:50:58Z</time>
      </trkpt>
      <trkpt lat="45.91705" lon="4.77382">
        <ele>171</ele>
        <time>2018-03-16T09:50:59Z</time>
      </trkpt>
      <trkpt lat="45.91703" lon="4.7739">
        <ele>171</ele>
        <time>2018-03-16T09:51:00Z</time>
      </trkpt>
      <trkpt lat="45.91701" lon="4.77398">
        <ele>171</ele>
        <time>2018-03-16T09:51:01Z</time>
      </trkpt>
      <trkpt lat="45.917" lon="4.77407">
        <ele>171</ele>
        <time>2018-03-16T09:51:02Z</time>
      </trkpt>
      <trkpt lat="45.91699" lon="4.77416">
        <ele>171</ele>
        <time>2018-03-16T09:51:03Z</time>
      </trkpt>
      <trkpt lat="45.91698" lon="4.77424">
        <ele>171</ele>
        <time>2018-03-16T09:51:04Z</time>
      </trkpt>
      <trkpt lat="45.91697" lon="4.77432">
        <ele>171</ele>
        <time>2018-03-16T09:51:05Z</time>
      </trkpt>
      <trkpt lat="45.91696" lon="4.77441">
        <ele>171</ele>
        <time>2018-03-16T09:51:06Z</time>
      </trkpt>
      <trkpt lat="45.91696" lon="4.77449">
        <ele>171</ele>
        <time>2018-03-16T09:51:07Z</time>
      </trkpt>
      <trkpt lat="45.91694" lon="4.77456">
        <ele>171</ele>
        <time>2018-03-16T09:51:08Z</time>
      </trkpt>
      <trkpt lat="45.91693" lon="4.77465">
        <ele>171</ele>
        <time>2018-03-16T09:51:09Z</time>
      </trkpt>
      <trkpt lat="45.9169" lon="4.77472">
        <ele>170</ele>
        <time>2018-03-16T09:51:10Z</time>
      </trkpt>
      <trkpt lat="45.91686" lon="4.77478">
        <ele>170</ele>
        <time>2018-03-16T09:51:11Z</time>
      </trkpt>
      <trkpt lat="45.91681" lon="4.77483">
        <ele>170</ele>
        <time>2018-03-16T09:51:12Z</time>
      </trkpt>
      <trkpt lat="45.91676" lon="4.77489">
        <ele>170</ele>
        <time>2018-03-16T09:51:13Z</time>
      </trkpt>
      <trkpt lat="45.9167" lon="4.77492">
        <ele>170</ele>
        <time>2018-03-16T09:51:14Z</time>
      </trkpt>
      <trkpt lat="45.91664" lon="4.77494">
        <ele>170</ele>
        <time>2018-03-16T09:51:15Z</time>
      </trkpt>
      <trkpt lat="45.91659" lon="4.77498">
        <ele>170</ele>
        <time>2018-03-16T09:51:16Z</time>
      </trkpt>
      <trkpt lat="45.91653" lon="4.77501">
        <ele>170</ele>
        <time>2018-03-16T09:51:17Z</time>
      </trkpt>
      <trkpt lat="45.91647" lon="4.77503">
        <ele>171</ele>
        <time>2018-03-16T09:51:18Z</time>
      </trkpt>
      <trkpt lat="45.91642" lon="4.77505">
        <ele>171</ele>
        <time>2018-03-16T09:51:19Z</time>
      </trkpt>
      <trkpt lat="45.91637" lon="4.77508">
        <ele>171</ele>
        <time>2018-03-16T09:51:20Z</time>
      </trkpt>
      <trkpt lat="45.91633" lon="4.77512">
        <ele>171</ele>
        <time>2018-03-16T09:51:21Z</time>
      </trkpt>
      <trkpt lat="45.91627" lon="4.77516">
        <ele>171</ele>
        <time>2018-03-16T09:51:22Z</time>
      </trkpt>
      <trkpt lat="45.91624" lon="4.77521">
        <ele>171</ele>
        <time>2018-03-16T09:51:23Z</time>
      </trkpt>
      <trkpt lat="45.91619" lon="4.77525">
        <ele>171</ele>
        <time>2018-03-16T09:51:24Z</time>
      </trkpt>
      <trkpt lat="45.91616" lon="4.77531">
        <ele>171</ele>
        <time>2018-03-16T09:51:25Z</time>
      </trkpt>
      <trkpt lat="45.91612" lon="4.77536">
        <ele>171</ele>
        <time>2018-03-16T09:51:26Z</time>
      </trkpt>
      <trkpt lat="45.91608" lon="4.77542">
        <ele>171</ele>
        <time>2018-03-16T09:51:27Z</time>
      </trkpt>
      <trkpt lat="45.91604" lon="4.77548">
        <ele>171</ele>
        <time>2018-03-16T09:51:28Z</time>
      </trkpt>
      <trkpt lat="45.91601" lon="4.77555">
        <ele>172</ele>
        <time>2018-03-16T09:51:29Z</time>
      </trkpt>
      <trkpt lat="45.91597" lon="4.7756">
        <ele>172</ele>
        <time>2018-03-16T09:51:30Z</time>
      </trkpt>
      <trkpt lat="45.91594" lon="4.77565">
        <ele>172</ele>
        <time>2018-03-16T09:51:31Z</time>
      </trkpt>
      <trkpt lat="45.9159" lon="4.77571">
        <ele>172</ele>
        <time>2018-03-16T09:51:32Z</time>
      </trkpt>
      <trkpt lat="45.91587" lon="4.77576">
        <ele>172</ele>
        <time>2018-03-16T09:51:33Z</time>
      </trkpt>
      <trkpt lat="45.91583" lon="4.77581">
        <ele>173</ele>
        <time>2018-03-16T09:51:34Z</time>
      </trkpt>
      <trkpt lat="45.9158" lon="4.77587">
        <ele>173</ele>
        <time>2018-03-16T09:51:35Z</time>
      </trkpt>
      <trkpt lat="45.91577" lon="4.77593">
        <ele>173</ele>
        <time>2018-03-16T09:51:36Z</time>
      </trkpt>
      <trkpt lat="45.91573" lon="4.77599">
        <ele>173</ele>
        <time>2018-03-16T09:51:37Z</time>
      </trkpt>
      <trkpt lat="45.9157" lon="4.77604">
        <ele>174</ele>
        <time>2018-03-16T09:51:38Z</time>
      </trkpt>
      <trkpt lat="45.91566" lon="4.7761">
        <ele>174</ele>
        <time>2018-03-16T09:51:39Z</time>
      </trkpt>
      <trkpt lat="45.91563" lon="4.77615">
        <ele>174</ele>
        <time>2018-03-16T09:51:40Z</time>
      </trkpt>
      <trkpt lat="45.9156" lon="4.7762">
        <ele>174</ele>
        <time>2018-03-16T09:51:41Z</time>
      </trkpt>
      <trkpt lat="45.91555" lon="4.77627">
        <ele>174</ele>
        <time>2018-03-16T09:51:43Z</time>
      </trkpt>
      <trkpt lat="45.91552" lon="4.77632">
        <ele>174</ele>
        <time>2018-03-16T09:51:44Z</time>
      </trkpt>
      <trkpt lat="45.91546" lon="4.77641">
        <ele>174</ele>
        <time>2018-03-16T09:51:46Z</time>
      </trkpt>
      <trkpt lat="45.91542" lon="4.77643">
        <ele>174</ele>
        <time>2018-03-16T09:51:47Z</time>
      </trkpt>
      <trkpt lat="45.91537" lon="4.77652">
        <ele>174</ele>
        <time>2018-03-16T09:51:49Z</time>
      </trkpt>
      <trkpt lat="45.91535" lon="4.77655">
        <ele>174</ele>
        <time>2018-03-16T09:51:50Z</time>
      </trkpt>
      <trkpt lat="45.9153" lon="4.77662">
        <ele>174</ele>
        <time>2018-03-16T09:51:52Z</time>
      </trkpt>
      <trkpt lat="45.91527" lon="4.77667">
        <ele>175</ele>
        <time>2018-03-16T09:51:53Z</time>
      </trkpt>
      <trkpt lat="45.91522" lon="4.77676">
        <ele>175</ele>
        <time>2018-03-16T09:51:56Z</time>
      </trkpt>
      <trkpt lat="45.91521" lon="4.77679">
        <ele>175</ele>
        <time>2018-03-16T09:51:57Z</time>
      </trkpt>
      <trkpt lat="45.91515" lon="4.77688">
        <ele>176</ele>
        <time>2018-03-16T09:52:00Z</time>
      </trkpt>
      <trkpt lat="45.91513" lon="4.77691">
        <ele>176</ele>
        <time>2018-03-16T09:52:01Z</time>
      </trkpt>
      <trkpt lat="45.91507" lon="4.77694">
        <ele>176</ele>
        <time>2018-03-16T09:52:03Z</time>
      </trkpt>
      <trkpt lat="45.91497" lon="4.77697">
        <ele>177</ele>
        <time>2018-03-16T09:52:04Z</time>
      </trkpt>
      <trkpt lat="45.9149" lon="4.77697">
        <ele>177</ele>
        <time>2018-03-16T09:52:06Z</time>
      </trkpt>
      <trkpt lat="45.91486" lon="4.77698">
        <ele>177</ele>
        <time>2018-03-16T09:52:07Z</time>
      </trkpt>
      <trkpt lat="45.91477" lon="4.777">
        <ele>177</ele>
        <time>2018-03-16T09:52:09Z</time>
      </trkpt>
      <trkpt lat="45.91473" lon="4.77701">
        <ele>177</ele>
        <time>2018-03-16T09:52:10Z</time>
      </trkpt>
      <trkpt lat="45.91466" lon="4.77702">
        <ele>177</ele>
        <time>2018-03-16T09:52:12Z</time>
      </trkpt>
      <trkpt lat="45.91462" lon="4.77703">
        <ele>177</ele>
        <time>2018-03-16T09:52:13Z</time>
      </trkpt>
      <trkpt lat="45.91453" lon="4.77704">
        <ele>177</ele>
        <time>2018-03-16T09:52:15Z</time>
      </trkpt>
      <trkpt lat="45.91449" lon="4.77705">
        <ele>177</ele>
        <time>2018-03-16T09:52:16Z</time>
      </trkpt>
      <trkpt lat="45.91442" lon="4.77707">
        <ele>177</ele>
        <time>2018-03-16T09:52:18Z</time>
      </trkpt>
      <trkpt lat="45.91438" lon="4.77708">
        <ele>177</ele>
        <time>2018-03-16T09:52:19Z</time>
      </trkpt>
      <trkpt lat="45.91429" lon="4.77709">
        <ele>177</ele>
        <time>2018-03-16T09:52:21Z</time>
      </trkpt>
      <trkpt lat="45.91425" lon="4.7771">
        <ele>177</ele>
        <time>2018-03-16T09:52:22Z</time>
      </trkpt>
      <trkpt lat="45.91417" lon="4.77711">
        <ele>177</ele>
        <time>2018-03-16T09:52:24Z</time>
      </trkpt>
      <trkpt lat="45.91414" lon="4.77711">
        <ele>177</ele>
        <time>2018-03-16T09:52:25Z</time>
      </trkpt>
      <trkpt lat="45.91406" lon="4.77712">
        <ele>177</ele>
        <time>2018-03-16T09:52:27Z</time>
      </trkpt>
      <trkpt lat="45.91402" lon="4.77713">
        <ele>177</ele>
        <time>2018-03-16T09:52:28Z</time>
      </trkpt>
      <trkpt lat="45.91393" lon="4.77715">
        <ele>177</ele>
        <time>2018-03-16T09:52:30Z</time>
      </trkpt>
      <trkpt lat="45.91389" lon="4.77716">
        <ele>176</ele>
        <time>2018-03-16T09:52:31Z</time>
      </trkpt>
      <trkpt lat="45.91381" lon="4.77718">
        <ele>176</ele>
        <time>2018-03-16T09:52:33Z</time>
      </trkpt>
      <trkpt lat="45.91376" lon="4.77719">
        <ele>176</ele>
        <time>2018-03-16T09:52:34Z</time>
      </trkpt>
      <trkpt lat="45.91371" lon="4.7772">
        <ele>176</ele>
        <time>2018-03-16T09:52:35Z</time>
      </trkpt>
      <trkpt lat="45.91366" lon="4.7772">
        <ele>176</ele>
        <time>2018-03-16T09:52:36Z</time>
      </trkpt>
      <trkpt lat="45.91361" lon="4.7772">
        <ele>176</ele>
        <time>2018-03-16T09:52:37Z</time>
      </trkpt>
      <trkpt lat="45.91354" lon="4.77719">
        <ele>176</ele>
        <time>2018-03-16T09:52:38Z</time>
      </trkpt>
      <trkpt lat="45.91349" lon="4.77719">
        <ele>176</ele>
        <time>2018-03-16T09:52:39Z</time>
      </trkpt>
      <trkpt lat="45.91344" lon="4.77718">
        <ele>176</ele>
        <time>2018-03-16T09:52:40Z</time>
      </trkpt>
      <trkpt lat="45.91339" lon="4.77718">
        <ele>176</ele>
        <time>2018-03-16T09:52:41Z</time>
      </trkpt>
      <trkpt lat="45.91333" lon="4.77718">
        <ele>176</ele>
        <time>2018-03-16T09:52:42Z</time>
      </trkpt>
      <trkpt lat="45.91328" lon="4.77717">
        <ele>176</ele>
        <time>2018-03-16T09:52:43Z</time>
      </trkpt>
      <trkpt lat="45.91323" lon="4.77716">
        <ele>176</ele>
        <time>2018-03-16T09:52:44Z</time>
      </trkpt>
      <trkpt lat="45.91318" lon="4.77715">
        <ele>176</ele>
        <time>2018-03-16T09:52:45Z</time>
      </trkpt>
      <trkpt lat="45.91314" lon="4.77713">
        <ele>176</ele>
        <time>2018-03-16T09:52:46Z</time>
      </trkpt>
      <trkpt lat="45.91309" lon="4.77711">
        <ele>176</ele>
        <time>2018-03-16T09:52:47Z</time>
      </trkpt>
      <trkpt lat="45.91304" lon="4.77707">
        <ele>176</ele>
        <time>2018-03-16T09:52:48Z</time>
      </trkpt>
      <trkpt lat="45.913" lon="4.77706">
        <ele>176</ele>
        <time>2018-03-16T09:52:49Z</time>
      </trkpt>
      <trkpt lat="45.91294" lon="4.77703">
        <ele>176</ele>
        <time>2018-03-16T09:52:50Z</time>
      </trkpt>
      <trkpt lat="45.91289" lon="4.777">
        <ele>176</ele>
        <time>2018-03-16T09:52:51Z</time>
      </trkpt>
      <trkpt lat="45.91284" lon="4.77697">
        <ele>176</ele>
        <time>2018-03-16T09:52:52Z</time>
      </trkpt>
      <trkpt lat="45.91278" lon="4.77694">
        <ele>176</ele>
        <time>2018-03-16T09:52:53Z</time>
      </trkpt>
      <trkpt lat="45.91273" lon="4.77691">
        <ele>176</ele>
        <time>2018-03-16T09:52:54Z</time>
      </trkpt>
      <trkpt lat="45.91268" lon="4.77688">
        <ele>176</ele>
        <time>2018-03-16T09:52:55Z</time>
      </trkpt>
      <trkpt lat="45.91262" lon="4.77686">
        <ele>176</ele>
        <time>2018-03-16T09:52:56Z</time>
      </trkpt>
      <trkpt lat="45.91257" lon="4.77684">
        <ele>176</ele>
        <time>2018-03-16T09:52:57Z</time>
      </trkpt>
      <trkpt lat="45.91252" lon="4.77682">
        <ele>175</ele>
        <time>2018-03-16T09:52:58Z</time>
      </trkpt>
      <trkpt lat="45.91246" lon="4.77681">
        <ele>176</ele>
        <time>2018-03-16T09:52:59Z</time>
      </trkpt>
      <trkpt lat="45.91241" lon="4.77681">
        <ele>176</ele>
        <time>2018-03-16T09:53:00Z</time>
      </trkpt>
      <trkpt lat="45.91237" lon="4.77682">
        <ele>176</ele>
        <time>2018-03-16T09:53:01Z</time>
      </trkpt>
      <trkpt lat="45.91232" lon="4.77683">
        <ele>176</ele>
        <time>2018-03-16T09:53:02Z</time>
      </trkpt>
      <trkpt lat="45.91227" lon="4.77684">
        <ele>176</ele>
        <time>2018-03-16T09:53:03Z</time>
      </trkpt>
      <trkpt lat="45.91223" lon="4.77686">
        <ele>176</ele>
        <time>2018-03-16T09:53:04Z</time>
      </trkpt>
      <trkpt lat="45.91218" lon="4.77687">
        <ele>176</ele>
        <time>2018-03-16T09:53:05Z</time>
      </trkpt>
      <trkpt lat="45.91213" lon="4.77688">
        <ele>176</ele>
        <time>2018-03-16T09:53:06Z</time>
      </trkpt>
      <trkpt lat="45.91208" lon="4.77689">
        <ele>176</ele>
        <time>2018-03-16T09:53:07Z</time>
      </trkpt>
      <trkpt lat="45.91202" lon="4.77691">
        <ele>176</ele>
        <time>2018-03-16T09:53:08Z</time>
      </trkpt>
      <trkpt lat="45.91197" lon="4.77692">
        <ele>176</ele>
        <time>2018-03-16T09:53:09Z</time>
      </trkpt>
      <trkpt lat="45.91193" lon="4.77695">
        <ele>176</ele>
        <time>2018-03-16T09:53:10Z</time>
      </trkpt>
      <trkpt lat="45.91188" lon="4.77697">
        <ele>176</ele>
        <time>2018-03-16T09:53:11Z</time>
      </trkpt>
      <trkpt lat="45.91183" lon="4.77698">
        <ele>176</ele>
        <time>2018-03-16T09:53:12Z</time>
      </trkpt>
      <trkpt lat="45.91179" lon="4.77699">
        <ele>176</ele>
        <time>2018-03-16T09:53:13Z</time>
      </trkpt>
      <trkpt lat="45.91174" lon="4.77701">
        <ele>176</ele>
        <time>2018-03-16T09:53:14Z</time>
      </trkpt>
      <trkpt lat="45.91169" lon="4.77702">
        <ele>176</ele>
        <time>2018-03-16T09:53:15Z</time>
      </trkpt>
      <trkpt lat="45.91164" lon="4.77703">
        <ele>177</ele>
        <time>2018-03-16T09:53:16Z</time>
      </trkpt>
      <trkpt lat="45.91159" lon="4.77705">
        <ele>177</ele>
        <time>2018-03-16T09:53:17Z</time>
      </trkpt>
      <trkpt lat="45.91155" lon="4.77707">
        <ele>177</ele>
        <time>2018-03-16T09:53:18Z</time>
      </trkpt>
      <trkpt lat="45.91151" lon="4.7771">
        <ele>177</ele>
        <time>2018-03-16T09:53:19Z</time>
      </trkpt>
      <trkpt lat="45.91146" lon="4.77713">
        <ele>177</ele>
        <time>2018-03-16T09:53:20Z</time>
      </trkpt>
      <trkpt lat="45.91141" lon="4.77712">
        <ele>177</ele>
        <time>2018-03-16T09:53:21Z</time>
      </trkpt>
      <trkpt lat="45.91136" lon="4.77714">
        <ele>177</ele>
        <time>2018-03-16T09:53:22Z</time>
      </trkpt>
      <trkpt lat="45.91132" lon="4.77716">
        <ele>177</ele>
        <time>2018-03-16T09:53:23Z</time>
      </trkpt>
      <trkpt lat="45.91127" lon="4.77718">
        <ele>177</ele>
        <time>2018-03-16T09:53:24Z</time>
      </trkpt>
      <trkpt lat="45.91122" lon="4.7772">
        <ele>177</ele>
        <time>2018-03-16T09:53:25Z</time>
      </trkpt>
      <trkpt lat="45.91116" lon="4.77722">
        <ele>178</ele>
        <time>2018-03-16T09:53:26Z</time>
      </trkpt>
      <trkpt lat="45.91112" lon="4.77724">
        <ele>178</ele>
        <time>2018-03-16T09:53:27Z</time>
      </trkpt>
      <trkpt lat="45.91107" lon="4.77728">
        <ele>178</ele>
        <time>2018-03-16T09:53:28Z</time>
      </trkpt>
      <trkpt lat="45.91102" lon="4.77731">
        <ele>178</ele>
        <time>2018-03-16T09:53:29Z</time>
      </trkpt>
      <trkpt lat="45.91098" lon="4.77735">
        <ele>178</ele>
        <time>2018-03-16T09:53:30Z</time>
      </trkpt>
      <trkpt lat="45.91092" lon="4.77739">
        <ele>178</ele>
        <time>2018-03-16T09:53:31Z</time>
      </trkpt>
      <trkpt lat="45.91087" lon="4.77742">
        <ele>178</ele>
        <time>2018-03-16T09:53:32Z</time>
      </trkpt>
      <trkpt lat="45.91084" lon="4.77746">
        <ele>179</ele>
        <time>2018-03-16T09:53:33Z</time>
      </trkpt>
      <trkpt lat="45.91079" lon="4.77749">
        <ele>179</ele>
        <time>2018-03-16T09:53:34Z</time>
      </trkpt>
      <trkpt lat="45.91075" lon="4.77752">
        <ele>179</ele>
        <time>2018-03-16T09:53:35Z</time>
      </trkpt>
      <trkpt lat="45.9107" lon="4.77754">
        <ele>179</ele>
        <time>2018-03-16T09:53:36Z</time>
      </trkpt>
      <trkpt lat="45.91062" lon="4.77759">
        <ele>178</ele>
        <time>2018-03-16T09:53:38Z</time>
      </trkpt>
      <trkpt lat="45.91058" lon="4.77762">
        <ele>178</ele>
        <time>2018-03-16T09:53:39Z</time>
      </trkpt>
      <trkpt lat="45.91053" lon="4.77764">
        <ele>178</ele>
        <time>2018-03-16T09:53:40Z</time>
      </trkpt>
      <trkpt lat="45.91049" lon="4.77767">
        <ele>178</ele>
        <time>2018-03-16T09:53:41Z</time>
      </trkpt>
      <trkpt lat="45.91044" lon="4.7777">
        <ele>178</ele>
        <time>2018-03-16T09:53:42Z</time>
      </trkpt>
      <trkpt lat="45.91039" lon="4.77773">
        <ele>178</ele>
        <time>2018-03-16T09:53:43Z</time>
      </trkpt>
      <trkpt lat="45.91034" lon="4.77774">
        <ele>178</ele>
        <time>2018-03-16T09:53:44Z</time>
      </trkpt>
      <trkpt lat="45.91029" lon="4.77775">
        <ele>178</ele>
        <time>2018-03-16T09:53:45Z</time>
      </trkpt>
      <trkpt lat="45.91024" lon="4.77775">
        <ele>178</ele>
        <time>2018-03-16T09:53:46Z</time>
      </trkpt>
      <trkpt lat="45.91019" lon="4.77777">
        <ele>178</ele>
        <time>2018-03-16T09:53:47Z</time>
      </trkpt>
      <trkpt lat="45.91014" lon="4.77777">
        <ele>178</ele>
        <time>2018-03-16T09:53:48Z</time>
      </trkpt>
      <trkpt lat="45.91009" lon="4.77778">
        <ele>178</ele>
        <time>2018-03-16T09:53:49Z</time>
      </trkpt>
      <trkpt lat="45.91004" lon="4.77779">
        <ele>178</ele>
        <time>2018-03-16T09:53:50Z</time>
      </trkpt>
      <trkpt lat="45.90999" lon="4.77781">
        <ele>177</ele>
        <time>2018-03-16T09:53:51Z</time>
      </trkpt>
      <trkpt lat="45.90993" lon="4.77782">
        <ele>177</ele>
        <time>2018-03-16T09:53:52Z</time>
      </trkpt>
      <trkpt lat="45.90988" lon="4.77783">
        <ele>177</ele>
        <time>2018-03-16T09:53:53Z</time>
      </trkpt>
      <trkpt lat="45.9098" lon="4.77784">
        <ele>177</ele>
        <time>2018-03-16T09:53:55Z</time>
      </trkpt>
      <trkpt lat="45.90975" lon="4.77785">
        <ele>177</ele>
        <time>2018-03-16T09:53:56Z</time>
      </trkpt>
      <trkpt lat="45.9097" lon="4.77785">
        <ele>177</ele>
        <time>2018-03-16T09:53:57Z</time>
      </trkpt>
      <trkpt lat="45.90965" lon="4.77785">
        <ele>177</ele>
        <time>2018-03-16T09:53:58Z</time>
      </trkpt>
      <trkpt lat="45.9096" lon="4.77782">
        <ele>177</ele>
        <time>2018-03-16T09:53:59Z</time>
      </trkpt>
      <trkpt lat="45.90956" lon="4.77779">
        <ele>177</ele>
        <time>2018-03-16T09:54:00Z</time>
      </trkpt>
      <trkpt lat="45.90949" lon="4.77773">
        <ele>177</ele>
        <time>2018-03-16T09:54:02Z</time>
      </trkpt>
      <trkpt lat="45.90945" lon="4.77771">
        <ele>177</ele>
        <time>2018-03-16T09:54:03Z</time>
      </trkpt>
      <trkpt lat="45.90937" lon="4.77769">
        <ele>177</ele>
        <time>2018-03-16T09:54:05Z</time>
      </trkpt>
      <trkpt lat="45.90933" lon="4.77768">
        <ele>177</ele>
        <time>2018-03-16T09:54:06Z</time>
      </trkpt>
      <trkpt lat="45.90926" lon="4.77762">
        <ele>176</ele>
        <time>2018-03-16T09:54:08Z</time>
      </trkpt>
      <trkpt lat="45.90921" lon="4.77758">
        <ele>176</ele>
        <time>2018-03-16T09:54:09Z</time>
      </trkpt>
      <trkpt lat="45.90915" lon="4.7775">
        <ele>176</ele>
        <time>2018-03-16T09:54:11Z</time>
      </trkpt>
      <trkpt lat="45.90912" lon="4.77746">
        <ele>176</ele>
        <time>2018-03-16T09:54:12Z</time>
      </trkpt>
      <trkpt lat="45.90906" lon="4.7774">
        <ele>177</ele>
        <time>2018-03-16T09:54:14Z</time>
      </trkpt>
      <trkpt lat="45.90902" lon="4.77736">
        <ele>177</ele>
        <time>2018-03-16T09:54:15Z</time>
      </trkpt>
      <trkpt lat="45.90897" lon="4.77728">
        <ele>177</ele>
        <time>2018-03-16T09:54:17Z</time>
      </trkpt>
      <trkpt lat="45.90893" lon="4.77725">
        <ele>177</ele>
        <time>2018-03-16T09:54:18Z</time>
      </trkpt>
      <trkpt lat="45.90889" lon="4.77718">
        <ele>177</ele>
        <time>2018-03-16T09:54:21Z</time>
      </trkpt>
      <trkpt lat="45.90887" lon="4.77716">
        <ele>177</ele>
        <time>2018-03-16T09:54:22Z</time>
      </trkpt>
      <trkpt lat="45.90882" lon="4.7771">
        <ele>177</ele>
        <time>2018-03-16T09:54:24Z</time>
      </trkpt>
      <trkpt lat="45.9088" lon="4.77707">
        <ele>177</ele>
        <time>2018-03-16T09:54:25Z</time>
      </trkpt>
      <trkpt lat="45.90873" lon="4.777">
        <ele>178</ele>
        <time>2018-03-16T09:54:28Z</time>
      </trkpt>
      <trkpt lat="45.90871" lon="4.77698">
        <ele>178</ele>
        <time>2018-03-16T09:54:29Z</time>
      </trkpt>
      <trkpt lat="45.90864" lon="4.77693">
        <ele>178</ele>
        <time>2018-03-16T09:54:32Z</time>
      </trkpt>
      <trkpt lat="45.90862" lon="4.77691">
        <ele>178</ele>
        <time>2018-03-16T09:54:33Z</time>
      </trkpt>
      <trkpt lat="45.90854" lon="4.77686">
        <ele>178</ele>
        <time>2018-03-16T09:54:36Z</time>
      </trkpt>
      <trkpt lat="45.90851" lon="4.77684">
        <ele>178</ele>
        <time>2018-03-16T09:54:37Z</time>
      </trkpt>
      <trkpt lat="45.90845" lon="4.77681">
        <ele>178</ele>
        <time>2018-03-16T09:54:39Z</time>
      </trkpt>
      <trkpt lat="45.90842" lon="4.77679">
        <ele>178</ele>
        <time>2018-03-16T09:54:40Z</time>
      </trkpt>
      <trkpt lat="45.90834" lon="4.77676">
        <ele>179</ele>
        <time>2018-03-16T09:54:43Z</time>
      </trkpt>
      <trkpt lat="45.90831" lon="4.77674">
        <ele>179</ele>
        <time>2018-03-16T09:54:44Z</time>
      </trkpt>
      <trkpt lat="45.90825" lon="4.77672">
        <ele>179</ele>
        <time>2018-03-16T09:54:46Z</time>
      </trkpt>
      <trkpt lat="45.90822" lon="4.77671">
        <ele>179</ele>
        <time>2018-03-16T09:54:47Z</time>
      </trkpt>
      <trkpt lat="45.90816" lon="4.77668">
        <ele>179</ele>
        <time>2018-03-16T09:54:49Z</time>
      </trkpt>
      <trkpt lat="45.90812" lon="4.77667">
        <ele>179</ele>
        <time>2018-03-16T09:54:50Z</time>
      </trkpt>
      <trkpt lat="45.90809" lon="4.77666">
        <ele>179</ele>
        <time>2018-03-16T09:54:51Z</time>
      </trkpt>
      <trkpt lat="45.90799" lon="4.77663">
        <ele>179</ele>
        <time>2018-03-16T09:54:52Z</time>
      </trkpt>
      <trkpt lat="45.90791" lon="4.77662">
        <ele>179</ele>
        <time>2018-03-16T09:54:54Z</time>
      </trkpt>
      <trkpt lat="45.9079" lon="4.77662">
        <ele>179</ele>
        <time>2018-03-16T09:54:55Z</time>
      </trkpt>
      <trkpt lat="45.90782" lon="4.77661">
        <ele>180</ele>
        <time>2018-03-16T09:54:58Z</time>
      </trkpt>
      <trkpt lat="45.90774" lon="4.77659">
        <ele>180</ele>
        <time>2018-03-16T09:54:59Z</time>
      </trkpt>
      <trkpt lat="45.90767" lon="4.77655">
        <ele>180</ele>
        <time>2018-03-16T09:55:01Z</time>
      </trkpt>
      <trkpt lat="45.90764" lon="4.77652">
        <ele>180</ele>
        <time>2018-03-16T09:55:02Z</time>
      </trkpt>
      <trkpt lat="45.90757" lon="4.77646">
        <ele>180</ele>
        <time>2018-03-16T09:55:04Z</time>
      </trkpt>
      <trkpt lat="45.90753" lon="4.77641">
        <ele>180</ele>
        <time>2018-03-16T09:55:05Z</time>
      </trkpt>
      <trkpt lat="45.90744" lon="4.77641">
        <ele>180</ele>
        <time>2018-03-16T09:55:07Z</time>
      </trkpt>
      <trkpt lat="45.9074" lon="4.77642">
        <ele>180</ele>
        <time>2018-03-16T09:55:08Z</time>
      </trkpt>
      <trkpt lat="45.90735" lon="4.77642">
        <ele>180</ele>
        <time>2018-03-16T09:55:09Z</time>
      </trkpt>
      <trkpt lat="45.9073" lon="4.77641">
        <ele>180</ele>
        <time>2018-03-16T09:55:10Z</time>
      </trkpt>
      <trkpt lat="45.90725" lon="4.7764">
        <ele>180</ele>
        <time>2018-03-16T09:55:11Z</time>
      </trkpt>
      <trkpt lat="45.9072" lon="4.77639">
        <ele>180</ele>
        <time>2018-03-16T09:55:12Z</time>
      </trkpt>
      <trkpt lat="45.90714" lon="4.77637">
        <ele>179</ele>
        <time>2018-03-16T09:55:13Z</time>
      </trkpt>
      <trkpt lat="45.90708" lon="4.77636">
        <ele>179</ele>
        <time>2018-03-16T09:55:14Z</time>
      </trkpt>
      <trkpt lat="45.90703" lon="4.77636">
        <ele>179</ele>
        <time>2018-03-16T09:55:15Z</time>
      </trkpt>
      <trkpt lat="45.90698" lon="4.77633">
        <ele>179</ele>
        <time>2018-03-16T09:55:16Z</time>
      </trkpt>
      <trkpt lat="45.90692" lon="4.77631">
        <ele>179</ele>
        <time>2018-03-16T09:55:17Z</time>
      </trkpt>
      <trkpt lat="45.90685" lon="4.77629">
        <ele>179</ele>
        <time>2018-03-16T09:55:18Z</time>
      </trkpt>
      <trkpt lat="45.90679" lon="4.77627">
        <ele>179</ele>
        <time>2018-03-16T09:55:19Z</time>
      </trkpt>
      <trkpt lat="45.90672" lon="4.77626">
        <ele>179</ele>
        <time>2018-03-16T09:55:20Z</time>
      </trkpt>
      <trkpt lat="45.90666" lon="4.77627">
        <ele>179</ele>
        <time>2018-03-16T09:55:21Z</time>
      </trkpt>
      <trkpt lat="45.9066" lon="4.77626">
        <ele>179</ele>
        <time>2018-03-16T09:55:22Z</time>
      </trkpt>
      <trkpt lat="45.90653" lon="4.77626">
        <ele>179</ele>
        <time>2018-03-16T09:55:23Z</time>
      </trkpt>
      <trkpt lat="45.90646" lon="4.77626">
        <ele>179</ele>
        <time>2018-03-16T09:55:24Z</time>
      </trkpt>
      <trkpt lat="45.9064" lon="4.77625">
        <ele>179</ele>
        <time>2018-03-16T09:55:25Z</time>
      </trkpt>
      <trkpt lat="45.90633" lon="4.77625">
        <ele>179</ele>
        <time>2018-03-16T09:55:26Z</time>
      </trkpt>
      <trkpt lat="45.90627" lon="4.77625">
        <ele>179</ele>
        <time>2018-03-16T09:55:27Z</time>
      </trkpt>
      <trkpt lat="45.9062" lon="4.77625">
        <ele>179</ele>
        <time>2018-03-16T09:55:28Z</time>
      </trkpt>
      <trkpt lat="45.90614" lon="4.77625">
        <ele>179</ele>
        <time>2018-03-16T09:55:29Z</time>
      </trkpt>
      <trkpt lat="45.90606" lon="4.77626">
        <ele>179</ele>
        <time>2018-03-16T09:55:30Z</time>
      </trkpt>
      <trkpt lat="45.90598" lon="4.77628">
        <ele>179</ele>
        <time>2018-03-16T09:55:31Z</time>
      </trkpt>
      <trkpt lat="45.90592" lon="4.7763">
        <ele>179</ele>
        <time>2018-03-16T09:55:32Z</time>
      </trkpt>
      <trkpt lat="45.90586" lon="4.77631">
        <ele>179</ele>
        <time>2018-03-16T09:55:33Z</time>
      </trkpt>
      <trkpt lat="45.90577" lon="4.77631">
        <ele>178</ele>
        <time>2018-03-16T09:55:34Z</time>
      </trkpt>
      <trkpt lat="45.90571" lon="4.77632">
        <ele>178</ele>
        <time>2018-03-16T09:55:35Z</time>
      </trkpt>
      <trkpt lat="45.90565" lon="4.77633">
        <ele>178</ele>
        <time>2018-03-16T09:55:36Z</time>
      </trkpt>
      <trkpt lat="45.90558" lon="4.77633">
        <ele>178</ele>
        <time>2018-03-16T09:55:37Z</time>
      </trkpt>
      <trkpt lat="45.90551" lon="4.77633">
        <ele>178</ele>
        <time>2018-03-16T09:55:38Z</time>
      </trkpt>
      <trkpt lat="45.90545" lon="4.77635">
        <ele>178</ele>
        <time>2018-03-16T09:55:39Z</time>
      </trkpt>
      <trkpt lat="45.90539" lon="4.77635">
        <ele>178</ele>
        <time>2018-03-16T09:55:40Z</time>
      </trkpt>
      <trkpt lat="45.90533" lon="4.77636">
        <ele>178</ele>
        <time>2018-03-16T09:55:41Z</time>
      </trkpt>
      <trkpt lat="45.90528" lon="4.77637">
        <ele>178</ele>
        <time>2018-03-16T09:55:42Z</time>
      </trkpt>
      <trkpt lat="45.90521" lon="4.77638">
        <ele>178</ele>
        <time>2018-03-16T09:55:43Z</time>
      </trkpt>
      <trkpt lat="45.90514" lon="4.77639">
        <ele>178</ele>
        <time>2018-03-16T09:55:44Z</time>
      </trkpt>
      <trkpt lat="45.90509" lon="4.7764">
        <ele>178</ele>
        <time>2018-03-16T09:55:45Z</time>
      </trkpt>
      <trkpt lat="45.90503" lon="4.77641">
        <ele>178</ele>
        <time>2018-03-16T09:55:46Z</time>
      </trkpt>
      <trkpt lat="45.90497" lon="4.77642">
        <ele>179</ele>
        <time>2018-03-16T09:55:47Z</time>
      </trkpt>
      <trkpt lat="45.90492" lon="4.77643">
        <ele>179</ele>
        <time>2018-03-16T09:55:48Z</time>
      </trkpt>
      <trkpt lat="45.90486" lon="4.77644">
        <ele>179</ele>
        <time>2018-03-16T09:55:49Z</time>
      </trkpt>
      <trkpt lat="45.9048" lon="4.77644">
        <ele>179</ele>
        <time>2018-03-16T09:55:50Z</time>
      </trkpt>
      <trkpt lat="45.90474" lon="4.77645">
        <ele>179</ele>
        <time>2018-03-16T09:55:51Z</time>
      </trkpt>
      <trkpt lat="45.90469" lon="4.77646">
        <ele>179</ele>
        <time>2018-03-16T09:55:52Z</time>
      </trkpt>
      <trkpt lat="45.90464" lon="4.77647">
        <ele>179</ele>
        <time>2018-03-16T09:55:53Z</time>
      </trkpt>
      <trkpt lat="45.90459" lon="4.77648">
        <ele>179</ele>
        <time>2018-03-16T09:55:54Z</time>
      </trkpt>
      <trkpt lat="45.90454" lon="4.77649">
        <ele>179</ele>
        <time>2018-03-16T09:55:55Z</time>
      </trkpt>
      <trkpt lat="45.90449" lon="4.77651">
        <ele>179</ele>
        <time>2018-03-16T09:55:56Z</time>
      </trkpt>
      <trkpt lat="45.90443" lon="4.77651">
        <ele>179</ele>
        <time>2018-03-16T09:55:57Z</time>
      </trkpt>
      <trkpt lat="45.90437" lon="4.77652">
        <ele>180</ele>
        <time>2018-03-16T09:55:58Z</time>
      </trkpt>
      <trkpt lat="45.90432" lon="4.77652">
        <ele>180</ele>
        <time>2018-03-16T09:55:59Z</time>
      </trkpt>
      <trkpt lat="45.90427" lon="4.77652">
        <ele>180</ele>
        <time>2018-03-16T09:56:00Z</time>
      </trkpt>
      <trkpt lat="45.90421" lon="4.77653">
        <ele>180</ele>
        <time>2018-03-16T09:56:01Z</time>
      </trkpt>
      <trkpt lat="45.90415" lon="4.77654">
        <ele>181</ele>
        <time>2018-03-16T09:56:02Z</time>
      </trkpt>
      <trkpt lat="45.9041" lon="4.77655">
        <ele>181</ele>
        <time>2018-03-16T09:56:03Z</time>
      </trkpt>
      <trkpt lat="45.90405" lon="4.77656">
        <ele>181</ele>
        <time>2018-03-16T09:56:04Z</time>
      </trkpt>
      <trkpt lat="45.904" lon="4.77657">
        <ele>181</ele>
        <time>2018-03-16T09:56:05Z</time>
      </trkpt>
      <trkpt lat="45.90394" lon="4.77658">
        <ele>181</ele>
        <time>2018-03-16T09:56:06Z</time>
      </trkpt>
      <trkpt lat="45.9039" lon="4.77658">
        <ele>181</ele>
        <time>2018-03-16T09:56:07Z</time>
      </trkpt>
      <trkpt lat="45.90385" lon="4.77658">
        <ele>181</ele>
        <time>2018-03-16T09:56:08Z</time>
      </trkpt>
      <trkpt lat="45.90379" lon="4.77659">
        <ele>181</ele>
        <time>2018-03-16T09:56:09Z</time>
      </trkpt>
      <trkpt lat="45.90374" lon="4.7766">
        <ele>181</ele>
        <time>2018-03-16T09:56:10Z</time>
      </trkpt>
      <trkpt lat="45.9037" lon="4.77659">
        <ele>181</ele>
        <time>2018-03-16T09:56:11Z</time>
      </trkpt>
      <trkpt lat="45.90364" lon="4.7766">
        <ele>181</ele>
        <time>2018-03-16T09:56:12Z</time>
      </trkpt>
      <trkpt lat="45.9036" lon="4.7766">
        <ele>181</ele>
        <time>2018-03-16T09:56:13Z</time>
      </trkpt>
      <trkpt lat="45.90355" lon="4.7766">
        <ele>181</ele>
        <time>2018-03-16T09:56:14Z</time>
      </trkpt>
      <trkpt lat="45.90349" lon="4.77661">
        <ele>181</ele>
        <time>2018-03-16T09:56:15Z</time>
      </trkpt>
      <trkpt lat="45.90345" lon="4.77662">
        <ele>181</ele>
        <time>2018-03-16T09:56:16Z</time>
      </trkpt>
      <trkpt lat="45.90339" lon="4.77664">
        <ele>182</ele>
        <time>2018-03-16T09:56:17Z</time>
      </trkpt>
      <trkpt lat="45.90335" lon="4.77664">
        <ele>182</ele>
        <time>2018-03-16T09:56:18Z</time>
      </trkpt>
      <trkpt lat="45.90326" lon="4.77666">
        <ele>182</ele>
        <time>2018-03-16T09:56:20Z</time>
      </trkpt>
      <trkpt lat="45.90321" lon="4.77667">
        <ele>182</ele>
        <time>2018-03-16T09:56:21Z</time>
      </trkpt>
      <trkpt lat="45.90317" lon="4.77668">
        <ele>182</ele>
        <time>2018-03-16T09:56:22Z</time>
      </trkpt>
      <trkpt lat="45.90312" lon="4.77668">
        <ele>182</ele>
        <time>2018-03-16T09:56:23Z</time>
      </trkpt>
      <trkpt lat="45.90303" lon="4.7767">
        <ele>182</ele>
        <time>2018-03-16T09:56:25Z</time>
      </trkpt>
      <trkpt lat="45.90298" lon="4.7767">
        <ele>182</ele>
        <time>2018-03-16T09:56:26Z</time>
      </trkpt>
      <trkpt lat="45.90294" lon="4.77671">
        <ele>182</ele>
        <time>2018-03-16T09:56:27Z</time>
      </trkpt>
      <trkpt lat="45.90289" lon="4.77671">
        <ele>182</ele>
        <time>2018-03-16T09:56:28Z</time>
      </trkpt>
      <trkpt lat="45.90284" lon="4.77671">
        <ele>182</ele>
        <time>2018-03-16T09:56:29Z</time>
      </trkpt>
      <trkpt lat="45.90278" lon="4.7767">
        <ele>182</ele>
        <time>2018-03-16T09:56:30Z</time>
      </trkpt>
      <trkpt lat="45.90273" lon="4.7767">
        <ele>182</ele>
        <time>2018-03-16T09:56:31Z</time>
      </trkpt>
      <trkpt lat="45.90268" lon="4.7767">
        <ele>182</ele>
        <time>2018-03-16T09:56:32Z</time>
      </trkpt>
      <trkpt lat="45.90263" lon="4.7767">
        <ele>182</ele>
        <time>2018-03-16T09:56:33Z</time>
      </trkpt>
      <trkpt lat="45.90258" lon="4.7767">
        <ele>182</ele>
        <time>2018-03-16T09:56:34Z</time>
      </trkpt>
      <trkpt lat="45.90249" lon="4.77671">
        <ele>182</ele>
        <time>2018-03-16T09:56:36Z</time>
      </trkpt>
      <trkpt lat="45.90245" lon="4.7767">
        <ele>183</ele>
        <time>2018-03-16T09:56:37Z</time>
      </trkpt>
      <trkpt lat="45.9024" lon="4.77669">
        <ele>183</ele>
        <time>2018-03-16T09:56:38Z</time>
      </trkpt>
      <trkpt lat="45.90236" lon="4.77669">
        <ele>183</ele>
        <time>2018-03-16T09:56:39Z</time>
      </trkpt>
      <trkpt lat="45.90231" lon="4.7767">
        <ele>183</ele>
        <time>2018-03-16T09:56:40Z</time>
      </trkpt>
      <trkpt lat="45.90226" lon="4.77671">
        <ele>184</ele>
        <time>2018-03-16T09:56:41Z</time>
      </trkpt>
      <trkpt lat="45.90221" lon="4.7767">
        <ele>184</ele>
        <time>2018-03-16T09:56:42Z</time>
      </trkpt>
      <trkpt lat="45.90216" lon="4.7767">
        <ele>184</ele>
        <time>2018-03-16T09:56:43Z</time>
      </trkpt>
      <trkpt lat="45.90207" lon="4.7767">
        <ele>184</ele>
        <time>2018-03-16T09:56:45Z</time>
      </trkpt>
      <trkpt lat="45.90202" lon="4.7767">
        <ele>184</ele>
        <time>2018-03-16T09:56:46Z</time>
      </trkpt>
      <trkpt lat="45.90197" lon="4.7767">
        <ele>184</ele>
        <time>2018-03-16T09:56:47Z</time>
      </trkpt>
      <trkpt lat="45.90193" lon="4.77669">
        <ele>184</ele>
        <time>2018-03-16T09:56:48Z</time>
      </trkpt>
      <trkpt lat="45.90188" lon="4.7767">
        <ele>185</ele>
        <time>2018-03-16T09:56:49Z</time>
      </trkpt>
      <trkpt lat="45.90183" lon="4.7767">
        <ele>185</ele>
        <time>2018-03-16T09:56:50Z</time>
      </trkpt>
      <trkpt lat="45.90178" lon="4.7767">
        <ele>185</ele>
        <time>2018-03-16T09:56:51Z</time>
      </trkpt>
      <trkpt lat="45.90173" lon="4.7767">
        <ele>185</ele>
        <time>2018-03-16T09:56:52Z</time>
      </trkpt>
      <trkpt lat="45.90168" lon="4.77669">
        <ele>185</ele>
        <time>2018-03-16T09:56:53Z</time>
      </trkpt>
      <trkpt lat="45.90162" lon="4.7767">
        <ele>185</ele>
        <time>2018-03-16T09:56:54Z</time>
      </trkpt>
      <trkpt lat="45.90158" lon="4.77671">
        <ele>185</ele>
        <time>2018-03-16T09:56:55Z</time>
      </trkpt>
      <trkpt lat="45.90153" lon="4.7767">
        <ele>185</ele>
        <time>2018-03-16T09:56:56Z</time>
      </trkpt>
      <trkpt lat="45.90147" lon="4.7767">
        <ele>185</ele>
        <time>2018-03-16T09:56:57Z</time>
      </trkpt>
      <trkpt lat="45.90142" lon="4.7767">
        <ele>185</ele>
        <time>2018-03-16T09:56:58Z</time>
      </trkpt>
      <trkpt lat="45.90138" lon="4.7767">
        <ele>185</ele>
        <time>2018-03-16T09:56:59Z</time>
      </trkpt>
      <trkpt lat="45.90132" lon="4.7767">
        <ele>185</ele>
        <time>2018-03-16T09:57:00Z</time>
      </trkpt>
      <trkpt lat="45.90127" lon="4.7767">
        <ele>185</ele>
        <time>2018-03-16T09:57:01Z</time>
      </trkpt>
      <trkpt lat="45.90122" lon="4.7767">
        <ele>184</ele>
        <time>2018-03-16T09:57:02Z</time>
      </trkpt>
      <trkpt lat="45.90117" lon="4.7767">
        <ele>184</ele>
        <time>2018-03-16T09:57:03Z</time>
      </trkpt>
      <trkpt lat="45.90112" lon="4.7767">
        <ele>184</ele>
        <time>2018-03-16T09:57:04Z</time>
      </trkpt>
      <trkpt lat="45.90106" lon="4.7767">
        <ele>184</ele>
        <time>2018-03-16T09:57:05Z</time>
      </trkpt>
      <trkpt lat="45.90102" lon="4.77672">
        <ele>184</ele>
        <time>2018-03-16T09:57:06Z</time>
      </trkpt>
      <trkpt lat="45.90097" lon="4.7767">
        <ele>184</ele>
        <time>2018-03-16T09:57:07Z</time>
      </trkpt>
      <trkpt lat="45.90092" lon="4.77672">
        <ele>184</ele>
        <time>2018-03-16T09:57:08Z</time>
      </trkpt>
      <trkpt lat="45.90087" lon="4.77671">
        <ele>183</ele>
        <time>2018-03-16T09:57:09Z</time>
      </trkpt>
      <trkpt lat="45.90082" lon="4.77671">
        <ele>183</ele>
        <time>2018-03-16T09:57:10Z</time>
      </trkpt>
      <trkpt lat="45.90076" lon="4.7767">
        <ele>183</ele>
        <time>2018-03-16T09:57:11Z</time>
      </trkpt>
      <trkpt lat="45.90072" lon="4.7767">
        <ele>184</ele>
        <time>2018-03-16T09:57:12Z</time>
      </trkpt>
      <trkpt lat="45.90066" lon="4.77669">
        <ele>184</ele>
        <time>2018-03-16T09:57:13Z</time>
      </trkpt>
      <trkpt lat="45.90061" lon="4.77669">
        <ele>184</ele>
        <time>2018-03-16T09:57:14Z</time>
      </trkpt>
      <trkpt lat="45.90056" lon="4.77669">
        <ele>184</ele>
        <time>2018-03-16T09:57:15Z</time>
      </trkpt>
      <trkpt lat="45.90051" lon="4.77669">
        <ele>184</ele>
        <time>2018-03-16T09:57:16Z</time>
      </trkpt>
      <trkpt lat="45.90046" lon="4.77669">
        <ele>185</ele>
        <time>2018-03-16T09:57:17Z</time>
      </trkpt>
      <trkpt lat="45.90042" lon="4.77668">
        <ele>185</ele>
        <time>2018-03-16T09:57:18Z</time>
      </trkpt>
      <trkpt lat="45.90033" lon="4.77668">
        <ele>185</ele>
        <time>2018-03-16T09:57:20Z</time>
      </trkpt>
      <trkpt lat="45.90028" lon="4.77669">
        <ele>185</ele>
        <time>2018-03-16T09:57:21Z</time>
      </trkpt>
      <trkpt lat="45.90023" lon="4.77668">
        <ele>185</ele>
        <time>2018-03-16T09:57:22Z</time>
      </trkpt>
      <trkpt lat="45.90018" lon="4.77668">
        <ele>185</ele>
        <time>2018-03-16T09:57:23Z</time>
      </trkpt>
      <trkpt lat="45.90014" lon="4.77667">
        <ele>185</ele>
        <time>2018-03-16T09:57:24Z</time>
      </trkpt>
      <trkpt lat="45.90009" lon="4.77666">
        <ele>185</ele>
        <time>2018-03-16T09:57:25Z</time>
      </trkpt>
      <trkpt lat="45.90005" lon="4.77666">
        <ele>185</ele>
        <time>2018-03-16T09:57:26Z</time>
      </trkpt>
      <trkpt lat="45.9" lon="4.77666">
        <ele>186</ele>
        <time>2018-03-16T09:57:27Z</time>
      </trkpt>
      <trkpt lat="45.89995" lon="4.77665">
        <ele>186</ele>
        <time>2018-03-16T09:57:28Z</time>
      </trkpt>
      <trkpt lat="45.8999" lon="4.77665">
        <ele>186</ele>
        <time>2018-03-16T09:57:29Z</time>
      </trkpt>
      <trkpt lat="45.89982" lon="4.77664">
        <ele>185</ele>
        <time>2018-03-16T09:57:31Z</time>
      </trkpt>
      <trkpt lat="45.89978" lon="4.77664">
        <ele>185</ele>
        <time>2018-03-16T09:57:32Z</time>
      </trkpt>
      <trkpt lat="45.89973" lon="4.77663">
        <ele>185</ele>
        <time>2018-03-16T09:57:33Z</time>
      </trkpt>
      <trkpt lat="45.89969" lon="4.77662">
        <ele>185</ele>
        <time>2018-03-16T09:57:34Z</time>
      </trkpt>
      <trkpt lat="45.89964" lon="4.77661">
        <ele>185</ele>
        <time>2018-03-16T09:57:35Z</time>
      </trkpt>
      <trkpt lat="45.89958" lon="4.7766">
        <ele>185</ele>
        <time>2018-03-16T09:57:36Z</time>
      </trkpt>
      <trkpt lat="45.8995" lon="4.77661">
        <ele>185</ele>
        <time>2018-03-16T09:57:38Z</time>
      </trkpt>
      <trkpt lat="45.89946" lon="4.77661">
        <ele>185</ele>
        <time>2018-03-16T09:57:39Z</time>
      </trkpt>
      <trkpt lat="45.89937" lon="4.77661">
        <ele>186</ele>
        <time>2018-03-16T09:57:41Z</time>
      </trkpt>
      <trkpt lat="45.89933" lon="4.7766">
        <ele>186</ele>
        <time>2018-03-16T09:57:42Z</time>
      </trkpt>
      <trkpt lat="45.89925" lon="4.77663">
        <ele>186</ele>
        <time>2018-03-16T09:57:44Z</time>
      </trkpt>
      <trkpt lat="45.89921" lon="4.77662">
        <ele>186</ele>
        <time>2018-03-16T09:57:45Z</time>
      </trkpt>
      <trkpt lat="45.89912" lon="4.77662">
        <ele>187</ele>
        <time>2018-03-16T09:57:47Z</time>
      </trkpt>
      <trkpt lat="45.89907" lon="4.77662">
        <ele>186</ele>
        <time>2018-03-16T09:57:48Z</time>
      </trkpt>
      <trkpt lat="45.89903" lon="4.77661">
        <ele>186</ele>
        <time>2018-03-16T09:57:49Z</time>
      </trkpt>
      <trkpt lat="45.89898" lon="4.7766">
        <ele>186</ele>
        <time>2018-03-16T09:57:50Z</time>
      </trkpt>
      <trkpt lat="45.89894" lon="4.7766">
        <ele>186</ele>
        <time>2018-03-16T09:57:51Z</time>
      </trkpt>
      <trkpt lat="45.89889" lon="4.7766">
        <ele>186</ele>
        <time>2018-03-16T09:57:52Z</time>
      </trkpt>
      <trkpt lat="45.89881" lon="4.77661">
        <ele>186</ele>
        <time>2018-03-16T09:57:54Z</time>
      </trkpt>
      <trkpt lat="45.89876" lon="4.77661">
        <ele>186</ele>
        <time>2018-03-16T09:57:55Z</time>
      </trkpt>
      <trkpt lat="45.89868" lon="4.77663">
        <ele>186</ele>
        <time>2018-03-16T09:57:57Z</time>
      </trkpt>
      <trkpt lat="45.89864" lon="4.77663">
        <ele>187</ele>
        <time>2018-03-16T09:57:58Z</time>
      </trkpt>
      <trkpt lat="45.89856" lon="4.77663">
        <ele>187</ele>
        <time>2018-03-16T09:58:00Z</time>
      </trkpt>
      <trkpt lat="45.89852" lon="4.77664">
        <ele>187</ele>
        <time>2018-03-16T09:58:01Z</time>
      </trkpt>
      <trkpt lat="45.89845" lon="4.77663">
        <ele>188</ele>
        <time>2018-03-16T09:58:03Z</time>
      </trkpt>
      <trkpt lat="45.89841" lon="4.77664">
        <ele>188</ele>
        <time>2018-03-16T09:58:04Z</time>
      </trkpt>
      <trkpt lat="45.89834" lon="4.77664">
        <ele>189</ele>
        <time>2018-03-16T09:58:06Z</time>
      </trkpt>
      <trkpt lat="45.8983" lon="4.77664">
        <ele>189</ele>
        <time>2018-03-16T09:58:07Z</time>
      </trkpt>
      <trkpt lat="45.89822" lon="4.77663">
        <ele>189</ele>
        <time>2018-03-16T09:58:09Z</time>
      </trkpt>
      <trkpt lat="45.89818" lon="4.77663">
        <ele>188</ele>
        <time>2018-03-16T09:58:10Z</time>
      </trkpt>
      <trkpt lat="45.89811" lon="4.77663">
        <ele>188</ele>
        <time>2018-03-16T09:58:12Z</time>
      </trkpt>
      <trkpt lat="45.89809" lon="4.77663">
        <ele>188</ele>
        <time>2018-03-16T09:58:13Z</time>
      </trkpt>
      <trkpt lat="45.89802" lon="4.77663">
        <ele>189</ele>
        <time>2018-03-16T09:58:16Z</time>
      </trkpt>
      <trkpt lat="45.89799" lon="4.77663">
        <ele>189</ele>
        <time>2018-03-16T09:58:17Z</time>
      </trkpt>
      <trkpt lat="45.8979" lon="4.77662">
        <ele>189</ele>
        <time>2018-03-16T09:58:20Z</time>
      </trkpt>
      <trkpt lat="45.89788" lon="4.77662">
        <ele>189</ele>
        <time>2018-03-16T09:58:21Z</time>
      </trkpt>
      <trkpt lat="45.89781" lon="4.77661">
        <ele>189</ele>
        <time>2018-03-16T09:58:23Z</time>
      </trkpt>
      <trkpt lat="45.89778" lon="4.77661">
        <ele>189</ele>
        <time>2018-03-16T09:58:24Z</time>
      </trkpt>
      <trkpt lat="45.89769" lon="4.7766">
        <ele>190</ele>
        <time>2018-03-16T09:58:27Z</time>
      </trkpt>
      <trkpt lat="45.89759" lon="4.77659">
        <ele>190</ele>
        <time>2018-03-16T09:58:28Z</time>
      </trkpt>
      <trkpt lat="45.89751" lon="4.77657">
        <ele>191</ele>
        <time>2018-03-16T09:58:30Z</time>
      </trkpt>
      <trkpt lat="45.89747" lon="4.77656">
        <ele>191</ele>
        <time>2018-03-16T09:58:31Z</time>
      </trkpt>
      <trkpt lat="45.89739" lon="4.77655">
        <ele>191</ele>
        <time>2018-03-16T09:58:33Z</time>
      </trkpt>
      <trkpt lat="45.89735" lon="4.77654">
        <ele>191</ele>
        <time>2018-03-16T09:58:34Z</time>
      </trkpt>
      <trkpt lat="45.89727" lon="4.77653">
        <ele>190</ele>
        <time>2018-03-16T09:58:36Z</time>
      </trkpt>
      <trkpt lat="45.89722" lon="4.77652">
        <ele>190</ele>
        <time>2018-03-16T09:58:37Z</time>
      </trkpt>
      <trkpt lat="45.89713" lon="4.77651">
        <ele>190</ele>
        <time>2018-03-16T09:58:39Z</time>
      </trkpt>
      <trkpt lat="45.89709" lon="4.7765">
        <ele>190</ele>
        <time>2018-03-16T09:58:40Z</time>
      </trkpt>
      <trkpt lat="45.897" lon="4.77649">
        <ele>190</ele>
        <time>2018-03-16T09:58:42Z</time>
      </trkpt>
      <trkpt lat="45.89696" lon="4.77649">
        <ele>190</ele>
        <time>2018-03-16T09:58:43Z</time>
      </trkpt>
      <trkpt lat="45.89688" lon="4.77647">
        <ele>190</ele>
        <time>2018-03-16T09:58:45Z</time>
      </trkpt>
      <trkpt lat="45.89684" lon="4.77645">
        <ele>190</ele>
        <time>2018-03-16T09:58:46Z</time>
      </trkpt>
      <trkpt lat="45.89675" lon="4.77645">
        <ele>190</ele>
        <time>2018-03-16T09:58:48Z</time>
      </trkpt>
      <trkpt lat="45.89671" lon="4.77644">
        <ele>190</ele>
        <time>2018-03-16T09:58:49Z</time>
      </trkpt>
      <trkpt lat="45.89662" lon="4.77642">
        <ele>190</ele>
        <time>2018-03-16T09:58:51Z</time>
      </trkpt>
      <trkpt lat="45.89658" lon="4.77642">
        <ele>190</ele>
        <time>2018-03-16T09:58:52Z</time>
      </trkpt>
      <trkpt lat="45.89654" lon="4.77641">
        <ele>190</ele>
        <time>2018-03-16T09:58:53Z</time>
      </trkpt>
      <trkpt lat="45.89649" lon="4.77641">
        <ele>190</ele>
        <time>2018-03-16T09:58:54Z</time>
      </trkpt>
      <trkpt lat="45.89644" lon="4.77639">
        <ele>190</ele>
        <time>2018-03-16T09:58:55Z</time>
      </trkpt>
      <trkpt lat="45.89639" lon="4.77638">
        <ele>190</ele>
        <time>2018-03-16T09:58:56Z</time>
      </trkpt>
      <trkpt lat="45.89634" lon="4.77638">
        <ele>190</ele>
        <time>2018-03-16T09:58:57Z</time>
      </trkpt>
      <trkpt lat="45.89629" lon="4.77637">
        <ele>191</ele>
        <time>2018-03-16T09:58:58Z</time>
      </trkpt>
      <trkpt lat="45.89624" lon="4.77636">
        <ele>191</ele>
        <time>2018-03-16T09:58:59Z</time>
      </trkpt>
      <trkpt lat="45.89619" lon="4.77634">
        <ele>191</ele>
        <time>2018-03-16T09:59:00Z</time>
      </trkpt>
      <trkpt lat="45.89611" lon="4.77632">
        <ele>191</ele>
        <time>2018-03-16T09:59:02Z</time>
      </trkpt>
      <trkpt lat="45.89607" lon="4.77631">
        <ele>191</ele>
        <time>2018-03-16T09:59:03Z</time>
      </trkpt>
      <trkpt lat="45.89598" lon="4.77632">
        <ele>191</ele>
        <time>2018-03-16T09:59:05Z</time>
      </trkpt>
      <trkpt lat="45.89593" lon="4.77631">
        <ele>191</ele>
        <time>2018-03-16T09:59:06Z</time>
      </trkpt>
      <trkpt lat="45.89588" lon="4.77629">
        <ele>191</ele>
        <time>2018-03-16T09:59:07Z</time>
      </trkpt>
      <trkpt lat="45.89584" lon="4.77628">
        <ele>191</ele>
        <time>2018-03-16T09:59:08Z</time>
      </trkpt>
      <trkpt lat="45.89575" lon="4.77626">
        <ele>192</ele>
        <time>2018-03-16T09:59:10Z</time>
      </trkpt>
      <trkpt lat="45.8957" lon="4.77625">
        <ele>192</ele>
        <time>2018-03-16T09:59:11Z</time>
      </trkpt>
      <trkpt lat="45.89566" lon="4.77623">
        <ele>192</ele>
        <time>2018-03-16T09:59:12Z</time>
      </trkpt>
      <trkpt lat="45.8956" lon="4.77623">
        <ele>192</ele>
        <time>2018-03-16T09:59:13Z</time>
      </trkpt>
      <trkpt lat="45.89554" lon="4.77622">
        <ele>192</ele>
        <time>2018-03-16T09:59:14Z</time>
      </trkpt>
      <trkpt lat="45.89549" lon="4.77622">
        <ele>192</ele>
        <time>2018-03-16T09:59:15Z</time>
      </trkpt>
      <trkpt lat="45.89543" lon="4.77621">
        <ele>192</ele>
        <time>2018-03-16T09:59:16Z</time>
      </trkpt>
      <trkpt lat="45.89538" lon="4.77621">
        <ele>192</ele>
        <time>2018-03-16T09:59:17Z</time>
      </trkpt>
      <trkpt lat="45.89533" lon="4.77621">
        <ele>192</ele>
        <time>2018-03-16T09:59:18Z</time>
      </trkpt>
      <trkpt lat="45.89529" lon="4.7762">
        <ele>192</ele>
        <time>2018-03-16T09:59:19Z</time>
      </trkpt>
      <trkpt lat="45.8952" lon="4.77618">
        <ele>192</ele>
        <time>2018-03-16T09:59:21Z</time>
      </trkpt>
      <trkpt lat="45.89515" lon="4.77617">
        <ele>192</ele>
        <time>2018-03-16T09:59:22Z</time>
      </trkpt>
      <trkpt lat="45.8951" lon="4.77616">
        <ele>192</ele>
        <time>2018-03-16T09:59:23Z</time>
      </trkpt>
      <trkpt lat="45.89505" lon="4.77615">
        <ele>192</ele>
        <time>2018-03-16T09:59:24Z</time>
      </trkpt>
      <trkpt lat="45.895" lon="4.77613">
        <ele>193</ele>
        <time>2018-03-16T09:59:25Z</time>
      </trkpt>
      <trkpt lat="45.89495" lon="4.77611">
        <ele>193</ele>
        <time>2018-03-16T09:59:26Z</time>
      </trkpt>
      <trkpt lat="45.8949" lon="4.7761">
        <ele>193</ele>
        <time>2018-03-16T09:59:27Z</time>
      </trkpt>
      <trkpt lat="45.89485" lon="4.77609">
        <ele>193</ele>
        <time>2018-03-16T09:59:28Z</time>
      </trkpt>
      <trkpt lat="45.8948" lon="4.77607">
        <ele>193</ele>
        <time>2018-03-16T09:59:29Z</time>
      </trkpt>
      <trkpt lat="45.89475" lon="4.77605">
        <ele>193</ele>
        <time>2018-03-16T09:59:30Z</time>
      </trkpt>
      <trkpt lat="45.8947" lon="4.77604">
        <ele>193</ele>
        <time>2018-03-16T09:59:31Z</time>
      </trkpt>
      <trkpt lat="45.89466" lon="4.77604">
        <ele>193</ele>
        <time>2018-03-16T09:59:32Z</time>
      </trkpt>
      <trkpt lat="45.89461" lon="4.77601">
        <ele>193</ele>
        <time>2018-03-16T09:59:33Z</time>
      </trkpt>
      <trkpt lat="45.89457" lon="4.77599">
        <ele>193</ele>
        <time>2018-03-16T09:59:34Z</time>
      </trkpt>
      <trkpt lat="45.89452" lon="4.77598">
        <ele>193</ele>
        <time>2018-03-16T09:59:35Z</time>
      </trkpt>
      <trkpt lat="45.89447" lon="4.77596">
        <ele>193</ele>
        <time>2018-03-16T09:59:36Z</time>
      </trkpt>
      <trkpt lat="45.89443" lon="4.77594">
        <ele>193</ele>
        <time>2018-03-16T09:59:37Z</time>
      </trkpt>
      <trkpt lat="45.89438" lon="4.77593">
        <ele>193</ele>
        <time>2018-03-16T09:59:38Z</time>
      </trkpt>
      <trkpt lat="45.89433" lon="4.77591">
        <ele>193</ele>
        <time>2018-03-16T09:59:39Z</time>
      </trkpt>
      <trkpt lat="45.89428" lon="4.77589">
        <ele>194</ele>
        <time>2018-03-16T09:59:40Z</time>
      </trkpt>
      <trkpt lat="45.89424" lon="4.77587">
        <ele>194</ele>
        <time>2018-03-16T09:59:41Z</time>
      </trkpt>
      <trkpt lat="45.89419" lon="4.77585">
        <ele>194</ele>
        <time>2018-03-16T09:59:42Z</time>
      </trkpt>
      <trkpt lat="45.89413" lon="4.77581">
        <ele>194</ele>
        <time>2018-03-16T09:59:43Z</time>
      </trkpt>
      <trkpt lat="45.89409" lon="4.77579">
        <ele>194</ele>
        <time>2018-03-16T09:59:44Z</time>
      </trkpt>
      <trkpt lat="45.89404" lon="4.77577">
        <ele>194</ele>
        <time>2018-03-16T09:59:45Z</time>
      </trkpt>
      <trkpt lat="45.89399" lon="4.77575">
        <ele>194</ele>
        <time>2018-03-16T09:59:46Z</time>
      </trkpt>
      <trkpt lat="45.89394" lon="4.77572">
        <ele>194</ele>
        <time>2018-03-16T09:59:47Z</time>
      </trkpt>
      <trkpt lat="45.89387" lon="4.7757">
        <ele>194</ele>
        <time>2018-03-16T09:59:48Z</time>
      </trkpt>
      <trkpt lat="45.89382" lon="4.77568">
        <ele>194</ele>
        <time>2018-03-16T09:59:49Z</time>
      </trkpt>
      <trkpt lat="45.89376" lon="4.77566">
        <ele>194</ele>
        <time>2018-03-16T09:59:50Z</time>
      </trkpt>
      <trkpt lat="45.89372" lon="4.77564">
        <ele>194</ele>
        <time>2018-03-16T09:59:51Z</time>
      </trkpt>
      <trkpt lat="45.89366" lon="4.77562">
        <ele>194</ele>
        <time>2018-03-16T09:59:52Z</time>
      </trkpt>
      <trkpt lat="45.89361" lon="4.77559">
        <ele>194</ele>
        <time>2018-03-16T09:59:53Z</time>
      </trkpt>
      <trkpt lat="45.89356" lon="4.77557">
        <ele>194</ele>
        <time>2018-03-16T09:59:54Z</time>
      </trkpt>
      <trkpt lat="45.89351" lon="4.77556">
        <ele>194</ele>
        <time>2018-03-16T09:59:55Z</time>
      </trkpt>
      <trkpt lat="45.89346" lon="4.77554">
        <ele>194</ele>
        <time>2018-03-16T09:59:56Z</time>
      </trkpt>
      <trkpt lat="45.89342" lon="4.77552">
        <ele>194</ele>
        <time>2018-03-16T09:59:57Z</time>
      </trkpt>
      <trkpt lat="45.89337" lon="4.7755">
        <ele>194</ele>
        <time>2018-03-16T09:59:58Z</time>
      </trkpt>
      <trkpt lat="45.89332" lon="4.77547">
        <ele>194</ele>
        <time>2018-03-16T09:59:59Z</time>
      </trkpt>
      <trkpt lat="45.89327" lon="4.77546">
        <ele>194</ele>
        <time>2018-03-16T10:00:00Z</time>
      </trkpt>
      <trkpt lat="45.89322" lon="4.77544">
        <ele>194</ele>
        <time>2018-03-16T10:00:01Z</time>
      </trkpt>
      <trkpt lat="45.89317" lon="4.7754">
        <ele>194</ele>
        <time>2018-03-16T10:00:02Z</time>
      </trkpt>
      <trkpt lat="45.89311" lon="4.77538">
        <ele>194</ele>
        <time>2018-03-16T10:00:03Z</time>
      </trkpt>
      <trkpt lat="45.89306" lon="4.77537">
        <ele>194</ele>
        <time>2018-03-16T10:00:04Z</time>
      </trkpt>
      <trkpt lat="45.89301" lon="4.77534">
        <ele>194</ele>
        <time>2018-03-16T10:00:05Z</time>
      </trkpt>
      <trkpt lat="45.89296" lon="4.77531">
        <ele>194</ele>
        <time>2018-03-16T10:00:06Z</time>
      </trkpt>
      <trkpt lat="45.89291" lon="4.7753">
        <ele>193</ele>
        <time>2018-03-16T10:00:07Z</time>
      </trkpt>
      <trkpt lat="45.89286" lon="4.77527">
        <ele>193</ele>
        <time>2018-03-16T10:00:08Z</time>
      </trkpt>
      <trkpt lat="45.89281" lon="4.77526">
        <ele>193</ele>
        <time>2018-03-16T10:00:09Z</time>
      </trkpt>
      <trkpt lat="45.89275" lon="4.77525">
        <ele>193</ele>
        <time>2018-03-16T10:00:10Z</time>
      </trkpt>
      <trkpt lat="45.89269" lon="4.77524">
        <ele>193</ele>
        <time>2018-03-16T10:00:11Z</time>
      </trkpt>
      <trkpt lat="45.89264" lon="4.77524">
        <ele>193</ele>
        <time>2018-03-16T10:00:12Z</time>
      </trkpt>
      <trkpt lat="45.89257" lon="4.77524">
        <ele>193</ele>
        <time>2018-03-16T10:00:13Z</time>
      </trkpt>
      <trkpt lat="45.89252" lon="4.77524">
        <ele>193</ele>
        <time>2018-03-16T10:00:14Z</time>
      </trkpt>
      <trkpt lat="45.89246" lon="4.77525">
        <ele>193</ele>
        <time>2018-03-16T10:00:15Z</time>
      </trkpt>
      <trkpt lat="45.89241" lon="4.77526">
        <ele>193</ele>
        <time>2018-03-16T10:00:16Z</time>
      </trkpt>
      <trkpt lat="45.89236" lon="4.77526">
        <ele>193</ele>
        <time>2018-03-16T10:00:17Z</time>
      </trkpt>
      <trkpt lat="45.89231" lon="4.77527">
        <ele>194</ele>
        <time>2018-03-16T10:00:18Z</time>
      </trkpt>
      <trkpt lat="45.89226" lon="4.77528">
        <ele>194</ele>
        <time>2018-03-16T10:00:19Z</time>
      </trkpt>
      <trkpt lat="45.8922" lon="4.77529">
        <ele>194</ele>
        <time>2018-03-16T10:00:20Z</time>
      </trkpt>
      <trkpt lat="45.89215" lon="4.7753">
        <ele>194</ele>
        <time>2018-03-16T10:00:21Z</time>
      </trkpt>
      <trkpt lat="45.8921" lon="4.77531">
        <ele>194</ele>
        <time>2018-03-16T10:00:22Z</time>
      </trkpt>
      <trkpt lat="45.89205" lon="4.77532">
        <ele>194</ele>
        <time>2018-03-16T10:00:23Z</time>
      </trkpt>
      <trkpt lat="45.892" lon="4.77533">
        <ele>194</ele>
        <time>2018-03-16T10:00:24Z</time>
      </trkpt>
      <trkpt lat="45.89195" lon="4.77534">
        <ele>194</ele>
        <time>2018-03-16T10:00:25Z</time>
      </trkpt>
      <trkpt lat="45.8919" lon="4.77535">
        <ele>194</ele>
        <time>2018-03-16T10:00:26Z</time>
      </trkpt>
      <trkpt lat="45.89185" lon="4.77537">
        <ele>194</ele>
        <time>2018-03-16T10:00:27Z</time>
      </trkpt>
      <trkpt lat="45.89179" lon="4.77538">
        <ele>194</ele>
        <time>2018-03-16T10:00:28Z</time>
      </trkpt>
      <trkpt lat="45.89175" lon="4.77539">
        <ele>194</ele>
        <time>2018-03-16T10:00:29Z</time>
      </trkpt>
      <trkpt lat="45.89169" lon="4.7754">
        <ele>194</ele>
        <time>2018-03-16T10:00:30Z</time>
      </trkpt>
      <trkpt lat="45.89164" lon="4.77541">
        <ele>195</ele>
        <time>2018-03-16T10:00:31Z</time>
      </trkpt>
      <trkpt lat="45.89158" lon="4.77541">
        <ele>195</ele>
        <time>2018-03-16T10:00:32Z</time>
      </trkpt>
      <trkpt lat="45.89153" lon="4.77542">
        <ele>195</ele>
        <time>2018-03-16T10:00:33Z</time>
      </trkpt>
      <trkpt lat="45.89148" lon="4.77542">
        <ele>195</ele>
        <time>2018-03-16T10:00:34Z</time>
      </trkpt>
      <trkpt lat="45.89144" lon="4.77545">
        <ele>195</ele>
        <time>2018-03-16T10:00:35Z</time>
      </trkpt>
      <trkpt lat="45.89139" lon="4.77546">
        <ele>195</ele>
        <time>2018-03-16T10:00:36Z</time>
      </trkpt>
      <trkpt lat="45.89134" lon="4.77548">
        <ele>195</ele>
        <time>2018-03-16T10:00:37Z</time>
      </trkpt>
      <trkpt lat="45.89129" lon="4.77549">
        <ele>195</ele>
        <time>2018-03-16T10:00:38Z</time>
      </trkpt>
      <trkpt lat="45.89123" lon="4.77551">
        <ele>195</ele>
        <time>2018-03-16T10:00:39Z</time>
      </trkpt>
      <trkpt lat="45.89118" lon="4.77554">
        <ele>195</ele>
        <time>2018-03-16T10:00:40Z</time>
      </trkpt>
      <trkpt lat="45.89114" lon="4.77557">
        <ele>195</ele>
        <time>2018-03-16T10:00:41Z</time>
      </trkpt>
      <trkpt lat="45.89109" lon="4.77559">
        <ele>195</ele>
        <time>2018-03-16T10:00:42Z</time>
      </trkpt>
      <trkpt lat="45.89105" lon="4.77562">
        <ele>195</ele>
        <time>2018-03-16T10:00:43Z</time>
      </trkpt>
      <trkpt lat="45.891" lon="4.77565">
        <ele>196</ele>
        <time>2018-03-16T10:00:44Z</time>
      </trkpt>
      <trkpt lat="45.89096" lon="4.77566">
        <ele>196</ele>
        <time>2018-03-16T10:00:45Z</time>
      </trkpt>
      <trkpt lat="45.89092" lon="4.77569">
        <ele>196</ele>
        <time>2018-03-16T10:00:46Z</time>
      </trkpt>
      <trkpt lat="45.89087" lon="4.77572">
        <ele>196</ele>
        <time>2018-03-16T10:00:47Z</time>
      </trkpt>
      <trkpt lat="45.89083" lon="4.77575">
        <ele>196</ele>
        <time>2018-03-16T10:00:48Z</time>
      </trkpt>
      <trkpt lat="45.89079" lon="4.77579">
        <ele>196</ele>
        <time>2018-03-16T10:00:49Z</time>
      </trkpt>
      <trkpt lat="45.89075" lon="4.77582">
        <ele>196</ele>
        <time>2018-03-16T10:00:50Z</time>
      </trkpt>
      <trkpt lat="45.89072" lon="4.77586">
        <ele>196</ele>
        <time>2018-03-16T10:00:51Z</time>
      </trkpt>
      <trkpt lat="45.89068" lon="4.77591">
        <ele>196</ele>
        <time>2018-03-16T10:00:52Z</time>
      </trkpt>
      <trkpt lat="45.8906" lon="4.77597">
        <ele>197</ele>
        <time>2018-03-16T10:00:54Z</time>
      </trkpt>
      <trkpt lat="45.89056" lon="4.776">
        <ele>197</ele>
        <time>2018-03-16T10:00:55Z</time>
      </trkpt>
      <trkpt lat="45.89048" lon="4.77606">
        <ele>197</ele>
        <time>2018-03-16T10:00:57Z</time>
      </trkpt>
      <trkpt lat="45.89044" lon="4.77609">
        <ele>197</ele>
        <time>2018-03-16T10:00:58Z</time>
      </trkpt>
      <trkpt lat="45.89041" lon="4.77614">
        <ele>197</ele>
        <time>2018-03-16T10:00:59Z</time>
      </trkpt>
      <trkpt lat="45.89036" lon="4.77617">
        <ele>197</ele>
        <time>2018-03-16T10:01:00Z</time>
      </trkpt>
      <trkpt lat="45.89031" lon="4.7762">
        <ele>197</ele>
        <time>2018-03-16T10:01:01Z</time>
      </trkpt>
      <trkpt lat="45.89027" lon="4.77623">
        <ele>197</ele>
        <time>2018-03-16T10:01:02Z</time>
      </trkpt>
      <trkpt lat="45.89023" lon="4.77626">
        <ele>197</ele>
        <time>2018-03-16T10:01:03Z</time>
      </trkpt>
      <trkpt lat="45.89019" lon="4.7763">
        <ele>197</ele>
        <time>2018-03-16T10:01:04Z</time>
      </trkpt>
      <trkpt lat="45.89015" lon="4.77634">
        <ele>197</ele>
        <time>2018-03-16T10:01:05Z</time>
      </trkpt>
      <trkpt lat="45.89011" lon="4.77637">
        <ele>197</ele>
        <time>2018-03-16T10:01:06Z</time>
      </trkpt>
      <trkpt lat="45.89007" lon="4.77641">
        <ele>197</ele>
        <time>2018-03-16T10:01:07Z</time>
      </trkpt>
      <trkpt lat="45.89003" lon="4.77645">
        <ele>197</ele>
        <time>2018-03-16T10:01:08Z</time>
      </trkpt>
      <trkpt lat="45.88999" lon="4.77649">
        <ele>198</ele>
        <time>2018-03-16T10:01:09Z</time>
      </trkpt>
      <trkpt lat="45.88995" lon="4.77654">
        <ele>198</ele>
        <time>2018-03-16T10:01:10Z</time>
      </trkpt>
      <trkpt lat="45.88991" lon="4.77657">
        <ele>198</ele>
        <time>2018-03-16T10:01:11Z</time>
      </trkpt>
      <trkpt lat="45.88987" lon="4.7766">
        <ele>198</ele>
        <time>2018-03-16T10:01:12Z</time>
      </trkpt>
      <trkpt lat="45.88982" lon="4.77663">
        <ele>198</ele>
        <time>2018-03-16T10:01:13Z</time>
      </trkpt>
      <trkpt lat="45.88977" lon="4.77666">
        <ele>198</ele>
        <time>2018-03-16T10:01:14Z</time>
      </trkpt>
      <trkpt lat="45.88972" lon="4.77669">
        <ele>198</ele>
        <time>2018-03-16T10:01:15Z</time>
      </trkpt>
      <trkpt lat="45.88968" lon="4.77671">
        <ele>198</ele>
        <time>2018-03-16T10:01:16Z</time>
      </trkpt>
      <trkpt lat="45.88962" lon="4.77673">
        <ele>198</ele>
        <time>2018-03-16T10:01:17Z</time>
      </trkpt>
      <trkpt lat="45.88958" lon="4.77676">
        <ele>199</ele>
        <time>2018-03-16T10:01:18Z</time>
      </trkpt>
      <trkpt lat="45.8895" lon="4.77681">
        <ele>199</ele>
        <time>2018-03-16T10:01:20Z</time>
      </trkpt>
      <trkpt lat="45.88946" lon="4.77683">
        <ele>199</ele>
        <time>2018-03-16T10:01:21Z</time>
      </trkpt>
      <trkpt lat="45.88941" lon="4.77686">
        <ele>199</ele>
        <time>2018-03-16T10:01:22Z</time>
      </trkpt>
      <trkpt lat="45.88937" lon="4.77688">
        <ele>199</ele>
        <time>2018-03-16T10:01:23Z</time>
      </trkpt>
      <trkpt lat="45.88929" lon="4.77691">
        <ele>199</ele>
        <time>2018-03-16T10:01:25Z</time>
      </trkpt>
      <trkpt lat="45.88925" lon="4.77693">
        <ele>199</ele>
        <time>2018-03-16T10:01:26Z</time>
      </trkpt>
      <trkpt lat="45.88916" lon="4.77696">
        <ele>200</ele>
        <time>2018-03-16T10:01:28Z</time>
      </trkpt>
      <trkpt lat="45.8891" lon="4.77698">
        <ele>200</ele>
        <time>2018-03-16T10:01:29Z</time>
      </trkpt>
      <trkpt lat="45.88902" lon="4.77701">
        <ele>200</ele>
        <time>2018-03-16T10:01:31Z</time>
      </trkpt>
      <trkpt lat="45.88899" lon="4.77702">
        <ele>200</ele>
        <time>2018-03-16T10:01:32Z</time>
      </trkpt>
      <trkpt lat="45.88892" lon="4.77702">
        <ele>200</ele>
        <time>2018-03-16T10:01:33Z</time>
      </trkpt>
      <trkpt lat="45.88888" lon="4.77702">
        <ele>200</ele>
        <time>2018-03-16T10:01:34Z</time>
      </trkpt>
      <trkpt lat="45.8888" lon="4.77703">
        <ele>200</ele>
        <time>2018-03-16T10:01:36Z</time>
      </trkpt>
      <trkpt lat="45.88876" lon="4.77704">
        <ele>200</ele>
        <time>2018-03-16T10:01:37Z</time>
      </trkpt>
      <trkpt lat="45.88868" lon="4.77704">
        <ele>201</ele>
        <time>2018-03-16T10:01:39Z</time>
      </trkpt>
      <trkpt lat="45.88864" lon="4.77704">
        <ele>201</ele>
        <time>2018-03-16T10:01:40Z</time>
      </trkpt>
      <trkpt lat="45.88855" lon="4.77704">
        <ele>201</ele>
        <time>2018-03-16T10:01:42Z</time>
      </trkpt>
      <trkpt lat="45.88851" lon="4.77704">
        <ele>201</ele>
        <time>2018-03-16T10:01:43Z</time>
      </trkpt>
      <trkpt lat="45.88846" lon="4.77704">
        <ele>201</ele>
        <time>2018-03-16T10:01:44Z</time>
      </trkpt>
      <trkpt lat="45.88842" lon="4.77704">
        <ele>201</ele>
        <time>2018-03-16T10:01:45Z</time>
      </trkpt>
      <trkpt lat="45.88833" lon="4.77704">
        <ele>201</ele>
        <time>2018-03-16T10:01:47Z</time>
      </trkpt>
      <trkpt lat="45.88828" lon="4.77704">
        <ele>201</ele>
        <time>2018-03-16T10:01:48Z</time>
      </trkpt>
      <trkpt lat="45.88819" lon="4.77704">
        <ele>202</ele>
        <time>2018-03-16T10:01:50Z</time>
      </trkpt>
      <trkpt lat="45.88815" lon="4.77704">
        <ele>202</ele>
        <time>2018-03-16T10:01:51Z</time>
      </trkpt>
      <trkpt lat="45.8881" lon="4.77704">
        <ele>202</ele>
        <time>2018-03-16T10:01:52Z</time>
      </trkpt>
      <trkpt lat="45.88806" lon="4.77705">
        <ele>202</ele>
        <time>2018-03-16T10:01:53Z</time>
      </trkpt>
      <trkpt lat="45.88797" lon="4.77707">
        <ele>202</ele>
        <time>2018-03-16T10:01:55Z</time>
      </trkpt>
      <trkpt lat="45.88793" lon="4.77706">
        <ele>202</ele>
        <time>2018-03-16T10:01:56Z</time>
      </trkpt>
      <trkpt lat="45.88784" lon="4.77707">
        <ele>202</ele>
        <time>2018-03-16T10:01:58Z</time>
      </trkpt>
      <trkpt lat="45.8878" lon="4.77708">
        <ele>202</ele>
        <time>2018-03-16T10:01:59Z</time>
      </trkpt>
      <trkpt lat="45.88772" lon="4.77707">
        <ele>202</ele>
        <time>2018-03-16T10:02:01Z</time>
      </trkpt>
      <trkpt lat="45.88768" lon="4.77707">
        <ele>202</ele>
        <time>2018-03-16T10:02:02Z</time>
      </trkpt>
      <trkpt lat="45.88763" lon="4.77707">
        <ele>202</ele>
        <time>2018-03-16T10:02:03Z</time>
      </trkpt>
      <trkpt lat="45.88758" lon="4.77707">
        <ele>202</ele>
        <time>2018-03-16T10:02:04Z</time>
      </trkpt>
      <trkpt lat="45.88749" lon="4.77708">
        <ele>202</ele>
        <time>2018-03-16T10:02:06Z</time>
      </trkpt>
      <trkpt lat="45.88745" lon="4.77709">
        <ele>203</ele>
        <time>2018-03-16T10:02:07Z</time>
      </trkpt>
      <trkpt lat="45.88736" lon="4.7771">
        <ele>203</ele>
        <time>2018-03-16T10:02:09Z</time>
      </trkpt>
      <trkpt lat="45.88732" lon="4.7771">
        <ele>203</ele>
        <time>2018-03-16T10:02:10Z</time>
      </trkpt>
      <trkpt lat="45.88723" lon="4.7771">
        <ele>203</ele>
        <time>2018-03-16T10:02:12Z</time>
      </trkpt>
      <trkpt lat="45.88719" lon="4.7771">
        <ele>203</ele>
        <time>2018-03-16T10:02:13Z</time>
      </trkpt>
      <trkpt lat="45.8871" lon="4.77711">
        <ele>203</ele>
        <time>2018-03-16T10:02:15Z</time>
      </trkpt>
      <trkpt lat="45.88706" lon="4.77711">
        <ele>203</ele>
        <time>2018-03-16T10:02:16Z</time>
      </trkpt>
      <trkpt lat="45.88697" lon="4.77711">
        <ele>203</ele>
        <time>2018-03-16T10:02:18Z</time>
      </trkpt>
      <trkpt lat="45.88693" lon="4.77712">
        <ele>203</ele>
        <time>2018-03-16T10:02:19Z</time>
      </trkpt>
      <trkpt lat="45.88684" lon="4.77713">
        <ele>203</ele>
        <time>2018-03-16T10:02:21Z</time>
      </trkpt>
      <trkpt lat="45.8868" lon="4.77713">
        <ele>203</ele>
        <time>2018-03-16T10:02:22Z</time>
      </trkpt>
      <trkpt lat="45.88672" lon="4.77713">
        <ele>203</ele>
        <time>2018-03-16T10:02:24Z</time>
      </trkpt>
      <trkpt lat="45.88668" lon="4.77712">
        <ele>203</ele>
        <time>2018-03-16T10:02:25Z</time>
      </trkpt>
      <trkpt lat="45.8866" lon="4.77713">
        <ele>203</ele>
        <time>2018-03-16T10:02:27Z</time>
      </trkpt>
      <trkpt lat="45.88655" lon="4.77713">
        <ele>203</ele>
        <time>2018-03-16T10:02:28Z</time>
      </trkpt>
      <trkpt lat="45.88647" lon="4.77712">
        <ele>203</ele>
        <time>2018-03-16T10:02:30Z</time>
      </trkpt>
      <trkpt lat="45.88643" lon="4.77711">
        <ele>203</ele>
        <time>2018-03-16T10:02:31Z</time>
      </trkpt>
      <trkpt lat="45.88635" lon="4.77709">
        <ele>203</ele>
        <time>2018-03-16T10:02:33Z</time>
      </trkpt>
      <trkpt lat="45.88631" lon="4.77709">
        <ele>203</ele>
        <time>2018-03-16T10:02:34Z</time>
      </trkpt>
      <trkpt lat="45.88623" lon="4.77708">
        <ele>203</ele>
        <time>2018-03-16T10:02:36Z</time>
      </trkpt>
      <trkpt lat="45.88619" lon="4.77708">
        <ele>203</ele>
        <time>2018-03-16T10:02:37Z</time>
      </trkpt>
      <trkpt lat="45.88611" lon="4.77707">
        <ele>203</ele>
        <time>2018-03-16T10:02:39Z</time>
      </trkpt>
      <trkpt lat="45.88607" lon="4.77706">
        <ele>203</ele>
        <time>2018-03-16T10:02:40Z</time>
      </trkpt>
      <trkpt lat="45.88599" lon="4.77704">
        <ele>203</ele>
        <time>2018-03-16T10:02:42Z</time>
      </trkpt>
      <trkpt lat="45.88595" lon="4.77703">
        <ele>203</ele>
        <time>2018-03-16T10:02:43Z</time>
      </trkpt>
      <trkpt lat="45.88587" lon="4.77702">
        <ele>203</ele>
        <time>2018-03-16T10:02:45Z</time>
      </trkpt>
      <trkpt lat="45.88583" lon="4.77701">
        <ele>204</ele>
        <time>2018-03-16T10:02:46Z</time>
      </trkpt>
      <trkpt lat="45.88575" lon="4.77698">
        <ele>204</ele>
        <time>2018-03-16T10:02:48Z</time>
      </trkpt>
      <trkpt lat="45.88571" lon="4.77697">
        <ele>204</ele>
        <time>2018-03-16T10:02:49Z</time>
      </trkpt>
      <trkpt lat="45.88563" lon="4.77695">
        <ele>204</ele>
        <time>2018-03-16T10:02:51Z</time>
      </trkpt>
      <trkpt lat="45.88559" lon="4.77694">
        <ele>204</ele>
        <time>2018-03-16T10:02:52Z</time>
      </trkpt>
      <trkpt lat="45.88553" lon="4.77693">
        <ele>204</ele>
        <time>2018-03-16T10:02:55Z</time>
      </trkpt>
      <trkpt lat="45.88546" lon="4.77692">
        <ele>204</ele>
        <time>2018-03-16T10:02:56Z</time>
      </trkpt>
      <trkpt lat="45.88538" lon="4.7769">
        <ele>204</ele>
        <time>2018-03-16T10:02:58Z</time>
      </trkpt>
      <trkpt lat="45.88535" lon="4.77689">
        <ele>204</ele>
        <time>2018-03-16T10:02:59Z</time>
      </trkpt>
      <trkpt lat="45.88526" lon="4.77687">
        <ele>204</ele>
        <time>2018-03-16T10:03:01Z</time>
      </trkpt>
      <trkpt lat="45.88522" lon="4.77686">
        <ele>204</ele>
        <time>2018-03-16T10:03:02Z</time>
      </trkpt>
      <trkpt lat="45.88514" lon="4.77685">
        <ele>205</ele>
        <time>2018-03-16T10:03:04Z</time>
      </trkpt>
      <trkpt lat="45.8851" lon="4.77684">
        <ele>205</ele>
        <time>2018-03-16T10:03:05Z</time>
      </trkpt>
      <trkpt lat="45.88502" lon="4.77682">
        <ele>205</ele>
        <time>2018-03-16T10:03:07Z</time>
      </trkpt>
      <trkpt lat="45.88498" lon="4.77681">
        <ele>205</ele>
        <time>2018-03-16T10:03:08Z</time>
      </trkpt>
      <trkpt lat="45.8849" lon="4.77679">
        <ele>205</ele>
        <time>2018-03-16T10:03:10Z</time>
      </trkpt>
      <trkpt lat="45.88487" lon="4.77678">
        <ele>206</ele>
        <time>2018-03-16T10:03:11Z</time>
      </trkpt>
      <trkpt lat="45.88479" lon="4.77676">
        <ele>206</ele>
        <time>2018-03-16T10:03:13Z</time>
      </trkpt>
      <trkpt lat="45.88475" lon="4.77676">
        <ele>206</ele>
        <time>2018-03-16T10:03:14Z</time>
      </trkpt>
      <trkpt lat="45.88467" lon="4.77674">
        <ele>206</ele>
        <time>2018-03-16T10:03:16Z</time>
      </trkpt>
      <trkpt lat="45.88463" lon="4.77673">
        <ele>206</ele>
        <time>2018-03-16T10:03:17Z</time>
      </trkpt>
      <trkpt lat="45.88455" lon="4.77672">
        <ele>206</ele>
        <time>2018-03-16T10:03:19Z</time>
      </trkpt>
      <trkpt lat="45.88451" lon="4.77671">
        <ele>206</ele>
        <time>2018-03-16T10:03:20Z</time>
      </trkpt>
      <trkpt lat="45.88443" lon="4.77669">
        <ele>206</ele>
        <time>2018-03-16T10:03:22Z</time>
      </trkpt>
      <trkpt lat="45.88439" lon="4.77669">
        <ele>206</ele>
        <time>2018-03-16T10:03:23Z</time>
      </trkpt>
      <trkpt lat="45.8843" lon="4.77666">
        <ele>206</ele>
        <time>2018-03-16T10:03:25Z</time>
      </trkpt>
      <trkpt lat="45.88426" lon="4.77665">
        <ele>206</ele>
        <time>2018-03-16T10:03:26Z</time>
      </trkpt>
      <trkpt lat="45.88417" lon="4.77663">
        <ele>206</ele>
        <time>2018-03-16T10:03:28Z</time>
      </trkpt>
      <trkpt lat="45.88412" lon="4.77663">
        <ele>206</ele>
        <time>2018-03-16T10:03:29Z</time>
      </trkpt>
      <trkpt lat="45.88408" lon="4.77662">
        <ele>207</ele>
        <time>2018-03-16T10:03:30Z</time>
      </trkpt>
      <trkpt lat="45.88403" lon="4.77661">
        <ele>207</ele>
        <time>2018-03-16T10:03:31Z</time>
      </trkpt>
      <trkpt lat="45.88394" lon="4.77659">
        <ele>207</ele>
        <time>2018-03-16T10:03:33Z</time>
      </trkpt>
      <trkpt lat="45.8839" lon="4.77658">
        <ele>207</ele>
        <time>2018-03-16T10:03:34Z</time>
      </trkpt>
      <trkpt lat="45.88382" lon="4.77657">
        <ele>207</ele>
        <time>2018-03-16T10:03:36Z</time>
      </trkpt>
      <trkpt lat="45.88378" lon="4.77656">
        <ele>207</ele>
        <time>2018-03-16T10:03:37Z</time>
      </trkpt>
      <trkpt lat="45.8837" lon="4.77655">
        <ele>207</ele>
        <time>2018-03-16T10:03:39Z</time>
      </trkpt>
      <trkpt lat="45.88365" lon="4.77655">
        <ele>207</ele>
        <time>2018-03-16T10:03:40Z</time>
      </trkpt>
      <trkpt lat="45.88357" lon="4.77654">
        <ele>208</ele>
        <time>2018-03-16T10:03:42Z</time>
      </trkpt>
      <trkpt lat="45.88353" lon="4.77653">
        <ele>208</ele>
        <time>2018-03-16T10:03:43Z</time>
      </trkpt>
      <trkpt lat="45.88344" lon="4.77653">
        <ele>208</ele>
        <time>2018-03-16T10:03:45Z</time>
      </trkpt>
      <trkpt lat="45.8834" lon="4.77653">
        <ele>208</ele>
        <time>2018-03-16T10:03:46Z</time>
      </trkpt>
      <trkpt lat="45.88331" lon="4.77653">
        <ele>208</ele>
        <time>2018-03-16T10:03:48Z</time>
      </trkpt>
      <trkpt lat="45.88327" lon="4.77654">
        <ele>209</ele>
        <time>2018-03-16T10:03:49Z</time>
      </trkpt>
      <trkpt lat="45.88319" lon="4.77654">
        <ele>209</ele>
        <time>2018-03-16T10:03:51Z</time>
      </trkpt>
      <trkpt lat="45.88314" lon="4.77654">
        <ele>209</ele>
        <time>2018-03-16T10:03:52Z</time>
      </trkpt>
      <trkpt lat="45.88306" lon="4.77655">
        <ele>209</ele>
        <time>2018-03-16T10:03:54Z</time>
      </trkpt>
      <trkpt lat="45.88302" lon="4.77655">
        <ele>209</ele>
        <time>2018-03-16T10:03:55Z</time>
      </trkpt>
      <trkpt lat="45.88294" lon="4.77656">
        <ele>209</ele>
        <time>2018-03-16T10:03:57Z</time>
      </trkpt>
      <trkpt lat="45.88289" lon="4.77656">
        <ele>209</ele>
        <time>2018-03-16T10:03:58Z</time>
      </trkpt>
      <trkpt lat="45.88281" lon="4.77656">
        <ele>210</ele>
        <time>2018-03-16T10:04:00Z</time>
      </trkpt>
      <trkpt lat="45.88278" lon="4.77656">
        <ele>210</ele>
        <time>2018-03-16T10:04:01Z</time>
      </trkpt>
      <trkpt lat="45.8827" lon="4.77656">
        <ele>210</ele>
        <time>2018-03-16T10:04:03Z</time>
      </trkpt>
      <trkpt lat="45.88266" lon="4.77656">
        <ele>210</ele>
        <time>2018-03-16T10:04:04Z</time>
      </trkpt>
      <trkpt lat="45.88259" lon="4.77657">
        <ele>210</ele>
        <time>2018-03-16T10:04:06Z</time>
      </trkpt>
      <trkpt lat="45.88255" lon="4.77657">
        <ele>210</ele>
        <time>2018-03-16T10:04:07Z</time>
      </trkpt>
      <trkpt lat="45.88247" lon="4.77658">
        <ele>211</ele>
        <time>2018-03-16T10:04:09Z</time>
      </trkpt>
      <trkpt lat="45.88243" lon="4.77658">
        <ele>211</ele>
        <time>2018-03-16T10:04:10Z</time>
      </trkpt>
      <trkpt lat="45.88235" lon="4.77659">
        <ele>211</ele>
        <time>2018-03-16T10:04:12Z</time>
      </trkpt>
      <trkpt lat="45.8823" lon="4.77659">
        <ele>211</ele>
        <time>2018-03-16T10:04:13Z</time>
      </trkpt>
      <trkpt lat="45.88222" lon="4.7766">
        <ele>211</ele>
        <time>2018-03-16T10:04:15Z</time>
      </trkpt>
      <trkpt lat="45.88218" lon="4.7766">
        <ele>211</ele>
        <time>2018-03-16T10:04:16Z</time>
      </trkpt>
      <trkpt lat="45.8821" lon="4.77661">
        <ele>211</ele>
        <time>2018-03-16T10:04:18Z</time>
      </trkpt>
      <trkpt lat="45.88205" lon="4.77661">
        <ele>211</ele>
        <time>2018-03-16T10:04:19Z</time>
      </trkpt>
      <trkpt lat="45.88197" lon="4.77662">
        <ele>211</ele>
        <time>2018-03-16T10:04:21Z</time>
      </trkpt>
      <trkpt lat="45.88193" lon="4.77663">
        <ele>212</ele>
        <time>2018-03-16T10:04:22Z</time>
      </trkpt>
      <trkpt lat="45.88185" lon="4.77665">
        <ele>212</ele>
        <time>2018-03-16T10:04:24Z</time>
      </trkpt>
      <trkpt lat="45.88181" lon="4.77665">
        <ele>212</ele>
        <time>2018-03-16T10:04:25Z</time>
      </trkpt>
      <trkpt lat="45.88173" lon="4.77667">
        <ele>212</ele>
        <time>2018-03-16T10:04:27Z</time>
      </trkpt>
      <trkpt lat="45.88169" lon="4.77667">
        <ele>212</ele>
        <time>2018-03-16T10:04:28Z</time>
      </trkpt>
      <trkpt lat="45.88161" lon="4.77669">
        <ele>212</ele>
        <time>2018-03-16T10:04:30Z</time>
      </trkpt>
      <trkpt lat="45.88156" lon="4.77669">
        <ele>213</ele>
        <time>2018-03-16T10:04:31Z</time>
      </trkpt>
      <trkpt lat="45.88148" lon="4.7767">
        <ele>213</ele>
        <time>2018-03-16T10:04:33Z</time>
      </trkpt>
      <trkpt lat="45.88144" lon="4.77671">
        <ele>213</ele>
        <time>2018-03-16T10:04:34Z</time>
      </trkpt>
      <trkpt lat="45.88136" lon="4.77672">
        <ele>213</ele>
        <time>2018-03-16T10:04:36Z</time>
      </trkpt>
      <trkpt lat="45.88132" lon="4.77672">
        <ele>213</ele>
        <time>2018-03-16T10:04:37Z</time>
      </trkpt>
      <trkpt lat="45.88124" lon="4.77673">
        <ele>214</ele>
        <time>2018-03-16T10:04:39Z</time>
      </trkpt>
      <trkpt lat="45.88121" lon="4.77674">
        <ele>214</ele>
        <time>2018-03-16T10:04:40Z</time>
      </trkpt>
      <trkpt lat="45.88113" lon="4.77675">
        <ele>214</ele>
        <time>2018-03-16T10:04:42Z</time>
      </trkpt>
      <trkpt lat="45.88109" lon="4.77677">
        <ele>214</ele>
        <time>2018-03-16T10:04:43Z</time>
      </trkpt>
      <trkpt lat="45.88102" lon="4.77678">
        <ele>214</ele>
        <time>2018-03-16T10:04:45Z</time>
      </trkpt>
      <trkpt lat="45.88098" lon="4.77679">
        <ele>214</ele>
        <time>2018-03-16T10:04:46Z</time>
      </trkpt>
      <trkpt lat="45.8809" lon="4.77681">
        <ele>214</ele>
        <time>2018-03-16T10:04:48Z</time>
      </trkpt>
      <trkpt lat="45.88087" lon="4.77681">
        <ele>215</ele>
        <time>2018-03-16T10:04:49Z</time>
      </trkpt>
      <trkpt lat="45.88079" lon="4.77682">
        <ele>215</ele>
        <time>2018-03-16T10:04:51Z</time>
      </trkpt>
      <trkpt lat="45.88075" lon="4.77682">
        <ele>215</ele>
        <time>2018-03-16T10:04:52Z</time>
      </trkpt>
      <trkpt lat="45.88067" lon="4.77683">
        <ele>215</ele>
        <time>2018-03-16T10:04:54Z</time>
      </trkpt>
      <trkpt lat="45.88063" lon="4.77684">
        <ele>216</ele>
        <time>2018-03-16T10:04:55Z</time>
      </trkpt>
      <trkpt lat="45.88055" lon="4.77686">
        <ele>216</ele>
        <time>2018-03-16T10:04:57Z</time>
      </trkpt>
      <trkpt lat="45.88051" lon="4.77686">
        <ele>216</ele>
        <time>2018-03-16T10:04:58Z</time>
      </trkpt>
      <trkpt lat="45.88042" lon="4.77687">
        <ele>216</ele>
        <time>2018-03-16T10:05:00Z</time>
      </trkpt>
      <trkpt lat="45.88038" lon="4.77688">
        <ele>216</ele>
        <time>2018-03-16T10:05:01Z</time>
      </trkpt>
      <trkpt lat="45.8803" lon="4.77689">
        <ele>216</ele>
        <time>2018-03-16T10:05:03Z</time>
      </trkpt>
      <trkpt lat="45.88026" lon="4.7769">
        <ele>216</ele>
        <time>2018-03-16T10:05:04Z</time>
      </trkpt>
      <trkpt lat="45.88018" lon="4.77691">
        <ele>216</ele>
        <time>2018-03-16T10:05:06Z</time>
      </trkpt>
      <trkpt lat="45.88014" lon="4.77691">
        <ele>216</ele>
        <time>2018-03-16T10:05:07Z</time>
      </trkpt>
      <trkpt lat="45.88006" lon="4.77691">
        <ele>216</ele>
        <time>2018-03-16T10:05:09Z</time>
      </trkpt>
      <trkpt lat="45.88002" lon="4.77691">
        <ele>216</ele>
        <time>2018-03-16T10:05:10Z</time>
      </trkpt>
      <trkpt lat="45.87994" lon="4.77691">
        <ele>217</ele>
        <time>2018-03-16T10:05:12Z</time>
      </trkpt>
      <trkpt lat="45.8799" lon="4.7769">
        <ele>217</ele>
        <time>2018-03-16T10:05:13Z</time>
      </trkpt>
      <trkpt lat="45.87982" lon="4.77688">
        <ele>217</ele>
        <time>2018-03-16T10:05:15Z</time>
      </trkpt>
      <trkpt lat="45.87978" lon="4.77686">
        <ele>218</ele>
        <time>2018-03-16T10:05:16Z</time>
      </trkpt>
      <trkpt lat="45.87971" lon="4.77679">
        <ele>218</ele>
        <time>2018-03-16T10:05:18Z</time>
      </trkpt>
      <trkpt lat="45.87968" lon="4.77675">
        <ele>218</ele>
        <time>2018-03-16T10:05:19Z</time>
      </trkpt>
      <trkpt lat="45.87962" lon="4.77667">
        <ele>218</ele>
        <time>2018-03-16T10:05:21Z</time>
      </trkpt>
      <trkpt lat="45.87958" lon="4.77664">
        <ele>218</ele>
        <time>2018-03-16T10:05:22Z</time>
      </trkpt>
      <trkpt lat="45.8795" lon="4.77661">
        <ele>218</ele>
        <time>2018-03-16T10:05:24Z</time>
      </trkpt>
      <trkpt lat="45.87946" lon="4.77659">
        <ele>218</ele>
        <time>2018-03-16T10:05:25Z</time>
      </trkpt>
      <trkpt lat="45.87938" lon="4.77653">
        <ele>219</ele>
        <time>2018-03-16T10:05:27Z</time>
      </trkpt>
      <trkpt lat="45.87934" lon="4.7765">
        <ele>219</ele>
        <time>2018-03-16T10:05:28Z</time>
      </trkpt>
      <trkpt lat="45.87927" lon="4.77644">
        <ele>219</ele>
        <time>2018-03-16T10:05:30Z</time>
      </trkpt>
      <trkpt lat="45.87924" lon="4.77641">
        <ele>219</ele>
        <time>2018-03-16T10:05:31Z</time>
      </trkpt>
      <trkpt lat="45.8792" lon="4.77638">
        <ele>219</ele>
        <time>2018-03-16T10:05:32Z</time>
      </trkpt>
      <trkpt lat="45.87916" lon="4.77634">
        <ele>220</ele>
        <time>2018-03-16T10:05:33Z</time>
      </trkpt>
      <trkpt lat="45.87908" lon="4.77627">
        <ele>221</ele>
        <time>2018-03-16T10:05:35Z</time>
      </trkpt>
      <trkpt lat="45.87905" lon="4.77624">
        <ele>221</ele>
        <time>2018-03-16T10:05:36Z</time>
      </trkpt>
      <trkpt lat="45.87897" lon="4.77618">
        <ele>221</ele>
        <time>2018-03-16T10:05:38Z</time>
      </trkpt>
      <trkpt lat="45.87894" lon="4.77615">
        <ele>221</ele>
        <time>2018-03-16T10:05:39Z</time>
      </trkpt>
      <trkpt lat="45.87887" lon="4.77609">
        <ele>221</ele>
        <time>2018-03-16T10:05:41Z</time>
      </trkpt>
      <trkpt lat="45.87884" lon="4.77607">
        <ele>221</ele>
        <time>2018-03-16T10:05:42Z</time>
      </trkpt>
      <trkpt lat="45.87878" lon="4.776">
        <ele>221</ele>
        <time>2018-03-16T10:05:44Z</time>
      </trkpt>
      <trkpt lat="45.87874" lon="4.77597">
        <ele>221</ele>
        <time>2018-03-16T10:05:45Z</time>
      </trkpt>
      <trkpt lat="45.87868" lon="4.77592">
        <ele>221</ele>
        <time>2018-03-16T10:05:47Z</time>
      </trkpt>
      <trkpt lat="45.87864" lon="4.77589">
        <ele>221</ele>
        <time>2018-03-16T10:05:48Z</time>
      </trkpt>
      <trkpt lat="45.87857" lon="4.77583">
        <ele>221</ele>
        <time>2018-03-16T10:05:50Z</time>
      </trkpt>
      <trkpt lat="45.87854" lon="4.7758">
        <ele>221</ele>
        <time>2018-03-16T10:05:51Z</time>
      </trkpt>
      <trkpt lat="45.87846" lon="4.77574">
        <ele>221</ele>
        <time>2018-03-16T10:05:53Z</time>
      </trkpt>
      <trkpt lat="45.87843" lon="4.77571">
        <ele>221</ele>
        <time>2018-03-16T10:05:54Z</time>
      </trkpt>
      <trkpt lat="45.87836" lon="4.77564">
        <ele>221</ele>
        <time>2018-03-16T10:05:56Z</time>
      </trkpt>
      <trkpt lat="45.87832" lon="4.77561">
        <ele>222</ele>
        <time>2018-03-16T10:05:57Z</time>
      </trkpt>
      <trkpt lat="45.87824" lon="4.77555">
        <ele>223</ele>
        <time>2018-03-16T10:05:59Z</time>
      </trkpt>
      <trkpt lat="45.87821" lon="4.77552">
        <ele>223</ele>
        <time>2018-03-16T10:06:00Z</time>
      </trkpt>
      <trkpt lat="45.87813" lon="4.77546">
        <ele>223</ele>
        <time>2018-03-16T10:06:02Z</time>
      </trkpt>
      <trkpt lat="45.8781" lon="4.77543">
        <ele>223</ele>
        <time>2018-03-16T10:06:03Z</time>
      </trkpt>
      <trkpt lat="45.87804" lon="4.77537">
        <ele>223</ele>
        <time>2018-03-16T10:06:05Z</time>
      </trkpt>
      <trkpt lat="45.878" lon="4.77535">
        <ele>223</ele>
        <time>2018-03-16T10:06:06Z</time>
      </trkpt>
      <trkpt lat="45.87794" lon="4.77529">
        <ele>223</ele>
        <time>2018-03-16T10:06:08Z</time>
      </trkpt>
      <trkpt lat="45.8779" lon="4.77527">
        <ele>223</ele>
        <time>2018-03-16T10:06:09Z</time>
      </trkpt>
      <trkpt lat="45.87783" lon="4.77523">
        <ele>223</ele>
        <time>2018-03-16T10:06:12Z</time>
      </trkpt>
      <trkpt lat="45.87781" lon="4.77522">
        <ele>223</ele>
        <time>2018-03-16T10:06:13Z</time>
      </trkpt>
      <trkpt lat="45.87778" lon="4.77521">
        <ele>223</ele>
        <time>2018-03-16T10:06:14Z</time>
      </trkpt>
      <trkpt lat="45.8777" lon="4.77517">
        <ele>223</ele>
        <time>2018-03-16T10:06:15Z</time>
      </trkpt>
      <trkpt lat="45.87764" lon="4.77513">
        <ele>223</ele>
        <time>2018-03-16T10:06:17Z</time>
      </trkpt>
      <trkpt lat="45.8776" lon="4.77511">
        <ele>224</ele>
        <time>2018-03-16T10:06:18Z</time>
      </trkpt>
      <trkpt lat="45.87753" lon="4.77505">
        <ele>224</ele>
        <time>2018-03-16T10:06:20Z</time>
      </trkpt>
      <trkpt lat="45.8775" lon="4.77503">
        <ele>224</ele>
        <time>2018-03-16T10:06:21Z</time>
      </trkpt>
      <trkpt lat="45.87742" lon="4.77496">
        <ele>225</ele>
        <time>2018-03-16T10:06:24Z</time>
      </trkpt>
      <trkpt lat="45.8774" lon="4.77495">
        <ele>225</ele>
        <time>2018-03-16T10:06:25Z</time>
      </trkpt>
      <trkpt lat="45.87734" lon="4.77491">
        <ele>225</ele>
        <time>2018-03-16T10:06:26Z</time>
      </trkpt>
      <trkpt lat="45.8773" lon="4.77489">
        <ele>225</ele>
        <time>2018-03-16T10:06:27Z</time>
      </trkpt>
      <trkpt lat="45.87723" lon="4.77487">
        <ele>226</ele>
        <time>2018-03-16T10:06:30Z</time>
      </trkpt>
      <trkpt lat="45.87716" lon="4.77486">
        <ele>226</ele>
        <time>2018-03-16T10:06:31Z</time>
      </trkpt>
      <trkpt lat="45.8771" lon="4.77485">
        <ele>226</ele>
        <time>2018-03-16T10:06:34Z</time>
      </trkpt>
      <trkpt lat="45.87707" lon="4.77485">
        <ele>226</ele>
        <time>2018-03-16T10:06:35Z</time>
      </trkpt>
      <trkpt lat="45.87698" lon="4.77485">
        <ele>227</ele>
        <time>2018-03-16T10:06:38Z</time>
      </trkpt>
      <trkpt lat="45.87695" lon="4.77485">
        <ele>227</ele>
        <time>2018-03-16T10:06:39Z</time>
      </trkpt>
      <trkpt lat="45.87689" lon="4.77484">
        <ele>227</ele>
        <time>2018-03-16T10:06:41Z</time>
      </trkpt>
      <trkpt lat="45.87686" lon="4.77484">
        <ele>227</ele>
        <time>2018-03-16T10:06:42Z</time>
      </trkpt>
      <trkpt lat="45.87677" lon="4.77484">
        <ele>228</ele>
        <time>2018-03-16T10:06:45Z</time>
      </trkpt>
      <trkpt lat="45.87674" lon="4.77484">
        <ele>228</ele>
        <time>2018-03-16T10:06:46Z</time>
      </trkpt>
      <trkpt lat="45.87666" lon="4.77485">
        <ele>230</ele>
        <time>2018-03-16T10:06:49Z</time>
      </trkpt>
      <trkpt lat="45.87663" lon="4.77485">
        <ele>230</ele>
        <time>2018-03-16T10:06:50Z</time>
      </trkpt>
      <trkpt lat="45.87657" lon="4.77486">
        <ele>230</ele>
        <time>2018-03-16T10:06:52Z</time>
      </trkpt>
      <trkpt lat="45.87654" lon="4.77487">
        <ele>230</ele>
        <time>2018-03-16T10:06:53Z</time>
      </trkpt>
      <trkpt lat="45.87648" lon="4.77488">
        <ele>230</ele>
        <time>2018-03-16T10:06:55Z</time>
      </trkpt>
      <trkpt lat="45.87644" lon="4.77489">
        <ele>230</ele>
        <time>2018-03-16T10:06:56Z</time>
      </trkpt>
      <trkpt lat="45.87636" lon="4.77491">
        <ele>231</ele>
        <time>2018-03-16T10:06:59Z</time>
      </trkpt>
      <trkpt lat="45.87633" lon="4.77491">
        <ele>231</ele>
        <time>2018-03-16T10:07:00Z</time>
      </trkpt>
      <trkpt lat="45.87624" lon="4.77493">
        <ele>231</ele>
        <time>2018-03-16T10:07:03Z</time>
      </trkpt>
      <trkpt lat="45.87621" lon="4.77494">
        <ele>231</ele>
        <time>2018-03-16T10:07:04Z</time>
      </trkpt>
      <trkpt lat="45.87615" lon="4.77495">
        <ele>231</ele>
        <time>2018-03-16T10:07:06Z</time>
      </trkpt>
      <trkpt lat="45.87612" lon="4.77495">
        <ele>231</ele>
        <time>2018-03-16T10:07:07Z</time>
      </trkpt>
      <trkpt lat="45.87603" lon="4.77497">
        <ele>231</ele>
        <time>2018-03-16T10:07:10Z</time>
      </trkpt>
      <trkpt lat="45.87594" lon="4.77499">
        <ele>232</ele>
        <time>2018-03-16T10:07:11Z</time>
      </trkpt>
      <trkpt lat="45.87587" lon="4.775">
        <ele>232</ele>
        <time>2018-03-16T10:07:15Z</time>
      </trkpt>
      <trkpt lat="45.87584" lon="4.775">
        <ele>232</ele>
        <time>2018-03-16T10:07:16Z</time>
      </trkpt>
      <trkpt lat="45.87577" lon="4.77501">
        <ele>232</ele>
        <time>2018-03-16T10:07:19Z</time>
      </trkpt>
      <trkpt lat="45.87574" lon="4.77501">
        <ele>232</ele>
        <time>2018-03-16T10:07:20Z</time>
      </trkpt>
      <trkpt lat="45.87566" lon="4.77498">
        <ele>233</ele>
        <time>2018-03-16T10:07:23Z</time>
      </trkpt>
      <trkpt lat="45.87563" lon="4.77496">
        <ele>233</ele>
        <time>2018-03-16T10:07:24Z</time>
      </trkpt>
      <trkpt lat="45.87557" lon="4.77489">
        <ele>233</ele>
        <time>2018-03-16T10:07:27Z</time>
      </trkpt>
      <trkpt lat="45.87554" lon="4.77486">
        <ele>233</ele>
        <time>2018-03-16T10:07:28Z</time>
      </trkpt>
      <trkpt lat="45.8755" lon="4.7748">
        <ele>233</ele>
        <time>2018-03-16T10:07:30Z</time>
      </trkpt>
      <trkpt lat="45.87548" lon="4.77477">
        <ele>233</ele>
        <time>2018-03-16T10:07:31Z</time>
      </trkpt>
      <trkpt lat="45.87543" lon="4.77471">
        <ele>233</ele>
        <time>2018-03-16T10:07:33Z</time>
      </trkpt>
      <trkpt lat="45.87541" lon="4.77467">
        <ele>233</ele>
        <time>2018-03-16T10:07:34Z</time>
      </trkpt>
      <trkpt lat="45.87536" lon="4.77461">
        <ele>233</ele>
        <time>2018-03-16T10:07:36Z</time>
      </trkpt>
      <trkpt lat="45.87533" lon="4.77457">
        <ele>234</ele>
        <time>2018-03-16T10:07:37Z</time>
      </trkpt>
      <trkpt lat="45.8753" lon="4.77454">
        <ele>234</ele>
        <time>2018-03-16T10:07:38Z</time>
      </trkpt>
      <trkpt lat="45.87523" lon="4.77443">
        <ele>233</ele>
        <time>2018-03-16T10:07:39Z</time>
      </trkpt>
      <trkpt lat="45.87517" lon="4.77436">
        <ele>233</ele>
        <time>2018-03-16T10:07:41Z</time>
      </trkpt>
      <trkpt lat="45.87515" lon="4.77432">
        <ele>233</ele>
        <time>2018-03-16T10:07:42Z</time>
      </trkpt>
      <trkpt lat="45.87509" lon="4.77423">
        <ele>233</ele>
        <time>2018-03-16T10:07:44Z</time>
      </trkpt>
      <trkpt lat="45.87506" lon="4.77419">
        <ele>233</ele>
        <time>2018-03-16T10:07:45Z</time>
      </trkpt>
      <trkpt lat="45.87499" lon="4.77411">
        <ele>234</ele>
        <time>2018-03-16T10:07:47Z</time>
      </trkpt>
      <trkpt lat="45.87496" lon="4.77406">
        <ele>234</ele>
        <time>2018-03-16T10:07:48Z</time>
      </trkpt>
      <trkpt lat="45.87491" lon="4.77399">
        <ele>234</ele>
        <time>2018-03-16T10:07:51Z</time>
      </trkpt>
      <trkpt lat="45.8749" lon="4.77395">
        <ele>235</ele>
        <time>2018-03-16T10:07:52Z</time>
      </trkpt>
      <trkpt lat="45.87486" lon="4.77385">
        <ele>235</ele>
        <time>2018-03-16T10:07:53Z</time>
      </trkpt>
      <trkpt lat="45.87486" lon="4.77382">
        <ele>235</ele>
        <time>2018-03-16T10:07:54Z</time>
      </trkpt>
      <trkpt lat="45.87483" lon="4.77372">
        <ele>235</ele>
        <time>2018-03-16T10:07:57Z</time>
      </trkpt>
      <trkpt lat="45.87483" lon="4.77368">
        <ele>235</ele>
        <time>2018-03-16T10:07:58Z</time>
      </trkpt>
      <trkpt lat="45.87482" lon="4.7736">
        <ele>235</ele>
        <time>2018-03-16T10:08:00Z</time>
      </trkpt>
      <trkpt lat="45.87481" lon="4.77355">
        <ele>235</ele>
        <time>2018-03-16T10:08:01Z</time>
      </trkpt>
      <trkpt lat="45.8748" lon="4.77347">
        <ele>235</ele>
        <time>2018-03-16T10:08:03Z</time>
      </trkpt>
      <trkpt lat="45.87479" lon="4.77342">
        <ele>235</ele>
        <time>2018-03-16T10:08:04Z</time>
      </trkpt>
      <trkpt lat="45.87477" lon="4.77333">
        <ele>235</ele>
        <time>2018-03-16T10:08:06Z</time>
      </trkpt>
      <trkpt lat="45.87474" lon="4.7732">
        <ele>235</ele>
        <time>2018-03-16T10:08:07Z</time>
      </trkpt>
      <trkpt lat="45.87472" lon="4.7731">
        <ele>235</ele>
        <time>2018-03-16T10:08:09Z</time>
      </trkpt>
      <trkpt lat="45.87472" lon="4.77307">
        <ele>235</ele>
        <time>2018-03-16T10:08:10Z</time>
      </trkpt>
      <trkpt lat="45.87469" lon="4.77296">
        <ele>235</ele>
        <time>2018-03-16T10:08:12Z</time>
      </trkpt>
      <trkpt lat="45.87469" lon="4.77293">
        <ele>235</ele>
        <time>2018-03-16T10:08:13Z</time>
      </trkpt>
      <trkpt lat="45.87466" lon="4.77281">
        <ele>235</ele>
        <time>2018-03-16T10:08:15Z</time>
      </trkpt>
      <trkpt lat="45.87464" lon="4.77276">
        <ele>235</ele>
        <time>2018-03-16T10:08:16Z</time>
      </trkpt>
      <trkpt lat="45.87461" lon="4.77269">
        <ele>235</ele>
        <time>2018-03-16T10:08:18Z</time>
      </trkpt>
      <trkpt lat="45.87459" lon="4.77263">
        <ele>235</ele>
        <time>2018-03-16T10:08:19Z</time>
      </trkpt>
      <trkpt lat="45.87454" lon="4.77254">
        <ele>235</ele>
        <time>2018-03-16T10:08:21Z</time>
      </trkpt>
      <trkpt lat="45.87451" lon="4.7725">
        <ele>235</ele>
        <time>2018-03-16T10:08:22Z</time>
      </trkpt>
      <trkpt lat="45.87445" lon="4.77243">
        <ele>235</ele>
        <time>2018-03-16T10:08:24Z</time>
      </trkpt>
      <trkpt lat="45.87441" lon="4.7724">
        <ele>235</ele>
        <time>2018-03-16T10:08:25Z</time>
      </trkpt>
      <trkpt lat="45.87435" lon="4.77234">
        <ele>235</ele>
        <time>2018-03-16T10:08:27Z</time>
      </trkpt>
      <trkpt lat="45.87431" lon="4.77232">
        <ele>235</ele>
        <time>2018-03-16T10:08:28Z</time>
      </trkpt>
      <trkpt lat="45.87424" lon="4.77228">
        <ele>235</ele>
        <time>2018-03-16T10:08:30Z</time>
      </trkpt>
      <trkpt lat="45.87421" lon="4.77226">
        <ele>235</ele>
        <time>2018-03-16T10:08:31Z</time>
      </trkpt>
      <trkpt lat="45.87413" lon="4.77222">
        <ele>238</ele>
        <time>2018-03-16T10:08:33Z</time>
      </trkpt>
      <trkpt lat="45.87409" lon="4.77221">
        <ele>238</ele>
        <time>2018-03-16T10:08:34Z</time>
      </trkpt>
      <trkpt lat="45.87401" lon="4.77218">
        <ele>238</ele>
        <time>2018-03-16T10:08:36Z</time>
      </trkpt>
      <trkpt lat="45.87397" lon="4.77216">
        <ele>239</ele>
        <time>2018-03-16T10:08:37Z</time>
      </trkpt>
      <trkpt lat="45.87389" lon="4.77214">
        <ele>239</ele>
        <time>2018-03-16T10:08:39Z</time>
      </trkpt>
      <trkpt lat="45.87385" lon="4.77213">
        <ele>239</ele>
        <time>2018-03-16T10:08:40Z</time>
      </trkpt>
      <trkpt lat="45.87379" lon="4.77213">
        <ele>239</ele>
        <time>2018-03-16T10:08:42Z</time>
      </trkpt>
      <trkpt lat="45.87374" lon="4.77213">
        <ele>239</ele>
        <time>2018-03-16T10:08:43Z</time>
      </trkpt>
      <trkpt lat="45.87367" lon="4.77215">
        <ele>240</ele>
        <time>2018-03-16T10:08:45Z</time>
      </trkpt>
      <trkpt lat="45.87363" lon="4.77215">
        <ele>240</ele>
        <time>2018-03-16T10:08:46Z</time>
      </trkpt>
      <trkpt lat="45.87355" lon="4.77216">
        <ele>240</ele>
        <time>2018-03-16T10:08:48Z</time>
      </trkpt>
      <trkpt lat="45.87351" lon="4.77217">
        <ele>240</ele>
        <time>2018-03-16T10:08:49Z</time>
      </trkpt>
      <trkpt lat="45.87344" lon="4.77219">
        <ele>240</ele>
        <time>2018-03-16T10:08:51Z</time>
      </trkpt>
      <trkpt lat="45.8734" lon="4.7722">
        <ele>240</ele>
        <time>2018-03-16T10:08:52Z</time>
      </trkpt>
      <trkpt lat="45.87332" lon="4.77221">
        <ele>243</ele>
        <time>2018-03-16T10:08:54Z</time>
      </trkpt>
      <trkpt lat="45.87329" lon="4.77222">
        <ele>243</ele>
        <time>2018-03-16T10:08:55Z</time>
      </trkpt>
      <trkpt lat="45.87321" lon="4.77222">
        <ele>244</ele>
        <time>2018-03-16T10:08:57Z</time>
      </trkpt>
      <trkpt lat="45.87317" lon="4.77223">
        <ele>244</ele>
        <time>2018-03-16T10:08:58Z</time>
      </trkpt>
      <trkpt lat="45.87309" lon="4.77224">
        <ele>244</ele>
        <time>2018-03-16T10:09:00Z</time>
      </trkpt>
      <trkpt lat="45.87305" lon="4.77224">
        <ele>244</ele>
        <time>2018-03-16T10:09:01Z</time>
      </trkpt>
      <trkpt lat="45.87297" lon="4.77221">
        <ele>244</ele>
        <time>2018-03-16T10:09:03Z</time>
      </trkpt>
      <trkpt lat="45.87295" lon="4.7722">
        <ele>244</ele>
        <time>2018-03-16T10:09:04Z</time>
      </trkpt>
      <trkpt lat="45.8729" lon="4.77217">
        <ele>244</ele>
        <time>2018-03-16T10:09:05Z</time>
      </trkpt>
      <trkpt lat="45.87286" lon="4.77213">
        <ele>244</ele>
        <time>2018-03-16T10:09:06Z</time>
      </trkpt>
      <trkpt lat="45.87281" lon="4.77207">
        <ele>244</ele>
        <time>2018-03-16T10:09:08Z</time>
      </trkpt>
      <trkpt lat="45.87279" lon="4.77196">
        <ele>244</ele>
        <time>2018-03-16T10:09:09Z</time>
      </trkpt>
      <trkpt lat="45.87276" lon="4.77184">
        <ele>244</ele>
        <time>2018-03-16T10:09:11Z</time>
      </trkpt>
      <trkpt lat="45.87275" lon="4.77177">
        <ele>244</ele>
        <time>2018-03-16T10:09:12Z</time>
      </trkpt>
      <trkpt lat="45.87273" lon="4.7717">
        <ele>244</ele>
        <time>2018-03-16T10:09:13Z</time>
      </trkpt>
      <trkpt lat="45.87273" lon="4.77162">
        <ele>242</ele>
        <time>2018-03-16T10:09:14Z</time>
      </trkpt>
      <trkpt lat="45.87272" lon="4.77155">
        <ele>242</ele>
        <time>2018-03-16T10:09:15Z</time>
      </trkpt>
      <trkpt lat="45.87271" lon="4.77147">
        <ele>241</ele>
        <time>2018-03-16T10:09:16Z</time>
      </trkpt>
      <trkpt lat="45.87271" lon="4.77134">
        <ele>241</ele>
        <time>2018-03-16T10:09:18Z</time>
      </trkpt>
      <trkpt lat="45.87271" lon="4.77128">
        <ele>241</ele>
        <time>2018-03-16T10:09:19Z</time>
      </trkpt>
      <trkpt lat="45.87271" lon="4.7712">
        <ele>241</ele>
        <time>2018-03-16T10:09:20Z</time>
      </trkpt>
      <trkpt lat="45.8727" lon="4.77112">
        <ele>240</ele>
        <time>2018-03-16T10:09:21Z</time>
      </trkpt>
      <trkpt lat="45.8727" lon="4.77105">
        <ele>240</ele>
        <time>2018-03-16T10:09:22Z</time>
      </trkpt>
      <trkpt lat="45.8727" lon="4.77098">
        <ele>240</ele>
        <time>2018-03-16T10:09:23Z</time>
      </trkpt>
      <trkpt lat="45.8727" lon="4.7709">
        <ele>240</ele>
        <time>2018-03-16T10:09:24Z</time>
      </trkpt>
      <trkpt lat="45.8727" lon="4.77082">
        <ele>239</ele>
        <time>2018-03-16T10:09:25Z</time>
      </trkpt>
      <trkpt lat="45.87271" lon="4.77074">
        <ele>239</ele>
        <time>2018-03-16T10:09:26Z</time>
      </trkpt>
      <trkpt lat="45.8727" lon="4.77066">
        <ele>239</ele>
        <time>2018-03-16T10:09:27Z</time>
      </trkpt>
      <trkpt lat="45.8727" lon="4.77058">
        <ele>239</ele>
        <time>2018-03-16T10:09:28Z</time>
      </trkpt>
      <trkpt lat="45.8727" lon="4.77051">
        <ele>239</ele>
        <time>2018-03-16T10:09:29Z</time>
      </trkpt>
      <trkpt lat="45.8727" lon="4.77043">
        <ele>239</ele>
        <time>2018-03-16T10:09:30Z</time>
      </trkpt>
      <trkpt lat="45.8727" lon="4.77035">
        <ele>239</ele>
        <time>2018-03-16T10:09:31Z</time>
      </trkpt>
      <trkpt lat="45.8727" lon="4.77028">
        <ele>239</ele>
        <time>2018-03-16T10:09:32Z</time>
      </trkpt>
      <trkpt lat="45.8727" lon="4.77019">
        <ele>239</ele>
        <time>2018-03-16T10:09:33Z</time>
      </trkpt>
      <trkpt lat="45.8727" lon="4.77012">
        <ele>239</ele>
        <time>2018-03-16T10:09:34Z</time>
      </trkpt>
      <trkpt lat="45.8727" lon="4.77004">
        <ele>239</ele>
        <time>2018-03-16T10:09:35Z</time>
      </trkpt>
      <trkpt lat="45.87269" lon="4.76996">
        <ele>240</ele>
        <time>2018-03-16T10:09:36Z</time>
      </trkpt>
      <trkpt lat="45.87268" lon="4.76988">
        <ele>240</ele>
        <time>2018-03-16T10:09:37Z</time>
      </trkpt>
      <trkpt lat="45.87268" lon="4.76981">
        <ele>240</ele>
        <time>2018-03-16T10:09:38Z</time>
      </trkpt>
      <trkpt lat="45.87267" lon="4.76973">
        <ele>240</ele>
        <time>2018-03-16T10:09:39Z</time>
      </trkpt>
      <trkpt lat="45.87267" lon="4.76966">
        <ele>240</ele>
        <time>2018-03-16T10:09:40Z</time>
      </trkpt>
      <trkpt lat="45.87267" lon="4.76958">
        <ele>240</ele>
        <time>2018-03-16T10:09:41Z</time>
      </trkpt>
      <trkpt lat="45.87267" lon="4.7695">
        <ele>240</ele>
        <time>2018-03-16T10:09:42Z</time>
      </trkpt>
      <trkpt lat="45.87267" lon="4.76943">
        <ele>241</ele>
        <time>2018-03-16T10:09:43Z</time>
      </trkpt>
      <trkpt lat="45.87266" lon="4.76935">
        <ele>241</ele>
        <time>2018-03-16T10:09:44Z</time>
      </trkpt>
      <trkpt lat="45.87266" lon="4.76927">
        <ele>241</ele>
        <time>2018-03-16T10:09:45Z</time>
      </trkpt>
      <trkpt lat="45.87265" lon="4.76919">
        <ele>241</ele>
        <time>2018-03-16T10:09:46Z</time>
      </trkpt>
      <trkpt lat="45.87265" lon="4.7691">
        <ele>241</ele>
        <time>2018-03-16T10:09:47Z</time>
      </trkpt>
      <trkpt lat="45.87265" lon="4.76901">
        <ele>240</ele>
        <time>2018-03-16T10:09:48Z</time>
      </trkpt>
      <trkpt lat="45.87265" lon="4.76893">
        <ele>240</ele>
        <time>2018-03-16T10:09:49Z</time>
      </trkpt>
      <trkpt lat="45.87265" lon="4.76884">
        <ele>240</ele>
        <time>2018-03-16T10:09:50Z</time>
      </trkpt>
      <trkpt lat="45.87265" lon="4.76874">
        <ele>240</ele>
        <time>2018-03-16T10:09:51Z</time>
      </trkpt>
      <trkpt lat="45.87264" lon="4.76865">
        <ele>239</ele>
        <time>2018-03-16T10:09:52Z</time>
      </trkpt>
      <trkpt lat="45.87264" lon="4.76856">
        <ele>239</ele>
        <time>2018-03-16T10:09:53Z</time>
      </trkpt>
      <trkpt lat="45.87264" lon="4.76848">
        <ele>239</ele>
        <time>2018-03-16T10:09:54Z</time>
      </trkpt>
      <trkpt lat="45.87264" lon="4.76838">
        <ele>239</ele>
        <time>2018-03-16T10:09:55Z</time>
      </trkpt>
      <trkpt lat="45.87263" lon="4.76829">
        <ele>237</ele>
        <time>2018-03-16T10:09:56Z</time>
      </trkpt>
      <trkpt lat="45.87262" lon="4.76822">
        <ele>237</ele>
        <time>2018-03-16T10:09:57Z</time>
      </trkpt>
      <trkpt lat="45.87261" lon="4.76811">
        <ele>237</ele>
        <time>2018-03-16T10:09:58Z</time>
      </trkpt>
      <trkpt lat="45.87261" lon="4.76802">
        <ele>237</ele>
        <time>2018-03-16T10:09:59Z</time>
      </trkpt>
      <trkpt lat="45.87261" lon="4.76792">
        <ele>236</ele>
        <time>2018-03-16T10:10:00Z</time>
      </trkpt>
      <trkpt lat="45.8726" lon="4.76782">
        <ele>236</ele>
        <time>2018-03-16T10:10:01Z</time>
      </trkpt>
      <trkpt lat="45.87261" lon="4.76773">
        <ele>236</ele>
        <time>2018-03-16T10:10:02Z</time>
      </trkpt>
      <trkpt lat="45.87261" lon="4.76764">
        <ele>236</ele>
        <time>2018-03-16T10:10:03Z</time>
      </trkpt>
      <trkpt lat="45.87262" lon="4.76755">
        <ele>236</ele>
        <time>2018-03-16T10:10:04Z</time>
      </trkpt>
      <trkpt lat="45.87261" lon="4.76745">
        <ele>235</ele>
        <time>2018-03-16T10:10:05Z</time>
      </trkpt>
      <trkpt lat="45.87261" lon="4.76735">
        <ele>235</ele>
        <time>2018-03-16T10:10:06Z</time>
      </trkpt>
      <trkpt lat="45.87261" lon="4.76726">
        <ele>234</ele>
        <time>2018-03-16T10:10:07Z</time>
      </trkpt>
      <trkpt lat="45.87261" lon="4.76716">
        <ele>234</ele>
        <time>2018-03-16T10:10:08Z</time>
      </trkpt>
      <trkpt lat="45.87262" lon="4.76708">
        <ele>234</ele>
        <time>2018-03-16T10:10:09Z</time>
      </trkpt>
      <trkpt lat="45.87261" lon="4.76699">
        <ele>234</ele>
        <time>2018-03-16T10:10:10Z</time>
      </trkpt>
      <trkpt lat="45.87261" lon="4.76691">
        <ele>234</ele>
        <time>2018-03-16T10:10:11Z</time>
      </trkpt>
      <trkpt lat="45.87261" lon="4.76682">
        <ele>234</ele>
        <time>2018-03-16T10:10:12Z</time>
      </trkpt>
      <trkpt lat="45.87261" lon="4.76674">
        <ele>234</ele>
        <time>2018-03-16T10:10:13Z</time>
      </trkpt>
      <trkpt lat="45.87261" lon="4.76666">
        <ele>235</ele>
        <time>2018-03-16T10:10:14Z</time>
      </trkpt>
      <trkpt lat="45.87261" lon="4.76658">
        <ele>234</ele>
        <time>2018-03-16T10:10:15Z</time>
      </trkpt>
      <trkpt lat="45.87261" lon="4.76651">
        <ele>234</ele>
        <time>2018-03-16T10:10:16Z</time>
      </trkpt>
      <trkpt lat="45.87261" lon="4.76644">
        <ele>234</ele>
        <time>2018-03-16T10:10:17Z</time>
      </trkpt>
      <trkpt lat="45.8726" lon="4.76637">
        <ele>234</ele>
        <time>2018-03-16T10:10:18Z</time>
      </trkpt>
      <trkpt lat="45.87261" lon="4.7663">
        <ele>234</ele>
        <time>2018-03-16T10:10:19Z</time>
      </trkpt>
      <trkpt lat="45.8726" lon="4.76623">
        <ele>234</ele>
        <time>2018-03-16T10:10:20Z</time>
      </trkpt>
      <trkpt lat="45.8726" lon="4.76616">
        <ele>234</ele>
        <time>2018-03-16T10:10:21Z</time>
      </trkpt>
      <trkpt lat="45.8726" lon="4.76607">
        <ele>235</ele>
        <time>2018-03-16T10:10:22Z</time>
      </trkpt>
      <trkpt lat="45.87259" lon="4.766">
        <ele>235</ele>
        <time>2018-03-16T10:10:23Z</time>
      </trkpt>
      <trkpt lat="45.87259" lon="4.76593">
        <ele>235</ele>
        <time>2018-03-16T10:10:24Z</time>
      </trkpt>
      <trkpt lat="45.87258" lon="4.76586">
        <ele>235</ele>
        <time>2018-03-16T10:10:25Z</time>
      </trkpt>
      <trkpt lat="45.87258" lon="4.7658">
        <ele>236</ele>
        <time>2018-03-16T10:10:26Z</time>
      </trkpt>
      <trkpt lat="45.87258" lon="4.76573">
        <ele>236</ele>
        <time>2018-03-16T10:10:27Z</time>
      </trkpt>
      <trkpt lat="45.87257" lon="4.76566">
        <ele>236</ele>
        <time>2018-03-16T10:10:28Z</time>
      </trkpt>
      <trkpt lat="45.87257" lon="4.76559">
        <ele>235</ele>
        <time>2018-03-16T10:10:29Z</time>
      </trkpt>
      <trkpt lat="45.87257" lon="4.76552">
        <ele>235</ele>
        <time>2018-03-16T10:10:30Z</time>
      </trkpt>
      <trkpt lat="45.87256" lon="4.76546">
        <ele>235</ele>
        <time>2018-03-16T10:10:31Z</time>
      </trkpt>
      <trkpt lat="45.87257" lon="4.76539">
        <ele>236</ele>
        <time>2018-03-16T10:10:32Z</time>
      </trkpt>
      <trkpt lat="45.87257" lon="4.76533">
        <ele>236</ele>
        <time>2018-03-16T10:10:33Z</time>
      </trkpt>
      <trkpt lat="45.87257" lon="4.76526">
        <ele>236</ele>
        <time>2018-03-16T10:10:34Z</time>
      </trkpt>
      <trkpt lat="45.87257" lon="4.76519">
        <ele>236</ele>
        <time>2018-03-16T10:10:35Z</time>
      </trkpt>
      <trkpt lat="45.87257" lon="4.76513">
        <ele>236</ele>
        <time>2018-03-16T10:10:36Z</time>
      </trkpt>
      <trkpt lat="45.87257" lon="4.76506">
        <ele>236</ele>
        <time>2018-03-16T10:10:37Z</time>
      </trkpt>
      <trkpt lat="45.87256" lon="4.76499">
        <ele>236</ele>
        <time>2018-03-16T10:10:38Z</time>
      </trkpt>
      <trkpt lat="45.87256" lon="4.76492">
        <ele>236</ele>
        <time>2018-03-16T10:10:39Z</time>
      </trkpt>
      <trkpt lat="45.87256" lon="4.76484">
        <ele>236</ele>
        <time>2018-03-16T10:10:40Z</time>
      </trkpt>
      <trkpt lat="45.87256" lon="4.76476">
        <ele>236</ele>
        <time>2018-03-16T10:10:41Z</time>
      </trkpt>
      <trkpt lat="45.87256" lon="4.76469">
        <ele>236</ele>
        <time>2018-03-16T10:10:42Z</time>
      </trkpt>
      <trkpt lat="45.87256" lon="4.76462">
        <ele>235</ele>
        <time>2018-03-16T10:10:43Z</time>
      </trkpt>
      <trkpt lat="45.87255" lon="4.76453">
        <ele>235</ele>
        <time>2018-03-16T10:10:44Z</time>
      </trkpt>
      <trkpt lat="45.87255" lon="4.76447">
        <ele>235</ele>
        <time>2018-03-16T10:10:45Z</time>
      </trkpt>
      <trkpt lat="45.87254" lon="4.76439">
        <ele>235</ele>
        <time>2018-03-16T10:10:46Z</time>
      </trkpt>
      <trkpt lat="45.87254" lon="4.76431">
        <ele>235</ele>
        <time>2018-03-16T10:10:47Z</time>
      </trkpt>
      <trkpt lat="45.87254" lon="4.76423">
        <ele>236</ele>
        <time>2018-03-16T10:10:48Z</time>
      </trkpt>
      <trkpt lat="45.87254" lon="4.76416">
        <ele>236</ele>
        <time>2018-03-16T10:10:49Z</time>
      </trkpt>
      <trkpt lat="45.87253" lon="4.76408">
        <ele>235</ele>
        <time>2018-03-16T10:10:50Z</time>
      </trkpt>
      <trkpt lat="45.87253" lon="4.764">
        <ele>235</ele>
        <time>2018-03-16T10:10:51Z</time>
      </trkpt>
      <trkpt lat="45.87253" lon="4.76392">
        <ele>234</ele>
        <time>2018-03-16T10:10:52Z</time>
      </trkpt>
      <trkpt lat="45.87252" lon="4.76383">
        <ele>234</ele>
        <time>2018-03-16T10:10:53Z</time>
      </trkpt>
      <trkpt lat="45.87252" lon="4.76375">
        <ele>234</ele>
        <time>2018-03-16T10:10:54Z</time>
      </trkpt>
      <trkpt lat="45.87251" lon="4.76365">
        <ele>234</ele>
        <time>2018-03-16T10:10:55Z</time>
      </trkpt>
      <trkpt lat="45.87251" lon="4.76356">
        <ele>234</ele>
        <time>2018-03-16T10:10:56Z</time>
      </trkpt>
      <trkpt lat="45.87251" lon="4.76347">
        <ele>234</ele>
        <time>2018-03-16T10:10:57Z</time>
      </trkpt>
      <trkpt lat="45.87251" lon="4.76338">
        <ele>234</ele>
        <time>2018-03-16T10:10:58Z</time>
      </trkpt>
      <trkpt lat="45.87251" lon="4.76328">
        <ele>234</ele>
        <time>2018-03-16T10:10:59Z</time>
      </trkpt>
      <trkpt lat="45.87251" lon="4.7632">
        <ele>233</ele>
        <time>2018-03-16T10:11:00Z</time>
      </trkpt>
      <trkpt lat="45.8725" lon="4.7631">
        <ele>233</ele>
        <time>2018-03-16T10:11:01Z</time>
      </trkpt>
      <trkpt lat="45.87251" lon="4.76301">
        <ele>233</ele>
        <time>2018-03-16T10:11:02Z</time>
      </trkpt>
      <trkpt lat="45.8725" lon="4.76292">
        <ele>233</ele>
        <time>2018-03-16T10:11:03Z</time>
      </trkpt>
      <trkpt lat="45.87251" lon="4.76284">
        <ele>233</ele>
        <time>2018-03-16T10:11:04Z</time>
      </trkpt>
      <trkpt lat="45.8725" lon="4.76275">
        <ele>233</ele>
        <time>2018-03-16T10:11:05Z</time>
      </trkpt>
      <trkpt lat="45.8725" lon="4.76266">
        <ele>236</ele>
        <time>2018-03-16T10:11:06Z</time>
      </trkpt>
      <trkpt lat="45.87249" lon="4.76257">
        <ele>235</ele>
        <time>2018-03-16T10:11:07Z</time>
      </trkpt>
      <trkpt lat="45.87249" lon="4.76247">
        <ele>235</ele>
        <time>2018-03-16T10:11:08Z</time>
      </trkpt>
      <trkpt lat="45.87249" lon="4.76238">
        <ele>235</ele>
        <time>2018-03-16T10:11:09Z</time>
      </trkpt>
      <trkpt lat="45.87248" lon="4.7623">
        <ele>235</ele>
        <time>2018-03-16T10:11:10Z</time>
      </trkpt>
      <trkpt lat="45.87248" lon="4.76222">
        <ele>235</ele>
        <time>2018-03-16T10:11:11Z</time>
      </trkpt>
      <trkpt lat="45.87248" lon="4.76212">
        <ele>234</ele>
        <time>2018-03-16T10:11:12Z</time>
      </trkpt>
      <trkpt lat="45.87247" lon="4.76203">
        <ele>234</ele>
        <time>2018-03-16T10:11:13Z</time>
      </trkpt>
      <trkpt lat="45.87247" lon="4.76195">
        <ele>234</ele>
        <time>2018-03-16T10:11:14Z</time>
      </trkpt>
      <trkpt lat="45.87246" lon="4.76186">
        <ele>233</ele>
        <time>2018-03-16T10:11:15Z</time>
      </trkpt>
      <trkpt lat="45.87246" lon="4.76177">
        <ele>233</ele>
        <time>2018-03-16T10:11:16Z</time>
      </trkpt>
      <trkpt lat="45.87246" lon="4.76168">
        <ele>232</ele>
        <time>2018-03-16T10:11:17Z</time>
      </trkpt>
      <trkpt lat="45.87246" lon="4.7616">
        <ele>232</ele>
        <time>2018-03-16T10:11:18Z</time>
      </trkpt>
      <trkpt lat="45.87245" lon="4.76151">
        <ele>232</ele>
        <time>2018-03-16T10:11:19Z</time>
      </trkpt>
      <trkpt lat="45.87245" lon="4.76142">
        <ele>232</ele>
        <time>2018-03-16T10:11:20Z</time>
      </trkpt>
      <trkpt lat="45.87244" lon="4.76133">
        <ele>232</ele>
        <time>2018-03-16T10:11:21Z</time>
      </trkpt>
      <trkpt lat="45.87244" lon="4.76123">
        <ele>232</ele>
        <time>2018-03-16T10:11:22Z</time>
      </trkpt>
      <trkpt lat="45.87243" lon="4.76114">
        <ele>232</ele>
        <time>2018-03-16T10:11:23Z</time>
      </trkpt>
      <trkpt lat="45.87243" lon="4.76104">
        <ele>231</ele>
        <time>2018-03-16T10:11:24Z</time>
      </trkpt>
      <trkpt lat="45.87242" lon="4.76095">
        <ele>231</ele>
        <time>2018-03-16T10:11:25Z</time>
      </trkpt>
      <trkpt lat="45.87241" lon="4.76086">
        <ele>231</ele>
        <time>2018-03-16T10:11:26Z</time>
      </trkpt>
      <trkpt lat="45.87239" lon="4.76076">
        <ele>230</ele>
        <time>2018-03-16T10:11:27Z</time>
      </trkpt>
      <trkpt lat="45.87239" lon="4.76066">
        <ele>230</ele>
        <time>2018-03-16T10:11:28Z</time>
      </trkpt>
      <trkpt lat="45.87238" lon="4.76057">
        <ele>230</ele>
        <time>2018-03-16T10:11:29Z</time>
      </trkpt>
      <trkpt lat="45.87237" lon="4.76047">
        <ele>230</ele>
        <time>2018-03-16T10:11:30Z</time>
      </trkpt>
      <trkpt lat="45.87237" lon="4.76038">
        <ele>230</ele>
        <time>2018-03-16T10:11:31Z</time>
      </trkpt>
      <trkpt lat="45.87236" lon="4.76028">
        <ele>230</ele>
        <time>2018-03-16T10:11:32Z</time>
      </trkpt>
      <trkpt lat="45.87235" lon="4.76019">
        <ele>230</ele>
        <time>2018-03-16T10:11:33Z</time>
      </trkpt>
      <trkpt lat="45.87234" lon="4.76009">
        <ele>229</ele>
        <time>2018-03-16T10:11:34Z</time>
      </trkpt>
      <trkpt lat="45.87232" lon="4.75998">
        <ele>228</ele>
        <time>2018-03-16T10:11:35Z</time>
      </trkpt>
      <trkpt lat="45.87232" lon="4.75988">
        <ele>228</ele>
        <time>2018-03-16T10:11:36Z</time>
      </trkpt>
      <trkpt lat="45.87231" lon="4.75978">
        <ele>228</ele>
        <time>2018-03-16T10:11:37Z</time>
      </trkpt>
      <trkpt lat="45.87229" lon="4.75968">
        <ele>228</ele>
        <time>2018-03-16T10:11:38Z</time>
      </trkpt>
      <trkpt lat="45.87228" lon="4.75958">
        <ele>228</ele>
        <time>2018-03-16T10:11:39Z</time>
      </trkpt>
      <trkpt lat="45.87226" lon="4.75948">
        <ele>228</ele>
        <time>2018-03-16T10:11:40Z</time>
      </trkpt>
      <trkpt lat="45.87224" lon="4.75938">
        <ele>228</ele>
        <time>2018-03-16T10:11:41Z</time>
      </trkpt>
      <trkpt lat="45.87223" lon="4.75928">
        <ele>228</ele>
        <time>2018-03-16T10:11:42Z</time>
      </trkpt>
      <trkpt lat="45.87223" lon="4.75918">
        <ele>228</ele>
        <time>2018-03-16T10:11:43Z</time>
      </trkpt>
      <trkpt lat="45.87222" lon="4.75907">
        <ele>227</ele>
        <time>2018-03-16T10:11:44Z</time>
      </trkpt>
      <trkpt lat="45.87221" lon="4.75896">
        <ele>227</ele>
        <time>2018-03-16T10:11:45Z</time>
      </trkpt>
      <trkpt lat="45.8722" lon="4.75886">
        <ele>227</ele>
        <time>2018-03-16T10:11:46Z</time>
      </trkpt>
      <trkpt lat="45.87219" lon="4.75875">
        <ele>226</ele>
        <time>2018-03-16T10:11:47Z</time>
      </trkpt>
      <trkpt lat="45.87217" lon="4.75864">
        <ele>226</ele>
        <time>2018-03-16T10:11:48Z</time>
      </trkpt>
      <trkpt lat="45.87216" lon="4.75854">
        <ele>226</ele>
        <time>2018-03-16T10:11:49Z</time>
      </trkpt>
      <trkpt lat="45.87215" lon="4.75843">
        <ele>226</ele>
        <time>2018-03-16T10:11:50Z</time>
      </trkpt>
      <trkpt lat="45.87214" lon="4.75832">
        <ele>225</ele>
        <time>2018-03-16T10:11:51Z</time>
      </trkpt>
      <trkpt lat="45.87211" lon="4.75821">
        <ele>225</ele>
        <time>2018-03-16T10:11:52Z</time>
      </trkpt>
      <trkpt lat="45.87208" lon="4.75811">
        <ele>225</ele>
        <time>2018-03-16T10:11:53Z</time>
      </trkpt>
      <trkpt lat="45.87205" lon="4.75801">
        <ele>224</ele>
        <time>2018-03-16T10:11:54Z</time>
      </trkpt>
      <trkpt lat="45.87202" lon="4.7579">
        <ele>224</ele>
        <time>2018-03-16T10:11:55Z</time>
      </trkpt>
      <trkpt lat="45.87198" lon="4.7578">
        <ele>224</ele>
        <time>2018-03-16T10:11:56Z</time>
      </trkpt>
      <trkpt lat="45.87194" lon="4.7577">
        <ele>224</ele>
        <time>2018-03-16T10:11:57Z</time>
      </trkpt>
      <trkpt lat="45.87191" lon="4.75761">
        <ele>224</ele>
        <time>2018-03-16T10:11:58Z</time>
      </trkpt>
      <trkpt lat="45.87187" lon="4.75751">
        <ele>224</ele>
        <time>2018-03-16T10:11:59Z</time>
      </trkpt>
      <trkpt lat="45.87186" lon="4.75741">
        <ele>223</ele>
        <time>2018-03-16T10:12:00Z</time>
      </trkpt>
      <trkpt lat="45.87183" lon="4.75732">
        <ele>223</ele>
        <time>2018-03-16T10:12:01Z</time>
      </trkpt>
      <trkpt lat="45.87182" lon="4.75723">
        <ele>223</ele>
        <time>2018-03-16T10:12:02Z</time>
      </trkpt>
      <trkpt lat="45.8718" lon="4.75714">
        <ele>223</ele>
        <time>2018-03-16T10:12:03Z</time>
      </trkpt>
      <trkpt lat="45.87178" lon="4.75706">
        <ele>223</ele>
        <time>2018-03-16T10:12:04Z</time>
      </trkpt>
      <trkpt lat="45.87177" lon="4.75697">
        <ele>223</ele>
        <time>2018-03-16T10:12:05Z</time>
      </trkpt>
      <trkpt lat="45.87176" lon="4.75689">
        <ele>223</ele>
        <time>2018-03-16T10:12:06Z</time>
      </trkpt>
      <trkpt lat="45.87175" lon="4.7568">
        <ele>223</ele>
        <time>2018-03-16T10:12:07Z</time>
      </trkpt>
      <trkpt lat="45.87174" lon="4.75672">
        <ele>223</ele>
        <time>2018-03-16T10:12:08Z</time>
      </trkpt>
      <trkpt lat="45.87173" lon="4.75662">
        <ele>223</ele>
        <time>2018-03-16T10:12:09Z</time>
      </trkpt>
      <trkpt lat="45.87174" lon="4.75654">
        <ele>222</ele>
        <time>2018-03-16T10:12:10Z</time>
      </trkpt>
      <trkpt lat="45.87174" lon="4.75644">
        <ele>222</ele>
        <time>2018-03-16T10:12:11Z</time>
      </trkpt>
      <trkpt lat="45.87174" lon="4.75634">
        <ele>222</ele>
        <time>2018-03-16T10:12:12Z</time>
      </trkpt>
      <trkpt lat="45.87175" lon="4.75624">
        <ele>222</ele>
        <time>2018-03-16T10:12:13Z</time>
      </trkpt>
      <trkpt lat="45.87175" lon="4.75615">
        <ele>222</ele>
        <time>2018-03-16T10:12:14Z</time>
      </trkpt>
      <trkpt lat="45.87176" lon="4.75606">
        <ele>222</ele>
        <time>2018-03-16T10:12:15Z</time>
      </trkpt>
      <trkpt lat="45.87176" lon="4.75595">
        <ele>222</ele>
        <time>2018-03-16T10:12:16Z</time>
      </trkpt>
      <trkpt lat="45.87176" lon="4.75585">
        <ele>223</ele>
        <time>2018-03-16T10:12:17Z</time>
      </trkpt>
      <trkpt lat="45.87176" lon="4.75575">
        <ele>222</ele>
        <time>2018-03-16T10:12:18Z</time>
      </trkpt>
      <trkpt lat="45.87176" lon="4.75565">
        <ele>222</ele>
        <time>2018-03-16T10:12:19Z</time>
      </trkpt>
      <trkpt lat="45.87176" lon="4.75555">
        <ele>222</ele>
        <time>2018-03-16T10:12:20Z</time>
      </trkpt>
      <trkpt lat="45.87176" lon="4.75545">
        <ele>222</ele>
        <time>2018-03-16T10:12:21Z</time>
      </trkpt>
      <trkpt lat="45.87176" lon="4.75534">
        <ele>222</ele>
        <time>2018-03-16T10:12:22Z</time>
      </trkpt>
      <trkpt lat="45.87175" lon="4.75523">
        <ele>222</ele>
        <time>2018-03-16T10:12:23Z</time>
      </trkpt>
      <trkpt lat="45.87175" lon="4.75513">
        <ele>222</ele>
        <time>2018-03-16T10:12:24Z</time>
      </trkpt>
      <trkpt lat="45.87175" lon="4.75502">
        <ele>223</ele>
        <time>2018-03-16T10:12:25Z</time>
      </trkpt>
      <trkpt lat="45.87175" lon="4.75491">
        <ele>223</ele>
        <time>2018-03-16T10:12:26Z</time>
      </trkpt>
      <trkpt lat="45.87176" lon="4.75481">
        <ele>222</ele>
        <time>2018-03-16T10:12:27Z</time>
      </trkpt>
      <trkpt lat="45.87176" lon="4.75471">
        <ele>222</ele>
        <time>2018-03-16T10:12:28Z</time>
      </trkpt>
      <trkpt lat="45.87176" lon="4.75461">
        <ele>222</ele>
        <time>2018-03-16T10:12:29Z</time>
      </trkpt>
      <trkpt lat="45.87176" lon="4.75451">
        <ele>222</ele>
        <time>2018-03-16T10:12:30Z</time>
      </trkpt>
      <trkpt lat="45.87177" lon="4.75442">
        <ele>222</ele>
        <time>2018-03-16T10:12:31Z</time>
      </trkpt>
      <trkpt lat="45.87176" lon="4.75433">
        <ele>222</ele>
        <time>2018-03-16T10:12:32Z</time>
      </trkpt>
      <trkpt lat="45.87176" lon="4.75425">
        <ele>223</ele>
        <time>2018-03-16T10:12:33Z</time>
      </trkpt>
      <trkpt lat="45.87175" lon="4.75416">
        <ele>223</ele>
        <time>2018-03-16T10:12:34Z</time>
      </trkpt>
      <trkpt lat="45.87175" lon="4.75408">
        <ele>223</ele>
        <time>2018-03-16T10:12:35Z</time>
      </trkpt>
      <trkpt lat="45.87175" lon="4.75399">
        <ele>223</ele>
        <time>2018-03-16T10:12:36Z</time>
      </trkpt>
      <trkpt lat="45.87175" lon="4.7539">
        <ele>223</ele>
        <time>2018-03-16T10:12:37Z</time>
      </trkpt>
      <trkpt lat="45.87174" lon="4.75383">
        <ele>223</ele>
        <time>2018-03-16T10:12:38Z</time>
      </trkpt>
      <trkpt lat="45.87174" lon="4.75375">
        <ele>223</ele>
        <time>2018-03-16T10:12:39Z</time>
      </trkpt>
      <trkpt lat="45.87174" lon="4.75368">
        <ele>223</ele>
        <time>2018-03-16T10:12:40Z</time>
      </trkpt>
      <trkpt lat="45.87173" lon="4.7536">
        <ele>223</ele>
        <time>2018-03-16T10:12:41Z</time>
      </trkpt>
      <trkpt lat="45.87173" lon="4.75352">
        <ele>223</ele>
        <time>2018-03-16T10:12:42Z</time>
      </trkpt>
      <trkpt lat="45.87173" lon="4.75344">
        <ele>223</ele>
        <time>2018-03-16T10:12:43Z</time>
      </trkpt>
      <trkpt lat="45.87172" lon="4.75337">
        <ele>224</ele>
        <time>2018-03-16T10:12:44Z</time>
      </trkpt>
      <trkpt lat="45.87171" lon="4.75331">
        <ele>224</ele>
        <time>2018-03-16T10:12:45Z</time>
      </trkpt>
      <trkpt lat="45.8717" lon="4.75319">
        <ele>223</ele>
        <time>2018-03-16T10:12:47Z</time>
      </trkpt>
      <trkpt lat="45.8717" lon="4.75313">
        <ele>223</ele>
        <time>2018-03-16T10:12:48Z</time>
      </trkpt>
      <trkpt lat="45.87169" lon="4.75301">
        <ele>223</ele>
        <time>2018-03-16T10:12:50Z</time>
      </trkpt>
      <trkpt lat="45.87168" lon="4.75295">
        <ele>223</ele>
        <time>2018-03-16T10:12:51Z</time>
      </trkpt>
      <trkpt lat="45.87167" lon="4.75285">
        <ele>223</ele>
        <time>2018-03-16T10:12:53Z</time>
      </trkpt>
      <trkpt lat="45.87166" lon="4.75279">
        <ele>224</ele>
        <time>2018-03-16T10:12:54Z</time>
      </trkpt>
      <trkpt lat="45.87164" lon="4.75268">
        <ele>224</ele>
        <time>2018-03-16T10:12:56Z</time>
      </trkpt>
      <trkpt lat="45.87163" lon="4.75262">
        <ele>224</ele>
        <time>2018-03-16T10:12:57Z</time>
      </trkpt>
      <trkpt lat="45.87162" lon="4.75256">
        <ele>224</ele>
        <time>2018-03-16T10:12:58Z</time>
      </trkpt>
      <trkpt lat="45.8716" lon="4.75249">
        <ele>224</ele>
        <time>2018-03-16T10:12:59Z</time>
      </trkpt>
      <trkpt lat="45.87159" lon="4.75242">
        <ele>224</ele>
        <time>2018-03-16T10:13:00Z</time>
      </trkpt>
      <trkpt lat="45.87157" lon="4.75235">
        <ele>224</ele>
        <time>2018-03-16T10:13:01Z</time>
      </trkpt>
      <trkpt lat="45.87156" lon="4.75227">
        <ele>224</ele>
        <time>2018-03-16T10:13:02Z</time>
      </trkpt>
      <trkpt lat="45.87154" lon="4.7522">
        <ele>225</ele>
        <time>2018-03-16T10:13:03Z</time>
      </trkpt>
      <trkpt lat="45.87153" lon="4.75212">
        <ele>225</ele>
        <time>2018-03-16T10:13:04Z</time>
      </trkpt>
      <trkpt lat="45.87151" lon="4.75205">
        <ele>225</ele>
        <time>2018-03-16T10:13:05Z</time>
      </trkpt>
      <trkpt lat="45.87149" lon="4.75198">
        <ele>225</ele>
        <time>2018-03-16T10:13:06Z</time>
      </trkpt>
      <trkpt lat="45.87148" lon="4.7519">
        <ele>225</ele>
        <time>2018-03-16T10:13:07Z</time>
      </trkpt>
      <trkpt lat="45.87146" lon="4.75183">
        <ele>225</ele>
        <time>2018-03-16T10:13:08Z</time>
      </trkpt>
      <trkpt lat="45.87145" lon="4.75175">
        <ele>225</ele>
        <time>2018-03-16T10:13:09Z</time>
      </trkpt>
      <trkpt lat="45.87143" lon="4.75168">
        <ele>225</ele>
        <time>2018-03-16T10:13:10Z</time>
      </trkpt>
      <trkpt lat="45.87142" lon="4.7516">
        <ele>225</ele>
        <time>2018-03-16T10:13:11Z</time>
      </trkpt>
      <trkpt lat="45.8714" lon="4.75153">
        <ele>225</ele>
        <time>2018-03-16T10:13:12Z</time>
      </trkpt>
      <trkpt lat="45.87138" lon="4.75146">
        <ele>225</ele>
        <time>2018-03-16T10:13:13Z</time>
      </trkpt>
      <trkpt lat="45.87137" lon="4.75139">
        <ele>225</ele>
        <time>2018-03-16T10:13:14Z</time>
      </trkpt>
      <trkpt lat="45.87135" lon="4.75132">
        <ele>225</ele>
        <time>2018-03-16T10:13:15Z</time>
      </trkpt>
      <trkpt lat="45.87134" lon="4.75126">
        <ele>225</ele>
        <time>2018-03-16T10:13:16Z</time>
      </trkpt>
      <trkpt lat="45.87133" lon="4.75118">
        <ele>225</ele>
        <time>2018-03-16T10:13:17Z</time>
      </trkpt>
      <trkpt lat="45.87132" lon="4.75111">
        <ele>225</ele>
        <time>2018-03-16T10:13:18Z</time>
      </trkpt>
      <trkpt lat="45.87131" lon="4.75104">
        <ele>225</ele>
        <time>2018-03-16T10:13:19Z</time>
      </trkpt>
      <trkpt lat="45.87131" lon="4.75097">
        <ele>225</ele>
        <time>2018-03-16T10:13:20Z</time>
      </trkpt>
      <trkpt lat="45.8713" lon="4.7509">
        <ele>225</ele>
        <time>2018-03-16T10:13:21Z</time>
      </trkpt>
      <trkpt lat="45.87129" lon="4.75077">
        <ele>225</ele>
        <time>2018-03-16T10:13:23Z</time>
      </trkpt>
      <trkpt lat="45.87128" lon="4.75072">
        <ele>225</ele>
        <time>2018-03-16T10:13:24Z</time>
      </trkpt>
      <trkpt lat="45.87127" lon="4.75065">
        <ele>225</ele>
        <time>2018-03-16T10:13:25Z</time>
      </trkpt>
      <trkpt lat="45.87126" lon="4.75059">
        <ele>225</ele>
        <time>2018-03-16T10:13:26Z</time>
      </trkpt>
      <trkpt lat="45.87125" lon="4.75052">
        <ele>225</ele>
        <time>2018-03-16T10:13:27Z</time>
      </trkpt>
      <trkpt lat="45.87125" lon="4.75045">
        <ele>225</ele>
        <time>2018-03-16T10:13:28Z</time>
      </trkpt>
      <trkpt lat="45.87124" lon="4.75039">
        <ele>226</ele>
        <time>2018-03-16T10:13:29Z</time>
      </trkpt>
      <trkpt lat="45.87124" lon="4.75032">
        <ele>226</ele>
        <time>2018-03-16T10:13:30Z</time>
      </trkpt>
      <trkpt lat="45.87124" lon="4.75025">
        <ele>226</ele>
        <time>2018-03-16T10:13:31Z</time>
      </trkpt>
      <trkpt lat="45.87123" lon="4.75018">
        <ele>226</ele>
        <time>2018-03-16T10:13:32Z</time>
      </trkpt>
      <trkpt lat="45.87123" lon="4.7501">
        <ele>226</ele>
        <time>2018-03-16T10:13:33Z</time>
      </trkpt>
      <trkpt lat="45.87124" lon="4.75003">
        <ele>226</ele>
        <time>2018-03-16T10:13:34Z</time>
      </trkpt>
      <trkpt lat="45.87124" lon="4.74996">
        <ele>226</ele>
        <time>2018-03-16T10:13:35Z</time>
      </trkpt>
      <trkpt lat="45.87125" lon="4.74989">
        <ele>226</ele>
        <time>2018-03-16T10:13:36Z</time>
      </trkpt>
      <trkpt lat="45.87125" lon="4.7498">
        <ele>226</ele>
        <time>2018-03-16T10:13:37Z</time>
      </trkpt>
      <trkpt lat="45.87126" lon="4.74972">
        <ele>226</ele>
        <time>2018-03-16T10:13:38Z</time>
      </trkpt>
      <trkpt lat="45.87126" lon="4.74965">
        <ele>226</ele>
        <time>2018-03-16T10:13:39Z</time>
      </trkpt>
      <trkpt lat="45.87126" lon="4.74958">
        <ele>226</ele>
        <time>2018-03-16T10:13:40Z</time>
      </trkpt>
      <trkpt lat="45.87129" lon="4.7495">
        <ele>226</ele>
        <time>2018-03-16T10:13:43Z</time>
      </trkpt>
      <trkpt lat="45.87134" lon="4.74943">
        <ele>226</ele>
        <time>2018-03-16T10:13:44Z</time>
      </trkpt>
      <trkpt lat="45.87139" lon="4.74934">
        <ele>226</ele>
        <time>2018-03-16T10:13:46Z</time>
      </trkpt>
      <trkpt lat="45.87141" lon="4.74927">
        <ele>226</ele>
        <time>2018-03-16T10:13:47Z</time>
      </trkpt>
      <trkpt lat="45.87142" lon="4.7492">
        <ele>226</ele>
        <time>2018-03-16T10:13:48Z</time>
      </trkpt>
      <trkpt lat="45.8714" lon="4.74913">
        <ele>225</ele>
        <time>2018-03-16T10:13:49Z</time>
      </trkpt>
      <trkpt lat="45.87137" lon="4.74906">
        <ele>225</ele>
        <time>2018-03-16T10:13:50Z</time>
      </trkpt>
      <trkpt lat="45.87134" lon="4.74901">
        <ele>225</ele>
        <time>2018-03-16T10:13:51Z</time>
      </trkpt>
      <trkpt lat="45.8713" lon="4.74896">
        <ele>225</ele>
        <time>2018-03-16T10:13:52Z</time>
      </trkpt>
      <trkpt lat="45.87132" lon="4.74888">
        <ele>225</ele>
        <time>2018-03-16T10:13:53Z</time>
      </trkpt>
      <trkpt lat="45.87132" lon="4.74879">
        <ele>225</ele>
        <time>2018-03-16T10:13:54Z</time>
      </trkpt>
      <trkpt lat="45.87132" lon="4.7487">
        <ele>225</ele>
        <time>2018-03-16T10:13:55Z</time>
      </trkpt>
      <trkpt lat="45.87132" lon="4.74862">
        <ele>225</ele>
        <time>2018-03-16T10:13:56Z</time>
      </trkpt>
      <trkpt lat="45.87132" lon="4.74853">
        <ele>224</ele>
        <time>2018-03-16T10:13:57Z</time>
      </trkpt>
      <trkpt lat="45.87131" lon="4.74843">
        <ele>224</ele>
        <time>2018-03-16T10:13:58Z</time>
      </trkpt>
      <trkpt lat="45.87129" lon="4.74833">
        <ele>223</ele>
        <time>2018-03-16T10:13:59Z</time>
      </trkpt>
      <trkpt lat="45.87129" lon="4.74823">
        <ele>223</ele>
        <time>2018-03-16T10:14:00Z</time>
      </trkpt>
      <trkpt lat="45.87129" lon="4.74814">
        <ele>223</ele>
        <time>2018-03-16T10:14:01Z</time>
      </trkpt>
      <trkpt lat="45.87129" lon="4.74804">
        <ele>222</ele>
        <time>2018-03-16T10:14:02Z</time>
      </trkpt>
      <trkpt lat="45.87128" lon="4.74795">
        <ele>222</ele>
        <time>2018-03-16T10:14:03Z</time>
      </trkpt>
      <trkpt lat="45.87127" lon="4.74785">
        <ele>222</ele>
        <time>2018-03-16T10:14:04Z</time>
      </trkpt>
      <trkpt lat="45.87126" lon="4.74775">
        <ele>222</ele>
        <time>2018-03-16T10:14:05Z</time>
      </trkpt>
      <trkpt lat="45.87125" lon="4.74765">
        <ele>222</ele>
        <time>2018-03-16T10:14:06Z</time>
      </trkpt>
      <trkpt lat="45.87125" lon="4.74756">
        <ele>222</ele>
        <time>2018-03-16T10:14:07Z</time>
      </trkpt>
      <trkpt lat="45.87125" lon="4.74745">
        <ele>221</ele>
        <time>2018-03-16T10:14:08Z</time>
      </trkpt>
      <trkpt lat="45.87125" lon="4.74736">
        <ele>221</ele>
        <time>2018-03-16T10:14:09Z</time>
      </trkpt>
      <trkpt lat="45.87124" lon="4.74726">
        <ele>221</ele>
        <time>2018-03-16T10:14:10Z</time>
      </trkpt>
      <trkpt lat="45.87124" lon="4.74717">
        <ele>221</ele>
        <time>2018-03-16T10:14:11Z</time>
      </trkpt>
      <trkpt lat="45.87123" lon="4.74707">
        <ele>221</ele>
        <time>2018-03-16T10:14:12Z</time>
      </trkpt>
      <trkpt lat="45.87122" lon="4.74698">
        <ele>221</ele>
        <time>2018-03-16T10:14:13Z</time>
      </trkpt>
      <trkpt lat="45.87121" lon="4.74688">
        <ele>221</ele>
        <time>2018-03-16T10:14:14Z</time>
      </trkpt>
      <trkpt lat="45.8712" lon="4.74679">
        <ele>221</ele>
        <time>2018-03-16T10:14:15Z</time>
      </trkpt>
      <trkpt lat="45.8712" lon="4.74669">
        <ele>221</ele>
        <time>2018-03-16T10:14:16Z</time>
      </trkpt>
      <trkpt lat="45.87119" lon="4.7466">
        <ele>222</ele>
        <time>2018-03-16T10:14:17Z</time>
      </trkpt>
      <trkpt lat="45.87118" lon="4.74652">
        <ele>222</ele>
        <time>2018-03-16T10:14:18Z</time>
      </trkpt>
      <trkpt lat="45.87118" lon="4.74642">
        <ele>222</ele>
        <time>2018-03-16T10:14:19Z</time>
      </trkpt>
      <trkpt lat="45.87118" lon="4.74633">
        <ele>222</ele>
        <time>2018-03-16T10:14:20Z</time>
      </trkpt>
      <trkpt lat="45.87117" lon="4.74624">
        <ele>222</ele>
        <time>2018-03-16T10:14:21Z</time>
      </trkpt>
      <trkpt lat="45.87116" lon="4.74615">
        <ele>222</ele>
        <time>2018-03-16T10:14:22Z</time>
      </trkpt>
      <trkpt lat="45.87115" lon="4.74605">
        <ele>222</ele>
        <time>2018-03-16T10:14:23Z</time>
      </trkpt>
      <trkpt lat="45.87114" lon="4.74595">
        <ele>222</ele>
        <time>2018-03-16T10:14:24Z</time>
      </trkpt>
      <trkpt lat="45.87113" lon="4.74586">
        <ele>222</ele>
        <time>2018-03-16T10:14:25Z</time>
      </trkpt>
      <trkpt lat="45.87112" lon="4.74577">
        <ele>221</ele>
        <time>2018-03-16T10:14:26Z</time>
      </trkpt>
      <trkpt lat="45.8711" lon="4.74568">
        <ele>220</ele>
        <time>2018-03-16T10:14:27Z</time>
      </trkpt>
      <trkpt lat="45.87107" lon="4.74562">
        <ele>220</ele>
        <time>2018-03-16T10:14:28Z</time>
      </trkpt>
      <trkpt lat="45.87104" lon="4.74556">
        <ele>220</ele>
        <time>2018-03-16T10:14:29Z</time>
      </trkpt>
      <trkpt lat="45.87102" lon="4.74546">
        <ele>220</ele>
        <time>2018-03-16T10:14:30Z</time>
      </trkpt>
      <trkpt lat="45.87102" lon="4.74538">
        <ele>220</ele>
        <time>2018-03-16T10:14:31Z</time>
      </trkpt>
      <trkpt lat="45.87103" lon="4.74531">
        <ele>220</ele>
        <time>2018-03-16T10:14:32Z</time>
      </trkpt>
      <trkpt lat="45.87105" lon="4.74524">
        <ele>220</ele>
        <time>2018-03-16T10:14:33Z</time>
      </trkpt>
      <trkpt lat="45.87107" lon="4.74518">
        <ele>219</ele>
        <time>2018-03-16T10:14:34Z</time>
      </trkpt>
      <trkpt lat="45.8711" lon="4.74512">
        <ele>219</ele>
        <time>2018-03-16T10:14:35Z</time>
      </trkpt>
      <trkpt lat="45.8711" lon="4.74505">
        <ele>219</ele>
        <time>2018-03-16T10:14:36Z</time>
      </trkpt>
      <trkpt lat="45.87109" lon="4.74497">
        <ele>218</ele>
        <time>2018-03-16T10:14:37Z</time>
      </trkpt>
      <trkpt lat="45.87108" lon="4.74489">
        <ele>218</ele>
        <time>2018-03-16T10:14:38Z</time>
      </trkpt>
      <trkpt lat="45.87106" lon="4.74482">
        <ele>218</ele>
        <time>2018-03-16T10:14:39Z</time>
      </trkpt>
      <trkpt lat="45.87104" lon="4.74475">
        <ele>218</ele>
        <time>2018-03-16T10:14:40Z</time>
      </trkpt>
      <trkpt lat="45.87102" lon="4.74466">
        <ele>218</ele>
        <time>2018-03-16T10:14:41Z</time>
      </trkpt>
      <trkpt lat="45.87101" lon="4.74459">
        <ele>218</ele>
        <time>2018-03-16T10:14:42Z</time>
      </trkpt>
      <trkpt lat="45.87099" lon="4.7445">
        <ele>218</ele>
        <time>2018-03-16T10:14:43Z</time>
      </trkpt>
      <trkpt lat="45.87096" lon="4.74443">
        <ele>218</ele>
        <time>2018-03-16T10:14:44Z</time>
      </trkpt>
      <trkpt lat="45.87095" lon="4.74434">
        <ele>218</ele>
        <time>2018-03-16T10:14:45Z</time>
      </trkpt>
      <trkpt lat="45.87094" lon="4.74425">
        <ele>218</ele>
        <time>2018-03-16T10:14:46Z</time>
      </trkpt>
      <trkpt lat="45.87093" lon="4.74417">
        <ele>219</ele>
        <time>2018-03-16T10:14:47Z</time>
      </trkpt>
      <trkpt lat="45.87092" lon="4.74409">
        <ele>218</ele>
        <time>2018-03-16T10:14:48Z</time>
      </trkpt>
      <trkpt lat="45.8709" lon="4.744">
        <ele>218</ele>
        <time>2018-03-16T10:14:49Z</time>
      </trkpt>
      <trkpt lat="45.87089" lon="4.74393">
        <ele>218</ele>
        <time>2018-03-16T10:14:50Z</time>
      </trkpt>
      <trkpt lat="45.87088" lon="4.74384">
        <ele>218</ele>
        <time>2018-03-16T10:14:51Z</time>
      </trkpt>
      <trkpt lat="45.87087" lon="4.74376">
        <ele>218</ele>
        <time>2018-03-16T10:14:52Z</time>
      </trkpt>
      <trkpt lat="45.87085" lon="4.74367">
        <ele>218</ele>
        <time>2018-03-16T10:14:53Z</time>
      </trkpt>
      <trkpt lat="45.87083" lon="4.74358">
        <ele>219</ele>
        <time>2018-03-16T10:14:54Z</time>
      </trkpt>
      <trkpt lat="45.87081" lon="4.74349">
        <ele>219</ele>
        <time>2018-03-16T10:14:55Z</time>
      </trkpt>
      <trkpt lat="45.87078" lon="4.74339">
        <ele>219</ele>
        <time>2018-03-16T10:14:56Z</time>
      </trkpt>
      <trkpt lat="45.87076" lon="4.7433">
        <ele>219</ele>
        <time>2018-03-16T10:14:57Z</time>
      </trkpt>
      <trkpt lat="45.87075" lon="4.74321">
        <ele>218</ele>
        <time>2018-03-16T10:14:58Z</time>
      </trkpt>
      <trkpt lat="45.87074" lon="4.74312">
        <ele>218</ele>
        <time>2018-03-16T10:14:59Z</time>
      </trkpt>
      <trkpt lat="45.87073" lon="4.74303">
        <ele>218</ele>
        <time>2018-03-16T10:15:00Z</time>
      </trkpt>
      <trkpt lat="45.87072" lon="4.74294">
        <ele>217</ele>
        <time>2018-03-16T10:15:01Z</time>
      </trkpt>
      <trkpt lat="45.87072" lon="4.74284">
        <ele>217</ele>
        <time>2018-03-16T10:15:02Z</time>
      </trkpt>
      <trkpt lat="45.87073" lon="4.74273">
        <ele>216</ele>
        <time>2018-03-16T10:15:03Z</time>
      </trkpt>
      <trkpt lat="45.87072" lon="4.74262">
        <ele>216</ele>
        <time>2018-03-16T10:15:04Z</time>
      </trkpt>
      <trkpt lat="45.87072" lon="4.74252">
        <ele>215</ele>
        <time>2018-03-16T10:15:05Z</time>
      </trkpt>
      <trkpt lat="45.87072" lon="4.74241">
        <ele>214</ele>
        <time>2018-03-16T10:15:06Z</time>
      </trkpt>
      <trkpt lat="45.87072" lon="4.7423">
        <ele>214</ele>
        <time>2018-03-16T10:15:07Z</time>
      </trkpt>
      <trkpt lat="45.87072" lon="4.74219">
        <ele>214</ele>
        <time>2018-03-16T10:15:08Z</time>
      </trkpt>
      <trkpt lat="45.87072" lon="4.74208">
        <ele>214</ele>
        <time>2018-03-16T10:15:09Z</time>
      </trkpt>
      <trkpt lat="45.87072" lon="4.74197">
        <ele>213</ele>
        <time>2018-03-16T10:15:10Z</time>
      </trkpt>
      <trkpt lat="45.87072" lon="4.74186">
        <ele>213</ele>
        <time>2018-03-16T10:15:11Z</time>
      </trkpt>
      <trkpt lat="45.87072" lon="4.74174">
        <ele>212</ele>
        <time>2018-03-16T10:15:12Z</time>
      </trkpt>
      <trkpt lat="45.87072" lon="4.74164">
        <ele>212</ele>
        <time>2018-03-16T10:15:13Z</time>
      </trkpt>
      <trkpt lat="45.87072" lon="4.74154">
        <ele>212</ele>
        <time>2018-03-16T10:15:14Z</time>
      </trkpt>
      <trkpt lat="45.87072" lon="4.74144">
        <ele>212</ele>
        <time>2018-03-16T10:15:15Z</time>
      </trkpt>
      <trkpt lat="45.87072" lon="4.74134">
        <ele>212</ele>
        <time>2018-03-16T10:15:16Z</time>
      </trkpt>
      <trkpt lat="45.87072" lon="4.74125">
        <ele>212</ele>
        <time>2018-03-16T10:15:17Z</time>
      </trkpt>
      <trkpt lat="45.87072" lon="4.74117">
        <ele>212</ele>
        <time>2018-03-16T10:15:18Z</time>
      </trkpt>
      <trkpt lat="45.87072" lon="4.74108">
        <ele>212</ele>
        <time>2018-03-16T10:15:19Z</time>
      </trkpt>
      <trkpt lat="45.87072" lon="4.74099">
        <ele>212</ele>
        <time>2018-03-16T10:15:20Z</time>
      </trkpt>
      <trkpt lat="45.87072" lon="4.74092">
        <ele>212</ele>
        <time>2018-03-16T10:15:21Z</time>
      </trkpt>
      <trkpt lat="45.87072" lon="4.74083">
        <ele>213</ele>
        <time>2018-03-16T10:15:22Z</time>
      </trkpt>
      <trkpt lat="45.87072" lon="4.74075">
        <ele>213</ele>
        <time>2018-03-16T10:15:23Z</time>
      </trkpt>
      <trkpt lat="45.87072" lon="4.74067">
        <ele>214</ele>
        <time>2018-03-16T10:15:24Z</time>
      </trkpt>
      <trkpt lat="45.87072" lon="4.74059">
        <ele>214</ele>
        <time>2018-03-16T10:15:25Z</time>
      </trkpt>
      <trkpt lat="45.87072" lon="4.74051">
        <ele>214</ele>
        <time>2018-03-16T10:15:26Z</time>
      </trkpt>
      <trkpt lat="45.87072" lon="4.74043">
        <ele>215</ele>
        <time>2018-03-16T10:15:27Z</time>
      </trkpt>
      <trkpt lat="45.87072" lon="4.74036">
        <ele>215</ele>
        <time>2018-03-16T10:15:28Z</time>
      </trkpt>
      <trkpt lat="45.87072" lon="4.74029">
        <ele>215</ele>
        <time>2018-03-16T10:15:29Z</time>
      </trkpt>
      <trkpt lat="45.87073" lon="4.74022">
        <ele>215</ele>
        <time>2018-03-16T10:15:30Z</time>
      </trkpt>
      <trkpt lat="45.87073" lon="4.74014">
        <ele>215</ele>
        <time>2018-03-16T10:15:31Z</time>
      </trkpt>
      <trkpt lat="45.87073" lon="4.74007">
        <ele>216</ele>
        <time>2018-03-16T10:15:32Z</time>
      </trkpt>
      <trkpt lat="45.87073" lon="4.74">
        <ele>216</ele>
        <time>2018-03-16T10:15:33Z</time>
      </trkpt>
      <trkpt lat="45.87073" lon="4.73988">
        <ele>217</ele>
        <time>2018-03-16T10:15:35Z</time>
      </trkpt>
      <trkpt lat="45.87074" lon="4.73982">
        <ele>217</ele>
        <time>2018-03-16T10:15:36Z</time>
      </trkpt>
      <trkpt lat="45.87075" lon="4.73972">
        <ele>217</ele>
        <time>2018-03-16T10:15:38Z</time>
      </trkpt>
      <trkpt lat="45.87074" lon="4.73968">
        <ele>217</ele>
        <time>2018-03-16T10:15:39Z</time>
      </trkpt>
      <trkpt lat="45.87073" lon="4.73956">
        <ele>218</ele>
        <time>2018-03-16T10:15:41Z</time>
      </trkpt>
      <trkpt lat="45.87073" lon="4.7395">
        <ele>218</ele>
        <time>2018-03-16T10:15:42Z</time>
      </trkpt>
      <trkpt lat="45.87074" lon="4.73939">
        <ele>218</ele>
        <time>2018-03-16T10:15:44Z</time>
      </trkpt>
      <trkpt lat="45.87072" lon="4.7393">
        <ele>218</ele>
        <time>2018-03-16T10:15:45Z</time>
      </trkpt>
      <trkpt lat="45.87072" lon="4.73923">
        <ele>218</ele>
        <time>2018-03-16T10:15:46Z</time>
      </trkpt>
      <trkpt lat="45.87072" lon="4.73916">
        <ele>218</ele>
        <time>2018-03-16T10:15:47Z</time>
      </trkpt>
      <trkpt lat="45.87072" lon="4.73909">
        <ele>218</ele>
        <time>2018-03-16T10:15:48Z</time>
      </trkpt>
      <trkpt lat="45.87073" lon="4.73902">
        <ele>218</ele>
        <time>2018-03-16T10:15:49Z</time>
      </trkpt>
      <trkpt lat="45.87072" lon="4.73889">
        <ele>218</ele>
        <time>2018-03-16T10:15:51Z</time>
      </trkpt>
      <trkpt lat="45.87072" lon="4.73881">
        <ele>218</ele>
        <time>2018-03-16T10:15:52Z</time>
      </trkpt>
      <trkpt lat="45.87072" lon="4.73874">
        <ele>218</ele>
        <time>2018-03-16T10:15:53Z</time>
      </trkpt>
      <trkpt lat="45.87072" lon="4.73866">
        <ele>218</ele>
        <time>2018-03-16T10:15:54Z</time>
      </trkpt>
      <trkpt lat="45.87071" lon="4.73857">
        <ele>218</ele>
        <time>2018-03-16T10:15:55Z</time>
      </trkpt>
      <trkpt lat="45.87071" lon="4.73849">
        <ele>218</ele>
        <time>2018-03-16T10:15:56Z</time>
      </trkpt>
      <trkpt lat="45.87071" lon="4.73841">
        <ele>218</ele>
        <time>2018-03-16T10:15:57Z</time>
      </trkpt>
      <trkpt lat="45.8707" lon="4.73833">
        <ele>217</ele>
        <time>2018-03-16T10:15:58Z</time>
      </trkpt>
      <trkpt lat="45.8707" lon="4.73824">
        <ele>217</ele>
        <time>2018-03-16T10:15:59Z</time>
      </trkpt>
      <trkpt lat="45.87071" lon="4.73815">
        <ele>217</ele>
        <time>2018-03-16T10:16:00Z</time>
      </trkpt>
      <trkpt lat="45.87072" lon="4.73805">
        <ele>217</ele>
        <time>2018-03-16T10:16:01Z</time>
      </trkpt>
      <trkpt lat="45.87071" lon="4.73797">
        <ele>217</ele>
        <time>2018-03-16T10:16:02Z</time>
      </trkpt>
      <trkpt lat="45.87072" lon="4.73788">
        <ele>217</ele>
        <time>2018-03-16T10:16:03Z</time>
      </trkpt>
      <trkpt lat="45.87072" lon="4.73779">
        <ele>217</ele>
        <time>2018-03-16T10:16:04Z</time>
      </trkpt>
      <trkpt lat="45.87073" lon="4.73771">
        <ele>217</ele>
        <time>2018-03-16T10:16:05Z</time>
      </trkpt>
      <trkpt lat="45.87074" lon="4.73762">
        <ele>216</ele>
        <time>2018-03-16T10:16:06Z</time>
      </trkpt>
      <trkpt lat="45.87075" lon="4.73754">
        <ele>216</ele>
        <time>2018-03-16T10:16:07Z</time>
      </trkpt>
      <trkpt lat="45.87075" lon="4.73746">
        <ele>216</ele>
        <time>2018-03-16T10:16:08Z</time>
      </trkpt>
      <trkpt lat="45.87076" lon="4.73738">
        <ele>216</ele>
        <time>2018-03-16T10:16:09Z</time>
      </trkpt>
      <trkpt lat="45.87077" lon="4.7373">
        <ele>216</ele>
        <time>2018-03-16T10:16:10Z</time>
      </trkpt>
      <trkpt lat="45.87078" lon="4.73722">
        <ele>217</ele>
        <time>2018-03-16T10:16:11Z</time>
      </trkpt>
      <trkpt lat="45.87079" lon="4.73714">
        <ele>217</ele>
        <time>2018-03-16T10:16:12Z</time>
      </trkpt>
      <trkpt lat="45.87081" lon="4.73705">
        <ele>217</ele>
        <time>2018-03-16T10:16:13Z</time>
      </trkpt>
      <trkpt lat="45.87082" lon="4.73697">
        <ele>217</ele>
        <time>2018-03-16T10:16:14Z</time>
      </trkpt>
      <trkpt lat="45.87083" lon="4.73689">
        <ele>217</ele>
        <time>2018-03-16T10:16:15Z</time>
      </trkpt>
      <trkpt lat="45.87084" lon="4.73681">
        <ele>215</ele>
        <time>2018-03-16T10:16:16Z</time>
      </trkpt>
      <trkpt lat="45.87086" lon="4.73673">
        <ele>215</ele>
        <time>2018-03-16T10:16:17Z</time>
      </trkpt>
      <trkpt lat="45.87087" lon="4.73664">
        <ele>215</ele>
        <time>2018-03-16T10:16:18Z</time>
      </trkpt>
      <trkpt lat="45.87088" lon="4.73654">
        <ele>215</ele>
        <time>2018-03-16T10:16:19Z</time>
      </trkpt>
      <trkpt lat="45.87089" lon="4.73644">
        <ele>214</ele>
        <time>2018-03-16T10:16:20Z</time>
      </trkpt>
      <trkpt lat="45.8709" lon="4.73635">
        <ele>214</ele>
        <time>2018-03-16T10:16:21Z</time>
      </trkpt>
      <trkpt lat="45.87092" lon="4.73625">
        <ele>214</ele>
        <time>2018-03-16T10:16:22Z</time>
      </trkpt>
      <trkpt lat="45.87093" lon="4.73615">
        <ele>214</ele>
        <time>2018-03-16T10:16:23Z</time>
      </trkpt>
      <trkpt lat="45.87094" lon="4.73606">
        <ele>214</ele>
        <time>2018-03-16T10:16:24Z</time>
      </trkpt>
      <trkpt lat="45.87095" lon="4.73596">
        <ele>214</ele>
        <time>2018-03-16T10:16:25Z</time>
      </trkpt>
      <trkpt lat="45.87095" lon="4.73586">
        <ele>214</ele>
        <time>2018-03-16T10:16:26Z</time>
      </trkpt>
      <trkpt lat="45.87096" lon="4.73576">
        <ele>214</ele>
        <time>2018-03-16T10:16:27Z</time>
      </trkpt>
      <trkpt lat="45.87097" lon="4.73566">
        <ele>213</ele>
        <time>2018-03-16T10:16:28Z</time>
      </trkpt>
      <trkpt lat="45.87098" lon="4.73558">
        <ele>213</ele>
        <time>2018-03-16T10:16:29Z</time>
      </trkpt>
      <trkpt lat="45.87099" lon="4.73549">
        <ele>213</ele>
        <time>2018-03-16T10:16:30Z</time>
      </trkpt>
      <trkpt lat="45.871" lon="4.7354">
        <ele>213</ele>
        <time>2018-03-16T10:16:31Z</time>
      </trkpt>
      <trkpt lat="45.871" lon="4.73531">
        <ele>213</ele>
        <time>2018-03-16T10:16:32Z</time>
      </trkpt>
      <trkpt lat="45.871" lon="4.73522">
        <ele>213</ele>
        <time>2018-03-16T10:16:33Z</time>
      </trkpt>
      <trkpt lat="45.871" lon="4.73513">
        <ele>213</ele>
        <time>2018-03-16T10:16:34Z</time>
      </trkpt>
      <trkpt lat="45.87101" lon="4.73504">
        <ele>213</ele>
        <time>2018-03-16T10:16:35Z</time>
      </trkpt>
      <trkpt lat="45.87102" lon="4.73494">
        <ele>213</ele>
        <time>2018-03-16T10:16:36Z</time>
      </trkpt>
      <trkpt lat="45.87102" lon="4.73486">
        <ele>212</ele>
        <time>2018-03-16T10:16:37Z</time>
      </trkpt>
      <trkpt lat="45.87102" lon="4.73477">
        <ele>212</ele>
        <time>2018-03-16T10:16:38Z</time>
      </trkpt>
      <trkpt lat="45.87103" lon="4.73468">
        <ele>212</ele>
        <time>2018-03-16T10:16:39Z</time>
      </trkpt>
      <trkpt lat="45.87103" lon="4.73459">
        <ele>212</ele>
        <time>2018-03-16T10:16:40Z</time>
      </trkpt>
      <trkpt lat="45.87103" lon="4.7345">
        <ele>212</ele>
        <time>2018-03-16T10:16:41Z</time>
      </trkpt>
      <trkpt lat="45.87103" lon="4.73441">
        <ele>212</ele>
        <time>2018-03-16T10:16:42Z</time>
      </trkpt>
      <trkpt lat="45.87104" lon="4.73432">
        <ele>212</ele>
        <time>2018-03-16T10:16:43Z</time>
      </trkpt>
      <trkpt lat="45.87104" lon="4.73422">
        <ele>212</ele>
        <time>2018-03-16T10:16:44Z</time>
      </trkpt>
      <trkpt lat="45.87104" lon="4.73413">
        <ele>212</ele>
        <time>2018-03-16T10:16:45Z</time>
      </trkpt>
      <trkpt lat="45.87104" lon="4.73404">
        <ele>212</ele>
        <time>2018-03-16T10:16:46Z</time>
      </trkpt>
      <trkpt lat="45.87104" lon="4.73394">
        <ele>211</ele>
        <time>2018-03-16T10:16:47Z</time>
      </trkpt>
      <trkpt lat="45.87105" lon="4.73384">
        <ele>211</ele>
        <time>2018-03-16T10:16:48Z</time>
      </trkpt>
      <trkpt lat="45.87106" lon="4.73374">
        <ele>211</ele>
        <time>2018-03-16T10:16:49Z</time>
      </trkpt>
      <trkpt lat="45.87108" lon="4.73363">
        <ele>211</ele>
        <time>2018-03-16T10:16:50Z</time>
      </trkpt>
      <trkpt lat="45.87109" lon="4.73353">
        <ele>211</ele>
        <time>2018-03-16T10:16:51Z</time>
      </trkpt>
      <trkpt lat="45.87111" lon="4.73343">
        <ele>211</ele>
        <time>2018-03-16T10:16:52Z</time>
      </trkpt>
      <trkpt lat="45.87112" lon="4.73333">
        <ele>209</ele>
        <time>2018-03-16T10:16:53Z</time>
      </trkpt>
      <trkpt lat="45.87113" lon="4.73323">
        <ele>209</ele>
        <time>2018-03-16T10:16:54Z</time>
      </trkpt>
      <trkpt lat="45.87114" lon="4.73312">
        <ele>209</ele>
        <time>2018-03-16T10:16:55Z</time>
      </trkpt>
      <trkpt lat="45.87115" lon="4.73302">
        <ele>209</ele>
        <time>2018-03-16T10:16:56Z</time>
      </trkpt>
      <trkpt lat="45.87116" lon="4.73292">
        <ele>208</ele>
        <time>2018-03-16T10:16:57Z</time>
      </trkpt>
      <trkpt lat="45.87117" lon="4.73282">
        <ele>208</ele>
        <time>2018-03-16T10:16:58Z</time>
      </trkpt>
      <trkpt lat="45.87118" lon="4.73271">
        <ele>208</ele>
        <time>2018-03-16T10:16:59Z</time>
      </trkpt>
      <trkpt lat="45.8712" lon="4.73261">
        <ele>208</ele>
        <time>2018-03-16T10:17:00Z</time>
      </trkpt>
      <trkpt lat="45.87123" lon="4.73252">
        <ele>208</ele>
        <time>2018-03-16T10:17:01Z</time>
      </trkpt>
      <trkpt lat="45.87126" lon="4.73241">
        <ele>206</ele>
        <time>2018-03-16T10:17:02Z</time>
      </trkpt>
      <trkpt lat="45.87129" lon="4.73232">
        <ele>206</ele>
        <time>2018-03-16T10:17:03Z</time>
      </trkpt>
      <trkpt lat="45.87132" lon="4.73222">
        <ele>206</ele>
        <time>2018-03-16T10:17:04Z</time>
      </trkpt>
      <trkpt lat="45.87137" lon="4.73214">
        <ele>206</ele>
        <time>2018-03-16T10:17:05Z</time>
      </trkpt>
      <trkpt lat="45.8714" lon="4.73204">
        <ele>206</ele>
        <time>2018-03-16T10:17:06Z</time>
      </trkpt>
      <trkpt lat="45.87145" lon="4.73194">
        <ele>205</ele>
        <time>2018-03-16T10:17:07Z</time>
      </trkpt>
      <trkpt lat="45.87149" lon="4.73184">
        <ele>205</ele>
        <time>2018-03-16T10:17:08Z</time>
      </trkpt>
      <trkpt lat="45.87153" lon="4.73175">
        <ele>205</ele>
        <time>2018-03-16T10:17:09Z</time>
      </trkpt>
      <trkpt lat="45.87156" lon="4.73166">
        <ele>204</ele>
        <time>2018-03-16T10:17:10Z</time>
      </trkpt>
      <trkpt lat="45.87159" lon="4.73156">
        <ele>204</ele>
        <time>2018-03-16T10:17:11Z</time>
      </trkpt>
      <trkpt lat="45.87161" lon="4.73146">
        <ele>204</ele>
        <time>2018-03-16T10:17:12Z</time>
      </trkpt>
      <trkpt lat="45.87162" lon="4.73136">
        <ele>204</ele>
        <time>2018-03-16T10:17:13Z</time>
      </trkpt>
      <trkpt lat="45.87164" lon="4.73126">
        <ele>204</ele>
        <time>2018-03-16T10:17:14Z</time>
      </trkpt>
      <trkpt lat="45.87164" lon="4.73115">
        <ele>204</ele>
        <time>2018-03-16T10:17:15Z</time>
      </trkpt>
      <trkpt lat="45.87165" lon="4.73106">
        <ele>204</ele>
        <time>2018-03-16T10:17:16Z</time>
      </trkpt>
      <trkpt lat="45.87165" lon="4.73096">
        <ele>204</ele>
        <time>2018-03-16T10:17:17Z</time>
      </trkpt>
      <trkpt lat="45.87165" lon="4.73086">
        <ele>203</ele>
        <time>2018-03-16T10:17:18Z</time>
      </trkpt>
      <trkpt lat="45.87165" lon="4.73077">
        <ele>204</ele>
        <time>2018-03-16T10:17:19Z</time>
      </trkpt>
      <trkpt lat="45.87165" lon="4.73066">
        <ele>204</ele>
        <time>2018-03-16T10:17:20Z</time>
      </trkpt>
      <trkpt lat="45.87166" lon="4.73056">
        <ele>205</ele>
        <time>2018-03-16T10:17:21Z</time>
      </trkpt>
      <trkpt lat="45.87167" lon="4.73047">
        <ele>205</ele>
        <time>2018-03-16T10:17:22Z</time>
      </trkpt>
      <trkpt lat="45.87167" lon="4.73037">
        <ele>205</ele>
        <time>2018-03-16T10:17:23Z</time>
      </trkpt>
      <trkpt lat="45.87166" lon="4.73027">
        <ele>205</ele>
        <time>2018-03-16T10:17:24Z</time>
      </trkpt>
      <trkpt lat="45.87166" lon="4.73017">
        <ele>205</ele>
        <time>2018-03-16T10:17:25Z</time>
      </trkpt>
      <trkpt lat="45.87166" lon="4.73007">
        <ele>204</ele>
        <time>2018-03-16T10:17:26Z</time>
      </trkpt>
      <trkpt lat="45.87167" lon="4.72998">
        <ele>204</ele>
        <time>2018-03-16T10:17:27Z</time>
      </trkpt>
      <trkpt lat="45.87167" lon="4.72988">
        <ele>203</ele>
        <time>2018-03-16T10:17:28Z</time>
      </trkpt>
      <trkpt lat="45.87167" lon="4.72979">
        <ele>202</ele>
        <time>2018-03-16T10:17:29Z</time>
      </trkpt>
      <trkpt lat="45.87167" lon="4.72969">
        <ele>202</ele>
        <time>2018-03-16T10:17:30Z</time>
      </trkpt>
      <trkpt lat="45.87167" lon="4.72959">
        <ele>202</ele>
        <time>2018-03-16T10:17:31Z</time>
      </trkpt>
      <trkpt lat="45.87168" lon="4.7295">
        <ele>202</ele>
        <time>2018-03-16T10:17:32Z</time>
      </trkpt>
      <trkpt lat="45.87167" lon="4.72941">
        <ele>202</ele>
        <time>2018-03-16T10:17:33Z</time>
      </trkpt>
      <trkpt lat="45.87169" lon="4.72932">
        <ele>202</ele>
        <time>2018-03-16T10:17:34Z</time>
      </trkpt>
      <trkpt lat="45.87169" lon="4.72922">
        <ele>203</ele>
        <time>2018-03-16T10:17:35Z</time>
      </trkpt>
      <trkpt lat="45.87169" lon="4.72913">
        <ele>203</ele>
        <time>2018-03-16T10:17:36Z</time>
      </trkpt>
      <trkpt lat="45.87169" lon="4.72904">
        <ele>202</ele>
        <time>2018-03-16T10:17:37Z</time>
      </trkpt>
      <trkpt lat="45.87169" lon="4.72894">
        <ele>201</ele>
        <time>2018-03-16T10:17:38Z</time>
      </trkpt>
      <trkpt lat="45.87169" lon="4.72885">
        <ele>201</ele>
        <time>2018-03-16T10:17:39Z</time>
      </trkpt>
      <trkpt lat="45.87169" lon="4.72874">
        <ele>200</ele>
        <time>2018-03-16T10:17:40Z</time>
      </trkpt>
      <trkpt lat="45.8717" lon="4.72864">
        <ele>200</ele>
        <time>2018-03-16T10:17:41Z</time>
      </trkpt>
      <trkpt lat="45.8717" lon="4.72853">
        <ele>200</ele>
        <time>2018-03-16T10:17:42Z</time>
      </trkpt>
      <trkpt lat="45.87169" lon="4.72843">
        <ele>201</ele>
        <time>2018-03-16T10:17:43Z</time>
      </trkpt>
      <trkpt lat="45.87169" lon="4.72832">
        <ele>202</ele>
        <time>2018-03-16T10:17:44Z</time>
      </trkpt>
      <trkpt lat="45.8717" lon="4.72821">
        <ele>200</ele>
        <time>2018-03-16T10:17:45Z</time>
      </trkpt>
      <trkpt lat="45.8717" lon="4.7281">
        <ele>200</ele>
        <time>2018-03-16T10:17:46Z</time>
      </trkpt>
      <trkpt lat="45.87171" lon="4.728">
        <ele>199</ele>
        <time>2018-03-16T10:17:47Z</time>
      </trkpt>
      <trkpt lat="45.87171" lon="4.72789">
        <ele>199</ele>
        <time>2018-03-16T10:17:48Z</time>
      </trkpt>
      <trkpt lat="45.8717" lon="4.72778">
        <ele>199</ele>
        <time>2018-03-16T10:17:49Z</time>
      </trkpt>
      <trkpt lat="45.87171" lon="4.72767">
        <ele>200</ele>
        <time>2018-03-16T10:17:50Z</time>
      </trkpt>
      <trkpt lat="45.87171" lon="4.72755">
        <ele>200</ele>
        <time>2018-03-16T10:17:51Z</time>
      </trkpt>
      <trkpt lat="45.87174" lon="4.72745">
        <ele>200</ele>
        <time>2018-03-16T10:17:52Z</time>
      </trkpt>
      <trkpt lat="45.87175" lon="4.72734">
        <ele>200</ele>
        <time>2018-03-16T10:17:53Z</time>
      </trkpt>
      <trkpt lat="45.87176" lon="4.72723">
        <ele>199</ele>
        <time>2018-03-16T10:17:54Z</time>
      </trkpt>
      <trkpt lat="45.87179" lon="4.72712">
        <ele>199</ele>
        <time>2018-03-16T10:17:55Z</time>
      </trkpt>
      <trkpt lat="45.87181" lon="4.72702">
        <ele>199</ele>
        <time>2018-03-16T10:17:56Z</time>
      </trkpt>
      <trkpt lat="45.87183" lon="4.72692">
        <ele>199</ele>
        <time>2018-03-16T10:17:57Z</time>
      </trkpt>
      <trkpt lat="45.87185" lon="4.72681">
        <ele>199</ele>
        <time>2018-03-16T10:17:58Z</time>
      </trkpt>
      <trkpt lat="45.87188" lon="4.72671">
        <ele>199</ele>
        <time>2018-03-16T10:17:59Z</time>
      </trkpt>
      <trkpt lat="45.87191" lon="4.7266">
        <ele>199</ele>
        <time>2018-03-16T10:18:00Z</time>
      </trkpt>
      <trkpt lat="45.87194" lon="4.7265">
        <ele>199</ele>
        <time>2018-03-16T10:18:01Z</time>
      </trkpt>
      <trkpt lat="45.87196" lon="4.72641">
        <ele>199</ele>
        <time>2018-03-16T10:18:02Z</time>
      </trkpt>
      <trkpt lat="45.87199" lon="4.7263">
        <ele>199</ele>
        <time>2018-03-16T10:18:03Z</time>
      </trkpt>
      <trkpt lat="45.87202" lon="4.72619">
        <ele>199</ele>
        <time>2018-03-16T10:18:04Z</time>
      </trkpt>
      <trkpt lat="45.87204" lon="4.72607">
        <ele>199</ele>
        <time>2018-03-16T10:18:05Z</time>
      </trkpt>
      <trkpt lat="45.87208" lon="4.72596">
        <ele>199</ele>
        <time>2018-03-16T10:18:06Z</time>
      </trkpt>
      <trkpt lat="45.8721" lon="4.72585">
        <ele>199</ele>
        <time>2018-03-16T10:18:07Z</time>
      </trkpt>
      <trkpt lat="45.87211" lon="4.72574">
        <ele>199</ele>
        <time>2018-03-16T10:18:08Z</time>
      </trkpt>
      <trkpt lat="45.87211" lon="4.72563">
        <ele>198</ele>
        <time>2018-03-16T10:18:09Z</time>
      </trkpt>
      <trkpt lat="45.87212" lon="4.72551">
        <ele>198</ele>
        <time>2018-03-16T10:18:10Z</time>
      </trkpt>
      <trkpt lat="45.87211" lon="4.72541">
        <ele>198</ele>
        <time>2018-03-16T10:18:11Z</time>
      </trkpt>
      <trkpt lat="45.87209" lon="4.72529">
        <ele>198</ele>
        <time>2018-03-16T10:18:12Z</time>
      </trkpt>
      <trkpt lat="45.87207" lon="4.72519">
        <ele>198</ele>
        <time>2018-03-16T10:18:13Z</time>
      </trkpt>
      <trkpt lat="45.87204" lon="4.72508">
        <ele>198</ele>
        <time>2018-03-16T10:18:14Z</time>
      </trkpt>
      <trkpt lat="45.87203" lon="4.72498">
        <ele>196</ele>
        <time>2018-03-16T10:18:15Z</time>
      </trkpt>
      <trkpt lat="45.872" lon="4.72488">
        <ele>196</ele>
        <time>2018-03-16T10:18:16Z</time>
      </trkpt>
      <trkpt lat="45.87197" lon="4.72478">
        <ele>195</ele>
        <time>2018-03-16T10:18:17Z</time>
      </trkpt>
      <trkpt lat="45.87193" lon="4.72469">
        <ele>195</ele>
        <time>2018-03-16T10:18:18Z</time>
      </trkpt>
      <trkpt lat="45.87188" lon="4.72459">
        <ele>195</ele>
        <time>2018-03-16T10:18:19Z</time>
      </trkpt>
      <trkpt lat="45.87185" lon="4.72451">
        <ele>195</ele>
        <time>2018-03-16T10:18:20Z</time>
      </trkpt>
      <trkpt lat="45.87182" lon="4.72442">
        <ele>194</ele>
        <time>2018-03-16T10:18:21Z</time>
      </trkpt>
      <trkpt lat="45.87179" lon="4.72434">
        <ele>194</ele>
        <time>2018-03-16T10:18:22Z</time>
      </trkpt>
      <trkpt lat="45.87175" lon="4.72426">
        <ele>194</ele>
        <time>2018-03-16T10:18:23Z</time>
      </trkpt>
      <trkpt lat="45.87172" lon="4.72418">
        <ele>194</ele>
        <time>2018-03-16T10:18:24Z</time>
      </trkpt>
      <trkpt lat="45.87168" lon="4.72409">
        <ele>193</ele>
        <time>2018-03-16T10:18:25Z</time>
      </trkpt>
      <trkpt lat="45.87165" lon="4.72401">
        <ele>196</ele>
        <time>2018-03-16T10:18:26Z</time>
      </trkpt>
      <trkpt lat="45.87162" lon="4.72391">
        <ele>197</ele>
        <time>2018-03-16T10:18:27Z</time>
      </trkpt>
      <trkpt lat="45.87158" lon="4.72383">
        <ele>197</ele>
        <time>2018-03-16T10:18:28Z</time>
      </trkpt>
      <trkpt lat="45.87155" lon="4.72375">
        <ele>197</ele>
        <time>2018-03-16T10:18:29Z</time>
      </trkpt>
      <trkpt lat="45.87152" lon="4.72367">
        <ele>197</ele>
        <time>2018-03-16T10:18:30Z</time>
      </trkpt>
      <trkpt lat="45.87149" lon="4.72359">
        <ele>197</ele>
        <time>2018-03-16T10:18:31Z</time>
      </trkpt>
      <trkpt lat="45.87146" lon="4.72351">
        <ele>196</ele>
        <time>2018-03-16T10:18:32Z</time>
      </trkpt>
      <trkpt lat="45.87143" lon="4.72343">
        <ele>196</ele>
        <time>2018-03-16T10:18:33Z</time>
      </trkpt>
      <trkpt lat="45.87139" lon="4.72335">
        <ele>197</ele>
        <time>2018-03-16T10:18:34Z</time>
      </trkpt>
      <trkpt lat="45.87136" lon="4.72328">
        <ele>195</ele>
        <time>2018-03-16T10:18:35Z</time>
      </trkpt>
      <trkpt lat="45.87133" lon="4.7232">
        <ele>196</ele>
        <time>2018-03-16T10:18:36Z</time>
      </trkpt>
      <trkpt lat="45.8713" lon="4.72312">
        <ele>196</ele>
        <time>2018-03-16T10:18:37Z</time>
      </trkpt>
      <trkpt lat="45.87126" lon="4.72305">
        <ele>196</ele>
        <time>2018-03-16T10:18:38Z</time>
      </trkpt>
      <trkpt lat="45.87121" lon="4.72298">
        <ele>196</ele>
        <time>2018-03-16T10:18:39Z</time>
      </trkpt>
      <trkpt lat="45.87117" lon="4.72291">
        <ele>197</ele>
        <time>2018-03-16T10:18:40Z</time>
      </trkpt>
      <trkpt lat="45.87113" lon="4.72284">
        <ele>197</ele>
        <time>2018-03-16T10:18:41Z</time>
      </trkpt>
      <trkpt lat="45.87108" lon="4.72278">
        <ele>197</ele>
        <time>2018-03-16T10:18:42Z</time>
      </trkpt>
      <trkpt lat="45.87103" lon="4.72271">
        <ele>197</ele>
        <time>2018-03-16T10:18:43Z</time>
      </trkpt>
      <trkpt lat="45.87097" lon="4.72265">
        <ele>198</ele>
        <time>2018-03-16T10:18:44Z</time>
      </trkpt>
      <trkpt lat="45.87091" lon="4.72259">
        <ele>198</ele>
        <time>2018-03-16T10:18:45Z</time>
      </trkpt>
      <trkpt lat="45.87085" lon="4.72254">
        <ele>199</ele>
        <time>2018-03-16T10:18:46Z</time>
      </trkpt>
      <trkpt lat="45.8708" lon="4.72248">
        <ele>199</ele>
        <time>2018-03-16T10:18:47Z</time>
      </trkpt>
      <trkpt lat="45.87075" lon="4.72241">
        <ele>200</ele>
        <time>2018-03-16T10:18:48Z</time>
      </trkpt>
      <trkpt lat="45.87071" lon="4.72236">
        <ele>200</ele>
        <time>2018-03-16T10:18:49Z</time>
      </trkpt>
      <trkpt lat="45.87066" lon="4.72231">
        <ele>200</ele>
        <time>2018-03-16T10:18:50Z</time>
      </trkpt>
      <trkpt lat="45.87061" lon="4.72226">
        <ele>200</ele>
        <time>2018-03-16T10:18:51Z</time>
      </trkpt>
      <trkpt lat="45.87056" lon="4.72221">
        <ele>200</ele>
        <time>2018-03-16T10:18:52Z</time>
      </trkpt>
      <trkpt lat="45.87051" lon="4.72216">
        <ele>201</ele>
        <time>2018-03-16T10:18:53Z</time>
      </trkpt>
      <trkpt lat="45.87045" lon="4.72211">
        <ele>201</ele>
        <time>2018-03-16T10:18:54Z</time>
      </trkpt>
      <trkpt lat="45.87039" lon="4.72208">
        <ele>201</ele>
        <time>2018-03-16T10:18:55Z</time>
      </trkpt>
      <trkpt lat="45.87032" lon="4.72204">
        <ele>201</ele>
        <time>2018-03-16T10:18:56Z</time>
      </trkpt>
      <trkpt lat="45.87027" lon="4.722">
        <ele>201</ele>
        <time>2018-03-16T10:18:57Z</time>
      </trkpt>
      <trkpt lat="45.8702" lon="4.72196">
        <ele>201</ele>
        <time>2018-03-16T10:18:58Z</time>
      </trkpt>
      <trkpt lat="45.87015" lon="4.72192">
        <ele>201</ele>
        <time>2018-03-16T10:18:59Z</time>
      </trkpt>
      <trkpt lat="45.87009" lon="4.72189">
        <ele>201</ele>
        <time>2018-03-16T10:19:00Z</time>
      </trkpt>
      <trkpt lat="45.87003" lon="4.72184">
        <ele>201</ele>
        <time>2018-03-16T10:19:01Z</time>
      </trkpt>
      <trkpt lat="45.86997" lon="4.7218">
        <ele>206</ele>
        <time>2018-03-16T10:19:02Z</time>
      </trkpt>
      <trkpt lat="45.86991" lon="4.72175">
        <ele>206</ele>
        <time>2018-03-16T10:19:03Z</time>
      </trkpt>
      <trkpt lat="45.86984" lon="4.72171">
        <ele>206</ele>
        <time>2018-03-16T10:19:04Z</time>
      </trkpt>
      <trkpt lat="45.86978" lon="4.72166">
        <ele>201</ele>
        <time>2018-03-16T10:19:05Z</time>
      </trkpt>
      <trkpt lat="45.86972" lon="4.72162">
        <ele>201</ele>
        <time>2018-03-16T10:19:06Z</time>
      </trkpt>
      <trkpt lat="45.86966" lon="4.72158">
        <ele>201</ele>
        <time>2018-03-16T10:19:07Z</time>
      </trkpt>
      <trkpt lat="45.8696" lon="4.72154">
        <ele>201</ele>
        <time>2018-03-16T10:19:08Z</time>
      </trkpt>
      <trkpt lat="45.86954" lon="4.7215">
        <ele>201</ele>
        <time>2018-03-16T10:19:09Z</time>
      </trkpt>
      <trkpt lat="45.86948" lon="4.72146">
        <ele>202</ele>
        <time>2018-03-16T10:19:10Z</time>
      </trkpt>
      <trkpt lat="45.86943" lon="4.72142">
        <ele>202</ele>
        <time>2018-03-16T10:19:11Z</time>
      </trkpt>
      <trkpt lat="45.86937" lon="4.72138">
        <ele>201</ele>
        <time>2018-03-16T10:19:12Z</time>
      </trkpt>
      <trkpt lat="45.86931" lon="4.72134">
        <ele>201</ele>
        <time>2018-03-16T10:19:13Z</time>
      </trkpt>
      <trkpt lat="45.86925" lon="4.72132">
        <ele>201</ele>
        <time>2018-03-16T10:19:14Z</time>
      </trkpt>
      <trkpt lat="45.86919" lon="4.72129">
        <ele>201</ele>
        <time>2018-03-16T10:19:15Z</time>
      </trkpt>
      <trkpt lat="45.86913" lon="4.72126">
        <ele>203</ele>
        <time>2018-03-16T10:19:16Z</time>
      </trkpt>
      <trkpt lat="45.86907" lon="4.72124">
        <ele>202</ele>
        <time>2018-03-16T10:19:17Z</time>
      </trkpt>
      <trkpt lat="45.86901" lon="4.72121">
        <ele>202</ele>
        <time>2018-03-16T10:19:18Z</time>
      </trkpt>
      <trkpt lat="45.86895" lon="4.72118">
        <ele>201</ele>
        <time>2018-03-16T10:19:19Z</time>
      </trkpt>
      <trkpt lat="45.86888" lon="4.72115">
        <ele>201</ele>
        <time>2018-03-16T10:19:20Z</time>
      </trkpt>
      <trkpt lat="45.86882" lon="4.72113">
        <ele>201</ele>
        <time>2018-03-16T10:19:21Z</time>
      </trkpt>
      <trkpt lat="45.86876" lon="4.72111">
        <ele>201</ele>
        <time>2018-03-16T10:19:22Z</time>
      </trkpt>
      <trkpt lat="45.8687" lon="4.72109">
        <ele>201</ele>
        <time>2018-03-16T10:19:23Z</time>
      </trkpt>
      <trkpt lat="45.86865" lon="4.72106">
        <ele>200</ele>
        <time>2018-03-16T10:19:24Z</time>
      </trkpt>
      <trkpt lat="45.86859" lon="4.72105">
        <ele>200</ele>
        <time>2018-03-16T10:19:25Z</time>
      </trkpt>
      <trkpt lat="45.86853" lon="4.72103">
        <ele>200</ele>
        <time>2018-03-16T10:19:26Z</time>
      </trkpt>
      <trkpt lat="45.86847" lon="4.721">
        <ele>199</ele>
        <time>2018-03-16T10:19:27Z</time>
      </trkpt>
      <trkpt lat="45.86841" lon="4.72098">
        <ele>198</ele>
        <time>2018-03-16T10:19:28Z</time>
      </trkpt>
      <trkpt lat="45.86835" lon="4.72095">
        <ele>197</ele>
        <time>2018-03-16T10:19:29Z</time>
      </trkpt>
      <trkpt lat="45.86829" lon="4.72093">
        <ele>197</ele>
        <time>2018-03-16T10:19:30Z</time>
      </trkpt>
      <trkpt lat="45.86825" lon="4.7209">
        <ele>197</ele>
        <time>2018-03-16T10:19:31Z</time>
      </trkpt>
      <trkpt lat="45.86819" lon="4.72088">
        <ele>198</ele>
        <time>2018-03-16T10:19:32Z</time>
      </trkpt>
      <trkpt lat="45.86813" lon="4.72085">
        <ele>199</ele>
        <time>2018-03-16T10:19:33Z</time>
      </trkpt>
      <trkpt lat="45.86806" lon="4.72082">
        <ele>194</ele>
        <time>2018-03-16T10:19:34Z</time>
      </trkpt>
      <trkpt lat="45.868" lon="4.72079">
        <ele>194</ele>
        <time>2018-03-16T10:19:35Z</time>
      </trkpt>
      <trkpt lat="45.86794" lon="4.72076">
        <ele>194</ele>
        <time>2018-03-16T10:19:36Z</time>
      </trkpt>
      <trkpt lat="45.86788" lon="4.72074">
        <ele>194</ele>
        <time>2018-03-16T10:19:37Z</time>
      </trkpt>
      <trkpt lat="45.86783" lon="4.72071">
        <ele>194</ele>
        <time>2018-03-16T10:19:38Z</time>
      </trkpt>
      <trkpt lat="45.86778" lon="4.72069">
        <ele>194</ele>
        <time>2018-03-16T10:19:39Z</time>
      </trkpt>
      <trkpt lat="45.86772" lon="4.72068">
        <ele>195</ele>
        <time>2018-03-16T10:19:40Z</time>
      </trkpt>
      <trkpt lat="45.86766" lon="4.72066">
        <ele>195</ele>
        <time>2018-03-16T10:19:41Z</time>
      </trkpt>
      <trkpt lat="45.86761" lon="4.72063">
        <ele>195</ele>
        <time>2018-03-16T10:19:42Z</time>
      </trkpt>
      <trkpt lat="45.86755" lon="4.7206">
        <ele>195</ele>
        <time>2018-03-16T10:19:43Z</time>
      </trkpt>
      <trkpt lat="45.8675" lon="4.72058">
        <ele>197</ele>
        <time>2018-03-16T10:19:44Z</time>
      </trkpt>
      <trkpt lat="45.86744" lon="4.72055">
        <ele>197</ele>
        <time>2018-03-16T10:19:45Z</time>
      </trkpt>
      <trkpt lat="45.86738" lon="4.72052">
        <ele>197</ele>
        <time>2018-03-16T10:19:46Z</time>
      </trkpt>
      <trkpt lat="45.86734" lon="4.72049">
        <ele>197</ele>
        <time>2018-03-16T10:19:47Z</time>
      </trkpt>
      <trkpt lat="45.86729" lon="4.72046">
        <ele>197</ele>
        <time>2018-03-16T10:19:48Z</time>
      </trkpt>
      <trkpt lat="45.86724" lon="4.72042">
        <ele>197</ele>
        <time>2018-03-16T10:19:49Z</time>
      </trkpt>
      <trkpt lat="45.86719" lon="4.72039">
        <ele>197</ele>
        <time>2018-03-16T10:19:50Z</time>
      </trkpt>
      <trkpt lat="45.86715" lon="4.72038">
        <ele>197</ele>
        <time>2018-03-16T10:19:51Z</time>
      </trkpt>
      <trkpt lat="45.86708" lon="4.72036">
        <ele>197</ele>
        <time>2018-03-16T10:19:52Z</time>
      </trkpt>
      <trkpt lat="45.86703" lon="4.72033">
        <ele>197</ele>
        <time>2018-03-16T10:19:53Z</time>
      </trkpt>
      <trkpt lat="45.86699" lon="4.7203">
        <ele>197</ele>
        <time>2018-03-16T10:19:54Z</time>
      </trkpt>
      <trkpt lat="45.86694" lon="4.72027">
        <ele>197</ele>
        <time>2018-03-16T10:19:55Z</time>
      </trkpt>
      <trkpt lat="45.86689" lon="4.72022">
        <ele>197</ele>
        <time>2018-03-16T10:19:56Z</time>
      </trkpt>
      <trkpt lat="45.86684" lon="4.72019">
        <ele>196</ele>
        <time>2018-03-16T10:19:57Z</time>
      </trkpt>
      <trkpt lat="45.86679" lon="4.72015">
        <ele>196</ele>
        <time>2018-03-16T10:19:58Z</time>
      </trkpt>
      <trkpt lat="45.86674" lon="4.72011">
        <ele>196</ele>
        <time>2018-03-16T10:19:59Z</time>
      </trkpt>
      <trkpt lat="45.8667" lon="4.72007">
        <ele>196</ele>
        <time>2018-03-16T10:20:00Z</time>
      </trkpt>
      <trkpt lat="45.86666" lon="4.72004">
        <ele>196</ele>
        <time>2018-03-16T10:20:01Z</time>
      </trkpt>
      <trkpt lat="45.86662" lon="4.72">
        <ele>195</ele>
        <time>2018-03-16T10:20:02Z</time>
      </trkpt>
      <trkpt lat="45.86658" lon="4.71996">
        <ele>195</ele>
        <time>2018-03-16T10:20:03Z</time>
      </trkpt>
      <trkpt lat="45.86654" lon="4.71992">
        <ele>195</ele>
        <time>2018-03-16T10:20:04Z</time>
      </trkpt>
      <trkpt lat="45.86649" lon="4.71988">
        <ele>195</ele>
        <time>2018-03-16T10:20:05Z</time>
      </trkpt>
      <trkpt lat="45.86645" lon="4.71985">
        <ele>195</ele>
        <time>2018-03-16T10:20:06Z</time>
      </trkpt>
      <trkpt lat="45.8664" lon="4.71981">
        <ele>195</ele>
        <time>2018-03-16T10:20:07Z</time>
      </trkpt>
      <trkpt lat="45.86635" lon="4.71977">
        <ele>195</ele>
        <time>2018-03-16T10:20:08Z</time>
      </trkpt>
      <trkpt lat="45.86631" lon="4.71974">
        <ele>195</ele>
        <time>2018-03-16T10:20:09Z</time>
      </trkpt>
      <trkpt lat="45.86626" lon="4.7197">
        <ele>195</ele>
        <time>2018-03-16T10:20:10Z</time>
      </trkpt>
      <trkpt lat="45.86622" lon="4.71967">
        <ele>195</ele>
        <time>2018-03-16T10:20:11Z</time>
      </trkpt>
      <trkpt lat="45.86617" lon="4.71964">
        <ele>195</ele>
        <time>2018-03-16T10:20:12Z</time>
      </trkpt>
      <trkpt lat="45.86613" lon="4.71959">
        <ele>195</ele>
        <time>2018-03-16T10:20:13Z</time>
      </trkpt>
      <trkpt lat="45.86609" lon="4.71956">
        <ele>194</ele>
        <time>2018-03-16T10:20:14Z</time>
      </trkpt>
      <trkpt lat="45.86604" lon="4.71953">
        <ele>194</ele>
        <time>2018-03-16T10:20:15Z</time>
      </trkpt>
      <trkpt lat="45.86601" lon="4.7195">
        <ele>194</ele>
        <time>2018-03-16T10:20:16Z</time>
      </trkpt>
      <trkpt lat="45.86597" lon="4.71946">
        <ele>194</ele>
        <time>2018-03-16T10:20:17Z</time>
      </trkpt>
      <trkpt lat="45.86592" lon="4.71943">
        <ele>194</ele>
        <time>2018-03-16T10:20:18Z</time>
      </trkpt>
      <trkpt lat="45.86586" lon="4.7194">
        <ele>194</ele>
        <time>2018-03-16T10:20:19Z</time>
      </trkpt>
      <trkpt lat="45.86581" lon="4.71936">
        <ele>195</ele>
        <time>2018-03-16T10:20:20Z</time>
      </trkpt>
      <trkpt lat="45.86577" lon="4.71932">
        <ele>195</ele>
        <time>2018-03-16T10:20:21Z</time>
      </trkpt>
      <trkpt lat="45.86573" lon="4.71928">
        <ele>195</ele>
        <time>2018-03-16T10:20:22Z</time>
      </trkpt>
      <trkpt lat="45.86568" lon="4.71925">
        <ele>195</ele>
        <time>2018-03-16T10:20:23Z</time>
      </trkpt>
      <trkpt lat="45.86564" lon="4.71922">
        <ele>195</ele>
        <time>2018-03-16T10:20:24Z</time>
      </trkpt>
      <trkpt lat="45.8656" lon="4.71918">
        <ele>196</ele>
        <time>2018-03-16T10:20:25Z</time>
      </trkpt>
      <trkpt lat="45.86554" lon="4.71914">
        <ele>195</ele>
        <time>2018-03-16T10:20:26Z</time>
      </trkpt>
      <trkpt lat="45.8655" lon="4.7191">
        <ele>195</ele>
        <time>2018-03-16T10:20:27Z</time>
      </trkpt>
      <trkpt lat="45.86546" lon="4.71905">
        <ele>195</ele>
        <time>2018-03-16T10:20:28Z</time>
      </trkpt>
      <trkpt lat="45.86542" lon="4.71903">
        <ele>195</ele>
        <time>2018-03-16T10:20:29Z</time>
      </trkpt>
      <trkpt lat="45.86537" lon="4.71899">
        <ele>195</ele>
        <time>2018-03-16T10:20:30Z</time>
      </trkpt>
      <trkpt lat="45.86533" lon="4.71896">
        <ele>195</ele>
        <time>2018-03-16T10:20:31Z</time>
      </trkpt>
      <trkpt lat="45.86529" lon="4.71892">
        <ele>195</ele>
        <time>2018-03-16T10:20:32Z</time>
      </trkpt>
      <trkpt lat="45.86525" lon="4.71888">
        <ele>195</ele>
        <time>2018-03-16T10:20:33Z</time>
      </trkpt>
      <trkpt lat="45.86521" lon="4.71885">
        <ele>195</ele>
        <time>2018-03-16T10:20:34Z</time>
      </trkpt>
      <trkpt lat="45.86517" lon="4.71881">
        <ele>195</ele>
        <time>2018-03-16T10:20:35Z</time>
      </trkpt>
      <trkpt lat="45.86512" lon="4.71878">
        <ele>195</ele>
        <time>2018-03-16T10:20:36Z</time>
      </trkpt>
      <trkpt lat="45.86507" lon="4.71874">
        <ele>195</ele>
        <time>2018-03-16T10:20:37Z</time>
      </trkpt>
      <trkpt lat="45.86503" lon="4.71871">
        <ele>195</ele>
        <time>2018-03-16T10:20:38Z</time>
      </trkpt>
      <trkpt lat="45.86499" lon="4.71869">
        <ele>198</ele>
        <time>2018-03-16T10:20:39Z</time>
      </trkpt>
      <trkpt lat="45.86495" lon="4.71866">
        <ele>198</ele>
        <time>2018-03-16T10:20:40Z</time>
      </trkpt>
      <trkpt lat="45.8649" lon="4.71863">
        <ele>198</ele>
        <time>2018-03-16T10:20:41Z</time>
      </trkpt>
      <trkpt lat="45.86486" lon="4.7186">
        <ele>198</ele>
        <time>2018-03-16T10:20:42Z</time>
      </trkpt>
      <trkpt lat="45.86479" lon="4.71853">
        <ele>198</ele>
        <time>2018-03-16T10:20:44Z</time>
      </trkpt>
      <trkpt lat="45.86474" lon="4.7185">
        <ele>199</ele>
        <time>2018-03-16T10:20:45Z</time>
      </trkpt>
      <trkpt lat="45.86467" lon="4.71843">
        <ele>199</ele>
        <time>2018-03-16T10:20:47Z</time>
      </trkpt>
      <trkpt lat="45.86463" lon="4.7184">
        <ele>199</ele>
        <time>2018-03-16T10:20:48Z</time>
      </trkpt>
      <trkpt lat="45.86458" lon="4.71837">
        <ele>200</ele>
        <time>2018-03-16T10:20:49Z</time>
      </trkpt>
      <trkpt lat="45.86454" lon="4.71835">
        <ele>200</ele>
        <time>2018-03-16T10:20:50Z</time>
      </trkpt>
      <trkpt lat="45.86446" lon="4.71829">
        <ele>197</ele>
        <time>2018-03-16T10:20:52Z</time>
      </trkpt>
      <trkpt lat="45.86442" lon="4.71827">
        <ele>198</ele>
        <time>2018-03-16T10:20:53Z</time>
      </trkpt>
      <trkpt lat="45.86436" lon="4.7182">
        <ele>198</ele>
        <time>2018-03-16T10:20:55Z</time>
      </trkpt>
      <trkpt lat="45.86434" lon="4.71816">
        <ele>198</ele>
        <time>2018-03-16T10:20:56Z</time>
      </trkpt>
      <trkpt lat="45.8643" lon="4.71812">
        <ele>198</ele>
        <time>2018-03-16T10:20:57Z</time>
      </trkpt>
      <trkpt lat="45.86426" lon="4.7181">
        <ele>198</ele>
        <time>2018-03-16T10:20:58Z</time>
      </trkpt>
      <trkpt lat="45.86422" lon="4.71806">
        <ele>197</ele>
        <time>2018-03-16T10:20:59Z</time>
      </trkpt>
      <trkpt lat="45.86418" lon="4.71802">
        <ele>197</ele>
        <time>2018-03-16T10:21:00Z</time>
      </trkpt>
      <trkpt lat="45.8641" lon="4.71796">
        <ele>199</ele>
        <time>2018-03-16T10:21:02Z</time>
      </trkpt>
      <trkpt lat="45.86406" lon="4.71793">
        <ele>199</ele>
        <time>2018-03-16T10:21:03Z</time>
      </trkpt>
      <trkpt lat="45.86401" lon="4.7179">
        <ele>198</ele>
        <time>2018-03-16T10:21:04Z</time>
      </trkpt>
      <trkpt lat="45.86396" lon="4.71788">
        <ele>198</ele>
        <time>2018-03-16T10:21:05Z</time>
      </trkpt>
      <trkpt lat="45.8639" lon="4.71785">
        <ele>198</ele>
        <time>2018-03-16T10:21:06Z</time>
      </trkpt>
      <trkpt lat="45.86386" lon="4.71782">
        <ele>198</ele>
        <time>2018-03-16T10:21:07Z</time>
      </trkpt>
      <trkpt lat="45.8638" lon="4.71779">
        <ele>198</ele>
        <time>2018-03-16T10:21:08Z</time>
      </trkpt>
      <trkpt lat="45.86377" lon="4.71775">
        <ele>198</ele>
        <time>2018-03-16T10:21:09Z</time>
      </trkpt>
      <trkpt lat="45.8637" lon="4.7177">
        <ele>198</ele>
        <time>2018-03-16T10:21:11Z</time>
      </trkpt>
      <trkpt lat="45.86366" lon="4.71767">
        <ele>198</ele>
        <time>2018-03-16T10:21:12Z</time>
      </trkpt>
      <trkpt lat="45.86362" lon="4.71763">
        <ele>198</ele>
        <time>2018-03-16T10:21:13Z</time>
      </trkpt>
      <trkpt lat="45.86358" lon="4.71761">
        <ele>198</ele>
        <time>2018-03-16T10:21:14Z</time>
      </trkpt>
      <trkpt lat="45.86351" lon="4.71754">
        <ele>197</ele>
        <time>2018-03-16T10:21:16Z</time>
      </trkpt>
      <trkpt lat="45.86347" lon="4.71751">
        <ele>197</ele>
        <time>2018-03-16T10:21:17Z</time>
      </trkpt>
      <trkpt lat="45.8634" lon="4.71745">
        <ele>195</ele>
        <time>2018-03-16T10:21:19Z</time>
      </trkpt>
      <trkpt lat="45.86336" lon="4.71741">
        <ele>195</ele>
        <time>2018-03-16T10:21:20Z</time>
      </trkpt>
      <trkpt lat="45.86328" lon="4.71735">
        <ele>196</ele>
        <time>2018-03-16T10:21:22Z</time>
      </trkpt>
      <trkpt lat="45.86324" lon="4.71732">
        <ele>196</ele>
        <time>2018-03-16T10:21:23Z</time>
      </trkpt>
      <trkpt lat="45.8632" lon="4.71729">
        <ele>196</ele>
        <time>2018-03-16T10:21:24Z</time>
      </trkpt>
      <trkpt lat="45.86316" lon="4.71726">
        <ele>196</ele>
        <time>2018-03-16T10:21:25Z</time>
      </trkpt>
      <trkpt lat="45.86309" lon="4.71721">
        <ele>196</ele>
        <time>2018-03-16T10:21:27Z</time>
      </trkpt>
      <trkpt lat="45.86304" lon="4.71718">
        <ele>196</ele>
        <time>2018-03-16T10:21:28Z</time>
      </trkpt>
      <trkpt lat="45.86297" lon="4.71712">
        <ele>196</ele>
        <time>2018-03-16T10:21:30Z</time>
      </trkpt>
      <trkpt lat="45.86294" lon="4.71708">
        <ele>195</ele>
        <time>2018-03-16T10:21:31Z</time>
      </trkpt>
      <trkpt lat="45.86286" lon="4.71702">
        <ele>195</ele>
        <time>2018-03-16T10:21:33Z</time>
      </trkpt>
      <trkpt lat="45.86282" lon="4.71699">
        <ele>195</ele>
        <time>2018-03-16T10:21:34Z</time>
      </trkpt>
      <trkpt lat="45.86276" lon="4.71694">
        <ele>195</ele>
        <time>2018-03-16T10:21:35Z</time>
      </trkpt>
      <trkpt lat="45.86272" lon="4.71692">
        <ele>195</ele>
        <time>2018-03-16T10:21:36Z</time>
      </trkpt>
      <trkpt lat="45.86264" lon="4.71686">
        <ele>195</ele>
        <time>2018-03-16T10:21:38Z</time>
      </trkpt>
      <trkpt lat="45.8626" lon="4.71683">
        <ele>195</ele>
        <time>2018-03-16T10:21:39Z</time>
      </trkpt>
      <trkpt lat="45.86256" lon="4.71679">
        <ele>195</ele>
        <time>2018-03-16T10:21:40Z</time>
      </trkpt>
      <trkpt lat="45.86251" lon="4.71677">
        <ele>195</ele>
        <time>2018-03-16T10:21:41Z</time>
      </trkpt>
      <trkpt lat="45.86245" lon="4.71671">
        <ele>195</ele>
        <time>2018-03-16T10:21:43Z</time>
      </trkpt>
      <trkpt lat="45.86241" lon="4.71668">
        <ele>196</ele>
        <time>2018-03-16T10:21:44Z</time>
      </trkpt>
      <trkpt lat="45.86233" lon="4.71661">
        <ele>195</ele>
        <time>2018-03-16T10:21:46Z</time>
      </trkpt>
      <trkpt lat="45.8623" lon="4.71658">
        <ele>195</ele>
        <time>2018-03-16T10:21:47Z</time>
      </trkpt>
      <trkpt lat="45.86222" lon="4.71651">
        <ele>195</ele>
        <time>2018-03-16T10:21:49Z</time>
      </trkpt>
      <trkpt lat="45.86219" lon="4.71648">
        <ele>195</ele>
        <time>2018-03-16T10:21:50Z</time>
      </trkpt>
      <trkpt lat="45.86214" lon="4.71638">
        <ele>195</ele>
        <time>2018-03-16T10:21:52Z</time>
      </trkpt>
      <trkpt lat="45.86213" lon="4.71631">
        <ele>195</ele>
        <time>2018-03-16T10:21:53Z</time>
      </trkpt>
      <trkpt lat="45.86212" lon="4.71625">
        <ele>195</ele>
        <time>2018-03-16T10:21:54Z</time>
      </trkpt>
      <trkpt lat="45.8621" lon="4.71618">
        <ele>195</ele>
        <time>2018-03-16T10:21:55Z</time>
      </trkpt>
      <trkpt lat="45.86208" lon="4.71612">
        <ele>195</ele>
        <time>2018-03-16T10:21:56Z</time>
      </trkpt>
      <trkpt lat="45.86206" lon="4.71606">
        <ele>195</ele>
        <time>2018-03-16T10:21:57Z</time>
      </trkpt>
      <trkpt lat="45.86202" lon="4.71601">
        <ele>195</ele>
        <time>2018-03-16T10:21:58Z</time>
      </trkpt>
      <trkpt lat="45.86199" lon="4.71598">
        <ele>195</ele>
        <time>2018-03-16T10:21:59Z</time>
      </trkpt>
      <trkpt lat="45.86196" lon="4.71594">
        <ele>195</ele>
        <time>2018-03-16T10:22:00Z</time>
      </trkpt>
      <trkpt lat="45.86192" lon="4.71589">
        <ele>195</ele>
        <time>2018-03-16T10:22:01Z</time>
      </trkpt>
      <trkpt lat="45.86189" lon="4.71584">
        <ele>195</ele>
        <time>2018-03-16T10:22:02Z</time>
      </trkpt>
      <trkpt lat="45.86186" lon="4.71579">
        <ele>195</ele>
        <time>2018-03-16T10:22:03Z</time>
      </trkpt>
      <trkpt lat="45.86182" lon="4.71574">
        <ele>195</ele>
        <time>2018-03-16T10:22:04Z</time>
      </trkpt>
      <trkpt lat="45.86179" lon="4.71569">
        <ele>195</ele>
        <time>2018-03-16T10:22:05Z</time>
      </trkpt>
      <trkpt lat="45.86175" lon="4.71564">
        <ele>195</ele>
        <time>2018-03-16T10:22:06Z</time>
      </trkpt>
      <trkpt lat="45.86172" lon="4.7156">
        <ele>195</ele>
        <time>2018-03-16T10:22:07Z</time>
      </trkpt>
      <trkpt lat="45.86169" lon="4.71555">
        <ele>195</ele>
        <time>2018-03-16T10:22:08Z</time>
      </trkpt>
      <trkpt lat="45.86165" lon="4.7155">
        <ele>196</ele>
        <time>2018-03-16T10:22:09Z</time>
      </trkpt>
      <trkpt lat="45.86162" lon="4.71545">
        <ele>196</ele>
        <time>2018-03-16T10:22:10Z</time>
      </trkpt>
      <trkpt lat="45.8616" lon="4.71539">
        <ele>195</ele>
        <time>2018-03-16T10:22:11Z</time>
      </trkpt>
      <trkpt lat="45.86156" lon="4.71534">
        <ele>195</ele>
        <time>2018-03-16T10:22:12Z</time>
      </trkpt>
      <trkpt lat="45.86154" lon="4.71528">
        <ele>195</ele>
        <time>2018-03-16T10:22:13Z</time>
      </trkpt>
      <trkpt lat="45.8615" lon="4.71517">
        <ele>195</ele>
        <time>2018-03-16T10:22:15Z</time>
      </trkpt>
      <trkpt lat="45.86148" lon="4.7151">
        <ele>195</ele>
        <time>2018-03-16T10:22:16Z</time>
      </trkpt>
      <trkpt lat="45.86145" lon="4.71498">
        <ele>195</ele>
        <time>2018-03-16T10:22:19Z</time>
      </trkpt>
      <trkpt lat="45.86139" lon="4.71488">
        <ele>195</ele>
        <time>2018-03-16T10:22:20Z</time>
      </trkpt>
      <trkpt lat="45.86135" lon="4.71477">
        <ele>195</ele>
        <time>2018-03-16T10:22:22Z</time>
      </trkpt>
      <trkpt lat="45.86132" lon="4.71471">
        <ele>195</ele>
        <time>2018-03-16T10:22:23Z</time>
      </trkpt>
      <trkpt lat="45.86129" lon="4.71464">
        <ele>195</ele>
        <time>2018-03-16T10:22:24Z</time>
      </trkpt>
      <trkpt lat="45.86127" lon="4.71457">
        <ele>195</ele>
        <time>2018-03-16T10:22:25Z</time>
      </trkpt>
      <trkpt lat="45.86125" lon="4.7145">
        <ele>195</ele>
        <time>2018-03-16T10:22:26Z</time>
      </trkpt>
      <trkpt lat="45.86123" lon="4.71444">
        <ele>195</ele>
        <time>2018-03-16T10:22:27Z</time>
      </trkpt>
      <trkpt lat="45.86122" lon="4.71437">
        <ele>195</ele>
        <time>2018-03-16T10:22:28Z</time>
      </trkpt>
      <trkpt lat="45.86121" lon="4.71429">
        <ele>195</ele>
        <time>2018-03-16T10:22:29Z</time>
      </trkpt>
      <trkpt lat="45.86121" lon="4.71421">
        <ele>195</ele>
        <time>2018-03-16T10:22:30Z</time>
      </trkpt>
      <trkpt lat="45.8612" lon="4.71414">
        <ele>196</ele>
        <time>2018-03-16T10:22:31Z</time>
      </trkpt>
      <trkpt lat="45.86118" lon="4.71402">
        <ele>196</ele>
        <time>2018-03-16T10:22:33Z</time>
      </trkpt>
      <trkpt lat="45.86117" lon="4.71396">
        <ele>196</ele>
        <time>2018-03-16T10:22:34Z</time>
      </trkpt>
      <trkpt lat="45.86116" lon="4.71389">
        <ele>196</ele>
        <time>2018-03-16T10:22:35Z</time>
      </trkpt>
      <trkpt lat="45.86115" lon="4.71382">
        <ele>196</ele>
        <time>2018-03-16T10:22:36Z</time>
      </trkpt>
      <trkpt lat="45.86115" lon="4.71376">
        <ele>196</ele>
        <time>2018-03-16T10:22:37Z</time>
      </trkpt>
      <trkpt lat="45.86114" lon="4.71369">
        <ele>196</ele>
        <time>2018-03-16T10:22:38Z</time>
      </trkpt>
      <trkpt lat="45.86113" lon="4.71362">
        <ele>196</ele>
        <time>2018-03-16T10:22:39Z</time>
      </trkpt>
      <trkpt lat="45.86112" lon="4.71356">
        <ele>196</ele>
        <time>2018-03-16T10:22:40Z</time>
      </trkpt>
      <trkpt lat="45.86111" lon="4.71349">
        <ele>196</ele>
        <time>2018-03-16T10:22:41Z</time>
      </trkpt>
      <trkpt lat="45.86109" lon="4.71343">
        <ele>196</ele>
        <time>2018-03-16T10:22:42Z</time>
      </trkpt>
      <trkpt lat="45.86107" lon="4.7133">
        <ele>196</ele>
        <time>2018-03-16T10:22:44Z</time>
      </trkpt>
      <trkpt lat="45.86107" lon="4.71323">
        <ele>196</ele>
        <time>2018-03-16T10:22:45Z</time>
      </trkpt>
      <trkpt lat="45.86106" lon="4.71316">
        <ele>196</ele>
        <time>2018-03-16T10:22:46Z</time>
      </trkpt>
      <trkpt lat="45.86105" lon="4.7131">
        <ele>196</ele>
        <time>2018-03-16T10:22:47Z</time>
      </trkpt>
      <trkpt lat="45.86103" lon="4.71303">
        <ele>197</ele>
        <time>2018-03-16T10:22:48Z</time>
      </trkpt>
      <trkpt lat="45.86102" lon="4.71297">
        <ele>197</ele>
        <time>2018-03-16T10:22:49Z</time>
      </trkpt>
      <trkpt lat="45.86099" lon="4.71287">
        <ele>197</ele>
        <time>2018-03-16T10:22:51Z</time>
      </trkpt>
      <trkpt lat="45.86099" lon="4.71281">
        <ele>197</ele>
        <time>2018-03-16T10:22:52Z</time>
      </trkpt>
      <trkpt lat="45.86097" lon="4.71274">
        <ele>197</ele>
        <time>2018-03-16T10:22:54Z</time>
      </trkpt>
      <trkpt lat="45.86093" lon="4.71267">
        <ele>197</ele>
        <time>2018-03-16T10:22:55Z</time>
      </trkpt>
      <trkpt lat="45.8609" lon="4.71261">
        <ele>197</ele>
        <time>2018-03-16T10:22:57Z</time>
      </trkpt>
      <trkpt lat="45.86087" lon="4.71255">
        <ele>198</ele>
        <time>2018-03-16T10:22:58Z</time>
      </trkpt>
      <trkpt lat="45.86085" lon="4.71249">
        <ele>198</ele>
        <time>2018-03-16T10:22:59Z</time>
      </trkpt>
      <trkpt lat="45.86084" lon="4.71242">
        <ele>198</ele>
        <time>2018-03-16T10:23:00Z</time>
      </trkpt>
      <trkpt lat="45.86083" lon="4.71235">
        <ele>198</ele>
        <time>2018-03-16T10:23:01Z</time>
      </trkpt>
      <trkpt lat="45.86084" lon="4.71229">
        <ele>197</ele>
        <time>2018-03-16T10:23:02Z</time>
      </trkpt>
      <trkpt lat="45.86085" lon="4.71216">
        <ele>197</ele>
        <time>2018-03-16T10:23:04Z</time>
      </trkpt>
      <trkpt lat="45.86086" lon="4.71211">
        <ele>197</ele>
        <time>2018-03-16T10:23:05Z</time>
      </trkpt>
      <trkpt lat="45.86089" lon="4.712">
        <ele>197</ele>
        <time>2018-03-16T10:23:07Z</time>
      </trkpt>
      <trkpt lat="45.8609" lon="4.71194">
        <ele>197</ele>
        <time>2018-03-16T10:23:08Z</time>
      </trkpt>
      <trkpt lat="45.8609" lon="4.71188">
        <ele>197</ele>
        <time>2018-03-16T10:23:09Z</time>
      </trkpt>
      <trkpt lat="45.8609" lon="4.71181">
        <ele>197</ele>
        <time>2018-03-16T10:23:10Z</time>
      </trkpt>
      <trkpt lat="45.86091" lon="4.71173">
        <ele>198</ele>
        <time>2018-03-16T10:23:11Z</time>
      </trkpt>
      <trkpt lat="45.86092" lon="4.71166">
        <ele>197</ele>
        <time>2018-03-16T10:23:12Z</time>
      </trkpt>
      <trkpt lat="45.86092" lon="4.71159">
        <ele>197</ele>
        <time>2018-03-16T10:23:13Z</time>
      </trkpt>
      <trkpt lat="45.8609" lon="4.71152">
        <ele>197</ele>
        <time>2018-03-16T10:23:14Z</time>
      </trkpt>
      <trkpt lat="45.86086" lon="4.71142">
        <ele>197</ele>
        <time>2018-03-16T10:23:16Z</time>
      </trkpt>
      <trkpt lat="45.86083" lon="4.71139">
        <ele>197</ele>
        <time>2018-03-16T10:23:17Z</time>
      </trkpt>
      <trkpt lat="45.86082" lon="4.71137">
        <ele>197</ele>
        <time>2018-03-16T10:23:18Z</time>
      </trkpt>
      <trkpt lat="45.86075" lon="4.71132">
        <ele>197</ele>
        <time>2018-03-16T10:23:19Z</time>
      </trkpt>
      <trkpt lat="45.86071" lon="4.71128">
        <ele>197</ele>
        <time>2018-03-16T10:23:20Z</time>
      </trkpt>
      <trkpt lat="45.86067" lon="4.71125">
        <ele>197</ele>
        <time>2018-03-16T10:23:21Z</time>
      </trkpt>
      <trkpt lat="45.86063" lon="4.71121">
        <ele>197</ele>
        <time>2018-03-16T10:23:22Z</time>
      </trkpt>
      <trkpt lat="45.8606" lon="4.71116">
        <ele>197</ele>
        <time>2018-03-16T10:23:23Z</time>
      </trkpt>
      <trkpt lat="45.86056" lon="4.71112">
        <ele>197</ele>
        <time>2018-03-16T10:23:24Z</time>
      </trkpt>
      <trkpt lat="45.86054" lon="4.71106">
        <ele>197</ele>
        <time>2018-03-16T10:23:25Z</time>
      </trkpt>
      <trkpt lat="45.86049" lon="4.71097">
        <ele>197</ele>
        <time>2018-03-16T10:23:27Z</time>
      </trkpt>
      <trkpt lat="45.86045" lon="4.71091">
        <ele>197</ele>
        <time>2018-03-16T10:23:28Z</time>
      </trkpt>
      <trkpt lat="45.86045" lon="4.71085">
        <ele>197</ele>
        <time>2018-03-16T10:23:29Z</time>
      </trkpt>
      <trkpt lat="45.86044" lon="4.71078">
        <ele>196</ele>
        <time>2018-03-16T10:23:30Z</time>
      </trkpt>
      <trkpt lat="45.86041" lon="4.71071">
        <ele>197</ele>
        <time>2018-03-16T10:23:31Z</time>
      </trkpt>
      <trkpt lat="45.8604" lon="4.71064">
        <ele>197</ele>
        <time>2018-03-16T10:23:32Z</time>
      </trkpt>
      <trkpt lat="45.86038" lon="4.71058">
        <ele>197</ele>
        <time>2018-03-16T10:23:33Z</time>
      </trkpt>
      <trkpt lat="45.86037" lon="4.71052">
        <ele>197</ele>
        <time>2018-03-16T10:23:34Z</time>
      </trkpt>
      <trkpt lat="45.86036" lon="4.71044">
        <ele>197</ele>
        <time>2018-03-16T10:23:35Z</time>
      </trkpt>
      <trkpt lat="45.86035" lon="4.71037">
        <ele>197</ele>
        <time>2018-03-16T10:23:36Z</time>
      </trkpt>
      <trkpt lat="45.86033" lon="4.7103">
        <ele>197</ele>
        <time>2018-03-16T10:23:37Z</time>
      </trkpt>
      <trkpt lat="45.86031" lon="4.71024">
        <ele>197</ele>
        <time>2018-03-16T10:23:38Z</time>
      </trkpt>
      <trkpt lat="45.86028" lon="4.71018">
        <ele>197</ele>
        <time>2018-03-16T10:23:39Z</time>
      </trkpt>
      <trkpt lat="45.86025" lon="4.71013">
        <ele>197</ele>
        <time>2018-03-16T10:23:40Z</time>
      </trkpt>
      <trkpt lat="45.86022" lon="4.71008">
        <ele>197</ele>
        <time>2018-03-16T10:23:41Z</time>
      </trkpt>
      <trkpt lat="45.86018" lon="4.71003">
        <ele>197</ele>
        <time>2018-03-16T10:23:42Z</time>
      </trkpt>
      <trkpt lat="45.86015" lon="4.70999">
        <ele>197</ele>
        <time>2018-03-16T10:23:43Z</time>
      </trkpt>
      <trkpt lat="45.8601" lon="4.70995">
        <ele>197</ele>
        <time>2018-03-16T10:23:44Z</time>
      </trkpt>
      <trkpt lat="45.86005" lon="4.70991">
        <ele>197</ele>
        <time>2018-03-16T10:23:45Z</time>
      </trkpt>
      <trkpt lat="45.85998" lon="4.70987">
        <ele>197</ele>
        <time>2018-03-16T10:23:46Z</time>
      </trkpt>
      <trkpt lat="45.85992" lon="4.70984">
        <ele>197</ele>
        <time>2018-03-16T10:23:47Z</time>
      </trkpt>
      <trkpt lat="45.8599" lon="4.7098">
        <ele>197</ele>
        <time>2018-03-16T10:23:48Z</time>
      </trkpt>
      <trkpt lat="45.85982" lon="4.70975">
        <ele>197</ele>
        <time>2018-03-16T10:23:50Z</time>
      </trkpt>
      <trkpt lat="45.85979" lon="4.70973">
        <ele>197</ele>
        <time>2018-03-16T10:23:51Z</time>
      </trkpt>
      <trkpt lat="45.8597" lon="4.7097">
        <ele>197</ele>
        <time>2018-03-16T10:23:53Z</time>
      </trkpt>
      <trkpt lat="45.85965" lon="4.7097">
        <ele>197</ele>
        <time>2018-03-16T10:23:54Z</time>
      </trkpt>
      <trkpt lat="45.85961" lon="4.7097">
        <ele>197</ele>
        <time>2018-03-16T10:23:55Z</time>
      </trkpt>
      <trkpt lat="45.85955" lon="4.70968">
        <ele>197</ele>
        <time>2018-03-16T10:23:56Z</time>
      </trkpt>
      <trkpt lat="45.85947" lon="4.70968">
        <ele>197</ele>
        <time>2018-03-16T10:23:58Z</time>
      </trkpt>
      <trkpt lat="45.85943" lon="4.70968">
        <ele>197</ele>
        <time>2018-03-16T10:23:59Z</time>
      </trkpt>
      <trkpt lat="45.85937" lon="4.70962">
        <ele>197</ele>
        <time>2018-03-16T10:24:01Z</time>
      </trkpt>
      <trkpt lat="45.85935" lon="4.70957">
        <ele>197</ele>
        <time>2018-03-16T10:24:02Z</time>
      </trkpt>
      <trkpt lat="45.85935" lon="4.70946">
        <ele>197</ele>
        <time>2018-03-16T10:24:04Z</time>
      </trkpt>
      <trkpt lat="45.85937" lon="4.7094">
        <ele>197</ele>
        <time>2018-03-16T10:24:05Z</time>
      </trkpt>
      <trkpt lat="45.85938" lon="4.70933">
        <ele>197</ele>
        <time>2018-03-16T10:24:06Z</time>
      </trkpt>
      <trkpt lat="45.8594" lon="4.70927">
        <ele>197</ele>
        <time>2018-03-16T10:24:07Z</time>
      </trkpt>
      <trkpt lat="45.85942" lon="4.70921">
        <ele>197</ele>
        <time>2018-03-16T10:24:08Z</time>
      </trkpt>
      <trkpt lat="45.85944" lon="4.70914">
        <ele>197</ele>
        <time>2018-03-16T10:24:09Z</time>
      </trkpt>
      <trkpt lat="45.85946" lon="4.70907">
        <ele>197</ele>
        <time>2018-03-16T10:24:10Z</time>
      </trkpt>
      <trkpt lat="45.85948" lon="4.709">
        <ele>197</ele>
        <time>2018-03-16T10:24:11Z</time>
      </trkpt>
      <trkpt lat="45.8595" lon="4.70893">
        <ele>197</ele>
        <time>2018-03-16T10:24:12Z</time>
      </trkpt>
      <trkpt lat="45.85952" lon="4.70887">
        <ele>197</ele>
        <time>2018-03-16T10:24:13Z</time>
      </trkpt>
      <trkpt lat="45.85955" lon="4.7088">
        <ele>197</ele>
        <time>2018-03-16T10:24:14Z</time>
      </trkpt>
      <trkpt lat="45.85957" lon="4.70874">
        <ele>196</ele>
        <time>2018-03-16T10:24:15Z</time>
      </trkpt>
      <trkpt lat="45.85958" lon="4.70868">
        <ele>196</ele>
        <time>2018-03-16T10:24:16Z</time>
      </trkpt>
      <trkpt lat="45.8596" lon="4.70859">
        <ele>196</ele>
        <time>2018-03-16T10:24:17Z</time>
      </trkpt>
      <trkpt lat="45.85961" lon="4.70847">
        <ele>196</ele>
        <time>2018-03-16T10:24:19Z</time>
      </trkpt>
      <trkpt lat="45.85961" lon="4.7084">
        <ele>196</ele>
        <time>2018-03-16T10:24:20Z</time>
      </trkpt>
      <trkpt lat="45.8596" lon="4.70834">
        <ele>196</ele>
        <time>2018-03-16T10:24:21Z</time>
      </trkpt>
      <trkpt lat="45.85959" lon="4.70826">
        <ele>196</ele>
        <time>2018-03-16T10:24:22Z</time>
      </trkpt>
      <trkpt lat="45.85959" lon="4.70819">
        <ele>195</ele>
        <time>2018-03-16T10:24:23Z</time>
      </trkpt>
      <trkpt lat="45.85959" lon="4.70813">
        <ele>195</ele>
        <time>2018-03-16T10:24:24Z</time>
      </trkpt>
      <trkpt lat="45.85958" lon="4.70805">
        <ele>195</ele>
        <time>2018-03-16T10:24:25Z</time>
      </trkpt>
      <trkpt lat="45.85957" lon="4.70798">
        <ele>195</ele>
        <time>2018-03-16T10:24:26Z</time>
      </trkpt>
      <trkpt lat="45.85957" lon="4.70791">
        <ele>195</ele>
        <time>2018-03-16T10:24:27Z</time>
      </trkpt>
      <trkpt lat="45.85957" lon="4.70784">
        <ele>195</ele>
        <time>2018-03-16T10:24:28Z</time>
      </trkpt>
      <trkpt lat="45.85958" lon="4.70776">
        <ele>195</ele>
        <time>2018-03-16T10:24:29Z</time>
      </trkpt>
      <trkpt lat="45.85959" lon="4.70768">
        <ele>195</ele>
        <time>2018-03-16T10:24:30Z</time>
      </trkpt>
      <trkpt lat="45.85959" lon="4.7076">
        <ele>195</ele>
        <time>2018-03-16T10:24:31Z</time>
      </trkpt>
      <trkpt lat="45.8596" lon="4.70752">
        <ele>195</ele>
        <time>2018-03-16T10:24:32Z</time>
      </trkpt>
      <trkpt lat="45.8596" lon="4.70745">
        <ele>194</ele>
        <time>2018-03-16T10:24:33Z</time>
      </trkpt>
      <trkpt lat="45.85961" lon="4.70737">
        <ele>194</ele>
        <time>2018-03-16T10:24:34Z</time>
      </trkpt>
      <trkpt lat="45.85962" lon="4.7073">
        <ele>194</ele>
        <time>2018-03-16T10:24:35Z</time>
      </trkpt>
      <trkpt lat="45.85963" lon="4.70723">
        <ele>194</ele>
        <time>2018-03-16T10:24:36Z</time>
      </trkpt>
      <trkpt lat="45.85963" lon="4.70715">
        <ele>194</ele>
        <time>2018-03-16T10:24:37Z</time>
      </trkpt>
      <trkpt lat="45.85964" lon="4.70708">
        <ele>194</ele>
        <time>2018-03-16T10:24:38Z</time>
      </trkpt>
      <trkpt lat="45.85966" lon="4.707">
        <ele>194</ele>
        <time>2018-03-16T10:24:39Z</time>
      </trkpt>
      <trkpt lat="45.85966" lon="4.70693">
        <ele>194</ele>
        <time>2018-03-16T10:24:40Z</time>
      </trkpt>
      <trkpt lat="45.85966" lon="4.70686">
        <ele>194</ele>
        <time>2018-03-16T10:24:41Z</time>
      </trkpt>
      <trkpt lat="45.85965" lon="4.70679">
        <ele>194</ele>
        <time>2018-03-16T10:24:42Z</time>
      </trkpt>
      <trkpt lat="45.85963" lon="4.70673">
        <ele>194</ele>
        <time>2018-03-16T10:24:43Z</time>
      </trkpt>
      <trkpt lat="45.8596" lon="4.70667">
        <ele>194</ele>
        <time>2018-03-16T10:24:44Z</time>
      </trkpt>
      <trkpt lat="45.85957" lon="4.70661">
        <ele>194</ele>
        <time>2018-03-16T10:24:45Z</time>
      </trkpt>
      <trkpt lat="45.85954" lon="4.70657">
        <ele>194</ele>
        <time>2018-03-16T10:24:46Z</time>
      </trkpt>
      <trkpt lat="45.85951" lon="4.70651">
        <ele>194</ele>
        <time>2018-03-16T10:24:47Z</time>
      </trkpt>
      <trkpt lat="45.85948" lon="4.70646">
        <ele>194</ele>
        <time>2018-03-16T10:24:48Z</time>
      </trkpt>
      <trkpt lat="45.85944" lon="4.70641">
        <ele>194</ele>
        <time>2018-03-16T10:24:49Z</time>
      </trkpt>
      <trkpt lat="45.85941" lon="4.70636">
        <ele>194</ele>
        <time>2018-03-16T10:24:50Z</time>
      </trkpt>
      <trkpt lat="45.85935" lon="4.70627">
        <ele>194</ele>
        <time>2018-03-16T10:24:52Z</time>
      </trkpt>
      <trkpt lat="45.85932" lon="4.70622">
        <ele>194</ele>
        <time>2018-03-16T10:24:53Z</time>
      </trkpt>
      <trkpt lat="45.85926" lon="4.70613">
        <ele>194</ele>
        <time>2018-03-16T10:24:55Z</time>
      </trkpt>
      <trkpt lat="45.85922" lon="4.70609">
        <ele>194</ele>
        <time>2018-03-16T10:24:56Z</time>
      </trkpt>
      <trkpt lat="45.85918" lon="4.70604">
        <ele>194</ele>
        <time>2018-03-16T10:24:57Z</time>
      </trkpt>
      <trkpt lat="45.85915" lon="4.70598">
        <ele>195</ele>
        <time>2018-03-16T10:24:58Z</time>
      </trkpt>
      <trkpt lat="45.85911" lon="4.70593">
        <ele>195</ele>
        <time>2018-03-16T10:24:59Z</time>
      </trkpt>
      <trkpt lat="45.85908" lon="4.70588">
        <ele>195</ele>
        <time>2018-03-16T10:25:00Z</time>
      </trkpt>
      <trkpt lat="45.85901" lon="4.70582">
        <ele>195</ele>
        <time>2018-03-16T10:25:02Z</time>
      </trkpt>
      <trkpt lat="45.85896" lon="4.7058">
        <ele>195</ele>
        <time>2018-03-16T10:25:03Z</time>
      </trkpt>
      <trkpt lat="45.85892" lon="4.70579">
        <ele>195</ele>
        <time>2018-03-16T10:25:04Z</time>
      </trkpt>
      <trkpt lat="45.85887" lon="4.70579">
        <ele>195</ele>
        <time>2018-03-16T10:25:05Z</time>
      </trkpt>
      <trkpt lat="45.85882" lon="4.70577">
        <ele>195</ele>
        <time>2018-03-16T10:25:06Z</time>
      </trkpt>
      <trkpt lat="45.85877" lon="4.70576">
        <ele>195</ele>
        <time>2018-03-16T10:25:07Z</time>
      </trkpt>
      <trkpt lat="45.85872" lon="4.70574">
        <ele>195</ele>
        <time>2018-03-16T10:25:08Z</time>
      </trkpt>
      <trkpt lat="45.85867" lon="4.70573">
        <ele>195</ele>
        <time>2018-03-16T10:25:09Z</time>
      </trkpt>
      <trkpt lat="45.85858" lon="4.7057">
        <ele>195</ele>
        <time>2018-03-16T10:25:11Z</time>
      </trkpt>
      <trkpt lat="45.85853" lon="4.70568">
        <ele>195</ele>
        <time>2018-03-16T10:25:12Z</time>
      </trkpt>
      <trkpt lat="45.85849" lon="4.70567">
        <ele>195</ele>
        <time>2018-03-16T10:25:13Z</time>
      </trkpt>
      <trkpt lat="45.85844" lon="4.70565">
        <ele>195</ele>
        <time>2018-03-16T10:25:14Z</time>
      </trkpt>
      <trkpt lat="45.85839" lon="4.70564">
        <ele>195</ele>
        <time>2018-03-16T10:25:15Z</time>
      </trkpt>
      <trkpt lat="45.85835" lon="4.70562">
        <ele>195</ele>
        <time>2018-03-16T10:25:16Z</time>
      </trkpt>
      <trkpt lat="45.85831" lon="4.7056">
        <ele>195</ele>
        <time>2018-03-16T10:25:17Z</time>
      </trkpt>
      <trkpt lat="45.85826" lon="4.70557">
        <ele>195</ele>
        <time>2018-03-16T10:25:18Z</time>
      </trkpt>
      <trkpt lat="45.85821" lon="4.70555">
        <ele>195</ele>
        <time>2018-03-16T10:25:19Z</time>
      </trkpt>
      <trkpt lat="45.85816" lon="4.70553">
        <ele>195</ele>
        <time>2018-03-16T10:25:20Z</time>
      </trkpt>
      <trkpt lat="45.85812" lon="4.7055">
        <ele>195</ele>
        <time>2018-03-16T10:25:21Z</time>
      </trkpt>
      <trkpt lat="45.85807" lon="4.70548">
        <ele>195</ele>
        <time>2018-03-16T10:25:22Z</time>
      </trkpt>
      <trkpt lat="45.85802" lon="4.70548">
        <ele>195</ele>
        <time>2018-03-16T10:25:23Z</time>
      </trkpt>
      <trkpt lat="45.85797" lon="4.70546">
        <ele>195</ele>
        <time>2018-03-16T10:25:24Z</time>
      </trkpt>
      <trkpt lat="45.85793" lon="4.70543">
        <ele>195</ele>
        <time>2018-03-16T10:25:25Z</time>
      </trkpt>
      <trkpt lat="45.85788" lon="4.7054">
        <ele>196</ele>
        <time>2018-03-16T10:25:26Z</time>
      </trkpt>
      <trkpt lat="45.85784" lon="4.70536">
        <ele>196</ele>
        <time>2018-03-16T10:25:27Z</time>
      </trkpt>
      <trkpt lat="45.8578" lon="4.70533">
        <ele>196</ele>
        <time>2018-03-16T10:25:28Z</time>
      </trkpt>
      <trkpt lat="45.85772" lon="4.70527">
        <ele>196</ele>
        <time>2018-03-16T10:25:30Z</time>
      </trkpt>
      <trkpt lat="45.85768" lon="4.70525">
        <ele>196</ele>
        <time>2018-03-16T10:25:31Z</time>
      </trkpt>
      <trkpt lat="45.85763" lon="4.70522">
        <ele>196</ele>
        <time>2018-03-16T10:25:32Z</time>
      </trkpt>
      <trkpt lat="45.8576" lon="4.70518">
        <ele>196</ele>
        <time>2018-03-16T10:25:33Z</time>
      </trkpt>
      <trkpt lat="45.85756" lon="4.70515">
        <ele>196</ele>
        <time>2018-03-16T10:25:34Z</time>
      </trkpt>
      <trkpt lat="45.85751" lon="4.70513">
        <ele>196</ele>
        <time>2018-03-16T10:25:35Z</time>
      </trkpt>
      <trkpt lat="45.85748" lon="4.70511">
        <ele>196</ele>
        <time>2018-03-16T10:25:37Z</time>
      </trkpt>
      <trkpt lat="45.85742" lon="4.70507">
        <ele>196</ele>
        <time>2018-03-16T10:25:38Z</time>
      </trkpt>
      <trkpt lat="45.85739" lon="4.705">
        <ele>196</ele>
        <time>2018-03-16T10:25:39Z</time>
      </trkpt>
      <trkpt lat="45.85736" lon="4.70495">
        <ele>196</ele>
        <time>2018-03-16T10:25:40Z</time>
      </trkpt>
      <trkpt lat="45.85733" lon="4.70489">
        <ele>196</ele>
        <time>2018-03-16T10:25:41Z</time>
      </trkpt>
      <trkpt lat="45.85731" lon="4.70482">
        <ele>196</ele>
        <time>2018-03-16T10:25:42Z</time>
      </trkpt>
      <trkpt lat="45.85726" lon="4.70475">
        <ele>196</ele>
        <time>2018-03-16T10:25:43Z</time>
      </trkpt>
      <trkpt lat="45.85726" lon="4.70469">
        <ele>196</ele>
        <time>2018-03-16T10:25:44Z</time>
      </trkpt>
      <trkpt lat="45.85725" lon="4.70462">
        <ele>196</ele>
        <time>2018-03-16T10:25:45Z</time>
      </trkpt>
      <trkpt lat="45.85723" lon="4.70455">
        <ele>196</ele>
        <time>2018-03-16T10:25:46Z</time>
      </trkpt>
      <trkpt lat="45.85723" lon="4.70447">
        <ele>196</ele>
        <time>2018-03-16T10:25:47Z</time>
      </trkpt>
      <trkpt lat="45.85723" lon="4.70441">
        <ele>196</ele>
        <time>2018-03-16T10:25:48Z</time>
      </trkpt>
      <trkpt lat="45.85721" lon="4.70435">
        <ele>196</ele>
        <time>2018-03-16T10:25:49Z</time>
      </trkpt>
      <trkpt lat="45.85718" lon="4.70429">
        <ele>196</ele>
        <time>2018-03-16T10:25:50Z</time>
      </trkpt>
      <trkpt lat="45.85718" lon="4.70421">
        <ele>196</ele>
        <time>2018-03-16T10:25:51Z</time>
      </trkpt>
      <trkpt lat="45.85717" lon="4.70414">
        <ele>196</ele>
        <time>2018-03-16T10:25:52Z</time>
      </trkpt>
      <trkpt lat="45.85715" lon="4.70407">
        <ele>196</ele>
        <time>2018-03-16T10:25:53Z</time>
      </trkpt>
      <trkpt lat="45.85714" lon="4.70401">
        <ele>196</ele>
        <time>2018-03-16T10:25:54Z</time>
      </trkpt>
      <trkpt lat="45.85713" lon="4.70393">
        <ele>196</ele>
        <time>2018-03-16T10:25:55Z</time>
      </trkpt>
      <trkpt lat="45.85712" lon="4.70387">
        <ele>196</ele>
        <time>2018-03-16T10:25:56Z</time>
      </trkpt>
      <trkpt lat="45.85712" lon="4.7038">
        <ele>196</ele>
        <time>2018-03-16T10:25:57Z</time>
      </trkpt>
      <trkpt lat="45.85711" lon="4.70372">
        <ele>196</ele>
        <time>2018-03-16T10:25:58Z</time>
      </trkpt>
      <trkpt lat="45.85711" lon="4.70365">
        <ele>196</ele>
        <time>2018-03-16T10:25:59Z</time>
      </trkpt>
      <trkpt lat="45.8571" lon="4.70358">
        <ele>196</ele>
        <time>2018-03-16T10:26:00Z</time>
      </trkpt>
      <trkpt lat="45.85709" lon="4.70352">
        <ele>196</ele>
        <time>2018-03-16T10:26:01Z</time>
      </trkpt>
      <trkpt lat="45.85708" lon="4.70344">
        <ele>196</ele>
        <time>2018-03-16T10:26:02Z</time>
      </trkpt>
      <trkpt lat="45.85707" lon="4.70337">
        <ele>196</ele>
        <time>2018-03-16T10:26:03Z</time>
      </trkpt>
      <trkpt lat="45.85707" lon="4.70329">
        <ele>197</ele>
        <time>2018-03-16T10:26:04Z</time>
      </trkpt>
      <trkpt lat="45.85707" lon="4.70322">
        <ele>197</ele>
        <time>2018-03-16T10:26:05Z</time>
      </trkpt>
      <trkpt lat="45.85707" lon="4.70316">
        <ele>197</ele>
        <time>2018-03-16T10:26:06Z</time>
      </trkpt>
      <trkpt lat="45.85706" lon="4.70309">
        <ele>197</ele>
        <time>2018-03-16T10:26:07Z</time>
      </trkpt>
      <trkpt lat="45.85706" lon="4.70302">
        <ele>197</ele>
        <time>2018-03-16T10:26:08Z</time>
      </trkpt>
      <trkpt lat="45.85705" lon="4.70295">
        <ele>197</ele>
        <time>2018-03-16T10:26:09Z</time>
      </trkpt>
      <trkpt lat="45.85704" lon="4.70288">
        <ele>197</ele>
        <time>2018-03-16T10:26:10Z</time>
      </trkpt>
      <trkpt lat="45.85704" lon="4.70281">
        <ele>197</ele>
        <time>2018-03-16T10:26:11Z</time>
      </trkpt>
      <trkpt lat="45.85703" lon="4.70274">
        <ele>197</ele>
        <time>2018-03-16T10:26:12Z</time>
      </trkpt>
      <trkpt lat="45.85702" lon="4.70268">
        <ele>197</ele>
        <time>2018-03-16T10:26:13Z</time>
      </trkpt>
      <trkpt lat="45.85701" lon="4.70261">
        <ele>197</ele>
        <time>2018-03-16T10:26:14Z</time>
      </trkpt>
      <trkpt lat="45.857" lon="4.70255">
        <ele>197</ele>
        <time>2018-03-16T10:26:15Z</time>
      </trkpt>
      <trkpt lat="45.85699" lon="4.70248">
        <ele>197</ele>
        <time>2018-03-16T10:26:16Z</time>
      </trkpt>
      <trkpt lat="45.85698" lon="4.70241">
        <ele>197</ele>
        <time>2018-03-16T10:26:17Z</time>
      </trkpt>
      <trkpt lat="45.85697" lon="4.70234">
        <ele>197</ele>
        <time>2018-03-16T10:26:18Z</time>
      </trkpt>
      <trkpt lat="45.85697" lon="4.70227">
        <ele>197</ele>
        <time>2018-03-16T10:26:19Z</time>
      </trkpt>
      <trkpt lat="45.85697" lon="4.70221">
        <ele>197</ele>
        <time>2018-03-16T10:26:20Z</time>
      </trkpt>
      <trkpt lat="45.85695" lon="4.70208">
        <ele>197</ele>
        <time>2018-03-16T10:26:22Z</time>
      </trkpt>
      <trkpt lat="45.85694" lon="4.70202">
        <ele>197</ele>
        <time>2018-03-16T10:26:23Z</time>
      </trkpt>
      <trkpt lat="45.85694" lon="4.70195">
        <ele>197</ele>
        <time>2018-03-16T10:26:24Z</time>
      </trkpt>
      <trkpt lat="45.85693" lon="4.70189">
        <ele>197</ele>
        <time>2018-03-16T10:26:25Z</time>
      </trkpt>
      <trkpt lat="45.85691" lon="4.70182">
        <ele>197</ele>
        <time>2018-03-16T10:26:26Z</time>
      </trkpt>
      <trkpt lat="45.85689" lon="4.70176">
        <ele>197</ele>
        <time>2018-03-16T10:26:27Z</time>
      </trkpt>
      <trkpt lat="45.85688" lon="4.70169">
        <ele>197</ele>
        <time>2018-03-16T10:26:28Z</time>
      </trkpt>
      <trkpt lat="45.85687" lon="4.70162">
        <ele>197</ele>
        <time>2018-03-16T10:26:29Z</time>
      </trkpt>
      <trkpt lat="45.85685" lon="4.70155">
        <ele>197</ele>
        <time>2018-03-16T10:26:30Z</time>
      </trkpt>
      <trkpt lat="45.85683" lon="4.70148">
        <ele>197</ele>
        <time>2018-03-16T10:26:31Z</time>
      </trkpt>
      <trkpt lat="45.85683" lon="4.70142">
        <ele>197</ele>
        <time>2018-03-16T10:26:32Z</time>
      </trkpt>
      <trkpt lat="45.85682" lon="4.70134">
        <ele>197</ele>
        <time>2018-03-16T10:26:33Z</time>
      </trkpt>
      <trkpt lat="45.85681" lon="4.70127">
        <ele>197</ele>
        <time>2018-03-16T10:26:34Z</time>
      </trkpt>
      <trkpt lat="45.85681" lon="4.70119">
        <ele>197</ele>
        <time>2018-03-16T10:26:35Z</time>
      </trkpt>
      <trkpt lat="45.85681" lon="4.70112">
        <ele>197</ele>
        <time>2018-03-16T10:26:36Z</time>
      </trkpt>
      <trkpt lat="45.8568" lon="4.70105">
        <ele>196</ele>
        <time>2018-03-16T10:26:37Z</time>
      </trkpt>
      <trkpt lat="45.85681" lon="4.70093">
        <ele>196</ele>
        <time>2018-03-16T10:26:39Z</time>
      </trkpt>
      <trkpt lat="45.85681" lon="4.70086">
        <ele>196</ele>
        <time>2018-03-16T10:26:40Z</time>
      </trkpt>
      <trkpt lat="45.85685" lon="4.70075">
        <ele>196</ele>
        <time>2018-03-16T10:26:42Z</time>
      </trkpt>
      <trkpt lat="45.85685" lon="4.7007">
        <ele>196</ele>
        <time>2018-03-16T10:26:43Z</time>
      </trkpt>
      <trkpt lat="45.85687" lon="4.70059">
        <ele>195</ele>
        <time>2018-03-16T10:26:46Z</time>
      </trkpt>
      <trkpt lat="45.85688" lon="4.70055">
        <ele>195</ele>
        <time>2018-03-16T10:26:47Z</time>
      </trkpt>
      <trkpt lat="45.85691" lon="4.70044">
        <ele>195</ele>
        <time>2018-03-16T10:26:48Z</time>
      </trkpt>
      <trkpt lat="45.85692" lon="4.70039">
        <ele>195</ele>
        <time>2018-03-16T10:26:49Z</time>
      </trkpt>
      <trkpt lat="45.85695" lon="4.70028">
        <ele>195</ele>
        <time>2018-03-16T10:26:51Z</time>
      </trkpt>
      <trkpt lat="45.85696" lon="4.70022">
        <ele>195</ele>
        <time>2018-03-16T10:26:52Z</time>
      </trkpt>
      <trkpt lat="45.85697" lon="4.7001">
        <ele>195</ele>
        <time>2018-03-16T10:26:54Z</time>
      </trkpt>
      <trkpt lat="45.85698" lon="4.70003">
        <ele>195</ele>
        <time>2018-03-16T10:26:55Z</time>
      </trkpt>
      <trkpt lat="45.85698" lon="4.69997">
        <ele>195</ele>
        <time>2018-03-16T10:26:56Z</time>
      </trkpt>
      <trkpt lat="45.85697" lon="4.6999">
        <ele>195</ele>
        <time>2018-03-16T10:26:57Z</time>
      </trkpt>
      <trkpt lat="45.85696" lon="4.69982">
        <ele>195</ele>
        <time>2018-03-16T10:26:58Z</time>
      </trkpt>
      <trkpt lat="45.85695" lon="4.69975">
        <ele>195</ele>
        <time>2018-03-16T10:26:59Z</time>
      </trkpt>
      <trkpt lat="45.85693" lon="4.69967">
        <ele>195</ele>
        <time>2018-03-16T10:27:00Z</time>
      </trkpt>
      <trkpt lat="45.85691" lon="4.6996">
        <ele>195</ele>
        <time>2018-03-16T10:27:01Z</time>
      </trkpt>
      <trkpt lat="45.85689" lon="4.69952">
        <ele>195</ele>
        <time>2018-03-16T10:27:02Z</time>
      </trkpt>
      <trkpt lat="45.85686" lon="4.69945">
        <ele>195</ele>
        <time>2018-03-16T10:27:03Z</time>
      </trkpt>
      <trkpt lat="45.85684" lon="4.69937">
        <ele>195</ele>
        <time>2018-03-16T10:27:04Z</time>
      </trkpt>
      <trkpt lat="45.85681" lon="4.6993">
        <ele>195</ele>
        <time>2018-03-16T10:27:05Z</time>
      </trkpt>
      <trkpt lat="45.85677" lon="4.69922">
        <ele>195</ele>
        <time>2018-03-16T10:27:06Z</time>
      </trkpt>
      <trkpt lat="45.85675" lon="4.69916">
        <ele>195</ele>
        <time>2018-03-16T10:27:07Z</time>
      </trkpt>
      <trkpt lat="45.85672" lon="4.69909">
        <ele>195</ele>
        <time>2018-03-16T10:27:08Z</time>
      </trkpt>
      <trkpt lat="45.8567" lon="4.69902">
        <ele>195</ele>
        <time>2018-03-16T10:27:09Z</time>
      </trkpt>
      <trkpt lat="45.85668" lon="4.69896">
        <ele>195</ele>
        <time>2018-03-16T10:27:10Z</time>
      </trkpt>
      <trkpt lat="45.85667" lon="4.69889">
        <ele>195</ele>
        <time>2018-03-16T10:27:11Z</time>
      </trkpt>
      <trkpt lat="45.85667" lon="4.69882">
        <ele>195</ele>
        <time>2018-03-16T10:27:12Z</time>
      </trkpt>
      <trkpt lat="45.85667" lon="4.69874">
        <ele>195</ele>
        <time>2018-03-16T10:27:13Z</time>
      </trkpt>
      <trkpt lat="45.85665" lon="4.69867">
        <ele>195</ele>
        <time>2018-03-16T10:27:14Z</time>
      </trkpt>
      <trkpt lat="45.85665" lon="4.69859">
        <ele>195</ele>
        <time>2018-03-16T10:27:15Z</time>
      </trkpt>
      <trkpt lat="45.85664" lon="4.69851">
        <ele>195</ele>
        <time>2018-03-16T10:27:16Z</time>
      </trkpt>
      <trkpt lat="45.85664" lon="4.69844">
        <ele>195</ele>
        <time>2018-03-16T10:27:17Z</time>
      </trkpt>
      <trkpt lat="45.85662" lon="4.69837">
        <ele>195</ele>
        <time>2018-03-16T10:27:18Z</time>
      </trkpt>
      <trkpt lat="45.85662" lon="4.69829">
        <ele>195</ele>
        <time>2018-03-16T10:27:19Z</time>
      </trkpt>
      <trkpt lat="45.85662" lon="4.6982">
        <ele>195</ele>
        <time>2018-03-16T10:27:20Z</time>
      </trkpt>
      <trkpt lat="45.85661" lon="4.69813">
        <ele>195</ele>
        <time>2018-03-16T10:27:21Z</time>
      </trkpt>
      <trkpt lat="45.8566" lon="4.69806">
        <ele>195</ele>
        <time>2018-03-16T10:27:22Z</time>
      </trkpt>
      <trkpt lat="45.85659" lon="4.69799">
        <ele>195</ele>
        <time>2018-03-16T10:27:23Z</time>
      </trkpt>
      <trkpt lat="45.85658" lon="4.69791">
        <ele>195</ele>
        <time>2018-03-16T10:27:24Z</time>
      </trkpt>
      <trkpt lat="45.85657" lon="4.69785">
        <ele>195</ele>
        <time>2018-03-16T10:27:25Z</time>
      </trkpt>
      <trkpt lat="45.85656" lon="4.69777">
        <ele>195</ele>
        <time>2018-03-16T10:27:26Z</time>
      </trkpt>
      <trkpt lat="45.85656" lon="4.69769">
        <ele>195</ele>
        <time>2018-03-16T10:27:27Z</time>
      </trkpt>
      <trkpt lat="45.85655" lon="4.69763">
        <ele>195</ele>
        <time>2018-03-16T10:27:28Z</time>
      </trkpt>
      <trkpt lat="45.85654" lon="4.69755">
        <ele>195</ele>
        <time>2018-03-16T10:27:29Z</time>
      </trkpt>
      <trkpt lat="45.85653" lon="4.69748">
        <ele>195</ele>
        <time>2018-03-16T10:27:30Z</time>
      </trkpt>
      <trkpt lat="45.85653" lon="4.6974">
        <ele>195</ele>
        <time>2018-03-16T10:27:31Z</time>
      </trkpt>
      <trkpt lat="45.85652" lon="4.69733">
        <ele>195</ele>
        <time>2018-03-16T10:27:32Z</time>
      </trkpt>
      <trkpt lat="45.85651" lon="4.69726">
        <ele>195</ele>
        <time>2018-03-16T10:27:33Z</time>
      </trkpt>
      <trkpt lat="45.85651" lon="4.6972">
        <ele>196</ele>
        <time>2018-03-16T10:27:34Z</time>
      </trkpt>
      <trkpt lat="45.8565" lon="4.69713">
        <ele>196</ele>
        <time>2018-03-16T10:27:35Z</time>
      </trkpt>
      <trkpt lat="45.85649" lon="4.69706">
        <ele>196</ele>
        <time>2018-03-16T10:27:36Z</time>
      </trkpt>
      <trkpt lat="45.85649" lon="4.69699">
        <ele>196</ele>
        <time>2018-03-16T10:27:37Z</time>
      </trkpt>
      <trkpt lat="45.85647" lon="4.69692">
        <ele>196</ele>
        <time>2018-03-16T10:27:38Z</time>
      </trkpt>
      <trkpt lat="45.85647" lon="4.69685">
        <ele>196</ele>
        <time>2018-03-16T10:27:39Z</time>
      </trkpt>
      <trkpt lat="45.85646" lon="4.69678">
        <ele>196</ele>
        <time>2018-03-16T10:27:40Z</time>
      </trkpt>
      <trkpt lat="45.85645" lon="4.69671">
        <ele>196</ele>
        <time>2018-03-16T10:27:41Z</time>
      </trkpt>
      <trkpt lat="45.85644" lon="4.69665">
        <ele>197</ele>
        <time>2018-03-16T10:27:42Z</time>
      </trkpt>
      <trkpt lat="45.85644" lon="4.69658">
        <ele>197</ele>
        <time>2018-03-16T10:27:43Z</time>
      </trkpt>
      <trkpt lat="45.85643" lon="4.69651">
        <ele>197</ele>
        <time>2018-03-16T10:27:44Z</time>
      </trkpt>
      <trkpt lat="45.85642" lon="4.69644">
        <ele>197</ele>
        <time>2018-03-16T10:27:45Z</time>
      </trkpt>
      <trkpt lat="45.85642" lon="4.69637">
        <ele>197</ele>
        <time>2018-03-16T10:27:46Z</time>
      </trkpt>
      <trkpt lat="45.85641" lon="4.69631">
        <ele>197</ele>
        <time>2018-03-16T10:27:47Z</time>
      </trkpt>
      <trkpt lat="45.8564" lon="4.69623">
        <ele>197</ele>
        <time>2018-03-16T10:27:48Z</time>
      </trkpt>
      <trkpt lat="45.8564" lon="4.69617">
        <ele>197</ele>
        <time>2018-03-16T10:27:49Z</time>
      </trkpt>
      <trkpt lat="45.85639" lon="4.6961">
        <ele>197</ele>
        <time>2018-03-16T10:27:50Z</time>
      </trkpt>
      <trkpt lat="45.85639" lon="4.69604">
        <ele>197</ele>
        <time>2018-03-16T10:27:51Z</time>
      </trkpt>
      <trkpt lat="45.85638" lon="4.69597">
        <ele>197</ele>
        <time>2018-03-16T10:27:52Z</time>
      </trkpt>
      <trkpt lat="45.85638" lon="4.69591">
        <ele>197</ele>
        <time>2018-03-16T10:27:53Z</time>
      </trkpt>
      <trkpt lat="45.85637" lon="4.69579">
        <ele>198</ele>
        <time>2018-03-16T10:27:55Z</time>
      </trkpt>
      <trkpt lat="45.85637" lon="4.69572">
        <ele>198</ele>
        <time>2018-03-16T10:27:56Z</time>
      </trkpt>
      <trkpt lat="45.85636" lon="4.69566">
        <ele>198</ele>
        <time>2018-03-16T10:27:57Z</time>
      </trkpt>
      <trkpt lat="45.85636" lon="4.69558">
        <ele>198</ele>
        <time>2018-03-16T10:27:58Z</time>
      </trkpt>
      <trkpt lat="45.85634" lon="4.69546">
        <ele>198</ele>
        <time>2018-03-16T10:28:00Z</time>
      </trkpt>
      <trkpt lat="45.85634" lon="4.69539">
        <ele>198</ele>
        <time>2018-03-16T10:28:01Z</time>
      </trkpt>
      <trkpt lat="45.85633" lon="4.69532">
        <ele>198</ele>
        <time>2018-03-16T10:28:02Z</time>
      </trkpt>
      <trkpt lat="45.85632" lon="4.69524">
        <ele>198</ele>
        <time>2018-03-16T10:28:03Z</time>
      </trkpt>
      <trkpt lat="45.85631" lon="4.69517">
        <ele>198</ele>
        <time>2018-03-16T10:28:04Z</time>
      </trkpt>
      <trkpt lat="45.85631" lon="4.69509">
        <ele>198</ele>
        <time>2018-03-16T10:28:05Z</time>
      </trkpt>
      <trkpt lat="45.8563" lon="4.69502">
        <ele>198</ele>
        <time>2018-03-16T10:28:06Z</time>
      </trkpt>
      <trkpt lat="45.8563" lon="4.69495">
        <ele>198</ele>
        <time>2018-03-16T10:28:07Z</time>
      </trkpt>
      <trkpt lat="45.8563" lon="4.69488">
        <ele>198</ele>
        <time>2018-03-16T10:28:08Z</time>
      </trkpt>
      <trkpt lat="45.85629" lon="4.69481">
        <ele>198</ele>
        <time>2018-03-16T10:28:09Z</time>
      </trkpt>
      <trkpt lat="45.85629" lon="4.69475">
        <ele>198</ele>
        <time>2018-03-16T10:28:10Z</time>
      </trkpt>
      <trkpt lat="45.85629" lon="4.69468">
        <ele>198</ele>
        <time>2018-03-16T10:28:11Z</time>
      </trkpt>
      <trkpt lat="45.85628" lon="4.69462">
        <ele>198</ele>
        <time>2018-03-16T10:28:12Z</time>
      </trkpt>
      <trkpt lat="45.85627" lon="4.69455">
        <ele>198</ele>
        <time>2018-03-16T10:28:13Z</time>
      </trkpt>
      <trkpt lat="45.85626" lon="4.69448">
        <ele>198</ele>
        <time>2018-03-16T10:28:14Z</time>
      </trkpt>
      <trkpt lat="45.85628" lon="4.6944">
        <ele>198</ele>
        <time>2018-03-16T10:28:15Z</time>
      </trkpt>
      <trkpt lat="45.85626" lon="4.69428">
        <ele>198</ele>
        <time>2018-03-16T10:28:17Z</time>
      </trkpt>
      <trkpt lat="45.85625" lon="4.69422">
        <ele>198</ele>
        <time>2018-03-16T10:28:18Z</time>
      </trkpt>
      <trkpt lat="45.85624" lon="4.69411">
        <ele>198</ele>
        <time>2018-03-16T10:28:20Z</time>
      </trkpt>
      <trkpt lat="45.85623" lon="4.69404">
        <ele>198</ele>
        <time>2018-03-16T10:28:21Z</time>
      </trkpt>
      <trkpt lat="45.85621" lon="4.69397">
        <ele>198</ele>
        <time>2018-03-16T10:28:22Z</time>
      </trkpt>
      <trkpt lat="45.8562" lon="4.6939">
        <ele>198</ele>
        <time>2018-03-16T10:28:23Z</time>
      </trkpt>
      <trkpt lat="45.85619" lon="4.69383">
        <ele>198</ele>
        <time>2018-03-16T10:28:24Z</time>
      </trkpt>
      <trkpt lat="45.85619" lon="4.69376">
        <ele>198</ele>
        <time>2018-03-16T10:28:25Z</time>
      </trkpt>
      <trkpt lat="45.85618" lon="4.69369">
        <ele>198</ele>
        <time>2018-03-16T10:28:26Z</time>
      </trkpt>
      <trkpt lat="45.85618" lon="4.69362">
        <ele>198</ele>
        <time>2018-03-16T10:28:27Z</time>
      </trkpt>
      <trkpt lat="45.85617" lon="4.69354">
        <ele>198</ele>
        <time>2018-03-16T10:28:28Z</time>
      </trkpt>
      <trkpt lat="45.85617" lon="4.69348">
        <ele>198</ele>
        <time>2018-03-16T10:28:29Z</time>
      </trkpt>
      <trkpt lat="45.85616" lon="4.6934">
        <ele>198</ele>
        <time>2018-03-16T10:28:30Z</time>
      </trkpt>
      <trkpt lat="45.85617" lon="4.69332">
        <ele>198</ele>
        <time>2018-03-16T10:28:31Z</time>
      </trkpt>
      <trkpt lat="45.85617" lon="4.69325">
        <ele>198</ele>
        <time>2018-03-16T10:28:32Z</time>
      </trkpt>
      <trkpt lat="45.85616" lon="4.69318">
        <ele>198</ele>
        <time>2018-03-16T10:28:33Z</time>
      </trkpt>
      <trkpt lat="45.85615" lon="4.6931">
        <ele>198</ele>
        <time>2018-03-16T10:28:34Z</time>
      </trkpt>
      <trkpt lat="45.85614" lon="4.69303">
        <ele>198</ele>
        <time>2018-03-16T10:28:35Z</time>
      </trkpt>
      <trkpt lat="45.85614" lon="4.69296">
        <ele>198</ele>
        <time>2018-03-16T10:28:36Z</time>
      </trkpt>
      <trkpt lat="45.85615" lon="4.69288">
        <ele>198</ele>
        <time>2018-03-16T10:28:37Z</time>
      </trkpt>
      <trkpt lat="45.85615" lon="4.69281">
        <ele>198</ele>
        <time>2018-03-16T10:28:38Z</time>
      </trkpt>
      <trkpt lat="45.85616" lon="4.69274">
        <ele>198</ele>
        <time>2018-03-16T10:28:39Z</time>
      </trkpt>
      <trkpt lat="45.85617" lon="4.69267">
        <ele>198</ele>
        <time>2018-03-16T10:28:40Z</time>
      </trkpt>
      <trkpt lat="45.85617" lon="4.69261">
        <ele>198</ele>
        <time>2018-03-16T10:28:41Z</time>
      </trkpt>
      <trkpt lat="45.85615" lon="4.69253">
        <ele>198</ele>
        <time>2018-03-16T10:28:42Z</time>
      </trkpt>
      <trkpt lat="45.85613" lon="4.69247">
        <ele>199</ele>
        <time>2018-03-16T10:28:43Z</time>
      </trkpt>
      <trkpt lat="45.85611" lon="4.69241">
        <ele>199</ele>
        <time>2018-03-16T10:28:44Z</time>
      </trkpt>
      <trkpt lat="45.8561" lon="4.69234">
        <ele>199</ele>
        <time>2018-03-16T10:28:45Z</time>
      </trkpt>
      <trkpt lat="45.85608" lon="4.69227">
        <ele>199</ele>
        <time>2018-03-16T10:28:46Z</time>
      </trkpt>
      <trkpt lat="45.85607" lon="4.6922">
        <ele>199</ele>
        <time>2018-03-16T10:28:47Z</time>
      </trkpt>
      <trkpt lat="45.85606" lon="4.69213">
        <ele>199</ele>
        <time>2018-03-16T10:28:48Z</time>
      </trkpt>
      <trkpt lat="45.85605" lon="4.69205">
        <ele>199</ele>
        <time>2018-03-16T10:28:49Z</time>
      </trkpt>
      <trkpt lat="45.85604" lon="4.69198">
        <ele>199</ele>
        <time>2018-03-16T10:28:50Z</time>
      </trkpt>
      <trkpt lat="45.85603" lon="4.69189">
        <ele>199</ele>
        <time>2018-03-16T10:28:51Z</time>
      </trkpt>
      <trkpt lat="45.85602" lon="4.69182">
        <ele>199</ele>
        <time>2018-03-16T10:28:52Z</time>
      </trkpt>
      <trkpt lat="45.85601" lon="4.69175">
        <ele>199</ele>
        <time>2018-03-16T10:28:53Z</time>
      </trkpt>
      <trkpt lat="45.85601" lon="4.69168">
        <ele>199</ele>
        <time>2018-03-16T10:28:54Z</time>
      </trkpt>
      <trkpt lat="45.85599" lon="4.69161">
        <ele>199</ele>
        <time>2018-03-16T10:28:55Z</time>
      </trkpt>
      <trkpt lat="45.85598" lon="4.69154">
        <ele>199</ele>
        <time>2018-03-16T10:28:56Z</time>
      </trkpt>
      <trkpt lat="45.85597" lon="4.69147">
        <ele>199</ele>
        <time>2018-03-16T10:28:57Z</time>
      </trkpt>
      <trkpt lat="45.85597" lon="4.6914">
        <ele>199</ele>
        <time>2018-03-16T10:28:58Z</time>
      </trkpt>
      <trkpt lat="45.85596" lon="4.69133">
        <ele>199</ele>
        <time>2018-03-16T10:28:59Z</time>
      </trkpt>
      <trkpt lat="45.85595" lon="4.69126">
        <ele>198</ele>
        <time>2018-03-16T10:29:00Z</time>
      </trkpt>
      <trkpt lat="45.85595" lon="4.69119">
        <ele>198</ele>
        <time>2018-03-16T10:29:01Z</time>
      </trkpt>
      <trkpt lat="45.85594" lon="4.69111">
        <ele>199</ele>
        <time>2018-03-16T10:29:02Z</time>
      </trkpt>
      <trkpt lat="45.85593" lon="4.69105">
        <ele>199</ele>
        <time>2018-03-16T10:29:03Z</time>
      </trkpt>
      <trkpt lat="45.85593" lon="4.69097">
        <ele>199</ele>
        <time>2018-03-16T10:29:04Z</time>
      </trkpt>
      <trkpt lat="45.85592" lon="4.6909">
        <ele>199</ele>
        <time>2018-03-16T10:29:05Z</time>
      </trkpt>
      <trkpt lat="45.85591" lon="4.69083">
        <ele>199</ele>
        <time>2018-03-16T10:29:06Z</time>
      </trkpt>
      <trkpt lat="45.8559" lon="4.69075">
        <ele>199</ele>
        <time>2018-03-16T10:29:07Z</time>
      </trkpt>
      <trkpt lat="45.85588" lon="4.69062">
        <ele>199</ele>
        <time>2018-03-16T10:29:09Z</time>
      </trkpt>
      <trkpt lat="45.85588" lon="4.69056">
        <ele>199</ele>
        <time>2018-03-16T10:29:10Z</time>
      </trkpt>
      <trkpt lat="45.85588" lon="4.69049">
        <ele>199</ele>
        <time>2018-03-16T10:29:11Z</time>
      </trkpt>
      <trkpt lat="45.85587" lon="4.69042">
        <ele>199</ele>
        <time>2018-03-16T10:29:12Z</time>
      </trkpt>
      <trkpt lat="45.85587" lon="4.69035">
        <ele>199</ele>
        <time>2018-03-16T10:29:13Z</time>
      </trkpt>
      <trkpt lat="45.85586" lon="4.69028">
        <ele>199</ele>
        <time>2018-03-16T10:29:14Z</time>
      </trkpt>
      <trkpt lat="45.85585" lon="4.69021">
        <ele>199</ele>
        <time>2018-03-16T10:29:15Z</time>
      </trkpt>
      <trkpt lat="45.85584" lon="4.69014">
        <ele>199</ele>
        <time>2018-03-16T10:29:16Z</time>
      </trkpt>
      <trkpt lat="45.85583" lon="4.69007">
        <ele>200</ele>
        <time>2018-03-16T10:29:17Z</time>
      </trkpt>
      <trkpt lat="45.85583" lon="4.69001">
        <ele>200</ele>
        <time>2018-03-16T10:29:18Z</time>
      </trkpt>
      <trkpt lat="45.85582" lon="4.68994">
        <ele>200</ele>
        <time>2018-03-16T10:29:19Z</time>
      </trkpt>
      <trkpt lat="45.85581" lon="4.68987">
        <ele>200</ele>
        <time>2018-03-16T10:29:20Z</time>
      </trkpt>
      <trkpt lat="45.8558" lon="4.6898">
        <ele>200</ele>
        <time>2018-03-16T10:29:21Z</time>
      </trkpt>
      <trkpt lat="45.8558" lon="4.68972">
        <ele>200</ele>
        <time>2018-03-16T10:29:22Z</time>
      </trkpt>
      <trkpt lat="45.8558" lon="4.68966">
        <ele>200</ele>
        <time>2018-03-16T10:29:23Z</time>
      </trkpt>
      <trkpt lat="45.8558" lon="4.68958">
        <ele>200</ele>
        <time>2018-03-16T10:29:24Z</time>
      </trkpt>
      <trkpt lat="45.85578" lon="4.68946">
        <ele>200</ele>
        <time>2018-03-16T10:29:26Z</time>
      </trkpt>
      <trkpt lat="45.85578" lon="4.68939">
        <ele>200</ele>
        <time>2018-03-16T10:29:27Z</time>
      </trkpt>
      <trkpt lat="45.85577" lon="4.68931">
        <ele>200</ele>
        <time>2018-03-16T10:29:28Z</time>
      </trkpt>
      <trkpt lat="45.85575" lon="4.68926">
        <ele>200</ele>
        <time>2018-03-16T10:29:29Z</time>
      </trkpt>
      <trkpt lat="45.85575" lon="4.68918">
        <ele>200</ele>
        <time>2018-03-16T10:29:30Z</time>
      </trkpt>
      <trkpt lat="45.85575" lon="4.68911">
        <ele>200</ele>
        <time>2018-03-16T10:29:31Z</time>
      </trkpt>
      <trkpt lat="45.85575" lon="4.68904">
        <ele>200</ele>
        <time>2018-03-16T10:29:32Z</time>
      </trkpt>
      <trkpt lat="45.85575" lon="4.68896">
        <ele>200</ele>
        <time>2018-03-16T10:29:33Z</time>
      </trkpt>
      <trkpt lat="45.85575" lon="4.6889">
        <ele>200</ele>
        <time>2018-03-16T10:29:34Z</time>
      </trkpt>
      <trkpt lat="45.85574" lon="4.68882">
        <ele>200</ele>
        <time>2018-03-16T10:29:35Z</time>
      </trkpt>
      <trkpt lat="45.85573" lon="4.68875">
        <ele>200</ele>
        <time>2018-03-16T10:29:36Z</time>
      </trkpt>
      <trkpt lat="45.85572" lon="4.68869">
        <ele>200</ele>
        <time>2018-03-16T10:29:37Z</time>
      </trkpt>
      <trkpt lat="45.85572" lon="4.68862">
        <ele>200</ele>
        <time>2018-03-16T10:29:38Z</time>
      </trkpt>
      <trkpt lat="45.85571" lon="4.68855">
        <ele>200</ele>
        <time>2018-03-16T10:29:39Z</time>
      </trkpt>
      <trkpt lat="45.8557" lon="4.68849">
        <ele>200</ele>
        <time>2018-03-16T10:29:40Z</time>
      </trkpt>
      <trkpt lat="45.85569" lon="4.68842">
        <ele>200</ele>
        <time>2018-03-16T10:29:41Z</time>
      </trkpt>
      <trkpt lat="45.85568" lon="4.68831">
        <ele>200</ele>
        <time>2018-03-16T10:29:43Z</time>
      </trkpt>
      <trkpt lat="45.85567" lon="4.68825">
        <ele>200</ele>
        <time>2018-03-16T10:29:44Z</time>
      </trkpt>
      <trkpt lat="45.85565" lon="4.68816">
        <ele>200</ele>
        <time>2018-03-16T10:29:47Z</time>
      </trkpt>
      <trkpt lat="45.85565" lon="4.68813">
        <ele>200</ele>
        <time>2018-03-16T10:29:48Z</time>
      </trkpt>
      <trkpt lat="45.85565" lon="4.688">
        <ele>200</ele>
        <time>2018-03-16T10:29:54Z</time>
      </trkpt>
      <trkpt lat="45.85565" lon="4.68799">
        <ele>200</ele>
        <time>2018-03-16T10:29:55Z</time>
      </trkpt>
      <trkpt lat="45.85564" lon="4.68789">
        <ele>200</ele>
        <time>2018-03-16T10:30:02Z</time>
      </trkpt>
      <trkpt lat="45.85564" lon="4.68786">
        <ele>200</ele>
        <time>2018-03-16T10:30:03Z</time>
      </trkpt>
      <trkpt lat="45.85564" lon="4.68776">
        <ele>200</ele>
        <time>2018-03-16T10:30:06Z</time>
      </trkpt>
      <trkpt lat="45.85564" lon="4.68773">
        <ele>200</ele>
        <time>2018-03-16T10:30:07Z</time>
      </trkpt>
      <trkpt lat="45.85564" lon="4.68765">
        <ele>200</ele>
        <time>2018-03-16T10:30:09Z</time>
      </trkpt>
      <trkpt lat="45.85563" lon="4.68751">
        <ele>200</ele>
        <time>2018-03-16T10:30:10Z</time>
      </trkpt>
      <trkpt lat="45.85562" lon="4.6874">
        <ele>200</ele>
        <time>2018-03-16T10:30:12Z</time>
      </trkpt>
      <trkpt lat="45.8556" lon="4.68734">
        <ele>200</ele>
        <time>2018-03-16T10:30:13Z</time>
      </trkpt>
      <trkpt lat="45.85558" lon="4.68722">
        <ele>200</ele>
        <time>2018-03-16T10:30:15Z</time>
      </trkpt>
      <trkpt lat="45.85557" lon="4.68715">
        <ele>200</ele>
        <time>2018-03-16T10:30:16Z</time>
      </trkpt>
      <trkpt lat="45.85557" lon="4.68709">
        <ele>200</ele>
        <time>2018-03-16T10:30:17Z</time>
      </trkpt>
      <trkpt lat="45.85555" lon="4.68702">
        <ele>200</ele>
        <time>2018-03-16T10:30:18Z</time>
      </trkpt>
      <trkpt lat="45.85554" lon="4.68695">
        <ele>200</ele>
        <time>2018-03-16T10:30:19Z</time>
      </trkpt>
      <trkpt lat="45.85553" lon="4.68687">
        <ele>200</ele>
        <time>2018-03-16T10:30:20Z</time>
      </trkpt>
      <trkpt lat="45.85551" lon="4.6868">
        <ele>200</ele>
        <time>2018-03-16T10:30:21Z</time>
      </trkpt>
      <trkpt lat="45.85551" lon="4.68673">
        <ele>200</ele>
        <time>2018-03-16T10:30:22Z</time>
      </trkpt>
      <trkpt lat="45.8555" lon="4.68666">
        <ele>200</ele>
        <time>2018-03-16T10:30:23Z</time>
      </trkpt>
      <trkpt lat="45.8555" lon="4.68659">
        <ele>200</ele>
        <time>2018-03-16T10:30:24Z</time>
      </trkpt>
      <trkpt lat="45.85549" lon="4.68651">
        <ele>201</ele>
        <time>2018-03-16T10:30:25Z</time>
      </trkpt>
      <trkpt lat="45.85549" lon="4.68643">
        <ele>201</ele>
        <time>2018-03-16T10:30:26Z</time>
      </trkpt>
      <trkpt lat="45.85549" lon="4.68635">
        <ele>201</ele>
        <time>2018-03-16T10:30:27Z</time>
      </trkpt>
      <trkpt lat="45.85548" lon="4.68627">
        <ele>201</ele>
        <time>2018-03-16T10:30:28Z</time>
      </trkpt>
      <trkpt lat="45.85548" lon="4.68618">
        <ele>201</ele>
        <time>2018-03-16T10:30:29Z</time>
      </trkpt>
      <trkpt lat="45.85547" lon="4.6861">
        <ele>201</ele>
        <time>2018-03-16T10:30:30Z</time>
      </trkpt>
      <trkpt lat="45.85546" lon="4.68602">
        <ele>201</ele>
        <time>2018-03-16T10:30:31Z</time>
      </trkpt>
      <trkpt lat="45.85545" lon="4.68593">
        <ele>201</ele>
        <time>2018-03-16T10:30:32Z</time>
      </trkpt>
      <trkpt lat="45.85544" lon="4.68584">
        <ele>201</ele>
        <time>2018-03-16T10:30:33Z</time>
      </trkpt>
      <trkpt lat="45.85544" lon="4.68576">
        <ele>201</ele>
        <time>2018-03-16T10:30:34Z</time>
      </trkpt>
      <trkpt lat="45.85543" lon="4.68568">
        <ele>201</ele>
        <time>2018-03-16T10:30:35Z</time>
      </trkpt>
      <trkpt lat="45.85543" lon="4.68559">
        <ele>201</ele>
        <time>2018-03-16T10:30:36Z</time>
      </trkpt>
      <trkpt lat="45.85542" lon="4.68552">
        <ele>201</ele>
        <time>2018-03-16T10:30:37Z</time>
      </trkpt>
      <trkpt lat="45.85541" lon="4.68544">
        <ele>201</ele>
        <time>2018-03-16T10:30:38Z</time>
      </trkpt>
      <trkpt lat="45.85541" lon="4.68536">
        <ele>201</ele>
        <time>2018-03-16T10:30:39Z</time>
      </trkpt>
      <trkpt lat="45.85539" lon="4.68528">
        <ele>201</ele>
        <time>2018-03-16T10:30:40Z</time>
      </trkpt>
      <trkpt lat="45.85539" lon="4.6852">
        <ele>201</ele>
        <time>2018-03-16T10:30:41Z</time>
      </trkpt>
      <trkpt lat="45.85539" lon="4.68512">
        <ele>201</ele>
        <time>2018-03-16T10:30:42Z</time>
      </trkpt>
      <trkpt lat="45.85538" lon="4.68503">
        <ele>201</ele>
        <time>2018-03-16T10:30:43Z</time>
      </trkpt>
      <trkpt lat="45.85537" lon="4.68496">
        <ele>200</ele>
        <time>2018-03-16T10:30:44Z</time>
      </trkpt>
      <trkpt lat="45.85536" lon="4.68488">
        <ele>200</ele>
        <time>2018-03-16T10:30:45Z</time>
      </trkpt>
      <trkpt lat="45.85536" lon="4.6848">
        <ele>200</ele>
        <time>2018-03-16T10:30:46Z</time>
      </trkpt>
      <trkpt lat="45.85535" lon="4.68471">
        <ele>200</ele>
        <time>2018-03-16T10:30:47Z</time>
      </trkpt>
      <trkpt lat="45.85534" lon="4.68463">
        <ele>200</ele>
        <time>2018-03-16T10:30:48Z</time>
      </trkpt>
      <trkpt lat="45.85533" lon="4.68454">
        <ele>200</ele>
        <time>2018-03-16T10:30:49Z</time>
      </trkpt>
      <trkpt lat="45.85532" lon="4.68445">
        <ele>200</ele>
        <time>2018-03-16T10:30:50Z</time>
      </trkpt>
      <trkpt lat="45.85531" lon="4.68437">
        <ele>200</ele>
        <time>2018-03-16T10:30:51Z</time>
      </trkpt>
      <trkpt lat="45.85531" lon="4.68428">
        <ele>200</ele>
        <time>2018-03-16T10:30:52Z</time>
      </trkpt>
      <trkpt lat="45.8553" lon="4.6842">
        <ele>200</ele>
        <time>2018-03-16T10:30:53Z</time>
      </trkpt>
      <trkpt lat="45.85529" lon="4.68412">
        <ele>200</ele>
        <time>2018-03-16T10:30:54Z</time>
      </trkpt>
      <trkpt lat="45.85528" lon="4.684">
        <ele>200</ele>
        <time>2018-03-16T10:30:56Z</time>
      </trkpt>
      <trkpt lat="45.85527" lon="4.68394">
        <ele>200</ele>
        <time>2018-03-16T10:30:57Z</time>
      </trkpt>
      <trkpt lat="45.85527" lon="4.68384">
        <ele>200</ele>
        <time>2018-03-16T10:31:00Z</time>
      </trkpt>
      <trkpt lat="45.85527" lon="4.6838">
        <ele>201</ele>
        <time>2018-03-16T10:31:01Z</time>
      </trkpt>
      <trkpt lat="45.85526" lon="4.68371">
        <ele>201</ele>
        <time>2018-03-16T10:31:03Z</time>
      </trkpt>
      <trkpt lat="45.85526" lon="4.68366">
        <ele>201</ele>
        <time>2018-03-16T10:31:04Z</time>
      </trkpt>
      <trkpt lat="45.85524" lon="4.68353">
        <ele>201</ele>
        <time>2018-03-16T10:31:05Z</time>
      </trkpt>
      <trkpt lat="45.85523" lon="4.68345">
        <ele>201</ele>
        <time>2018-03-16T10:31:07Z</time>
      </trkpt>
      <trkpt lat="45.85522" lon="4.68337">
        <ele>201</ele>
        <time>2018-03-16T10:31:08Z</time>
      </trkpt>
      <trkpt lat="45.8552" lon="4.68326">
        <ele>202</ele>
        <time>2018-03-16T10:31:11Z</time>
      </trkpt>
      <trkpt lat="45.8552" lon="4.68323">
        <ele>202</ele>
        <time>2018-03-16T10:31:12Z</time>
      </trkpt>
      <trkpt lat="45.85519" lon="4.68312">
        <ele>202</ele>
        <time>2018-03-16T10:31:15Z</time>
      </trkpt>
      <trkpt lat="45.85518" lon="4.68308">
        <ele>202</ele>
        <time>2018-03-16T10:31:16Z</time>
      </trkpt>
      <trkpt lat="45.85518" lon="4.68303">
        <ele>202</ele>
        <time>2018-03-16T10:31:17Z</time>
      </trkpt>
      <trkpt lat="45.85517" lon="4.68291">
        <ele>202</ele>
        <time>2018-03-16T10:31:18Z</time>
      </trkpt>
      <trkpt lat="45.85515" lon="4.68279">
        <ele>202</ele>
        <time>2018-03-16T10:31:20Z</time>
      </trkpt>
      <trkpt lat="45.85514" lon="4.68273">
        <ele>202</ele>
        <time>2018-03-16T10:31:21Z</time>
      </trkpt>
      <trkpt lat="45.85512" lon="4.68261">
        <ele>203</ele>
        <time>2018-03-16T10:31:23Z</time>
      </trkpt>
      <trkpt lat="45.85512" lon="4.68256">
        <ele>203</ele>
        <time>2018-03-16T10:31:24Z</time>
      </trkpt>
      <trkpt lat="45.85511" lon="4.68249">
        <ele>203</ele>
        <time>2018-03-16T10:31:25Z</time>
      </trkpt>
      <trkpt lat="45.85511" lon="4.68242">
        <ele>203</ele>
        <time>2018-03-16T10:31:26Z</time>
      </trkpt>
      <trkpt lat="45.85511" lon="4.6823">
        <ele>203</ele>
        <time>2018-03-16T10:31:28Z</time>
      </trkpt>
      <trkpt lat="45.85511" lon="4.68224">
        <ele>203</ele>
        <time>2018-03-16T10:31:29Z</time>
      </trkpt>
      <trkpt lat="45.85511" lon="4.68211">
        <ele>203</ele>
        <time>2018-03-16T10:31:31Z</time>
      </trkpt>
      <trkpt lat="45.85511" lon="4.68205">
        <ele>203</ele>
        <time>2018-03-16T10:31:32Z</time>
      </trkpt>
      <trkpt lat="45.85511" lon="4.68198">
        <ele>203</ele>
        <time>2018-03-16T10:31:33Z</time>
      </trkpt>
      <trkpt lat="45.8551" lon="4.68191">
        <ele>203</ele>
        <time>2018-03-16T10:31:34Z</time>
      </trkpt>
      <trkpt lat="45.85509" lon="4.68178">
        <ele>204</ele>
        <time>2018-03-16T10:31:36Z</time>
      </trkpt>
      <trkpt lat="45.85508" lon="4.68171">
        <ele>204</ele>
        <time>2018-03-16T10:31:37Z</time>
      </trkpt>
      <trkpt lat="45.85506" lon="4.68158">
        <ele>204</ele>
        <time>2018-03-16T10:31:39Z</time>
      </trkpt>
      <trkpt lat="45.85507" lon="4.68152">
        <ele>203</ele>
        <time>2018-03-16T10:31:40Z</time>
      </trkpt>
      <trkpt lat="45.85507" lon="4.6814">
        <ele>203</ele>
        <time>2018-03-16T10:31:42Z</time>
      </trkpt>
      <trkpt lat="45.85508" lon="4.68134">
        <ele>203</ele>
        <time>2018-03-16T10:31:43Z</time>
      </trkpt>
      <trkpt lat="45.85506" lon="4.68122">
        <ele>203</ele>
        <time>2018-03-16T10:31:45Z</time>
      </trkpt>
      <trkpt lat="45.85506" lon="4.68115">
        <ele>203</ele>
        <time>2018-03-16T10:31:46Z</time>
      </trkpt>
      <trkpt lat="45.85505" lon="4.68103">
        <ele>203</ele>
        <time>2018-03-16T10:31:48Z</time>
      </trkpt>
      <trkpt lat="45.85504" lon="4.68097">
        <ele>203</ele>
        <time>2018-03-16T10:31:49Z</time>
      </trkpt>
      <trkpt lat="45.85503" lon="4.68085">
        <ele>204</ele>
        <time>2018-03-16T10:31:51Z</time>
      </trkpt>
      <trkpt lat="45.85502" lon="4.68078">
        <ele>204</ele>
        <time>2018-03-16T10:31:52Z</time>
      </trkpt>
      <trkpt lat="45.85502" lon="4.68065">
        <ele>203</ele>
        <time>2018-03-16T10:31:54Z</time>
      </trkpt>
      <trkpt lat="45.85501" lon="4.68059">
        <ele>203</ele>
        <time>2018-03-16T10:31:55Z</time>
      </trkpt>
      <trkpt lat="45.85499" lon="4.68047">
        <ele>206</ele>
        <time>2018-03-16T10:31:57Z</time>
      </trkpt>
      <trkpt lat="45.85499" lon="4.68041">
        <ele>206</ele>
        <time>2018-03-16T10:31:58Z</time>
      </trkpt>
      <trkpt lat="45.85497" lon="4.68029">
        <ele>207</ele>
        <time>2018-03-16T10:32:00Z</time>
      </trkpt>
      <trkpt lat="45.85497" lon="4.68022">
        <ele>207</ele>
        <time>2018-03-16T10:32:01Z</time>
      </trkpt>
      <trkpt lat="45.85499" lon="4.68016">
        <ele>207</ele>
        <time>2018-03-16T10:32:02Z</time>
      </trkpt>
      <trkpt lat="45.85499" lon="4.68009">
        <ele>206</ele>
        <time>2018-03-16T10:32:03Z</time>
      </trkpt>
      <trkpt lat="45.85502" lon="4.68003">
        <ele>206</ele>
        <time>2018-03-16T10:32:04Z</time>
      </trkpt>
      <trkpt lat="45.85506" lon="4.67997">
        <ele>206</ele>
        <time>2018-03-16T10:32:05Z</time>
      </trkpt>
      <trkpt lat="45.85509" lon="4.67992">
        <ele>206</ele>
        <time>2018-03-16T10:32:06Z</time>
      </trkpt>
      <trkpt lat="45.85513" lon="4.67987">
        <ele>206</ele>
        <time>2018-03-16T10:32:07Z</time>
      </trkpt>
      <trkpt lat="45.85518" lon="4.67984">
        <ele>206</ele>
        <time>2018-03-16T10:32:08Z</time>
      </trkpt>
      <trkpt lat="45.85523" lon="4.67979">
        <ele>205</ele>
        <time>2018-03-16T10:32:09Z</time>
      </trkpt>
      <trkpt lat="45.85527" lon="4.67975">
        <ele>205</ele>
        <time>2018-03-16T10:32:10Z</time>
      </trkpt>
      <trkpt lat="45.85531" lon="4.67971">
        <ele>205</ele>
        <time>2018-03-16T10:32:11Z</time>
      </trkpt>
      <trkpt lat="45.85537" lon="4.67966">
        <ele>205</ele>
        <time>2018-03-16T10:32:12Z</time>
      </trkpt>
      <trkpt lat="45.85541" lon="4.67962">
        <ele>205</ele>
        <time>2018-03-16T10:32:13Z</time>
      </trkpt>
      <trkpt lat="45.85546" lon="4.67957">
        <ele>205</ele>
        <time>2018-03-16T10:32:14Z</time>
      </trkpt>
      <trkpt lat="45.8555" lon="4.67952">
        <ele>205</ele>
        <time>2018-03-16T10:32:15Z</time>
      </trkpt>
      <trkpt lat="45.85557" lon="4.67945">
        <ele>205</ele>
        <time>2018-03-16T10:32:17Z</time>
      </trkpt>
      <trkpt lat="45.85561" lon="4.67941">
        <ele>205</ele>
        <time>2018-03-16T10:32:18Z</time>
      </trkpt>
      <trkpt lat="45.85569" lon="4.67936">
        <ele>205</ele>
        <time>2018-03-16T10:32:20Z</time>
      </trkpt>
      <trkpt lat="45.85573" lon="4.67937">
        <ele>205</ele>
        <time>2018-03-16T10:32:21Z</time>
      </trkpt>
      <trkpt lat="45.8558" lon="4.67946">
        <ele>204</ele>
        <time>2018-03-16T10:32:23Z</time>
      </trkpt>
      <trkpt lat="45.85582" lon="4.67953">
        <ele>204</ele>
        <time>2018-03-16T10:32:24Z</time>
      </trkpt>
      <trkpt lat="45.85585" lon="4.67961">
        <ele>203</ele>
        <time>2018-03-16T10:32:25Z</time>
      </trkpt>
      <trkpt lat="45.85588" lon="4.67968">
        <ele>203</ele>
        <time>2018-03-16T10:32:26Z</time>
      </trkpt>
      <trkpt lat="45.8559" lon="4.67977">
        <ele>203</ele>
        <time>2018-03-16T10:32:27Z</time>
      </trkpt>
      <trkpt lat="45.85594" lon="4.67984">
        <ele>202</ele>
        <time>2018-03-16T10:32:28Z</time>
      </trkpt>
      <trkpt lat="45.85597" lon="4.67992">
        <ele>202</ele>
        <time>2018-03-16T10:32:29Z</time>
      </trkpt>
      <trkpt lat="45.856" lon="4.67999">
        <ele>202</ele>
        <time>2018-03-16T10:32:30Z</time>
      </trkpt>
      <trkpt lat="45.85603" lon="4.68005">
        <ele>201</ele>
        <time>2018-03-16T10:32:31Z</time>
      </trkpt>
      <trkpt lat="45.85605" lon="4.68012">
        <ele>201</ele>
        <time>2018-03-16T10:32:32Z</time>
      </trkpt>
      <trkpt lat="45.85609" lon="4.68021">
        <ele>201</ele>
        <time>2018-03-16T10:32:35Z</time>
      </trkpt>
      <trkpt lat="45.8561" lon="4.68023">
        <ele>201</ele>
        <time>2018-03-16T10:32:36Z</time>
      </trkpt>
      <trkpt lat="45.85614" lon="4.68034">
        <ele>201</ele>
        <time>2018-03-16T10:32:50Z</time>
      </trkpt>
      <trkpt lat="45.85614" lon="4.68034">
        <ele>201</ele>
        <time>2018-03-16T10:32:51Z</time>
      </trkpt>
      <trkpt lat="45.85614" lon="4.68034">
        <ele>201</ele>
        <time>2018-03-16T10:43:40Z</time>
      </trkpt>
      <trkpt lat="45.85614" lon="4.68034">
        <ele>201</ele>
        <time>2018-03-16T10:43:41Z</time>
      </trkpt>
      <trkpt lat="45.85619" lon="4.68037">
        <ele>201</ele>
        <time>2018-03-16T10:46:20Z</time>
      </trkpt>
      <trkpt lat="45.85619" lon="4.68037">
        <ele>201</ele>
        <time>2018-03-16T10:46:21Z</time>
      </trkpt>
      <trkpt lat="45.85611" lon="4.6803">
        <ele>201</ele>
        <time>2018-03-16T10:49:01Z</time>
      </trkpt>
      <trkpt lat="45.85611" lon="4.6803">
        <ele>201</ele>
        <time>2018-03-16T10:49:02Z</time>
      </trkpt>
      <trkpt lat="45.85617" lon="4.68039">
        <ele>200</ele>
        <time>2018-03-16T10:50:06Z</time>
      </trkpt>
      <trkpt lat="45.85618" lon="4.68039">
        <ele>200</ele>
        <time>2018-03-16T10:50:07Z</time>
      </trkpt>
      <trkpt lat="45.85625" lon="4.68041">
        <ele>201</ele>
        <time>2018-03-16T10:51:00Z</time>
      </trkpt>
      <trkpt lat="45.85626" lon="4.68043">
        <ele>200</ele>
        <time>2018-03-16T10:51:01Z</time>
      </trkpt>
      <trkpt lat="45.85631" lon="4.68052">
        <ele>200</ele>
        <time>2018-03-16T10:51:04Z</time>
      </trkpt>
      <trkpt lat="45.85633" lon="4.68055">
        <ele>200</ele>
        <time>2018-03-16T10:51:05Z</time>
      </trkpt>
      <trkpt lat="45.85635" lon="4.68059">
        <ele>200</ele>
        <time>2018-03-16T10:51:06Z</time>
      </trkpt>
      <trkpt lat="45.85642" lon="4.6807">
        <ele>200</ele>
        <time>2018-03-16T10:51:07Z</time>
      </trkpt>
      <trkpt lat="45.85648" lon="4.68079">
        <ele>200</ele>
        <time>2018-03-16T10:51:09Z</time>
      </trkpt>
      <trkpt lat="45.85651" lon="4.68082">
        <ele>200</ele>
        <time>2018-03-16T10:51:10Z</time>
      </trkpt>
      <trkpt lat="45.85657" lon="4.6809">
        <ele>200</ele>
        <time>2018-03-16T10:51:12Z</time>
      </trkpt>
      <trkpt lat="45.8566" lon="4.68094">
        <ele>200</ele>
        <time>2018-03-16T10:51:13Z</time>
      </trkpt>
      <trkpt lat="45.85666" lon="4.68103">
        <ele>200</ele>
        <time>2018-03-16T10:51:15Z</time>
      </trkpt>
      <trkpt lat="45.85669" lon="4.68107">
        <ele>200</ele>
        <time>2018-03-16T10:51:16Z</time>
      </trkpt>
      <trkpt lat="45.85675" lon="4.68116">
        <ele>200</ele>
        <time>2018-03-16T10:51:18Z</time>
      </trkpt>
      <trkpt lat="45.85681" lon="4.68124">
        <ele>200</ele>
        <time>2018-03-16T10:51:19Z</time>
      </trkpt>
      <trkpt lat="45.85685" lon="4.68128">
        <ele>200</ele>
        <time>2018-03-16T10:51:20Z</time>
      </trkpt>
      <trkpt lat="45.85689" lon="4.68133">
        <ele>200</ele>
        <time>2018-03-16T10:51:21Z</time>
      </trkpt>
      <trkpt lat="45.85695" lon="4.68138">
        <ele>200</ele>
        <time>2018-03-16T10:51:22Z</time>
      </trkpt>
      <trkpt lat="45.85698" lon="4.68142">
        <ele>200</ele>
        <time>2018-03-16T10:51:23Z</time>
      </trkpt>
      <trkpt lat="45.85703" lon="4.68147">
        <ele>200</ele>
        <time>2018-03-16T10:51:24Z</time>
      </trkpt>
      <trkpt lat="45.85706" lon="4.68151">
        <ele>200</ele>
        <time>2018-03-16T10:51:25Z</time>
      </trkpt>
      <trkpt lat="45.85709" lon="4.68156">
        <ele>200</ele>
        <time>2018-03-16T10:51:26Z</time>
      </trkpt>
      <trkpt lat="45.85713" lon="4.68161">
        <ele>200</ele>
        <time>2018-03-16T10:51:27Z</time>
      </trkpt>
      <trkpt lat="45.85717" lon="4.68166">
        <ele>200</ele>
        <time>2018-03-16T10:51:28Z</time>
      </trkpt>
      <trkpt lat="45.85721" lon="4.6817">
        <ele>199</ele>
        <time>2018-03-16T10:51:29Z</time>
      </trkpt>
      <trkpt lat="45.85725" lon="4.68175">
        <ele>199</ele>
        <time>2018-03-16T10:51:30Z</time>
      </trkpt>
      <trkpt lat="45.85729" lon="4.6818">
        <ele>199</ele>
        <time>2018-03-16T10:51:31Z</time>
      </trkpt>
      <trkpt lat="45.85732" lon="4.68184">
        <ele>199</ele>
        <time>2018-03-16T10:51:32Z</time>
      </trkpt>
      <trkpt lat="45.85736" lon="4.68189">
        <ele>199</ele>
        <time>2018-03-16T10:51:33Z</time>
      </trkpt>
      <trkpt lat="45.8574" lon="4.68194">
        <ele>199</ele>
        <time>2018-03-16T10:51:34Z</time>
      </trkpt>
      <trkpt lat="45.85744" lon="4.68199">
        <ele>199</ele>
        <time>2018-03-16T10:51:35Z</time>
      </trkpt>
      <trkpt lat="45.85749" lon="4.68204">
        <ele>199</ele>
        <time>2018-03-16T10:51:36Z</time>
      </trkpt>
      <trkpt lat="45.85752" lon="4.68209">
        <ele>202</ele>
        <time>2018-03-16T10:51:37Z</time>
      </trkpt>
      <trkpt lat="45.85757" lon="4.68214">
        <ele>202</ele>
        <time>2018-03-16T10:51:38Z</time>
      </trkpt>
      <trkpt lat="45.85761" lon="4.68219">
        <ele>201</ele>
        <time>2018-03-16T10:51:39Z</time>
      </trkpt>
      <trkpt lat="45.85765" lon="4.68224">
        <ele>201</ele>
        <time>2018-03-16T10:51:40Z</time>
      </trkpt>
      <trkpt lat="45.85769" lon="4.68229">
        <ele>201</ele>
        <time>2018-03-16T10:51:41Z</time>
      </trkpt>
      <trkpt lat="45.85774" lon="4.68234">
        <ele>201</ele>
        <time>2018-03-16T10:51:42Z</time>
      </trkpt>
      <trkpt lat="45.85777" lon="4.68239">
        <ele>201</ele>
        <time>2018-03-16T10:51:43Z</time>
      </trkpt>
      <trkpt lat="45.85781" lon="4.68244">
        <ele>202</ele>
        <time>2018-03-16T10:51:44Z</time>
      </trkpt>
      <trkpt lat="45.85785" lon="4.6825">
        <ele>202</ele>
        <time>2018-03-16T10:51:45Z</time>
      </trkpt>
      <trkpt lat="45.8579" lon="4.68254">
        <ele>200</ele>
        <time>2018-03-16T10:51:46Z</time>
      </trkpt>
      <trkpt lat="45.85793" lon="4.6826">
        <ele>201</ele>
        <time>2018-03-16T10:51:47Z</time>
      </trkpt>
      <trkpt lat="45.85797" lon="4.68266">
        <ele>201</ele>
        <time>2018-03-16T10:51:48Z</time>
      </trkpt>
      <trkpt lat="45.85801" lon="4.68271">
        <ele>201</ele>
        <time>2018-03-16T10:51:49Z</time>
      </trkpt>
      <trkpt lat="45.85806" lon="4.68276">
        <ele>201</ele>
        <time>2018-03-16T10:51:50Z</time>
      </trkpt>
      <trkpt lat="45.85809" lon="4.68281">
        <ele>201</ele>
        <time>2018-03-16T10:51:51Z</time>
      </trkpt>
      <trkpt lat="45.85814" lon="4.68286">
        <ele>201</ele>
        <time>2018-03-16T10:51:52Z</time>
      </trkpt>
      <trkpt lat="45.85817" lon="4.68293">
        <ele>201</ele>
        <time>2018-03-16T10:51:53Z</time>
      </trkpt>
      <trkpt lat="45.85822" lon="4.68297">
        <ele>201</ele>
        <time>2018-03-16T10:51:54Z</time>
      </trkpt>
      <trkpt lat="45.85826" lon="4.68305">
        <ele>201</ele>
        <time>2018-03-16T10:51:55Z</time>
      </trkpt>
      <trkpt lat="45.85829" lon="4.68312">
        <ele>200</ele>
        <time>2018-03-16T10:51:56Z</time>
      </trkpt>
      <trkpt lat="45.85832" lon="4.68319">
        <ele>200</ele>
        <time>2018-03-16T10:51:57Z</time>
      </trkpt>
      <trkpt lat="45.85835" lon="4.68327">
        <ele>201</ele>
        <time>2018-03-16T10:51:58Z</time>
      </trkpt>
      <trkpt lat="45.85839" lon="4.68334">
        <ele>200</ele>
        <time>2018-03-16T10:51:59Z</time>
      </trkpt>
      <trkpt lat="45.85842" lon="4.6834">
        <ele>200</ele>
        <time>2018-03-16T10:52:00Z</time>
      </trkpt>
      <trkpt lat="45.85845" lon="4.68348">
        <ele>201</ele>
        <time>2018-03-16T10:52:01Z</time>
      </trkpt>
      <trkpt lat="45.85848" lon="4.68356">
        <ele>201</ele>
        <time>2018-03-16T10:52:02Z</time>
      </trkpt>
      <trkpt lat="45.8585" lon="4.68362">
        <ele>201</ele>
        <time>2018-03-16T10:52:03Z</time>
      </trkpt>
      <trkpt lat="45.85853" lon="4.6837">
        <ele>201</ele>
        <time>2018-03-16T10:52:04Z</time>
      </trkpt>
      <trkpt lat="45.85855" lon="4.68377">
        <ele>201</ele>
        <time>2018-03-16T10:52:05Z</time>
      </trkpt>
      <trkpt lat="45.85857" lon="4.68384">
        <ele>201</ele>
        <time>2018-03-16T10:52:06Z</time>
      </trkpt>
      <trkpt lat="45.85859" lon="4.68392">
        <ele>201</ele>
        <time>2018-03-16T10:52:07Z</time>
      </trkpt>
      <trkpt lat="45.8586" lon="4.684">
        <ele>201</ele>
        <time>2018-03-16T10:52:08Z</time>
      </trkpt>
      <trkpt lat="45.85862" lon="4.68408">
        <ele>201</ele>
        <time>2018-03-16T10:52:09Z</time>
      </trkpt>
      <trkpt lat="45.85862" lon="4.68416">
        <ele>201</ele>
        <time>2018-03-16T10:52:10Z</time>
      </trkpt>
      <trkpt lat="45.85864" lon="4.68423">
        <ele>200</ele>
        <time>2018-03-16T10:52:11Z</time>
      </trkpt>
      <trkpt lat="45.85866" lon="4.6843">
        <ele>200</ele>
        <time>2018-03-16T10:52:12Z</time>
      </trkpt>
      <trkpt lat="45.85867" lon="4.68436">
        <ele>200</ele>
        <time>2018-03-16T10:52:13Z</time>
      </trkpt>
      <trkpt lat="45.85867" lon="4.68443">
        <ele>200</ele>
        <time>2018-03-16T10:52:14Z</time>
      </trkpt>
      <trkpt lat="45.85869" lon="4.68451">
        <ele>200</ele>
        <time>2018-03-16T10:52:15Z</time>
      </trkpt>
      <trkpt lat="45.8587" lon="4.68457">
        <ele>200</ele>
        <time>2018-03-16T10:52:16Z</time>
      </trkpt>
      <trkpt lat="45.85872" lon="4.68465">
        <ele>200</ele>
        <time>2018-03-16T10:52:17Z</time>
      </trkpt>
      <trkpt lat="45.85873" lon="4.68472">
        <ele>200</ele>
        <time>2018-03-16T10:52:18Z</time>
      </trkpt>
      <trkpt lat="45.85873" lon="4.6848">
        <ele>200</ele>
        <time>2018-03-16T10:52:19Z</time>
      </trkpt>
      <trkpt lat="45.85875" lon="4.68486">
        <ele>200</ele>
        <time>2018-03-16T10:52:20Z</time>
      </trkpt>
      <trkpt lat="45.85876" lon="4.68494">
        <ele>201</ele>
        <time>2018-03-16T10:52:21Z</time>
      </trkpt>
      <trkpt lat="45.85878" lon="4.68501">
        <ele>200</ele>
        <time>2018-03-16T10:52:22Z</time>
      </trkpt>
      <trkpt lat="45.85878" lon="4.68508">
        <ele>200</ele>
        <time>2018-03-16T10:52:23Z</time>
      </trkpt>
      <trkpt lat="45.85879" lon="4.68514">
        <ele>200</ele>
        <time>2018-03-16T10:52:24Z</time>
      </trkpt>
      <trkpt lat="45.8588" lon="4.68522">
        <ele>200</ele>
        <time>2018-03-16T10:52:25Z</time>
      </trkpt>
      <trkpt lat="45.85881" lon="4.68529">
        <ele>200</ele>
        <time>2018-03-16T10:52:26Z</time>
      </trkpt>
      <trkpt lat="45.85882" lon="4.68537">
        <ele>200</ele>
        <time>2018-03-16T10:52:27Z</time>
      </trkpt>
      <trkpt lat="45.85883" lon="4.68543">
        <ele>200</ele>
        <time>2018-03-16T10:52:28Z</time>
      </trkpt>
      <trkpt lat="45.85884" lon="4.68552">
        <ele>200</ele>
        <time>2018-03-16T10:52:29Z</time>
      </trkpt>
      <trkpt lat="45.85885" lon="4.68559">
        <ele>200</ele>
        <time>2018-03-16T10:52:30Z</time>
      </trkpt>
      <trkpt lat="45.85886" lon="4.68568">
        <ele>200</ele>
        <time>2018-03-16T10:52:31Z</time>
      </trkpt>
      <trkpt lat="45.85887" lon="4.68575">
        <ele>199</ele>
        <time>2018-03-16T10:52:32Z</time>
      </trkpt>
      <trkpt lat="45.85888" lon="4.68584">
        <ele>199</ele>
        <time>2018-03-16T10:52:33Z</time>
      </trkpt>
      <trkpt lat="45.85888" lon="4.68592">
        <ele>199</ele>
        <time>2018-03-16T10:52:34Z</time>
      </trkpt>
      <trkpt lat="45.85888" lon="4.686">
        <ele>199</ele>
        <time>2018-03-16T10:52:35Z</time>
      </trkpt>
      <trkpt lat="45.85891" lon="4.68609">
        <ele>199</ele>
        <time>2018-03-16T10:52:36Z</time>
      </trkpt>
      <trkpt lat="45.85893" lon="4.68621">
        <ele>199</ele>
        <time>2018-03-16T10:52:37Z</time>
      </trkpt>
      <trkpt lat="45.85893" lon="4.68629">
        <ele>198</ele>
        <time>2018-03-16T10:52:38Z</time>
      </trkpt>
      <trkpt lat="45.85893" lon="4.68638">
        <ele>198</ele>
        <time>2018-03-16T10:52:39Z</time>
      </trkpt>
      <trkpt lat="45.85893" lon="4.68646">
        <ele>198</ele>
        <time>2018-03-16T10:52:40Z</time>
      </trkpt>
      <trkpt lat="45.85893" lon="4.68652">
        <ele>198</ele>
        <time>2018-03-16T10:52:41Z</time>
      </trkpt>
      <trkpt lat="45.85893" lon="4.6866">
        <ele>198</ele>
        <time>2018-03-16T10:52:42Z</time>
      </trkpt>
      <trkpt lat="45.85893" lon="4.68668">
        <ele>198</ele>
        <time>2018-03-16T10:52:43Z</time>
      </trkpt>
      <trkpt lat="45.85892" lon="4.68676">
        <ele>198</ele>
        <time>2018-03-16T10:52:44Z</time>
      </trkpt>
      <trkpt lat="45.85892" lon="4.68683">
        <ele>198</ele>
        <time>2018-03-16T10:52:45Z</time>
      </trkpt>
      <trkpt lat="45.85891" lon="4.68691">
        <ele>198</ele>
        <time>2018-03-16T10:52:46Z</time>
      </trkpt>
      <trkpt lat="45.8589" lon="4.68698">
        <ele>198</ele>
        <time>2018-03-16T10:52:47Z</time>
      </trkpt>
      <trkpt lat="45.85889" lon="4.68707">
        <ele>198</ele>
        <time>2018-03-16T10:52:48Z</time>
      </trkpt>
      <trkpt lat="45.85889" lon="4.68714">
        <ele>198</ele>
        <time>2018-03-16T10:52:49Z</time>
      </trkpt>
      <trkpt lat="45.85888" lon="4.68723">
        <ele>198</ele>
        <time>2018-03-16T10:52:50Z</time>
      </trkpt>
      <trkpt lat="45.85886" lon="4.6873">
        <ele>198</ele>
        <time>2018-03-16T10:52:51Z</time>
      </trkpt>
      <trkpt lat="45.85884" lon="4.68739">
        <ele>198</ele>
        <time>2018-03-16T10:52:52Z</time>
      </trkpt>
      <trkpt lat="45.85884" lon="4.68748">
        <ele>198</ele>
        <time>2018-03-16T10:52:53Z</time>
      </trkpt>
      <trkpt lat="45.85881" lon="4.68755">
        <ele>198</ele>
        <time>2018-03-16T10:52:54Z</time>
      </trkpt>
      <trkpt lat="45.85881" lon="4.68763">
        <ele>198</ele>
        <time>2018-03-16T10:52:55Z</time>
      </trkpt>
      <trkpt lat="45.8588" lon="4.68771">
        <ele>198</ele>
        <time>2018-03-16T10:52:56Z</time>
      </trkpt>
      <trkpt lat="45.85879" lon="4.68778">
        <ele>198</ele>
        <time>2018-03-16T10:52:57Z</time>
      </trkpt>
      <trkpt lat="45.85877" lon="4.68786">
        <ele>198</ele>
        <time>2018-03-16T10:52:58Z</time>
      </trkpt>
      <trkpt lat="45.85876" lon="4.68794">
        <ele>198</ele>
        <time>2018-03-16T10:52:59Z</time>
      </trkpt>
      <trkpt lat="45.85875" lon="4.68801">
        <ele>198</ele>
        <time>2018-03-16T10:53:00Z</time>
      </trkpt>
      <trkpt lat="45.85873" lon="4.68809">
        <ele>198</ele>
        <time>2018-03-16T10:53:01Z</time>
      </trkpt>
      <trkpt lat="45.85873" lon="4.68818">
        <ele>198</ele>
        <time>2018-03-16T10:53:02Z</time>
      </trkpt>
      <trkpt lat="45.85872" lon="4.68826">
        <ele>198</ele>
        <time>2018-03-16T10:53:03Z</time>
      </trkpt>
      <trkpt lat="45.85871" lon="4.68833">
        <ele>198</ele>
        <time>2018-03-16T10:53:04Z</time>
      </trkpt>
      <trkpt lat="45.85871" lon="4.68841">
        <ele>198</ele>
        <time>2018-03-16T10:53:05Z</time>
      </trkpt>
      <trkpt lat="45.85872" lon="4.6885">
        <ele>198</ele>
        <time>2018-03-16T10:53:06Z</time>
      </trkpt>
      <trkpt lat="45.85871" lon="4.68858">
        <ele>198</ele>
        <time>2018-03-16T10:53:07Z</time>
      </trkpt>
      <trkpt lat="45.8587" lon="4.68867">
        <ele>198</ele>
        <time>2018-03-16T10:53:08Z</time>
      </trkpt>
      <trkpt lat="45.85868" lon="4.68875">
        <ele>197</ele>
        <time>2018-03-16T10:53:09Z</time>
      </trkpt>
      <trkpt lat="45.85867" lon="4.68883">
        <ele>197</ele>
        <time>2018-03-16T10:53:10Z</time>
      </trkpt>
      <trkpt lat="45.85866" lon="4.68891">
        <ele>197</ele>
        <time>2018-03-16T10:53:11Z</time>
      </trkpt>
      <trkpt lat="45.85865" lon="4.68899">
        <ele>197</ele>
        <time>2018-03-16T10:53:12Z</time>
      </trkpt>
      <trkpt lat="45.85865" lon="4.68908">
        <ele>197</ele>
        <time>2018-03-16T10:53:13Z</time>
      </trkpt>
      <trkpt lat="45.85865" lon="4.68916">
        <ele>197</ele>
        <time>2018-03-16T10:53:14Z</time>
      </trkpt>
      <trkpt lat="45.85865" lon="4.68926">
        <ele>197</ele>
        <time>2018-03-16T10:53:15Z</time>
      </trkpt>
      <trkpt lat="45.85865" lon="4.68933">
        <ele>197</ele>
        <time>2018-03-16T10:53:16Z</time>
      </trkpt>
      <trkpt lat="45.85865" lon="4.68942">
        <ele>197</ele>
        <time>2018-03-16T10:53:17Z</time>
      </trkpt>
      <trkpt lat="45.85865" lon="4.68949">
        <ele>197</ele>
        <time>2018-03-16T10:53:18Z</time>
      </trkpt>
      <trkpt lat="45.85865" lon="4.68958">
        <ele>197</ele>
        <time>2018-03-16T10:53:19Z</time>
      </trkpt>
      <trkpt lat="45.85864" lon="4.68963">
        <ele>197</ele>
        <time>2018-03-16T10:53:20Z</time>
      </trkpt>
      <trkpt lat="45.85865" lon="4.68971">
        <ele>197</ele>
        <time>2018-03-16T10:53:21Z</time>
      </trkpt>
      <trkpt lat="45.85866" lon="4.68978">
        <ele>197</ele>
        <time>2018-03-16T10:53:22Z</time>
      </trkpt>
      <trkpt lat="45.85867" lon="4.68986">
        <ele>197</ele>
        <time>2018-03-16T10:53:23Z</time>
      </trkpt>
      <trkpt lat="45.85868" lon="4.68993">
        <ele>197</ele>
        <time>2018-03-16T10:53:24Z</time>
      </trkpt>
      <trkpt lat="45.85869" lon="4.69002">
        <ele>197</ele>
        <time>2018-03-16T10:53:25Z</time>
      </trkpt>
      <trkpt lat="45.8587" lon="4.6901">
        <ele>197</ele>
        <time>2018-03-16T10:53:26Z</time>
      </trkpt>
      <trkpt lat="45.85874" lon="4.69017">
        <ele>197</ele>
        <time>2018-03-16T10:53:27Z</time>
      </trkpt>
      <trkpt lat="45.85876" lon="4.69025">
        <ele>198</ele>
        <time>2018-03-16T10:53:28Z</time>
      </trkpt>
      <trkpt lat="45.85879" lon="4.69034">
        <ele>198</ele>
        <time>2018-03-16T10:53:29Z</time>
      </trkpt>
      <trkpt lat="45.85882" lon="4.6904">
        <ele>198</ele>
        <time>2018-03-16T10:53:30Z</time>
      </trkpt>
      <trkpt lat="45.85885" lon="4.69047">
        <ele>198</ele>
        <time>2018-03-16T10:53:31Z</time>
      </trkpt>
      <trkpt lat="45.85888" lon="4.69053">
        <ele>198</ele>
        <time>2018-03-16T10:53:32Z</time>
      </trkpt>
      <trkpt lat="45.85891" lon="4.69059">
        <ele>198</ele>
        <time>2018-03-16T10:53:33Z</time>
      </trkpt>
      <trkpt lat="45.85895" lon="4.69064">
        <ele>198</ele>
        <time>2018-03-16T10:53:34Z</time>
      </trkpt>
      <trkpt lat="45.85899" lon="4.69068">
        <ele>198</ele>
        <time>2018-03-16T10:53:35Z</time>
      </trkpt>
      <trkpt lat="45.85904" lon="4.69072">
        <ele>198</ele>
        <time>2018-03-16T10:53:36Z</time>
      </trkpt>
      <trkpt lat="45.85909" lon="4.69076">
        <ele>198</ele>
        <time>2018-03-16T10:53:37Z</time>
      </trkpt>
      <trkpt lat="45.85914" lon="4.6908">
        <ele>198</ele>
        <time>2018-03-16T10:53:38Z</time>
      </trkpt>
      <trkpt lat="45.8592" lon="4.69083">
        <ele>198</ele>
        <time>2018-03-16T10:53:39Z</time>
      </trkpt>
      <trkpt lat="45.85926" lon="4.69085">
        <ele>198</ele>
        <time>2018-03-16T10:53:40Z</time>
      </trkpt>
      <trkpt lat="45.85931" lon="4.69088">
        <ele>198</ele>
        <time>2018-03-16T10:53:41Z</time>
      </trkpt>
      <trkpt lat="45.85937" lon="4.69091">
        <ele>197</ele>
        <time>2018-03-16T10:53:42Z</time>
      </trkpt>
      <trkpt lat="45.85943" lon="4.69092">
        <ele>197</ele>
        <time>2018-03-16T10:53:43Z</time>
      </trkpt>
      <trkpt lat="45.85948" lon="4.69094">
        <ele>197</ele>
        <time>2018-03-16T10:53:44Z</time>
      </trkpt>
      <trkpt lat="45.85954" lon="4.69095">
        <ele>197</ele>
        <time>2018-03-16T10:53:45Z</time>
      </trkpt>
      <trkpt lat="45.8596" lon="4.69096">
        <ele>197</ele>
        <time>2018-03-16T10:53:46Z</time>
      </trkpt>
      <trkpt lat="45.85965" lon="4.69096">
        <ele>197</ele>
        <time>2018-03-16T10:53:47Z</time>
      </trkpt>
      <trkpt lat="45.8597" lon="4.69096">
        <ele>197</ele>
        <time>2018-03-16T10:53:48Z</time>
      </trkpt>
      <trkpt lat="45.85976" lon="4.69095">
        <ele>197</ele>
        <time>2018-03-16T10:53:49Z</time>
      </trkpt>
      <trkpt lat="45.85983" lon="4.69095">
        <ele>197</ele>
        <time>2018-03-16T10:53:50Z</time>
      </trkpt>
      <trkpt lat="45.85989" lon="4.69095">
        <ele>196</ele>
        <time>2018-03-16T10:53:51Z</time>
      </trkpt>
      <trkpt lat="45.85994" lon="4.69094">
        <ele>196</ele>
        <time>2018-03-16T10:53:52Z</time>
      </trkpt>
      <trkpt lat="45.86001" lon="4.69093">
        <ele>196</ele>
        <time>2018-03-16T10:53:53Z</time>
      </trkpt>
      <trkpt lat="45.86007" lon="4.69092">
        <ele>196</ele>
        <time>2018-03-16T10:53:54Z</time>
      </trkpt>
      <trkpt lat="45.86013" lon="4.69092">
        <ele>197</ele>
        <time>2018-03-16T10:53:55Z</time>
      </trkpt>
      <trkpt lat="45.86019" lon="4.69092">
        <ele>197</ele>
        <time>2018-03-16T10:53:56Z</time>
      </trkpt>
      <trkpt lat="45.86025" lon="4.69092">
        <ele>197</ele>
        <time>2018-03-16T10:53:57Z</time>
      </trkpt>
      <trkpt lat="45.86032" lon="4.69093">
        <ele>197</ele>
        <time>2018-03-16T10:53:58Z</time>
      </trkpt>
      <trkpt lat="45.86039" lon="4.69093">
        <ele>197</ele>
        <time>2018-03-16T10:53:59Z</time>
      </trkpt>
      <trkpt lat="45.86044" lon="4.69093">
        <ele>197</ele>
        <time>2018-03-16T10:54:00Z</time>
      </trkpt>
      <trkpt lat="45.86049" lon="4.69091">
        <ele>197</ele>
        <time>2018-03-16T10:54:01Z</time>
      </trkpt>
      <trkpt lat="45.86055" lon="4.69091">
        <ele>197</ele>
        <time>2018-03-16T10:54:02Z</time>
      </trkpt>
      <trkpt lat="45.8606" lon="4.6909">
        <ele>197</ele>
        <time>2018-03-16T10:54:03Z</time>
      </trkpt>
      <trkpt lat="45.86065" lon="4.69089">
        <ele>198</ele>
        <time>2018-03-16T10:54:04Z</time>
      </trkpt>
      <trkpt lat="45.86071" lon="4.69087">
        <ele>198</ele>
        <time>2018-03-16T10:54:05Z</time>
      </trkpt>
      <trkpt lat="45.86077" lon="4.69087">
        <ele>198</ele>
        <time>2018-03-16T10:54:06Z</time>
      </trkpt>
      <trkpt lat="45.86083" lon="4.69086">
        <ele>198</ele>
        <time>2018-03-16T10:54:07Z</time>
      </trkpt>
      <trkpt lat="45.8609" lon="4.69085">
        <ele>199</ele>
        <time>2018-03-16T10:54:08Z</time>
      </trkpt>
      <trkpt lat="45.86094" lon="4.69085">
        <ele>199</ele>
        <time>2018-03-16T10:54:09Z</time>
      </trkpt>
      <trkpt lat="45.86099" lon="4.69084">
        <ele>200</ele>
        <time>2018-03-16T10:54:10Z</time>
      </trkpt>
      <trkpt lat="45.86104" lon="4.69084">
        <ele>200</ele>
        <time>2018-03-16T10:54:11Z</time>
      </trkpt>
      <trkpt lat="45.86112" lon="4.69083">
        <ele>202</ele>
        <time>2018-03-16T10:54:13Z</time>
      </trkpt>
      <trkpt lat="45.86117" lon="4.69082">
        <ele>202</ele>
        <time>2018-03-16T10:54:14Z</time>
      </trkpt>
      <trkpt lat="45.86126" lon="4.69083">
        <ele>203</ele>
        <time>2018-03-16T10:54:16Z</time>
      </trkpt>
      <trkpt lat="45.8613" lon="4.69083">
        <ele>203</ele>
        <time>2018-03-16T10:54:17Z</time>
      </trkpt>
      <trkpt lat="45.86134" lon="4.69083">
        <ele>202</ele>
        <time>2018-03-16T10:54:18Z</time>
      </trkpt>
      <trkpt lat="45.86139" lon="4.69083">
        <ele>203</ele>
        <time>2018-03-16T10:54:19Z</time>
      </trkpt>
      <trkpt lat="45.86144" lon="4.69081">
        <ele>204</ele>
        <time>2018-03-16T10:54:21Z</time>
      </trkpt>
      <trkpt lat="45.8615" lon="4.6908">
        <ele>204</ele>
        <time>2018-03-16T10:54:22Z</time>
      </trkpt>
      <trkpt lat="45.86156" lon="4.69079">
        <ele>204</ele>
        <time>2018-03-16T10:54:25Z</time>
      </trkpt>
      <trkpt lat="45.86159" lon="4.69079">
        <ele>204</ele>
        <time>2018-03-16T10:54:26Z</time>
      </trkpt>
      <trkpt lat="45.86167" lon="4.69077">
        <ele>206</ele>
        <time>2018-03-16T10:54:29Z</time>
      </trkpt>
      <trkpt lat="45.8617" lon="4.69076">
        <ele>206</ele>
        <time>2018-03-16T10:54:30Z</time>
      </trkpt>
      <trkpt lat="45.86178" lon="4.69076">
        <ele>207</ele>
        <time>2018-03-16T10:54:33Z</time>
      </trkpt>
      <trkpt lat="45.86187" lon="4.69076">
        <ele>208</ele>
        <time>2018-03-16T10:54:34Z</time>
      </trkpt>
      <trkpt lat="45.86196" lon="4.69077">
        <ele>209</ele>
        <time>2018-03-16T10:54:38Z</time>
      </trkpt>
      <trkpt lat="45.86198" lon="4.69077">
        <ele>209</ele>
        <time>2018-03-16T10:54:39Z</time>
      </trkpt>
      <trkpt lat="45.86205" lon="4.69078">
        <ele>209</ele>
        <time>2018-03-16T10:54:42Z</time>
      </trkpt>
      <trkpt lat="45.86208" lon="4.69079">
        <ele>210</ele>
        <time>2018-03-16T10:54:43Z</time>
      </trkpt>
      <trkpt lat="45.86217" lon="4.69079">
        <ele>210</ele>
        <time>2018-03-16T10:54:46Z</time>
      </trkpt>
      <trkpt lat="45.8622" lon="4.69079">
        <ele>210</ele>
        <time>2018-03-16T10:54:47Z</time>
      </trkpt>
      <trkpt lat="45.86228" lon="4.69079">
        <ele>210</ele>
        <time>2018-03-16T10:54:50Z</time>
      </trkpt>
      <trkpt lat="45.86231" lon="4.69079">
        <ele>211</ele>
        <time>2018-03-16T10:54:51Z</time>
      </trkpt>
      <trkpt lat="45.86239" lon="4.6908">
        <ele>211</ele>
        <time>2018-03-16T10:54:54Z</time>
      </trkpt>
      <trkpt lat="45.86242" lon="4.6908">
        <ele>211</ele>
        <time>2018-03-16T10:54:55Z</time>
      </trkpt>
      <trkpt lat="45.8625" lon="4.69082">
        <ele>211</ele>
        <time>2018-03-16T10:54:58Z</time>
      </trkpt>
      <trkpt lat="45.86253" lon="4.69082">
        <ele>211</ele>
        <time>2018-03-16T10:54:59Z</time>
      </trkpt>
      <trkpt lat="45.8626" lon="4.69085">
        <ele>212</ele>
        <time>2018-03-16T10:55:02Z</time>
      </trkpt>
      <trkpt lat="45.86263" lon="4.69086">
        <ele>212</ele>
        <time>2018-03-16T10:55:03Z</time>
      </trkpt>
      <trkpt lat="45.86271" lon="4.69091">
        <ele>213</ele>
        <time>2018-03-16T10:55:06Z</time>
      </trkpt>
      <trkpt lat="45.86273" lon="4.69092">
        <ele>213</ele>
        <time>2018-03-16T10:55:07Z</time>
      </trkpt>
      <trkpt lat="45.86281" lon="4.69097">
        <ele>213</ele>
        <time>2018-03-16T10:55:10Z</time>
      </trkpt>
      <trkpt lat="45.86283" lon="4.69099">
        <ele>213</ele>
        <time>2018-03-16T10:55:11Z</time>
      </trkpt>
      <trkpt lat="45.86291" lon="4.69103">
        <ele>214</ele>
        <time>2018-03-16T10:55:14Z</time>
      </trkpt>
      <trkpt lat="45.86293" lon="4.69105">
        <ele>214</ele>
        <time>2018-03-16T10:55:15Z</time>
      </trkpt>
      <trkpt lat="45.863" lon="4.6911">
        <ele>214</ele>
        <time>2018-03-16T10:55:18Z</time>
      </trkpt>
      <trkpt lat="45.86302" lon="4.69112">
        <ele>214</ele>
        <time>2018-03-16T10:55:19Z</time>
      </trkpt>
      <trkpt lat="45.86309" lon="4.69118">
        <ele>214</ele>
        <time>2018-03-16T10:55:22Z</time>
      </trkpt>
      <trkpt lat="45.86311" lon="4.6912">
        <ele>214</ele>
        <time>2018-03-16T10:55:23Z</time>
      </trkpt>
      <trkpt lat="45.86317" lon="4.69126">
        <ele>214</ele>
        <time>2018-03-16T10:55:26Z</time>
      </trkpt>
      <trkpt lat="45.86319" lon="4.69128">
        <ele>214</ele>
        <time>2018-03-16T10:55:27Z</time>
      </trkpt>
      <trkpt lat="45.86325" lon="4.69135">
        <ele>215</ele>
        <time>2018-03-16T10:55:30Z</time>
      </trkpt>
      <trkpt lat="45.86326" lon="4.69137">
        <ele>215</ele>
        <time>2018-03-16T10:55:31Z</time>
      </trkpt>
      <trkpt lat="45.86332" lon="4.69144">
        <ele>215</ele>
        <time>2018-03-16T10:55:34Z</time>
      </trkpt>
      <trkpt lat="45.86333" lon="4.69146">
        <ele>217</ele>
        <time>2018-03-16T10:55:35Z</time>
      </trkpt>
      <trkpt lat="45.86338" lon="4.69153">
        <ele>217</ele>
        <time>2018-03-16T10:55:38Z</time>
      </trkpt>
      <trkpt lat="45.8634" lon="4.69156">
        <ele>217</ele>
        <time>2018-03-16T10:55:39Z</time>
      </trkpt>
      <trkpt lat="45.86345" lon="4.69166">
        <ele>217</ele>
        <time>2018-03-16T10:55:43Z</time>
      </trkpt>
      <trkpt lat="45.86347" lon="4.69168">
        <ele>218</ele>
        <time>2018-03-16T10:55:44Z</time>
      </trkpt>
      <trkpt lat="45.86351" lon="4.69177">
        <ele>218</ele>
        <time>2018-03-16T10:55:47Z</time>
      </trkpt>
      <trkpt lat="45.86353" lon="4.6918">
        <ele>218</ele>
        <time>2018-03-16T10:55:48Z</time>
      </trkpt>
      <trkpt lat="45.86357" lon="4.69189">
        <ele>218</ele>
        <time>2018-03-16T10:55:51Z</time>
      </trkpt>
      <trkpt lat="45.86359" lon="4.69192">
        <ele>218</ele>
        <time>2018-03-16T10:55:52Z</time>
      </trkpt>
      <trkpt lat="45.86363" lon="4.69202">
        <ele>219</ele>
        <time>2018-03-16T10:55:55Z</time>
      </trkpt>
      <trkpt lat="45.86365" lon="4.69205">
        <ele>219</ele>
        <time>2018-03-16T10:55:56Z</time>
      </trkpt>
      <trkpt lat="45.86369" lon="4.69215">
        <ele>219</ele>
        <time>2018-03-16T10:55:59Z</time>
      </trkpt>
      <trkpt lat="45.8637" lon="4.69219">
        <ele>219</ele>
        <time>2018-03-16T10:56:00Z</time>
      </trkpt>
      <trkpt lat="45.86374" lon="4.69229">
        <ele>219</ele>
        <time>2018-03-16T10:56:03Z</time>
      </trkpt>
      <trkpt lat="45.86376" lon="4.69233">
        <ele>219</ele>
        <time>2018-03-16T10:56:04Z</time>
      </trkpt>
      <trkpt lat="45.8638" lon="4.6924">
        <ele>219</ele>
        <time>2018-03-16T10:56:06Z</time>
      </trkpt>
      <trkpt lat="45.86381" lon="4.69244">
        <ele>219</ele>
        <time>2018-03-16T10:56:07Z</time>
      </trkpt>
      <trkpt lat="45.86385" lon="4.69252">
        <ele>219</ele>
        <time>2018-03-16T10:56:09Z</time>
      </trkpt>
      <trkpt lat="45.86387" lon="4.69256">
        <ele>219</ele>
        <time>2018-03-16T10:56:10Z</time>
      </trkpt>
      <trkpt lat="45.86389" lon="4.69259">
        <ele>219</ele>
        <time>2018-03-16T10:56:11Z</time>
      </trkpt>
      <trkpt lat="45.86395" lon="4.69271">
        <ele>219</ele>
        <time>2018-03-16T10:56:12Z</time>
      </trkpt>
      <trkpt lat="45.864" lon="4.69281">
        <ele>219</ele>
        <time>2018-03-16T10:56:14Z</time>
      </trkpt>
      <trkpt lat="45.86402" lon="4.69286">
        <ele>219</ele>
        <time>2018-03-16T10:56:15Z</time>
      </trkpt>
      <trkpt lat="45.86405" lon="4.69292">
        <ele>219</ele>
        <time>2018-03-16T10:56:16Z</time>
      </trkpt>
      <trkpt lat="45.86407" lon="4.69298">
        <ele>219</ele>
        <time>2018-03-16T10:56:17Z</time>
      </trkpt>
      <trkpt lat="45.86409" lon="4.69303">
        <ele>219</ele>
        <time>2018-03-16T10:56:18Z</time>
      </trkpt>
      <trkpt lat="45.86411" lon="4.69309">
        <ele>219</ele>
        <time>2018-03-16T10:56:19Z</time>
      </trkpt>
      <trkpt lat="45.86413" lon="4.69314">
        <ele>219</ele>
        <time>2018-03-16T10:56:20Z</time>
      </trkpt>
      <trkpt lat="45.86416" lon="4.6932">
        <ele>219</ele>
        <time>2018-03-16T10:56:21Z</time>
      </trkpt>
      <trkpt lat="45.86418" lon="4.69326">
        <ele>219</ele>
        <time>2018-03-16T10:56:22Z</time>
      </trkpt>
      <trkpt lat="45.86425" lon="4.69334">
        <ele>219</ele>
        <time>2018-03-16T10:56:23Z</time>
      </trkpt>
      <trkpt lat="45.86427" lon="4.6934">
        <ele>219</ele>
        <time>2018-03-16T10:56:24Z</time>
      </trkpt>
      <trkpt lat="45.86432" lon="4.69348">
        <ele>219</ele>
        <time>2018-03-16T10:56:25Z</time>
      </trkpt>
      <trkpt lat="45.86435" lon="4.69354">
        <ele>219</ele>
        <time>2018-03-16T10:56:26Z</time>
      </trkpt>
      <trkpt lat="45.86437" lon="4.6936">
        <ele>219</ele>
        <time>2018-03-16T10:56:27Z</time>
      </trkpt>
      <trkpt lat="45.86439" lon="4.69365">
        <ele>219</ele>
        <time>2018-03-16T10:56:28Z</time>
      </trkpt>
      <trkpt lat="45.86442" lon="4.69372">
        <ele>219</ele>
        <time>2018-03-16T10:56:29Z</time>
      </trkpt>
      <trkpt lat="45.86445" lon="4.69378">
        <ele>219</ele>
        <time>2018-03-16T10:56:30Z</time>
      </trkpt>
      <trkpt lat="45.86448" lon="4.69385">
        <ele>219</ele>
        <time>2018-03-16T10:56:31Z</time>
      </trkpt>
      <trkpt lat="45.86451" lon="4.69392">
        <ele>219</ele>
        <time>2018-03-16T10:56:32Z</time>
      </trkpt>
      <trkpt lat="45.86455" lon="4.69398">
        <ele>219</ele>
        <time>2018-03-16T10:56:33Z</time>
      </trkpt>
      <trkpt lat="45.86459" lon="4.69404">
        <ele>219</ele>
        <time>2018-03-16T10:56:34Z</time>
      </trkpt>
      <trkpt lat="45.86462" lon="4.6941">
        <ele>219</ele>
        <time>2018-03-16T10:56:35Z</time>
      </trkpt>
      <trkpt lat="45.86468" lon="4.69415">
        <ele>219</ele>
        <time>2018-03-16T10:56:36Z</time>
      </trkpt>
      <trkpt lat="45.86472" lon="4.69421">
        <ele>218</ele>
        <time>2018-03-16T10:56:37Z</time>
      </trkpt>
      <trkpt lat="45.86476" lon="4.69427">
        <ele>218</ele>
        <time>2018-03-16T10:56:38Z</time>
      </trkpt>
      <trkpt lat="45.86479" lon="4.69434">
        <ele>218</ele>
        <time>2018-03-16T10:56:39Z</time>
      </trkpt>
      <trkpt lat="45.86483" lon="4.69439">
        <ele>218</ele>
        <time>2018-03-16T10:56:40Z</time>
      </trkpt>
      <trkpt lat="45.86486" lon="4.69445">
        <ele>218</ele>
        <time>2018-03-16T10:56:41Z</time>
      </trkpt>
      <trkpt lat="45.86489" lon="4.69451">
        <ele>218</ele>
        <time>2018-03-16T10:56:42Z</time>
      </trkpt>
      <trkpt lat="45.86493" lon="4.69456">
        <ele>218</ele>
        <time>2018-03-16T10:56:43Z</time>
      </trkpt>
      <trkpt lat="45.86496" lon="4.69461">
        <ele>218</ele>
        <time>2018-03-16T10:56:44Z</time>
      </trkpt>
      <trkpt lat="45.86499" lon="4.69467">
        <ele>218</ele>
        <time>2018-03-16T10:56:45Z</time>
      </trkpt>
      <trkpt lat="45.86503" lon="4.69472">
        <ele>219</ele>
        <time>2018-03-16T10:56:46Z</time>
      </trkpt>
      <trkpt lat="45.86507" lon="4.69477">
        <ele>219</ele>
        <time>2018-03-16T10:56:47Z</time>
      </trkpt>
      <trkpt lat="45.8651" lon="4.69483">
        <ele>219</ele>
        <time>2018-03-16T10:56:48Z</time>
      </trkpt>
      <trkpt lat="45.86514" lon="4.69487">
        <ele>219</ele>
        <time>2018-03-16T10:56:49Z</time>
      </trkpt>
      <trkpt lat="45.8652" lon="4.69497">
        <ele>219</ele>
        <time>2018-03-16T10:56:51Z</time>
      </trkpt>
      <trkpt lat="45.86523" lon="4.69501">
        <ele>219</ele>
        <time>2018-03-16T10:56:52Z</time>
      </trkpt>
      <trkpt lat="45.86526" lon="4.69506">
        <ele>219</ele>
        <time>2018-03-16T10:56:53Z</time>
      </trkpt>
      <trkpt lat="45.86529" lon="4.69511">
        <ele>219</ele>
        <time>2018-03-16T10:56:54Z</time>
      </trkpt>
      <trkpt lat="45.86533" lon="4.69517">
        <ele>219</ele>
        <time>2018-03-16T10:56:55Z</time>
      </trkpt>
      <trkpt lat="45.86536" lon="4.69522">
        <ele>219</ele>
        <time>2018-03-16T10:56:56Z</time>
      </trkpt>
      <trkpt lat="45.86539" lon="4.69528">
        <ele>219</ele>
        <time>2018-03-16T10:56:57Z</time>
      </trkpt>
      <trkpt lat="45.86543" lon="4.69535">
        <ele>219</ele>
        <time>2018-03-16T10:56:58Z</time>
      </trkpt>
      <trkpt lat="45.86546" lon="4.6954">
        <ele>219</ele>
        <time>2018-03-16T10:56:59Z</time>
      </trkpt>
      <trkpt lat="45.86551" lon="4.69546">
        <ele>219</ele>
        <time>2018-03-16T10:57:00Z</time>
      </trkpt>
      <trkpt lat="45.86555" lon="4.69552">
        <ele>219</ele>
        <time>2018-03-16T10:57:01Z</time>
      </trkpt>
      <trkpt lat="45.8656" lon="4.69557">
        <ele>219</ele>
        <time>2018-03-16T10:57:02Z</time>
      </trkpt>
      <trkpt lat="45.86563" lon="4.69563">
        <ele>219</ele>
        <time>2018-03-16T10:57:03Z</time>
      </trkpt>
      <trkpt lat="45.86567" lon="4.69569">
        <ele>219</ele>
        <time>2018-03-16T10:57:04Z</time>
      </trkpt>
      <trkpt lat="45.86571" lon="4.69575">
        <ele>219</ele>
        <time>2018-03-16T10:57:05Z</time>
      </trkpt>
      <trkpt lat="45.86575" lon="4.69581">
        <ele>219</ele>
        <time>2018-03-16T10:57:06Z</time>
      </trkpt>
      <trkpt lat="45.86579" lon="4.69586">
        <ele>219</ele>
        <time>2018-03-16T10:57:07Z</time>
      </trkpt>
      <trkpt lat="45.86582" lon="4.69591">
        <ele>219</ele>
        <time>2018-03-16T10:57:08Z</time>
      </trkpt>
      <trkpt lat="45.86585" lon="4.69598">
        <ele>219</ele>
        <time>2018-03-16T10:57:09Z</time>
      </trkpt>
      <trkpt lat="45.8659" lon="4.69602">
        <ele>219</ele>
        <time>2018-03-16T10:57:10Z</time>
      </trkpt>
      <trkpt lat="45.86593" lon="4.69608">
        <ele>219</ele>
        <time>2018-03-16T10:57:11Z</time>
      </trkpt>
      <trkpt lat="45.86597" lon="4.69614">
        <ele>219</ele>
        <time>2018-03-16T10:57:12Z</time>
      </trkpt>
      <trkpt lat="45.866" lon="4.69619">
        <ele>219</ele>
        <time>2018-03-16T10:57:13Z</time>
      </trkpt>
      <trkpt lat="45.86603" lon="4.69625">
        <ele>219</ele>
        <time>2018-03-16T10:57:14Z</time>
      </trkpt>
      <trkpt lat="45.86607" lon="4.69631">
        <ele>219</ele>
        <time>2018-03-16T10:57:15Z</time>
      </trkpt>
      <trkpt lat="45.86611" lon="4.69637">
        <ele>219</ele>
        <time>2018-03-16T10:57:16Z</time>
      </trkpt>
      <trkpt lat="45.86614" lon="4.69643">
        <ele>219</ele>
        <time>2018-03-16T10:57:17Z</time>
      </trkpt>
      <trkpt lat="45.86618" lon="4.69648">
        <ele>219</ele>
        <time>2018-03-16T10:57:18Z</time>
      </trkpt>
      <trkpt lat="45.86622" lon="4.69654">
        <ele>219</ele>
        <time>2018-03-16T10:57:19Z</time>
      </trkpt>
      <trkpt lat="45.86626" lon="4.69659">
        <ele>218</ele>
        <time>2018-03-16T10:57:20Z</time>
      </trkpt>
      <trkpt lat="45.8663" lon="4.69664">
        <ele>218</ele>
        <time>2018-03-16T10:57:21Z</time>
      </trkpt>
      <trkpt lat="45.86634" lon="4.69669">
        <ele>218</ele>
        <time>2018-03-16T10:57:22Z</time>
      </trkpt>
      <trkpt lat="45.86638" lon="4.69672">
        <ele>218</ele>
        <time>2018-03-16T10:57:23Z</time>
      </trkpt>
      <trkpt lat="45.86642" lon="4.69678">
        <ele>218</ele>
        <time>2018-03-16T10:57:24Z</time>
      </trkpt>
      <trkpt lat="45.86646" lon="4.69683">
        <ele>218</ele>
        <time>2018-03-16T10:57:25Z</time>
      </trkpt>
      <trkpt lat="45.8665" lon="4.69688">
        <ele>218</ele>
        <time>2018-03-16T10:57:26Z</time>
      </trkpt>
      <trkpt lat="45.86654" lon="4.69693">
        <ele>218</ele>
        <time>2018-03-16T10:57:27Z</time>
      </trkpt>
      <trkpt lat="45.86659" lon="4.69697">
        <ele>218</ele>
        <time>2018-03-16T10:57:28Z</time>
      </trkpt>
      <trkpt lat="45.86663" lon="4.69702">
        <ele>218</ele>
        <time>2018-03-16T10:57:29Z</time>
      </trkpt>
      <trkpt lat="45.86667" lon="4.69707">
        <ele>218</ele>
        <time>2018-03-16T10:57:30Z</time>
      </trkpt>
      <trkpt lat="45.86672" lon="4.6971">
        <ele>217</ele>
        <time>2018-03-16T10:57:31Z</time>
      </trkpt>
      <trkpt lat="45.86676" lon="4.69714">
        <ele>217</ele>
        <time>2018-03-16T10:57:32Z</time>
      </trkpt>
      <trkpt lat="45.86681" lon="4.69718">
        <ele>217</ele>
        <time>2018-03-16T10:57:33Z</time>
      </trkpt>
      <trkpt lat="45.86686" lon="4.69722">
        <ele>217</ele>
        <time>2018-03-16T10:57:34Z</time>
      </trkpt>
      <trkpt lat="45.8669" lon="4.69726">
        <ele>217</ele>
        <time>2018-03-16T10:57:35Z</time>
      </trkpt>
      <trkpt lat="45.86695" lon="4.69731">
        <ele>217</ele>
        <time>2018-03-16T10:57:36Z</time>
      </trkpt>
      <trkpt lat="45.86701" lon="4.69733">
        <ele>217</ele>
        <time>2018-03-16T10:57:37Z</time>
      </trkpt>
      <trkpt lat="45.86705" lon="4.69738">
        <ele>217</ele>
        <time>2018-03-16T10:57:38Z</time>
      </trkpt>
      <trkpt lat="45.8671" lon="4.69742">
        <ele>217</ele>
        <time>2018-03-16T10:57:39Z</time>
      </trkpt>
      <trkpt lat="45.86715" lon="4.69747">
        <ele>217</ele>
        <time>2018-03-16T10:57:40Z</time>
      </trkpt>
      <trkpt lat="45.86719" lon="4.69751">
        <ele>217</ele>
        <time>2018-03-16T10:57:41Z</time>
      </trkpt>
      <trkpt lat="45.86724" lon="4.69756">
        <ele>217</ele>
        <time>2018-03-16T10:57:42Z</time>
      </trkpt>
      <trkpt lat="45.86728" lon="4.6976">
        <ele>217</ele>
        <time>2018-03-16T10:57:43Z</time>
      </trkpt>
      <trkpt lat="45.86732" lon="4.69764">
        <ele>217</ele>
        <time>2018-03-16T10:57:44Z</time>
      </trkpt>
      <trkpt lat="45.86737" lon="4.69769">
        <ele>217</ele>
        <time>2018-03-16T10:57:45Z</time>
      </trkpt>
      <trkpt lat="45.86741" lon="4.69774">
        <ele>217</ele>
        <time>2018-03-16T10:57:46Z</time>
      </trkpt>
      <trkpt lat="45.86746" lon="4.69777">
        <ele>217</ele>
        <time>2018-03-16T10:57:47Z</time>
      </trkpt>
      <trkpt lat="45.86751" lon="4.69781">
        <ele>217</ele>
        <time>2018-03-16T10:57:48Z</time>
      </trkpt>
      <trkpt lat="45.86755" lon="4.69784">
        <ele>217</ele>
        <time>2018-03-16T10:57:49Z</time>
      </trkpt>
      <trkpt lat="45.8676" lon="4.69789">
        <ele>217</ele>
        <time>2018-03-16T10:57:50Z</time>
      </trkpt>
      <trkpt lat="45.86764" lon="4.69793">
        <ele>217</ele>
        <time>2018-03-16T10:57:51Z</time>
      </trkpt>
      <trkpt lat="45.86769" lon="4.69798">
        <ele>217</ele>
        <time>2018-03-16T10:57:52Z</time>
      </trkpt>
      <trkpt lat="45.86773" lon="4.69804">
        <ele>217</ele>
        <time>2018-03-16T10:57:53Z</time>
      </trkpt>
      <trkpt lat="45.86779" lon="4.69808">
        <ele>217</ele>
        <time>2018-03-16T10:57:54Z</time>
      </trkpt>
      <trkpt lat="45.86784" lon="4.69813">
        <ele>217</ele>
        <time>2018-03-16T10:57:55Z</time>
      </trkpt>
      <trkpt lat="45.8679" lon="4.69818">
        <ele>217</ele>
        <time>2018-03-16T10:57:56Z</time>
      </trkpt>
      <trkpt lat="45.86794" lon="4.69823">
        <ele>217</ele>
        <time>2018-03-16T10:57:57Z</time>
      </trkpt>
      <trkpt lat="45.86799" lon="4.69827">
        <ele>217</ele>
        <time>2018-03-16T10:57:58Z</time>
      </trkpt>
      <trkpt lat="45.86805" lon="4.69833">
        <ele>217</ele>
        <time>2018-03-16T10:57:59Z</time>
      </trkpt>
      <trkpt lat="45.8681" lon="4.69839">
        <ele>217</ele>
        <time>2018-03-16T10:58:00Z</time>
      </trkpt>
      <trkpt lat="45.86816" lon="4.69845">
        <ele>217</ele>
        <time>2018-03-16T10:58:01Z</time>
      </trkpt>
      <trkpt lat="45.86821" lon="4.6985">
        <ele>217</ele>
        <time>2018-03-16T10:58:02Z</time>
      </trkpt>
      <trkpt lat="45.86827" lon="4.69855">
        <ele>217</ele>
        <time>2018-03-16T10:58:03Z</time>
      </trkpt>
      <trkpt lat="45.86833" lon="4.6986">
        <ele>217</ele>
        <time>2018-03-16T10:58:04Z</time>
      </trkpt>
      <trkpt lat="45.86839" lon="4.69866">
        <ele>217</ele>
        <time>2018-03-16T10:58:05Z</time>
      </trkpt>
      <trkpt lat="45.86844" lon="4.69871">
        <ele>217</ele>
        <time>2018-03-16T10:58:06Z</time>
      </trkpt>
      <trkpt lat="45.8685" lon="4.69875">
        <ele>217</ele>
        <time>2018-03-16T10:58:07Z</time>
      </trkpt>
      <trkpt lat="45.86855" lon="4.69879">
        <ele>217</ele>
        <time>2018-03-16T10:58:08Z</time>
      </trkpt>
      <trkpt lat="45.86861" lon="4.69883">
        <ele>217</ele>
        <time>2018-03-16T10:58:09Z</time>
      </trkpt>
      <trkpt lat="45.86866" lon="4.69888">
        <ele>217</ele>
        <time>2018-03-16T10:58:10Z</time>
      </trkpt>
      <trkpt lat="45.8687" lon="4.69893">
        <ele>217</ele>
        <time>2018-03-16T10:58:11Z</time>
      </trkpt>
      <trkpt lat="45.86874" lon="4.69897">
        <ele>217</ele>
        <time>2018-03-16T10:58:12Z</time>
      </trkpt>
      <trkpt lat="45.86878" lon="4.699">
        <ele>217</ele>
        <time>2018-03-16T10:58:13Z</time>
      </trkpt>
      <trkpt lat="45.86882" lon="4.69905">
        <ele>217</ele>
        <time>2018-03-16T10:58:14Z</time>
      </trkpt>
      <trkpt lat="45.86887" lon="4.69909">
        <ele>217</ele>
        <time>2018-03-16T10:58:15Z</time>
      </trkpt>
      <trkpt lat="45.86892" lon="4.69912">
        <ele>217</ele>
        <time>2018-03-16T10:58:16Z</time>
      </trkpt>
      <trkpt lat="45.86896" lon="4.69916">
        <ele>217</ele>
        <time>2018-03-16T10:58:17Z</time>
      </trkpt>
      <trkpt lat="45.86901" lon="4.6992">
        <ele>217</ele>
        <time>2018-03-16T10:58:18Z</time>
      </trkpt>
      <trkpt lat="45.86906" lon="4.69924">
        <ele>217</ele>
        <time>2018-03-16T10:58:19Z</time>
      </trkpt>
      <trkpt lat="45.86911" lon="4.69929">
        <ele>217</ele>
        <time>2018-03-16T10:58:20Z</time>
      </trkpt>
      <trkpt lat="45.86916" lon="4.69934">
        <ele>217</ele>
        <time>2018-03-16T10:58:21Z</time>
      </trkpt>
      <trkpt lat="45.86922" lon="4.69938">
        <ele>217</ele>
        <time>2018-03-16T10:58:22Z</time>
      </trkpt>
      <trkpt lat="45.86927" lon="4.69942">
        <ele>217</ele>
        <time>2018-03-16T10:58:23Z</time>
      </trkpt>
      <trkpt lat="45.86932" lon="4.69947">
        <ele>217</ele>
        <time>2018-03-16T10:58:24Z</time>
      </trkpt>
      <trkpt lat="45.86937" lon="4.69951">
        <ele>217</ele>
        <time>2018-03-16T10:58:25Z</time>
      </trkpt>
      <trkpt lat="45.86943" lon="4.69954">
        <ele>217</ele>
        <time>2018-03-16T10:58:26Z</time>
      </trkpt>
      <trkpt lat="45.86949" lon="4.69956">
        <ele>217</ele>
        <time>2018-03-16T10:58:27Z</time>
      </trkpt>
      <trkpt lat="45.86954" lon="4.69961">
        <ele>217</ele>
        <time>2018-03-16T10:58:28Z</time>
      </trkpt>
      <trkpt lat="45.86959" lon="4.69966">
        <ele>217</ele>
        <time>2018-03-16T10:58:29Z</time>
      </trkpt>
      <trkpt lat="45.86964" lon="4.6997">
        <ele>217</ele>
        <time>2018-03-16T10:58:30Z</time>
      </trkpt>
      <trkpt lat="45.86968" lon="4.69976">
        <ele>217</ele>
        <time>2018-03-16T10:58:31Z</time>
      </trkpt>
      <trkpt lat="45.86972" lon="4.69982">
        <ele>217</ele>
        <time>2018-03-16T10:58:32Z</time>
      </trkpt>
      <trkpt lat="45.86976" lon="4.69989">
        <ele>217</ele>
        <time>2018-03-16T10:58:33Z</time>
      </trkpt>
      <trkpt lat="45.86978" lon="4.69995">
        <ele>217</ele>
        <time>2018-03-16T10:58:34Z</time>
      </trkpt>
      <trkpt lat="45.86982" lon="4.70001">
        <ele>217</ele>
        <time>2018-03-16T10:58:35Z</time>
      </trkpt>
      <trkpt lat="45.86986" lon="4.70004">
        <ele>217</ele>
        <time>2018-03-16T10:58:36Z</time>
      </trkpt>
      <trkpt lat="45.86992" lon="4.70006">
        <ele>217</ele>
        <time>2018-03-16T10:58:37Z</time>
      </trkpt>
      <trkpt lat="45.86997" lon="4.70006">
        <ele>217</ele>
        <time>2018-03-16T10:58:38Z</time>
      </trkpt>
      <trkpt lat="45.87002" lon="4.70006">
        <ele>217</ele>
        <time>2018-03-16T10:58:39Z</time>
      </trkpt>
      <trkpt lat="45.87008" lon="4.70007">
        <ele>217</ele>
        <time>2018-03-16T10:58:40Z</time>
      </trkpt>
      <trkpt lat="45.87012" lon="4.70007">
        <ele>217</ele>
        <time>2018-03-16T10:58:41Z</time>
      </trkpt>
      <trkpt lat="45.87017" lon="4.7001">
        <ele>217</ele>
        <time>2018-03-16T10:58:42Z</time>
      </trkpt>
      <trkpt lat="45.87022" lon="4.70014">
        <ele>217</ele>
        <time>2018-03-16T10:58:43Z</time>
      </trkpt>
      <trkpt lat="45.87027" lon="4.70019">
        <ele>217</ele>
        <time>2018-03-16T10:58:44Z</time>
      </trkpt>
      <trkpt lat="45.8703" lon="4.70024">
        <ele>217</ele>
        <time>2018-03-16T10:58:45Z</time>
      </trkpt>
      <trkpt lat="45.87034" lon="4.7003">
        <ele>217</ele>
        <time>2018-03-16T10:58:46Z</time>
      </trkpt>
      <trkpt lat="45.87037" lon="4.70037">
        <ele>217</ele>
        <time>2018-03-16T10:58:47Z</time>
      </trkpt>
      <trkpt lat="45.87041" lon="4.70045">
        <ele>217</ele>
        <time>2018-03-16T10:58:48Z</time>
      </trkpt>
      <trkpt lat="45.87046" lon="4.70048">
        <ele>217</ele>
        <time>2018-03-16T10:58:49Z</time>
      </trkpt>
      <trkpt lat="45.8705" lon="4.70056">
        <ele>217</ele>
        <time>2018-03-16T10:58:50Z</time>
      </trkpt>
      <trkpt lat="45.87054" lon="4.70064">
        <ele>217</ele>
        <time>2018-03-16T10:58:51Z</time>
      </trkpt>
      <trkpt lat="45.87058" lon="4.70071">
        <ele>217</ele>
        <time>2018-03-16T10:58:52Z</time>
      </trkpt>
      <trkpt lat="45.87064" lon="4.70078">
        <ele>217</ele>
        <time>2018-03-16T10:58:53Z</time>
      </trkpt>
      <trkpt lat="45.87067" lon="4.70086">
        <ele>217</ele>
        <time>2018-03-16T10:58:54Z</time>
      </trkpt>
      <trkpt lat="45.87072" lon="4.70093">
        <ele>217</ele>
        <time>2018-03-16T10:58:55Z</time>
      </trkpt>
      <trkpt lat="45.87075" lon="4.70101">
        <ele>217</ele>
        <time>2018-03-16T10:58:56Z</time>
      </trkpt>
      <trkpt lat="45.87079" lon="4.70108">
        <ele>217</ele>
        <time>2018-03-16T10:58:57Z</time>
      </trkpt>
      <trkpt lat="45.87082" lon="4.70115">
        <ele>217</ele>
        <time>2018-03-16T10:58:58Z</time>
      </trkpt>
      <trkpt lat="45.87086" lon="4.70122">
        <ele>217</ele>
        <time>2018-03-16T10:58:59Z</time>
      </trkpt>
      <trkpt lat="45.8709" lon="4.70128">
        <ele>217</ele>
        <time>2018-03-16T10:59:00Z</time>
      </trkpt>
      <trkpt lat="45.87093" lon="4.70135">
        <ele>217</ele>
        <time>2018-03-16T10:59:01Z</time>
      </trkpt>
      <trkpt lat="45.87097" lon="4.70142">
        <ele>217</ele>
        <time>2018-03-16T10:59:02Z</time>
      </trkpt>
      <trkpt lat="45.87101" lon="4.70149">
        <ele>217</ele>
        <time>2018-03-16T10:59:03Z</time>
      </trkpt>
      <trkpt lat="45.87105" lon="4.70156">
        <ele>217</ele>
        <time>2018-03-16T10:59:04Z</time>
      </trkpt>
      <trkpt lat="45.8711" lon="4.70163">
        <ele>217</ele>
        <time>2018-03-16T10:59:05Z</time>
      </trkpt>
      <trkpt lat="45.87114" lon="4.7017">
        <ele>216</ele>
        <time>2018-03-16T10:59:06Z</time>
      </trkpt>
      <trkpt lat="45.87118" lon="4.70177">
        <ele>216</ele>
        <time>2018-03-16T10:59:07Z</time>
      </trkpt>
      <trkpt lat="45.87123" lon="4.70183">
        <ele>216</ele>
        <time>2018-03-16T10:59:08Z</time>
      </trkpt>
      <trkpt lat="45.87128" lon="4.7019">
        <ele>216</ele>
        <time>2018-03-16T10:59:09Z</time>
      </trkpt>
      <trkpt lat="45.87133" lon="4.702">
        <ele>216</ele>
        <time>2018-03-16T10:59:10Z</time>
      </trkpt>
      <trkpt lat="45.87138" lon="4.70207">
        <ele>216</ele>
        <time>2018-03-16T10:59:11Z</time>
      </trkpt>
      <trkpt lat="45.87143" lon="4.70214">
        <ele>216</ele>
        <time>2018-03-16T10:59:12Z</time>
      </trkpt>
      <trkpt lat="45.87149" lon="4.70221">
        <ele>216</ele>
        <time>2018-03-16T10:59:13Z</time>
      </trkpt>
      <trkpt lat="45.87155" lon="4.70226">
        <ele>216</ele>
        <time>2018-03-16T10:59:14Z</time>
      </trkpt>
      <trkpt lat="45.8716" lon="4.70232">
        <ele>216</ele>
        <time>2018-03-16T10:59:15Z</time>
      </trkpt>
      <trkpt lat="45.87165" lon="4.70239">
        <ele>216</ele>
        <time>2018-03-16T10:59:16Z</time>
      </trkpt>
      <trkpt lat="45.87169" lon="4.70245">
        <ele>216</ele>
        <time>2018-03-16T10:59:17Z</time>
      </trkpt>
      <trkpt lat="45.87173" lon="4.70252">
        <ele>216</ele>
        <time>2018-03-16T10:59:18Z</time>
      </trkpt>
      <trkpt lat="45.87178" lon="4.70259">
        <ele>216</ele>
        <time>2018-03-16T10:59:19Z</time>
      </trkpt>
      <trkpt lat="45.87182" lon="4.70265">
        <ele>216</ele>
        <time>2018-03-16T10:59:20Z</time>
      </trkpt>
      <trkpt lat="45.87188" lon="4.70271">
        <ele>217</ele>
        <time>2018-03-16T10:59:21Z</time>
      </trkpt>
      <trkpt lat="45.87193" lon="4.70276">
        <ele>217</ele>
        <time>2018-03-16T10:59:22Z</time>
      </trkpt>
      <trkpt lat="45.87198" lon="4.70281">
        <ele>217</ele>
        <time>2018-03-16T10:59:23Z</time>
      </trkpt>
      <trkpt lat="45.87204" lon="4.70286">
        <ele>217</ele>
        <time>2018-03-16T10:59:24Z</time>
      </trkpt>
      <trkpt lat="45.87207" lon="4.70293">
        <ele>217</ele>
        <time>2018-03-16T10:59:25Z</time>
      </trkpt>
      <trkpt lat="45.87212" lon="4.70299">
        <ele>217</ele>
        <time>2018-03-16T10:59:26Z</time>
      </trkpt>
      <trkpt lat="45.87216" lon="4.70305">
        <ele>217</ele>
        <time>2018-03-16T10:59:27Z</time>
      </trkpt>
      <trkpt lat="45.87221" lon="4.70312">
        <ele>217</ele>
        <time>2018-03-16T10:59:28Z</time>
      </trkpt>
      <trkpt lat="45.87226" lon="4.70319">
        <ele>217</ele>
        <time>2018-03-16T10:59:29Z</time>
      </trkpt>
      <trkpt lat="45.87231" lon="4.70325">
        <ele>217</ele>
        <time>2018-03-16T10:59:30Z</time>
      </trkpt>
      <trkpt lat="45.87236" lon="4.70332">
        <ele>217</ele>
        <time>2018-03-16T10:59:31Z</time>
      </trkpt>
      <trkpt lat="45.87241" lon="4.70338">
        <ele>217</ele>
        <time>2018-03-16T10:59:32Z</time>
      </trkpt>
      <trkpt lat="45.87247" lon="4.70344">
        <ele>217</ele>
        <time>2018-03-16T10:59:33Z</time>
      </trkpt>
      <trkpt lat="45.87252" lon="4.70351">
        <ele>217</ele>
        <time>2018-03-16T10:59:34Z</time>
      </trkpt>
      <trkpt lat="45.87255" lon="4.70358">
        <ele>216</ele>
        <time>2018-03-16T10:59:35Z</time>
      </trkpt>
      <trkpt lat="45.87259" lon="4.70364">
        <ele>216</ele>
        <time>2018-03-16T10:59:36Z</time>
      </trkpt>
      <trkpt lat="45.87264" lon="4.70371">
        <ele>216</ele>
        <time>2018-03-16T10:59:37Z</time>
      </trkpt>
      <trkpt lat="45.87268" lon="4.70376">
        <ele>216</ele>
        <time>2018-03-16T10:59:38Z</time>
      </trkpt>
      <trkpt lat="45.87272" lon="4.70383">
        <ele>216</ele>
        <time>2018-03-16T10:59:39Z</time>
      </trkpt>
      <trkpt lat="45.87275" lon="4.70391">
        <ele>216</ele>
        <time>2018-03-16T10:59:40Z</time>
      </trkpt>
      <trkpt lat="45.87278" lon="4.70399">
        <ele>216</ele>
        <time>2018-03-16T10:59:41Z</time>
      </trkpt>
      <trkpt lat="45.87283" lon="4.70405">
        <ele>216</ele>
        <time>2018-03-16T10:59:42Z</time>
      </trkpt>
      <trkpt lat="45.87288" lon="4.70409">
        <ele>216</ele>
        <time>2018-03-16T10:59:43Z</time>
      </trkpt>
      <trkpt lat="45.87293" lon="4.70415">
        <ele>215</ele>
        <time>2018-03-16T10:59:44Z</time>
      </trkpt>
      <trkpt lat="45.87298" lon="4.70422">
        <ele>214</ele>
        <time>2018-03-16T10:59:45Z</time>
      </trkpt>
      <trkpt lat="45.87303" lon="4.70429">
        <ele>214</ele>
        <time>2018-03-16T10:59:46Z</time>
      </trkpt>
      <trkpt lat="45.87307" lon="4.70437">
        <ele>214</ele>
        <time>2018-03-16T10:59:47Z</time>
      </trkpt>
      <trkpt lat="45.87312" lon="4.70444">
        <ele>214</ele>
        <time>2018-03-16T10:59:48Z</time>
      </trkpt>
      <trkpt lat="45.87317" lon="4.70453">
        <ele>214</ele>
        <time>2018-03-16T10:59:49Z</time>
      </trkpt>
      <trkpt lat="45.87322" lon="4.7046">
        <ele>214</ele>
        <time>2018-03-16T10:59:50Z</time>
      </trkpt>
      <trkpt lat="45.87327" lon="4.70468">
        <ele>214</ele>
        <time>2018-03-16T10:59:51Z</time>
      </trkpt>
      <trkpt lat="45.87332" lon="4.70478">
        <ele>214</ele>
        <time>2018-03-16T10:59:52Z</time>
      </trkpt>
      <trkpt lat="45.87337" lon="4.70486">
        <ele>213</ele>
        <time>2018-03-16T10:59:53Z</time>
      </trkpt>
      <trkpt lat="45.87342" lon="4.70494">
        <ele>213</ele>
        <time>2018-03-16T10:59:54Z</time>
      </trkpt>
      <trkpt lat="45.87347" lon="4.70503">
        <ele>212</ele>
        <time>2018-03-16T10:59:55Z</time>
      </trkpt>
      <trkpt lat="45.87352" lon="4.70512">
        <ele>212</ele>
        <time>2018-03-16T10:59:56Z</time>
      </trkpt>
      <trkpt lat="45.87357" lon="4.7052">
        <ele>212</ele>
        <time>2018-03-16T10:59:57Z</time>
      </trkpt>
      <trkpt lat="45.87363" lon="4.70529">
        <ele>212</ele>
        <time>2018-03-16T10:59:58Z</time>
      </trkpt>
      <trkpt lat="45.87368" lon="4.70537">
        <ele>212</ele>
        <time>2018-03-16T10:59:59Z</time>
      </trkpt>
      <trkpt lat="45.87374" lon="4.70546">
        <ele>212</ele>
        <time>2018-03-16T11:00:00Z</time>
      </trkpt>
      <trkpt lat="45.8738" lon="4.70554">
        <ele>212</ele>
        <time>2018-03-16T11:00:01Z</time>
      </trkpt>
      <trkpt lat="45.87387" lon="4.70562">
        <ele>211</ele>
        <time>2018-03-16T11:00:02Z</time>
      </trkpt>
      <trkpt lat="45.87392" lon="4.70571">
        <ele>211</ele>
        <time>2018-03-16T11:00:03Z</time>
      </trkpt>
      <trkpt lat="45.87399" lon="4.70579">
        <ele>211</ele>
        <time>2018-03-16T11:00:04Z</time>
      </trkpt>
      <trkpt lat="45.87404" lon="4.70588">
        <ele>210</ele>
        <time>2018-03-16T11:00:05Z</time>
      </trkpt>
      <trkpt lat="45.87409" lon="4.70597">
        <ele>210</ele>
        <time>2018-03-16T11:00:06Z</time>
      </trkpt>
      <trkpt lat="45.87413" lon="4.70606">
        <ele>210</ele>
        <time>2018-03-16T11:00:07Z</time>
      </trkpt>
      <trkpt lat="45.87417" lon="4.70615">
        <ele>210</ele>
        <time>2018-03-16T11:00:08Z</time>
      </trkpt>
      <trkpt lat="45.87418" lon="4.70626">
        <ele>210</ele>
        <time>2018-03-16T11:00:09Z</time>
      </trkpt>
      <trkpt lat="45.87419" lon="4.70636">
        <ele>209</ele>
        <time>2018-03-16T11:00:10Z</time>
      </trkpt>
      <trkpt lat="45.8742" lon="4.70646">
        <ele>209</ele>
        <time>2018-03-16T11:00:11Z</time>
      </trkpt>
      <trkpt lat="45.87421" lon="4.70656">
        <ele>208</ele>
        <time>2018-03-16T11:00:12Z</time>
      </trkpt>
      <trkpt lat="45.87422" lon="4.70666">
        <ele>208</ele>
        <time>2018-03-16T11:00:13Z</time>
      </trkpt>
      <trkpt lat="45.87423" lon="4.70675">
        <ele>208</ele>
        <time>2018-03-16T11:00:14Z</time>
      </trkpt>
      <trkpt lat="45.87424" lon="4.70684">
        <ele>209</ele>
        <time>2018-03-16T11:00:15Z</time>
      </trkpt>
      <trkpt lat="45.87425" lon="4.70694">
        <ele>209</ele>
        <time>2018-03-16T11:00:16Z</time>
      </trkpt>
      <trkpt lat="45.87426" lon="4.70703">
        <ele>209</ele>
        <time>2018-03-16T11:00:17Z</time>
      </trkpt>
      <trkpt lat="45.87428" lon="4.70711">
        <ele>209</ele>
        <time>2018-03-16T11:00:18Z</time>
      </trkpt>
      <trkpt lat="45.87429" lon="4.7072">
        <ele>209</ele>
        <time>2018-03-16T11:00:19Z</time>
      </trkpt>
      <trkpt lat="45.87429" lon="4.70727">
        <ele>209</ele>
        <time>2018-03-16T11:00:20Z</time>
      </trkpt>
      <trkpt lat="45.87431" lon="4.70735">
        <ele>209</ele>
        <time>2018-03-16T11:00:21Z</time>
      </trkpt>
      <trkpt lat="45.87432" lon="4.70743">
        <ele>209</ele>
        <time>2018-03-16T11:00:22Z</time>
      </trkpt>
      <trkpt lat="45.87433" lon="4.7075">
        <ele>209</ele>
        <time>2018-03-16T11:00:23Z</time>
      </trkpt>
      <trkpt lat="45.87435" lon="4.70758">
        <ele>209</ele>
        <time>2018-03-16T11:00:24Z</time>
      </trkpt>
      <trkpt lat="45.87436" lon="4.70765">
        <ele>210</ele>
        <time>2018-03-16T11:00:25Z</time>
      </trkpt>
      <trkpt lat="45.87438" lon="4.70773">
        <ele>210</ele>
        <time>2018-03-16T11:00:26Z</time>
      </trkpt>
      <trkpt lat="45.87439" lon="4.7078">
        <ele>210</ele>
        <time>2018-03-16T11:00:27Z</time>
      </trkpt>
      <trkpt lat="45.87441" lon="4.70787">
        <ele>211</ele>
        <time>2018-03-16T11:00:28Z</time>
      </trkpt>
      <trkpt lat="45.87442" lon="4.70794">
        <ele>211</ele>
        <time>2018-03-16T11:00:29Z</time>
      </trkpt>
      <trkpt lat="45.87444" lon="4.70802">
        <ele>211</ele>
        <time>2018-03-16T11:00:30Z</time>
      </trkpt>
      <trkpt lat="45.87446" lon="4.70808">
        <ele>211</ele>
        <time>2018-03-16T11:00:31Z</time>
      </trkpt>
      <trkpt lat="45.87448" lon="4.70815">
        <ele>211</ele>
        <time>2018-03-16T11:00:32Z</time>
      </trkpt>
      <trkpt lat="45.8745" lon="4.70821">
        <ele>211</ele>
        <time>2018-03-16T11:00:33Z</time>
      </trkpt>
      <trkpt lat="45.87452" lon="4.70828">
        <ele>211</ele>
        <time>2018-03-16T11:00:34Z</time>
      </trkpt>
      <trkpt lat="45.87454" lon="4.70834">
        <ele>213</ele>
        <time>2018-03-16T11:00:35Z</time>
      </trkpt>
      <trkpt lat="45.87456" lon="4.7084">
        <ele>213</ele>
        <time>2018-03-16T11:00:36Z</time>
      </trkpt>
      <trkpt lat="45.87457" lon="4.70847">
        <ele>213</ele>
        <time>2018-03-16T11:00:37Z</time>
      </trkpt>
      <trkpt lat="45.87459" lon="4.70853">
        <ele>213</ele>
        <time>2018-03-16T11:00:38Z</time>
      </trkpt>
      <trkpt lat="45.87461" lon="4.70866">
        <ele>213</ele>
        <time>2018-03-16T11:00:40Z</time>
      </trkpt>
      <trkpt lat="45.87462" lon="4.70872">
        <ele>213</ele>
        <time>2018-03-16T11:00:41Z</time>
      </trkpt>
      <trkpt lat="45.87464" lon="4.70879">
        <ele>213</ele>
        <time>2018-03-16T11:00:42Z</time>
      </trkpt>
      <trkpt lat="45.87466" lon="4.70887">
        <ele>214</ele>
        <time>2018-03-16T11:00:43Z</time>
      </trkpt>
      <trkpt lat="45.87468" lon="4.70894">
        <ele>214</ele>
        <time>2018-03-16T11:00:44Z</time>
      </trkpt>
      <trkpt lat="45.87469" lon="4.70901">
        <ele>214</ele>
        <time>2018-03-16T11:00:45Z</time>
      </trkpt>
      <trkpt lat="45.87471" lon="4.70908">
        <ele>214</ele>
        <time>2018-03-16T11:00:46Z</time>
      </trkpt>
      <trkpt lat="45.87473" lon="4.70914">
        <ele>214</ele>
        <time>2018-03-16T11:00:47Z</time>
      </trkpt>
      <trkpt lat="45.87475" lon="4.70921">
        <ele>215</ele>
        <time>2018-03-16T11:00:48Z</time>
      </trkpt>
      <trkpt lat="45.87478" lon="4.70928">
        <ele>215</ele>
        <time>2018-03-16T11:00:49Z</time>
      </trkpt>
      <trkpt lat="45.8748" lon="4.70934">
        <ele>215</ele>
        <time>2018-03-16T11:00:50Z</time>
      </trkpt>
      <trkpt lat="45.87481" lon="4.70941">
        <ele>215</ele>
        <time>2018-03-16T11:00:51Z</time>
      </trkpt>
      <trkpt lat="45.87483" lon="4.70948">
        <ele>215</ele>
        <time>2018-03-16T11:00:52Z</time>
      </trkpt>
      <trkpt lat="45.87487" lon="4.70955">
        <ele>215</ele>
        <time>2018-03-16T11:00:53Z</time>
      </trkpt>
      <trkpt lat="45.87488" lon="4.70962">
        <ele>215</ele>
        <time>2018-03-16T11:00:54Z</time>
      </trkpt>
      <trkpt lat="45.87488" lon="4.70969">
        <ele>215</ele>
        <time>2018-03-16T11:00:55Z</time>
      </trkpt>
      <trkpt lat="45.87491" lon="4.70977">
        <ele>215</ele>
        <time>2018-03-16T11:00:56Z</time>
      </trkpt>
      <trkpt lat="45.87494" lon="4.70983">
        <ele>214</ele>
        <time>2018-03-16T11:00:57Z</time>
      </trkpt>
      <trkpt lat="45.87497" lon="4.70989">
        <ele>214</ele>
        <time>2018-03-16T11:00:58Z</time>
      </trkpt>
      <trkpt lat="45.875" lon="4.70996">
        <ele>214</ele>
        <time>2018-03-16T11:00:59Z</time>
      </trkpt>
      <trkpt lat="45.87506" lon="4.71002">
        <ele>214</ele>
        <time>2018-03-16T11:01:00Z</time>
      </trkpt>
      <trkpt lat="45.8751" lon="4.71007">
        <ele>214</ele>
        <time>2018-03-16T11:01:01Z</time>
      </trkpt>
      <trkpt lat="45.87513" lon="4.71013">
        <ele>215</ele>
        <time>2018-03-16T11:01:02Z</time>
      </trkpt>
      <trkpt lat="45.87517" lon="4.71018">
        <ele>215</ele>
        <time>2018-03-16T11:01:03Z</time>
      </trkpt>
      <trkpt lat="45.8752" lon="4.71025">
        <ele>215</ele>
        <time>2018-03-16T11:01:04Z</time>
      </trkpt>
      <trkpt lat="45.87523" lon="4.71031">
        <ele>215</ele>
        <time>2018-03-16T11:01:05Z</time>
      </trkpt>
      <trkpt lat="45.87527" lon="4.71035">
        <ele>215</ele>
        <time>2018-03-16T11:01:06Z</time>
      </trkpt>
      <trkpt lat="45.87529" lon="4.7104">
        <ele>215</ele>
        <time>2018-03-16T11:01:07Z</time>
      </trkpt>
      <trkpt lat="45.87535" lon="4.71048">
        <ele>215</ele>
        <time>2018-03-16T11:01:09Z</time>
      </trkpt>
      <trkpt lat="45.87537" lon="4.71053">
        <ele>215</ele>
        <time>2018-03-16T11:01:10Z</time>
      </trkpt>
      <trkpt lat="45.87543" lon="4.71062">
        <ele>216</ele>
        <time>2018-03-16T11:01:14Z</time>
      </trkpt>
      <trkpt lat="45.87545" lon="4.71064">
        <ele>216</ele>
        <time>2018-03-16T11:01:15Z</time>
      </trkpt>
      <trkpt lat="45.87551" lon="4.7107">
        <ele>216</ele>
        <time>2018-03-16T11:01:18Z</time>
      </trkpt>
      <trkpt lat="45.87553" lon="4.71072">
        <ele>216</ele>
        <time>2018-03-16T11:01:19Z</time>
      </trkpt>
      <trkpt lat="45.8756" lon="4.71078">
        <ele>216</ele>
        <time>2018-03-16T11:01:24Z</time>
      </trkpt>
      <trkpt lat="45.8756" lon="4.71078">
        <ele>216</ele>
        <time>2018-03-16T11:01:25Z</time>
      </trkpt>
      <trkpt lat="45.87568" lon="4.71081">
        <ele>216</ele>
        <time>2018-03-16T11:02:12Z</time>
      </trkpt>
      <trkpt lat="45.8757" lon="4.71083">
        <ele>216</ele>
        <time>2018-03-16T11:02:13Z</time>
      </trkpt>
      <trkpt lat="45.87577" lon="4.71087">
        <ele>217</ele>
        <time>2018-03-16T11:02:16Z</time>
      </trkpt>
      <trkpt lat="45.87579" lon="4.71088">
        <ele>217</ele>
        <time>2018-03-16T11:02:17Z</time>
      </trkpt>
      <trkpt lat="45.87588" lon="4.71089">
        <ele>218</ele>
        <time>2018-03-16T11:02:20Z</time>
      </trkpt>
      <trkpt lat="45.87591" lon="4.71088">
        <ele>218</ele>
        <time>2018-03-16T11:02:21Z</time>
      </trkpt>
      <trkpt lat="45.87596" lon="4.71086">
        <ele>218</ele>
        <time>2018-03-16T11:02:23Z</time>
      </trkpt>
      <trkpt lat="45.87606" lon="4.71083">
        <ele>217</ele>
        <time>2018-03-16T11:02:24Z</time>
      </trkpt>
      <trkpt lat="45.87614" lon="4.7108">
        <ele>217</ele>
        <time>2018-03-16T11:02:26Z</time>
      </trkpt>
      <trkpt lat="45.87618" lon="4.71078">
        <ele>217</ele>
        <time>2018-03-16T11:02:27Z</time>
      </trkpt>
      <trkpt lat="45.87626" lon="4.71075">
        <ele>218</ele>
        <time>2018-03-16T11:02:29Z</time>
      </trkpt>
      <trkpt lat="45.8763" lon="4.71074">
        <ele>218</ele>
        <time>2018-03-16T11:02:30Z</time>
      </trkpt>
      <trkpt lat="45.87638" lon="4.71071">
        <ele>218</ele>
        <time>2018-03-16T11:02:32Z</time>
      </trkpt>
      <trkpt lat="45.87642" lon="4.7107">
        <ele>218</ele>
        <time>2018-03-16T11:02:33Z</time>
      </trkpt>
      <trkpt lat="45.8765" lon="4.71066">
        <ele>218</ele>
        <time>2018-03-16T11:02:35Z</time>
      </trkpt>
      <trkpt lat="45.87655" lon="4.71064">
        <ele>218</ele>
        <time>2018-03-16T11:02:36Z</time>
      </trkpt>
      <trkpt lat="45.87659" lon="4.71062">
        <ele>218</ele>
        <time>2018-03-16T11:02:37Z</time>
      </trkpt>
      <trkpt lat="45.87664" lon="4.7106">
        <ele>218</ele>
        <time>2018-03-16T11:02:38Z</time>
      </trkpt>
      <trkpt lat="45.87669" lon="4.71058">
        <ele>220</ele>
        <time>2018-03-16T11:02:39Z</time>
      </trkpt>
      <trkpt lat="45.87674" lon="4.71057">
        <ele>220</ele>
        <time>2018-03-16T11:02:40Z</time>
      </trkpt>
      <trkpt lat="45.87678" lon="4.71055">
        <ele>220</ele>
        <time>2018-03-16T11:02:41Z</time>
      </trkpt>
      <trkpt lat="45.87685" lon="4.71053">
        <ele>220</ele>
        <time>2018-03-16T11:02:42Z</time>
      </trkpt>
      <trkpt lat="45.87693" lon="4.7105">
        <ele>220</ele>
        <time>2018-03-16T11:02:44Z</time>
      </trkpt>
      <trkpt lat="45.87697" lon="4.71048">
        <ele>220</ele>
        <time>2018-03-16T11:02:45Z</time>
      </trkpt>
      <trkpt lat="45.87704" lon="4.71047">
        <ele>220</ele>
        <time>2018-03-16T11:02:47Z</time>
      </trkpt>
      <trkpt lat="45.87708" lon="4.71044">
        <ele>220</ele>
        <time>2018-03-16T11:02:48Z</time>
      </trkpt>
      <trkpt lat="45.87715" lon="4.71041">
        <ele>220</ele>
        <time>2018-03-16T11:02:50Z</time>
      </trkpt>
      <trkpt lat="45.87719" lon="4.7104">
        <ele>220</ele>
        <time>2018-03-16T11:02:51Z</time>
      </trkpt>
      <trkpt lat="45.87727" lon="4.71038">
        <ele>220</ele>
        <time>2018-03-16T11:02:53Z</time>
      </trkpt>
      <trkpt lat="45.87732" lon="4.71037">
        <ele>220</ele>
        <time>2018-03-16T11:02:54Z</time>
      </trkpt>
      <trkpt lat="45.8774" lon="4.71033">
        <ele>220</ele>
        <time>2018-03-16T11:02:56Z</time>
      </trkpt>
      <trkpt lat="45.87745" lon="4.71031">
        <ele>220</ele>
        <time>2018-03-16T11:02:57Z</time>
      </trkpt>
      <trkpt lat="45.87753" lon="4.71028">
        <ele>222</ele>
        <time>2018-03-16T11:02:59Z</time>
      </trkpt>
      <trkpt lat="45.87758" lon="4.71027">
        <ele>222</ele>
        <time>2018-03-16T11:03:00Z</time>
      </trkpt>
      <trkpt lat="45.87762" lon="4.71025">
        <ele>222</ele>
        <time>2018-03-16T11:03:01Z</time>
      </trkpt>
      <trkpt lat="45.87767" lon="4.71023">
        <ele>222</ele>
        <time>2018-03-16T11:03:02Z</time>
      </trkpt>
      <trkpt lat="45.87775" lon="4.7102">
        <ele>222</ele>
        <time>2018-03-16T11:03:04Z</time>
      </trkpt>
      <trkpt lat="45.87779" lon="4.71019">
        <ele>222</ele>
        <time>2018-03-16T11:03:05Z</time>
      </trkpt>
      <trkpt lat="45.87787" lon="4.71016">
        <ele>223</ele>
        <time>2018-03-16T11:03:07Z</time>
      </trkpt>
      <trkpt lat="45.87791" lon="4.71014">
        <ele>223</ele>
        <time>2018-03-16T11:03:08Z</time>
      </trkpt>
      <trkpt lat="45.878" lon="4.71011">
        <ele>223</ele>
        <time>2018-03-16T11:03:10Z</time>
      </trkpt>
      <trkpt lat="45.87804" lon="4.71009">
        <ele>223</ele>
        <time>2018-03-16T11:03:11Z</time>
      </trkpt>
      <trkpt lat="45.87812" lon="4.71006">
        <ele>223</ele>
        <time>2018-03-16T11:03:13Z</time>
      </trkpt>
      <trkpt lat="45.87816" lon="4.71005">
        <ele>223</ele>
        <time>2018-03-16T11:03:14Z</time>
      </trkpt>
      <trkpt lat="45.87824" lon="4.71002">
        <ele>224</ele>
        <time>2018-03-16T11:03:16Z</time>
      </trkpt>
      <trkpt lat="45.87828" lon="4.71">
        <ele>224</ele>
        <time>2018-03-16T11:03:17Z</time>
      </trkpt>
      <trkpt lat="45.87836" lon="4.70996">
        <ele>224</ele>
        <time>2018-03-16T11:03:19Z</time>
      </trkpt>
      <trkpt lat="45.8784" lon="4.70994">
        <ele>224</ele>
        <time>2018-03-16T11:03:20Z</time>
      </trkpt>
      <trkpt lat="45.87847" lon="4.70989">
        <ele>224</ele>
        <time>2018-03-16T11:03:22Z</time>
      </trkpt>
      <trkpt lat="45.87851" lon="4.70987">
        <ele>224</ele>
        <time>2018-03-16T11:03:23Z</time>
      </trkpt>
      <trkpt lat="45.87858" lon="4.70984">
        <ele>224</ele>
        <time>2018-03-16T11:03:25Z</time>
      </trkpt>
      <trkpt lat="45.87861" lon="4.70982">
        <ele>224</ele>
        <time>2018-03-16T11:03:26Z</time>
      </trkpt>
      <trkpt lat="45.87867" lon="4.70978">
        <ele>225</ele>
        <time>2018-03-16T11:03:28Z</time>
      </trkpt>
      <trkpt lat="45.8787" lon="4.70975">
        <ele>225</ele>
        <time>2018-03-16T11:03:29Z</time>
      </trkpt>
      <trkpt lat="45.87877" lon="4.7097">
        <ele>225</ele>
        <time>2018-03-16T11:03:31Z</time>
      </trkpt>
      <trkpt lat="45.8788" lon="4.70968">
        <ele>225</ele>
        <time>2018-03-16T11:03:32Z</time>
      </trkpt>
      <trkpt lat="45.87884" lon="4.70966">
        <ele>225</ele>
        <time>2018-03-16T11:03:34Z</time>
      </trkpt>
      <trkpt lat="45.8789" lon="4.70962">
        <ele>225</ele>
        <time>2018-03-16T11:03:35Z</time>
      </trkpt>
      <trkpt lat="45.87896" lon="4.70958">
        <ele>225</ele>
        <time>2018-03-16T11:03:37Z</time>
      </trkpt>
      <trkpt lat="45.87899" lon="4.70955">
        <ele>225</ele>
        <time>2018-03-16T11:03:38Z</time>
      </trkpt>
      <trkpt lat="45.87906" lon="4.7095">
        <ele>225</ele>
        <time>2018-03-16T11:03:40Z</time>
      </trkpt>
      <trkpt lat="45.8791" lon="4.70948">
        <ele>225</ele>
        <time>2018-03-16T11:03:41Z</time>
      </trkpt>
      <trkpt lat="45.87917" lon="4.70944">
        <ele>224</ele>
        <time>2018-03-16T11:03:43Z</time>
      </trkpt>
      <trkpt lat="45.87918" lon="4.70943">
        <ele>225</ele>
        <time>2018-03-16T11:03:44Z</time>
      </trkpt>
      <trkpt lat="45.87923" lon="4.7094">
        <ele>225</ele>
        <time>2018-03-16T11:03:45Z</time>
      </trkpt>
      <trkpt lat="45.87927" lon="4.70937">
        <ele>225</ele>
        <time>2018-03-16T11:03:46Z</time>
      </trkpt>
      <trkpt lat="45.87933" lon="4.70933">
        <ele>225</ele>
        <time>2018-03-16T11:03:48Z</time>
      </trkpt>
      <trkpt lat="45.87937" lon="4.70931">
        <ele>225</ele>
        <time>2018-03-16T11:03:49Z</time>
      </trkpt>
      <trkpt lat="45.87944" lon="4.70926">
        <ele>225</ele>
        <time>2018-03-16T11:03:51Z</time>
      </trkpt>
      <trkpt lat="45.87947" lon="4.70924">
        <ele>225</ele>
        <time>2018-03-16T11:03:52Z</time>
      </trkpt>
      <trkpt lat="45.87954" lon="4.70919">
        <ele>225</ele>
        <time>2018-03-16T11:03:54Z</time>
      </trkpt>
      <trkpt lat="45.87958" lon="4.70916">
        <ele>224</ele>
        <time>2018-03-16T11:03:55Z</time>
      </trkpt>
      <trkpt lat="45.87964" lon="4.70911">
        <ele>225</ele>
        <time>2018-03-16T11:03:57Z</time>
      </trkpt>
      <trkpt lat="45.87967" lon="4.7091">
        <ele>225</ele>
        <time>2018-03-16T11:03:58Z</time>
      </trkpt>
      <trkpt lat="45.87974" lon="4.70907">
        <ele>225</ele>
        <time>2018-03-16T11:04:00Z</time>
      </trkpt>
      <trkpt lat="45.87977" lon="4.70905">
        <ele>225</ele>
        <time>2018-03-16T11:04:01Z</time>
      </trkpt>
      <trkpt lat="45.87984" lon="4.70901">
        <ele>225</ele>
        <time>2018-03-16T11:04:03Z</time>
      </trkpt>
      <trkpt lat="45.87988" lon="4.70899">
        <ele>225</ele>
        <time>2018-03-16T11:04:04Z</time>
      </trkpt>
      <trkpt lat="45.87995" lon="4.70894">
        <ele>225</ele>
        <time>2018-03-16T11:04:06Z</time>
      </trkpt>
      <trkpt lat="45.87998" lon="4.70891">
        <ele>225</ele>
        <time>2018-03-16T11:04:07Z</time>
      </trkpt>
      <trkpt lat="45.88005" lon="4.70886">
        <ele>226</ele>
        <time>2018-03-16T11:04:09Z</time>
      </trkpt>
      <trkpt lat="45.88008" lon="4.70884">
        <ele>226</ele>
        <time>2018-03-16T11:04:10Z</time>
      </trkpt>
      <trkpt lat="45.88015" lon="4.7088">
        <ele>226</ele>
        <time>2018-03-16T11:04:12Z</time>
      </trkpt>
      <trkpt lat="45.88017" lon="4.70878">
        <ele>226</ele>
        <time>2018-03-16T11:04:13Z</time>
      </trkpt>
      <trkpt lat="45.88022" lon="4.70875">
        <ele>226</ele>
        <time>2018-03-16T11:04:14Z</time>
      </trkpt>
      <trkpt lat="45.88026" lon="4.70872">
        <ele>226</ele>
        <time>2018-03-16T11:04:15Z</time>
      </trkpt>
      <trkpt lat="45.88032" lon="4.70867">
        <ele>226</ele>
        <time>2018-03-16T11:04:17Z</time>
      </trkpt>
      <trkpt lat="45.88036" lon="4.70865">
        <ele>226</ele>
        <time>2018-03-16T11:04:18Z</time>
      </trkpt>
      <trkpt lat="45.88043" lon="4.7086">
        <ele>227</ele>
        <time>2018-03-16T11:04:20Z</time>
      </trkpt>
      <trkpt lat="45.88046" lon="4.70857">
        <ele>227</ele>
        <time>2018-03-16T11:04:21Z</time>
      </trkpt>
      <trkpt lat="45.88054" lon="4.70852">
        <ele>227</ele>
        <time>2018-03-16T11:04:23Z</time>
      </trkpt>
      <trkpt lat="45.88058" lon="4.70849">
        <ele>227</ele>
        <time>2018-03-16T11:04:24Z</time>
      </trkpt>
      <trkpt lat="45.88065" lon="4.70844">
        <ele>227</ele>
        <time>2018-03-16T11:04:26Z</time>
      </trkpt>
      <trkpt lat="45.88068" lon="4.70841">
        <ele>228</ele>
        <time>2018-03-16T11:04:27Z</time>
      </trkpt>
      <trkpt lat="45.88076" lon="4.70836">
        <ele>228</ele>
        <time>2018-03-16T11:04:29Z</time>
      </trkpt>
      <trkpt lat="45.88079" lon="4.70835">
        <ele>229</ele>
        <time>2018-03-16T11:04:30Z</time>
      </trkpt>
      <trkpt lat="45.88087" lon="4.70834">
        <ele>229</ele>
        <time>2018-03-16T11:04:32Z</time>
      </trkpt>
      <trkpt lat="45.88091" lon="4.70836">
        <ele>229</ele>
        <time>2018-03-16T11:04:33Z</time>
      </trkpt>
      <trkpt lat="45.881" lon="4.70841">
        <ele>229</ele>
        <time>2018-03-16T11:04:35Z</time>
      </trkpt>
      <trkpt lat="45.88104" lon="4.70843">
        <ele>229</ele>
        <time>2018-03-16T11:04:36Z</time>
      </trkpt>
      <trkpt lat="45.88112" lon="4.70841">
        <ele>229</ele>
        <time>2018-03-16T11:04:38Z</time>
      </trkpt>
      <trkpt lat="45.88115" lon="4.70837">
        <ele>229</ele>
        <time>2018-03-16T11:04:39Z</time>
      </trkpt>
      <trkpt lat="45.8812" lon="4.70826">
        <ele>230</ele>
        <time>2018-03-16T11:04:43Z</time>
      </trkpt>
      <trkpt lat="45.88121" lon="4.70823">
        <ele>230</ele>
        <time>2018-03-16T11:04:44Z</time>
      </trkpt>
      <trkpt lat="45.88127" lon="4.70813">
        <ele>230</ele>
        <time>2018-03-16T11:04:47Z</time>
      </trkpt>
      <trkpt lat="45.8813" lon="4.7081">
        <ele>230</ele>
        <time>2018-03-16T11:04:48Z</time>
      </trkpt>
      <trkpt lat="45.88134" lon="4.70805">
        <ele>231</ele>
        <time>2018-03-16T11:04:50Z</time>
      </trkpt>
      <trkpt lat="45.88137" lon="4.70802">
        <ele>231</ele>
        <time>2018-03-16T11:04:51Z</time>
      </trkpt>
      <trkpt lat="45.88142" lon="4.70796">
        <ele>231</ele>
        <time>2018-03-16T11:04:53Z</time>
      </trkpt>
      <trkpt lat="45.88144" lon="4.70794">
        <ele>231</ele>
        <time>2018-03-16T11:04:54Z</time>
      </trkpt>
      <trkpt lat="45.8815" lon="4.70789">
        <ele>231</ele>
        <time>2018-03-16T11:04:56Z</time>
      </trkpt>
      <trkpt lat="45.88152" lon="4.70786">
        <ele>231</ele>
        <time>2018-03-16T11:04:57Z</time>
      </trkpt>
      <trkpt lat="45.88158" lon="4.70782">
        <ele>231</ele>
        <time>2018-03-16T11:04:59Z</time>
      </trkpt>
      <trkpt lat="45.88161" lon="4.7078">
        <ele>231</ele>
        <time>2018-03-16T11:05:00Z</time>
      </trkpt>
      <trkpt lat="45.8817" lon="4.70774">
        <ele>232</ele>
        <time>2018-03-16T11:05:01Z</time>
      </trkpt>
      <trkpt lat="45.88177" lon="4.70769">
        <ele>232</ele>
        <time>2018-03-16T11:05:04Z</time>
      </trkpt>
      <trkpt lat="45.88183" lon="4.70765">
        <ele>232</ele>
        <time>2018-03-16T11:05:05Z</time>
      </trkpt>
      <trkpt lat="45.88187" lon="4.70763">
        <ele>232</ele>
        <time>2018-03-16T11:05:07Z</time>
      </trkpt>
      <trkpt lat="45.88193" lon="4.70759">
        <ele>232</ele>
        <time>2018-03-16T11:05:08Z</time>
      </trkpt>
      <trkpt lat="45.88199" lon="4.70755">
        <ele>232</ele>
        <time>2018-03-16T11:05:11Z</time>
      </trkpt>
      <trkpt lat="45.88201" lon="4.70753">
        <ele>232</ele>
        <time>2018-03-16T11:05:12Z</time>
      </trkpt>
      <trkpt lat="45.88204" lon="4.70751">
        <ele>232</ele>
        <time>2018-03-16T11:05:13Z</time>
      </trkpt>
      <trkpt lat="45.88211" lon="4.70746">
        <ele>235</ele>
        <time>2018-03-16T11:05:14Z</time>
      </trkpt>
      <trkpt lat="45.88219" lon="4.70741">
        <ele>235</ele>
        <time>2018-03-16T11:05:16Z</time>
      </trkpt>
      <trkpt lat="45.88222" lon="4.70738">
        <ele>235</ele>
        <time>2018-03-16T11:05:17Z</time>
      </trkpt>
      <trkpt lat="45.8823" lon="4.70733">
        <ele>235</ele>
        <time>2018-03-16T11:05:19Z</time>
      </trkpt>
      <trkpt lat="45.88234" lon="4.7073">
        <ele>235</ele>
        <time>2018-03-16T11:05:20Z</time>
      </trkpt>
      <trkpt lat="45.88242" lon="4.70724">
        <ele>235</ele>
        <time>2018-03-16T11:05:22Z</time>
      </trkpt>
      <trkpt lat="45.88246" lon="4.70721">
        <ele>235</ele>
        <time>2018-03-16T11:05:23Z</time>
      </trkpt>
      <trkpt lat="45.8825" lon="4.70718">
        <ele>235</ele>
        <time>2018-03-16T11:05:24Z</time>
      </trkpt>
      <trkpt lat="45.88254" lon="4.70714">
        <ele>234</ele>
        <time>2018-03-16T11:05:25Z</time>
      </trkpt>
      <trkpt lat="45.8826" lon="4.70708">
        <ele>235</ele>
        <time>2018-03-16T11:05:27Z</time>
      </trkpt>
      <trkpt lat="45.88264" lon="4.70703">
        <ele>235</ele>
        <time>2018-03-16T11:05:28Z</time>
      </trkpt>
      <trkpt lat="45.88269" lon="4.707">
        <ele>235</ele>
        <time>2018-03-16T11:05:29Z</time>
      </trkpt>
      <trkpt lat="45.88273" lon="4.70696">
        <ele>235</ele>
        <time>2018-03-16T11:05:30Z</time>
      </trkpt>
      <trkpt lat="45.88281" lon="4.70691">
        <ele>235</ele>
        <time>2018-03-16T11:05:32Z</time>
      </trkpt>
      <trkpt lat="45.88285" lon="4.70687">
        <ele>235</ele>
        <time>2018-03-16T11:05:33Z</time>
      </trkpt>
      <trkpt lat="45.88289" lon="4.70685">
        <ele>235</ele>
        <time>2018-03-16T11:05:34Z</time>
      </trkpt>
      <trkpt lat="45.88293" lon="4.70682">
        <ele>235</ele>
        <time>2018-03-16T11:05:35Z</time>
      </trkpt>
      <trkpt lat="45.883" lon="4.70676">
        <ele>235</ele>
        <time>2018-03-16T11:05:37Z</time>
      </trkpt>
      <trkpt lat="45.88304" lon="4.70674">
        <ele>235</ele>
        <time>2018-03-16T11:05:38Z</time>
      </trkpt>
      <trkpt lat="45.88309" lon="4.7067">
        <ele>235</ele>
        <time>2018-03-16T11:05:39Z</time>
      </trkpt>
      <trkpt lat="45.88313" lon="4.70667">
        <ele>237</ele>
        <time>2018-03-16T11:05:40Z</time>
      </trkpt>
      <trkpt lat="45.88318" lon="4.70664">
        <ele>237</ele>
        <time>2018-03-16T11:05:41Z</time>
      </trkpt>
      <trkpt lat="45.88322" lon="4.70661">
        <ele>237</ele>
        <time>2018-03-16T11:05:42Z</time>
      </trkpt>
      <trkpt lat="45.88326" lon="4.70657">
        <ele>237</ele>
        <time>2018-03-16T11:05:43Z</time>
      </trkpt>
      <trkpt lat="45.88331" lon="4.70653">
        <ele>237</ele>
        <time>2018-03-16T11:05:44Z</time>
      </trkpt>
      <trkpt lat="45.88336" lon="4.70649">
        <ele>235</ele>
        <time>2018-03-16T11:05:45Z</time>
      </trkpt>
      <trkpt lat="45.88341" lon="4.70644">
        <ele>235</ele>
        <time>2018-03-16T11:05:46Z</time>
      </trkpt>
      <trkpt lat="45.88346" lon="4.7064">
        <ele>235</ele>
        <time>2018-03-16T11:05:47Z</time>
      </trkpt>
      <trkpt lat="45.88351" lon="4.70637">
        <ele>235</ele>
        <time>2018-03-16T11:05:48Z</time>
      </trkpt>
      <trkpt lat="45.88359" lon="4.7063">
        <ele>235</ele>
        <time>2018-03-16T11:05:50Z</time>
      </trkpt>
      <trkpt lat="45.88363" lon="4.70627">
        <ele>235</ele>
        <time>2018-03-16T11:05:51Z</time>
      </trkpt>
      <trkpt lat="45.88369" lon="4.70622">
        <ele>235</ele>
        <time>2018-03-16T11:05:52Z</time>
      </trkpt>
      <trkpt lat="45.88373" lon="4.70617">
        <ele>235</ele>
        <time>2018-03-16T11:05:53Z</time>
      </trkpt>
      <trkpt lat="45.88379" lon="4.70612">
        <ele>235</ele>
        <time>2018-03-16T11:05:54Z</time>
      </trkpt>
      <trkpt lat="45.88384" lon="4.70608">
        <ele>235</ele>
        <time>2018-03-16T11:05:55Z</time>
      </trkpt>
      <trkpt lat="45.88389" lon="4.70604">
        <ele>235</ele>
        <time>2018-03-16T11:05:56Z</time>
      </trkpt>
      <trkpt lat="45.88395" lon="4.70598">
        <ele>235</ele>
        <time>2018-03-16T11:05:57Z</time>
      </trkpt>
      <trkpt lat="45.884" lon="4.70595">
        <ele>235</ele>
        <time>2018-03-16T11:05:58Z</time>
      </trkpt>
      <trkpt lat="45.88405" lon="4.70592">
        <ele>235</ele>
        <time>2018-03-16T11:05:59Z</time>
      </trkpt>
      <trkpt lat="45.88411" lon="4.70588">
        <ele>235</ele>
        <time>2018-03-16T11:06:00Z</time>
      </trkpt>
      <trkpt lat="45.88416" lon="4.70585">
        <ele>235</ele>
        <time>2018-03-16T11:06:01Z</time>
      </trkpt>
      <trkpt lat="45.8842" lon="4.70579">
        <ele>235</ele>
        <time>2018-03-16T11:06:02Z</time>
      </trkpt>
      <trkpt lat="45.88428" lon="4.70573">
        <ele>235</ele>
        <time>2018-03-16T11:06:03Z</time>
      </trkpt>
      <trkpt lat="45.88432" lon="4.70569">
        <ele>235</ele>
        <time>2018-03-16T11:06:04Z</time>
      </trkpt>
      <trkpt lat="45.88437" lon="4.70566">
        <ele>234</ele>
        <time>2018-03-16T11:06:05Z</time>
      </trkpt>
      <trkpt lat="45.88442" lon="4.7056">
        <ele>234</ele>
        <time>2018-03-16T11:06:06Z</time>
      </trkpt>
      <trkpt lat="45.88448" lon="4.70557">
        <ele>234</ele>
        <time>2018-03-16T11:06:07Z</time>
      </trkpt>
      <trkpt lat="45.88454" lon="4.70554">
        <ele>234</ele>
        <time>2018-03-16T11:06:08Z</time>
      </trkpt>
      <trkpt lat="45.88459" lon="4.7055">
        <ele>234</ele>
        <time>2018-03-16T11:06:09Z</time>
      </trkpt>
      <trkpt lat="45.88465" lon="4.70546">
        <ele>234</ele>
        <time>2018-03-16T11:06:10Z</time>
      </trkpt>
      <trkpt lat="45.8847" lon="4.70543">
        <ele>234</ele>
        <time>2018-03-16T11:06:11Z</time>
      </trkpt>
      <trkpt lat="45.88476" lon="4.70536">
        <ele>234</ele>
        <time>2018-03-16T11:06:12Z</time>
      </trkpt>
      <trkpt lat="45.88483" lon="4.7053">
        <ele>234</ele>
        <time>2018-03-16T11:06:13Z</time>
      </trkpt>
      <trkpt lat="45.88489" lon="4.70526">
        <ele>234</ele>
        <time>2018-03-16T11:06:14Z</time>
      </trkpt>
      <trkpt lat="45.88496" lon="4.70521">
        <ele>233</ele>
        <time>2018-03-16T11:06:15Z</time>
      </trkpt>
      <trkpt lat="45.88501" lon="4.70515">
        <ele>231</ele>
        <time>2018-03-16T11:06:16Z</time>
      </trkpt>
      <trkpt lat="45.88506" lon="4.70509">
        <ele>231</ele>
        <time>2018-03-16T11:06:17Z</time>
      </trkpt>
      <trkpt lat="45.88512" lon="4.70504">
        <ele>231</ele>
        <time>2018-03-16T11:06:18Z</time>
      </trkpt>
      <trkpt lat="45.88518" lon="4.705">
        <ele>233</ele>
        <time>2018-03-16T11:06:19Z</time>
      </trkpt>
      <trkpt lat="45.88524" lon="4.70495">
        <ele>232</ele>
        <time>2018-03-16T11:06:20Z</time>
      </trkpt>
      <trkpt lat="45.88529" lon="4.70491">
        <ele>232</ele>
        <time>2018-03-16T11:06:21Z</time>
      </trkpt>
      <trkpt lat="45.88536" lon="4.70486">
        <ele>232</ele>
        <time>2018-03-16T11:06:22Z</time>
      </trkpt>
      <trkpt lat="45.88541" lon="4.70483">
        <ele>232</ele>
        <time>2018-03-16T11:06:23Z</time>
      </trkpt>
      <trkpt lat="45.88547" lon="4.70478">
        <ele>232</ele>
        <time>2018-03-16T11:06:24Z</time>
      </trkpt>
      <trkpt lat="45.88553" lon="4.70474">
        <ele>232</ele>
        <time>2018-03-16T11:06:25Z</time>
      </trkpt>
      <trkpt lat="45.88558" lon="4.7047">
        <ele>231</ele>
        <time>2018-03-16T11:06:26Z</time>
      </trkpt>
      <trkpt lat="45.88563" lon="4.70466">
        <ele>231</ele>
        <time>2018-03-16T11:06:27Z</time>
      </trkpt>
      <trkpt lat="45.88569" lon="4.70462">
        <ele>231</ele>
        <time>2018-03-16T11:06:28Z</time>
      </trkpt>
      <trkpt lat="45.88574" lon="4.70457">
        <ele>232</ele>
        <time>2018-03-16T11:06:29Z</time>
      </trkpt>
      <trkpt lat="45.8858" lon="4.70453">
        <ele>232</ele>
        <time>2018-03-16T11:06:30Z</time>
      </trkpt>
      <trkpt lat="45.88586" lon="4.70449">
        <ele>228</ele>
        <time>2018-03-16T11:06:31Z</time>
      </trkpt>
      <trkpt lat="45.88592" lon="4.70443">
        <ele>229</ele>
        <time>2018-03-16T11:06:32Z</time>
      </trkpt>
      <trkpt lat="45.88597" lon="4.70438">
        <ele>229</ele>
        <time>2018-03-16T11:06:33Z</time>
      </trkpt>
      <trkpt lat="45.88603" lon="4.70434">
        <ele>229</ele>
        <time>2018-03-16T11:06:34Z</time>
      </trkpt>
      <trkpt lat="45.88609" lon="4.70429">
        <ele>228</ele>
        <time>2018-03-16T11:06:35Z</time>
      </trkpt>
      <trkpt lat="45.88615" lon="4.70425">
        <ele>228</ele>
        <time>2018-03-16T11:06:36Z</time>
      </trkpt>
      <trkpt lat="45.88621" lon="4.70421">
        <ele>228</ele>
        <time>2018-03-16T11:06:37Z</time>
      </trkpt>
      <trkpt lat="45.88626" lon="4.70416">
        <ele>231</ele>
        <time>2018-03-16T11:06:38Z</time>
      </trkpt>
      <trkpt lat="45.88632" lon="4.70411">
        <ele>230</ele>
        <time>2018-03-16T11:06:39Z</time>
      </trkpt>
      <trkpt lat="45.88638" lon="4.70406">
        <ele>230</ele>
        <time>2018-03-16T11:06:40Z</time>
      </trkpt>
      <trkpt lat="45.88643" lon="4.704">
        <ele>230</ele>
        <time>2018-03-16T11:06:41Z</time>
      </trkpt>
      <trkpt lat="45.88649" lon="4.70395">
        <ele>230</ele>
        <time>2018-03-16T11:06:42Z</time>
      </trkpt>
      <trkpt lat="45.88655" lon="4.7039">
        <ele>230</ele>
        <time>2018-03-16T11:06:43Z</time>
      </trkpt>
      <trkpt lat="45.8866" lon="4.70386">
        <ele>230</ele>
        <time>2018-03-16T11:06:44Z</time>
      </trkpt>
      <trkpt lat="45.88665" lon="4.70382">
        <ele>230</ele>
        <time>2018-03-16T11:06:45Z</time>
      </trkpt>
      <trkpt lat="45.88671" lon="4.70378">
        <ele>228</ele>
        <time>2018-03-16T11:06:46Z</time>
      </trkpt>
      <trkpt lat="45.88677" lon="4.70374">
        <ele>229</ele>
        <time>2018-03-16T11:06:47Z</time>
      </trkpt>
      <trkpt lat="45.88682" lon="4.70369">
        <ele>229</ele>
        <time>2018-03-16T11:06:48Z</time>
      </trkpt>
      <trkpt lat="45.88688" lon="4.70366">
        <ele>229</ele>
        <time>2018-03-16T11:06:49Z</time>
      </trkpt>
      <trkpt lat="45.88693" lon="4.70362">
        <ele>229</ele>
        <time>2018-03-16T11:06:50Z</time>
      </trkpt>
      <trkpt lat="45.88699" lon="4.70358">
        <ele>229</ele>
        <time>2018-03-16T11:06:51Z</time>
      </trkpt>
      <trkpt lat="45.88705" lon="4.70354">
        <ele>229</ele>
        <time>2018-03-16T11:06:52Z</time>
      </trkpt>
      <trkpt lat="45.88711" lon="4.70349">
        <ele>229</ele>
        <time>2018-03-16T11:06:53Z</time>
      </trkpt>
      <trkpt lat="45.88716" lon="4.70345">
        <ele>229</ele>
        <time>2018-03-16T11:06:54Z</time>
      </trkpt>
      <trkpt lat="45.88722" lon="4.70341">
        <ele>229</ele>
        <time>2018-03-16T11:06:55Z</time>
      </trkpt>
      <trkpt lat="45.88726" lon="4.70335">
        <ele>229</ele>
        <time>2018-03-16T11:06:56Z</time>
      </trkpt>
      <trkpt lat="45.88732" lon="4.7033">
        <ele>232</ele>
        <time>2018-03-16T11:06:57Z</time>
      </trkpt>
      <trkpt lat="45.88737" lon="4.70326">
        <ele>232</ele>
        <time>2018-03-16T11:06:58Z</time>
      </trkpt>
      <trkpt lat="45.88745" lon="4.70322">
        <ele>232</ele>
        <time>2018-03-16T11:06:59Z</time>
      </trkpt>
      <trkpt lat="45.8875" lon="4.70317">
        <ele>231</ele>
        <time>2018-03-16T11:07:00Z</time>
      </trkpt>
      <trkpt lat="45.88755" lon="4.70311">
        <ele>232</ele>
        <time>2018-03-16T11:07:01Z</time>
      </trkpt>
      <trkpt lat="45.8876" lon="4.70308">
        <ele>232</ele>
        <time>2018-03-16T11:07:02Z</time>
      </trkpt>
      <trkpt lat="45.88766" lon="4.70303">
        <ele>233</ele>
        <time>2018-03-16T11:07:03Z</time>
      </trkpt>
      <trkpt lat="45.8877" lon="4.703">
        <ele>233</ele>
        <time>2018-03-16T11:07:04Z</time>
      </trkpt>
      <trkpt lat="45.88776" lon="4.70296">
        <ele>233</ele>
        <time>2018-03-16T11:07:05Z</time>
      </trkpt>
      <trkpt lat="45.8878" lon="4.70292">
        <ele>234</ele>
        <time>2018-03-16T11:07:06Z</time>
      </trkpt>
      <trkpt lat="45.88785" lon="4.70288">
        <ele>234</ele>
        <time>2018-03-16T11:07:07Z</time>
      </trkpt>
      <trkpt lat="45.8879" lon="4.70284">
        <ele>234</ele>
        <time>2018-03-16T11:07:08Z</time>
      </trkpt>
      <trkpt lat="45.88795" lon="4.7028">
        <ele>234</ele>
        <time>2018-03-16T11:07:09Z</time>
      </trkpt>
      <trkpt lat="45.888" lon="4.70276">
        <ele>234</ele>
        <time>2018-03-16T11:07:10Z</time>
      </trkpt>
      <trkpt lat="45.88805" lon="4.70272">
        <ele>235</ele>
        <time>2018-03-16T11:07:11Z</time>
      </trkpt>
      <trkpt lat="45.88809" lon="4.70269">
        <ele>235</ele>
        <time>2018-03-16T11:07:12Z</time>
      </trkpt>
      <trkpt lat="45.88813" lon="4.70265">
        <ele>235</ele>
        <time>2018-03-16T11:07:13Z</time>
      </trkpt>
      <trkpt lat="45.88818" lon="4.70261">
        <ele>235</ele>
        <time>2018-03-16T11:07:14Z</time>
      </trkpt>
      <trkpt lat="45.88823" lon="4.70257">
        <ele>236</ele>
        <time>2018-03-16T11:07:15Z</time>
      </trkpt>
      <trkpt lat="45.88829" lon="4.70254">
        <ele>236</ele>
        <time>2018-03-16T11:07:16Z</time>
      </trkpt>
      <trkpt lat="45.88833" lon="4.7025">
        <ele>237</ele>
        <time>2018-03-16T11:07:17Z</time>
      </trkpt>
      <trkpt lat="45.88838" lon="4.70247">
        <ele>237</ele>
        <time>2018-03-16T11:07:18Z</time>
      </trkpt>
      <trkpt lat="45.88844" lon="4.70243">
        <ele>238</ele>
        <time>2018-03-16T11:07:19Z</time>
      </trkpt>
      <trkpt lat="45.88848" lon="4.70241">
        <ele>238</ele>
        <time>2018-03-16T11:07:20Z</time>
      </trkpt>
      <trkpt lat="45.88853" lon="4.70238">
        <ele>238</ele>
        <time>2018-03-16T11:07:21Z</time>
      </trkpt>
      <trkpt lat="45.88858" lon="4.70235">
        <ele>238</ele>
        <time>2018-03-16T11:07:22Z</time>
      </trkpt>
      <trkpt lat="45.88863" lon="4.70233">
        <ele>238</ele>
        <time>2018-03-16T11:07:23Z</time>
      </trkpt>
      <trkpt lat="45.88867" lon="4.70227">
        <ele>238</ele>
        <time>2018-03-16T11:07:24Z</time>
      </trkpt>
      <trkpt lat="45.88873" lon="4.70224">
        <ele>238</ele>
        <time>2018-03-16T11:07:25Z</time>
      </trkpt>
      <trkpt lat="45.88878" lon="4.70221">
        <ele>238</ele>
        <time>2018-03-16T11:07:26Z</time>
      </trkpt>
      <trkpt lat="45.88885" lon="4.70219">
        <ele>238</ele>
        <time>2018-03-16T11:07:27Z</time>
      </trkpt>
      <trkpt lat="45.88891" lon="4.70217">
        <ele>238</ele>
        <time>2018-03-16T11:07:28Z</time>
      </trkpt>
      <trkpt lat="45.88897" lon="4.70214">
        <ele>238</ele>
        <time>2018-03-16T11:07:29Z</time>
      </trkpt>
      <trkpt lat="45.88903" lon="4.70212">
        <ele>238</ele>
        <time>2018-03-16T11:07:30Z</time>
      </trkpt>
      <trkpt lat="45.88908" lon="4.70208">
        <ele>239</ele>
        <time>2018-03-16T11:07:31Z</time>
      </trkpt>
      <trkpt lat="45.88913" lon="4.70204">
        <ele>239</ele>
        <time>2018-03-16T11:07:32Z</time>
      </trkpt>
      <trkpt lat="45.88918" lon="4.70201">
        <ele>235</ele>
        <time>2018-03-16T11:07:33Z</time>
      </trkpt>
      <trkpt lat="45.88924" lon="4.70198">
        <ele>235</ele>
        <time>2018-03-16T11:07:34Z</time>
      </trkpt>
      <trkpt lat="45.88929" lon="4.70195">
        <ele>235</ele>
        <time>2018-03-16T11:07:35Z</time>
      </trkpt>
      <trkpt lat="45.88934" lon="4.70192">
        <ele>235</ele>
        <time>2018-03-16T11:07:36Z</time>
      </trkpt>
      <trkpt lat="45.88939" lon="4.7019">
        <ele>235</ele>
        <time>2018-03-16T11:07:37Z</time>
      </trkpt>
      <trkpt lat="45.88944" lon="4.70187">
        <ele>235</ele>
        <time>2018-03-16T11:07:38Z</time>
      </trkpt>
      <trkpt lat="45.88948" lon="4.70185">
        <ele>235</ele>
        <time>2018-03-16T11:07:39Z</time>
      </trkpt>
      <trkpt lat="45.88953" lon="4.70182">
        <ele>234</ele>
        <time>2018-03-16T11:07:40Z</time>
      </trkpt>
      <trkpt lat="45.88958" lon="4.7018">
        <ele>234</ele>
        <time>2018-03-16T11:07:41Z</time>
      </trkpt>
      <trkpt lat="45.88964" lon="4.70178">
        <ele>234</ele>
        <time>2018-03-16T11:07:42Z</time>
      </trkpt>
      <trkpt lat="45.88969" lon="4.70175">
        <ele>233</ele>
        <time>2018-03-16T11:07:43Z</time>
      </trkpt>
      <trkpt lat="45.88976" lon="4.70169">
        <ele>233</ele>
        <time>2018-03-16T11:07:44Z</time>
      </trkpt>
      <trkpt lat="45.88981" lon="4.70166">
        <ele>235</ele>
        <time>2018-03-16T11:07:45Z</time>
      </trkpt>
      <trkpt lat="45.88987" lon="4.70163">
        <ele>235</ele>
        <time>2018-03-16T11:07:46Z</time>
      </trkpt>
      <trkpt lat="45.88992" lon="4.7016">
        <ele>234</ele>
        <time>2018-03-16T11:07:47Z</time>
      </trkpt>
      <trkpt lat="45.88997" lon="4.70157">
        <ele>234</ele>
        <time>2018-03-16T11:07:48Z</time>
      </trkpt>
      <trkpt lat="45.89003" lon="4.70153">
        <ele>232</ele>
        <time>2018-03-16T11:07:49Z</time>
      </trkpt>
      <trkpt lat="45.89007" lon="4.7015">
        <ele>232</ele>
        <time>2018-03-16T11:07:50Z</time>
      </trkpt>
      <trkpt lat="45.89013" lon="4.70147">
        <ele>232</ele>
        <time>2018-03-16T11:07:51Z</time>
      </trkpt>
      <trkpt lat="45.89017" lon="4.70144">
        <ele>231</ele>
        <time>2018-03-16T11:07:52Z</time>
      </trkpt>
      <trkpt lat="45.89022" lon="4.70141">
        <ele>231</ele>
        <time>2018-03-16T11:07:53Z</time>
      </trkpt>
      <trkpt lat="45.89027" lon="4.70137">
        <ele>231</ele>
        <time>2018-03-16T11:07:54Z</time>
      </trkpt>
      <trkpt lat="45.89033" lon="4.70134">
        <ele>231</ele>
        <time>2018-03-16T11:07:55Z</time>
      </trkpt>
      <trkpt lat="45.89039" lon="4.70131">
        <ele>231</ele>
        <time>2018-03-16T11:07:56Z</time>
      </trkpt>
      <trkpt lat="45.89043" lon="4.70129">
        <ele>231</ele>
        <time>2018-03-16T11:07:57Z</time>
      </trkpt>
      <trkpt lat="45.89048" lon="4.70126">
        <ele>231</ele>
        <time>2018-03-16T11:07:58Z</time>
      </trkpt>
      <trkpt lat="45.89053" lon="4.70123">
        <ele>231</ele>
        <time>2018-03-16T11:07:59Z</time>
      </trkpt>
      <trkpt lat="45.89058" lon="4.70119">
        <ele>231</ele>
        <time>2018-03-16T11:08:00Z</time>
      </trkpt>
      <trkpt lat="45.89064" lon="4.70115">
        <ele>230</ele>
        <time>2018-03-16T11:08:01Z</time>
      </trkpt>
      <trkpt lat="45.8907" lon="4.70112">
        <ele>230</ele>
        <time>2018-03-16T11:08:02Z</time>
      </trkpt>
      <trkpt lat="45.89075" lon="4.70108">
        <ele>230</ele>
        <time>2018-03-16T11:08:03Z</time>
      </trkpt>
      <trkpt lat="45.89081" lon="4.70105">
        <ele>230</ele>
        <time>2018-03-16T11:08:04Z</time>
      </trkpt>
      <trkpt lat="45.89087" lon="4.70102">
        <ele>228</ele>
        <time>2018-03-16T11:08:05Z</time>
      </trkpt>
      <trkpt lat="45.89094" lon="4.70099">
        <ele>228</ele>
        <time>2018-03-16T11:08:06Z</time>
      </trkpt>
      <trkpt lat="45.891" lon="4.70095">
        <ele>228</ele>
        <time>2018-03-16T11:08:07Z</time>
      </trkpt>
      <trkpt lat="45.89105" lon="4.70092">
        <ele>228</ele>
        <time>2018-03-16T11:08:08Z</time>
      </trkpt>
      <trkpt lat="45.89111" lon="4.70088">
        <ele>228</ele>
        <time>2018-03-16T11:08:09Z</time>
      </trkpt>
      <trkpt lat="45.89118" lon="4.70084">
        <ele>228</ele>
        <time>2018-03-16T11:08:10Z</time>
      </trkpt>
      <trkpt lat="45.89125" lon="4.7008">
        <ele>231</ele>
        <time>2018-03-16T11:08:11Z</time>
      </trkpt>
      <trkpt lat="45.89132" lon="4.70076">
        <ele>231</ele>
        <time>2018-03-16T11:08:12Z</time>
      </trkpt>
      <trkpt lat="45.89139" lon="4.70072">
        <ele>231</ele>
        <time>2018-03-16T11:08:13Z</time>
      </trkpt>
      <trkpt lat="45.89146" lon="4.70069">
        <ele>230</ele>
        <time>2018-03-16T11:08:14Z</time>
      </trkpt>
      <trkpt lat="45.89154" lon="4.70065">
        <ele>230</ele>
        <time>2018-03-16T11:08:15Z</time>
      </trkpt>
      <trkpt lat="45.89161" lon="4.70061">
        <ele>230</ele>
        <time>2018-03-16T11:08:16Z</time>
      </trkpt>
      <trkpt lat="45.89168" lon="4.70057">
        <ele>229</ele>
        <time>2018-03-16T11:08:17Z</time>
      </trkpt>
      <trkpt lat="45.89176" lon="4.70053">
        <ele>229</ele>
        <time>2018-03-16T11:08:18Z</time>
      </trkpt>
      <trkpt lat="45.89182" lon="4.7005">
        <ele>229</ele>
        <time>2018-03-16T11:08:19Z</time>
      </trkpt>
      <trkpt lat="45.89189" lon="4.70047">
        <ele>229</ele>
        <time>2018-03-16T11:08:20Z</time>
      </trkpt>
      <trkpt lat="45.89195" lon="4.70045">
        <ele>229</ele>
        <time>2018-03-16T11:08:21Z</time>
      </trkpt>
      <trkpt lat="45.89201" lon="4.70042">
        <ele>229</ele>
        <time>2018-03-16T11:08:22Z</time>
      </trkpt>
      <trkpt lat="45.89208" lon="4.70037">
        <ele>229</ele>
        <time>2018-03-16T11:08:23Z</time>
      </trkpt>
      <trkpt lat="45.89215" lon="4.70034">
        <ele>229</ele>
        <time>2018-03-16T11:08:24Z</time>
      </trkpt>
      <trkpt lat="45.89221" lon="4.70032">
        <ele>229</ele>
        <time>2018-03-16T11:08:25Z</time>
      </trkpt>
      <trkpt lat="45.89228" lon="4.70029">
        <ele>228</ele>
        <time>2018-03-16T11:08:26Z</time>
      </trkpt>
      <trkpt lat="45.89234" lon="4.70027">
        <ele>228</ele>
        <time>2018-03-16T11:08:27Z</time>
      </trkpt>
      <trkpt lat="45.89241" lon="4.70025">
        <ele>228</ele>
        <time>2018-03-16T11:08:28Z</time>
      </trkpt>
      <trkpt lat="45.89247" lon="4.70023">
        <ele>228</ele>
        <time>2018-03-16T11:08:29Z</time>
      </trkpt>
      <trkpt lat="45.89253" lon="4.70021">
        <ele>227</ele>
        <time>2018-03-16T11:08:30Z</time>
      </trkpt>
      <trkpt lat="45.89258" lon="4.70017">
        <ele>227</ele>
        <time>2018-03-16T11:08:31Z</time>
      </trkpt>
      <trkpt lat="45.89264" lon="4.70015">
        <ele>227</ele>
        <time>2018-03-16T11:08:32Z</time>
      </trkpt>
      <trkpt lat="45.89271" lon="4.70012">
        <ele>227</ele>
        <time>2018-03-16T11:08:33Z</time>
      </trkpt>
      <trkpt lat="45.89277" lon="4.7001">
        <ele>226</ele>
        <time>2018-03-16T11:08:34Z</time>
      </trkpt>
      <trkpt lat="45.89282" lon="4.70007">
        <ele>226</ele>
        <time>2018-03-16T11:08:35Z</time>
      </trkpt>
      <trkpt lat="45.89289" lon="4.70005">
        <ele>226</ele>
        <time>2018-03-16T11:08:36Z</time>
      </trkpt>
      <trkpt lat="45.89295" lon="4.70003">
        <ele>226</ele>
        <time>2018-03-16T11:08:37Z</time>
      </trkpt>
      <trkpt lat="45.89302" lon="4.70002">
        <ele>226</ele>
        <time>2018-03-16T11:08:38Z</time>
      </trkpt>
      <trkpt lat="45.89308" lon="4.69998">
        <ele>228</ele>
        <time>2018-03-16T11:08:39Z</time>
      </trkpt>
      <trkpt lat="45.89314" lon="4.69997">
        <ele>228</ele>
        <time>2018-03-16T11:08:40Z</time>
      </trkpt>
      <trkpt lat="45.8932" lon="4.69995">
        <ele>228</ele>
        <time>2018-03-16T11:08:41Z</time>
      </trkpt>
      <trkpt lat="45.89326" lon="4.69993">
        <ele>227</ele>
        <time>2018-03-16T11:08:42Z</time>
      </trkpt>
      <trkpt lat="45.89333" lon="4.69992">
        <ele>227</ele>
        <time>2018-03-16T11:08:43Z</time>
      </trkpt>
      <trkpt lat="45.89339" lon="4.69991">
        <ele>227</ele>
        <time>2018-03-16T11:08:44Z</time>
      </trkpt>
      <trkpt lat="45.89346" lon="4.69991">
        <ele>227</ele>
        <time>2018-03-16T11:08:45Z</time>
      </trkpt>
      <trkpt lat="45.89353" lon="4.69991">
        <ele>227</ele>
        <time>2018-03-16T11:08:46Z</time>
      </trkpt>
      <trkpt lat="45.89359" lon="4.69992">
        <ele>227</ele>
        <time>2018-03-16T11:08:47Z</time>
      </trkpt>
      <trkpt lat="45.89366" lon="4.69993">
        <ele>227</ele>
        <time>2018-03-16T11:08:48Z</time>
      </trkpt>
      <trkpt lat="45.89372" lon="4.69995">
        <ele>227</ele>
        <time>2018-03-16T11:08:49Z</time>
      </trkpt>
      <trkpt lat="45.89379" lon="4.69997">
        <ele>227</ele>
        <time>2018-03-16T11:08:50Z</time>
      </trkpt>
      <trkpt lat="45.89386" lon="4.69997">
        <ele>227</ele>
        <time>2018-03-16T11:08:51Z</time>
      </trkpt>
      <trkpt lat="45.89393" lon="4.69998">
        <ele>227</ele>
        <time>2018-03-16T11:08:52Z</time>
      </trkpt>
      <trkpt lat="45.894" lon="4.7">
        <ele>226</ele>
        <time>2018-03-16T11:08:53Z</time>
      </trkpt>
      <trkpt lat="45.89408" lon="4.70001">
        <ele>226</ele>
        <time>2018-03-16T11:08:54Z</time>
      </trkpt>
      <trkpt lat="45.89415" lon="4.70004">
        <ele>227</ele>
        <time>2018-03-16T11:08:55Z</time>
      </trkpt>
      <trkpt lat="45.89422" lon="4.70006">
        <ele>226</ele>
        <time>2018-03-16T11:08:56Z</time>
      </trkpt>
      <trkpt lat="45.8943" lon="4.70007">
        <ele>226</ele>
        <time>2018-03-16T11:08:57Z</time>
      </trkpt>
      <trkpt lat="45.89438" lon="4.70009">
        <ele>225</ele>
        <time>2018-03-16T11:08:58Z</time>
      </trkpt>
      <trkpt lat="45.89446" lon="4.70009">
        <ele>225</ele>
        <time>2018-03-16T11:08:59Z</time>
      </trkpt>
      <trkpt lat="45.89453" lon="4.70011">
        <ele>225</ele>
        <time>2018-03-16T11:09:00Z</time>
      </trkpt>
      <trkpt lat="45.8946" lon="4.70013">
        <ele>225</ele>
        <time>2018-03-16T11:09:01Z</time>
      </trkpt>
      <trkpt lat="45.89467" lon="4.70014">
        <ele>225</ele>
        <time>2018-03-16T11:09:02Z</time>
      </trkpt>
      <trkpt lat="45.89475" lon="4.70016">
        <ele>225</ele>
        <time>2018-03-16T11:09:03Z</time>
      </trkpt>
      <trkpt lat="45.89483" lon="4.70018">
        <ele>224</ele>
        <time>2018-03-16T11:09:04Z</time>
      </trkpt>
      <trkpt lat="45.89491" lon="4.70019">
        <ele>224</ele>
        <time>2018-03-16T11:09:05Z</time>
      </trkpt>
      <trkpt lat="45.89498" lon="4.7002">
        <ele>224</ele>
        <time>2018-03-16T11:09:06Z</time>
      </trkpt>
      <trkpt lat="45.89505" lon="4.70021">
        <ele>223</ele>
        <time>2018-03-16T11:09:07Z</time>
      </trkpt>
      <trkpt lat="45.89512" lon="4.70023">
        <ele>223</ele>
        <time>2018-03-16T11:09:08Z</time>
      </trkpt>
      <trkpt lat="45.8952" lon="4.70024">
        <ele>223</ele>
        <time>2018-03-16T11:09:09Z</time>
      </trkpt>
      <trkpt lat="45.89528" lon="4.70024">
        <ele>223</ele>
        <time>2018-03-16T11:09:10Z</time>
      </trkpt>
      <trkpt lat="45.89535" lon="4.70026">
        <ele>223</ele>
        <time>2018-03-16T11:09:11Z</time>
      </trkpt>
      <trkpt lat="45.89542" lon="4.70028">
        <ele>223</ele>
        <time>2018-03-16T11:09:12Z</time>
      </trkpt>
      <trkpt lat="45.89549" lon="4.70029">
        <ele>222</ele>
        <time>2018-03-16T11:09:13Z</time>
      </trkpt>
      <trkpt lat="45.89556" lon="4.7003">
        <ele>222</ele>
        <time>2018-03-16T11:09:14Z</time>
      </trkpt>
      <trkpt lat="45.89563" lon="4.70031">
        <ele>222</ele>
        <time>2018-03-16T11:09:15Z</time>
      </trkpt>
      <trkpt lat="45.8957" lon="4.70032">
        <ele>222</ele>
        <time>2018-03-16T11:09:16Z</time>
      </trkpt>
      <trkpt lat="45.89578" lon="4.70033">
        <ele>222</ele>
        <time>2018-03-16T11:09:17Z</time>
      </trkpt>
      <trkpt lat="45.89587" lon="4.70035">
        <ele>222</ele>
        <time>2018-03-16T11:09:18Z</time>
      </trkpt>
      <trkpt lat="45.89595" lon="4.70037">
        <ele>222</ele>
        <time>2018-03-16T11:09:19Z</time>
      </trkpt>
      <trkpt lat="45.89603" lon="4.70039">
        <ele>222</ele>
        <time>2018-03-16T11:09:20Z</time>
      </trkpt>
      <trkpt lat="45.8961" lon="4.70041">
        <ele>222</ele>
        <time>2018-03-16T11:09:21Z</time>
      </trkpt>
      <trkpt lat="45.89617" lon="4.70042">
        <ele>222</ele>
        <time>2018-03-16T11:09:22Z</time>
      </trkpt>
      <trkpt lat="45.89625" lon="4.70043">
        <ele>222</ele>
        <time>2018-03-16T11:09:23Z</time>
      </trkpt>
      <trkpt lat="45.89632" lon="4.70045">
        <ele>222</ele>
        <time>2018-03-16T11:09:24Z</time>
      </trkpt>
      <trkpt lat="45.89639" lon="4.70047">
        <ele>222</ele>
        <time>2018-03-16T11:09:25Z</time>
      </trkpt>
      <trkpt lat="45.89646" lon="4.70049">
        <ele>222</ele>
        <time>2018-03-16T11:09:26Z</time>
      </trkpt>
      <trkpt lat="45.89654" lon="4.7005">
        <ele>222</ele>
        <time>2018-03-16T11:09:27Z</time>
      </trkpt>
      <trkpt lat="45.89662" lon="4.70052">
        <ele>222</ele>
        <time>2018-03-16T11:09:28Z</time>
      </trkpt>
      <trkpt lat="45.89668" lon="4.70051">
        <ele>222</ele>
        <time>2018-03-16T11:09:29Z</time>
      </trkpt>
      <trkpt lat="45.89675" lon="4.70053">
        <ele>222</ele>
        <time>2018-03-16T11:09:30Z</time>
      </trkpt>
      <trkpt lat="45.89683" lon="4.70053">
        <ele>222</ele>
        <time>2018-03-16T11:09:31Z</time>
      </trkpt>
      <trkpt lat="45.8969" lon="4.70055">
        <ele>222</ele>
        <time>2018-03-16T11:09:32Z</time>
      </trkpt>
      <trkpt lat="45.89697" lon="4.70056">
        <ele>222</ele>
        <time>2018-03-16T11:09:33Z</time>
      </trkpt>
      <trkpt lat="45.89704" lon="4.70057">
        <ele>221</ele>
        <time>2018-03-16T11:09:34Z</time>
      </trkpt>
      <trkpt lat="45.89711" lon="4.70058">
        <ele>221</ele>
        <time>2018-03-16T11:09:35Z</time>
      </trkpt>
      <trkpt lat="45.89718" lon="4.70059">
        <ele>221</ele>
        <time>2018-03-16T11:09:36Z</time>
      </trkpt>
      <trkpt lat="45.89725" lon="4.7006">
        <ele>221</ele>
        <time>2018-03-16T11:09:37Z</time>
      </trkpt>
      <trkpt lat="45.89732" lon="4.70062">
        <ele>221</ele>
        <time>2018-03-16T11:09:38Z</time>
      </trkpt>
      <trkpt lat="45.89736" lon="4.70063">
        <ele>221</ele>
        <time>2018-03-16T11:09:39Z</time>
      </trkpt>
      <trkpt lat="45.89743" lon="4.70065">
        <ele>221</ele>
        <time>2018-03-16T11:09:42Z</time>
      </trkpt>
      <trkpt lat="45.89745" lon="4.70066">
        <ele>220</ele>
        <time>2018-03-16T11:09:43Z</time>
      </trkpt>
      <trkpt lat="45.89753" lon="4.70066">
        <ele>220</ele>
        <time>2018-03-16T11:10:08Z</time>
      </trkpt>
      <trkpt lat="45.89754" lon="4.70066">
        <ele>220</ele>
        <time>2018-03-16T11:10:09Z</time>
      </trkpt>
      <trkpt lat="45.89762" lon="4.70067">
        <ele>220</ele>
        <time>2018-03-16T11:10:12Z</time>
      </trkpt>
      <trkpt lat="45.89764" lon="4.70067">
        <ele>220</ele>
        <time>2018-03-16T11:10:13Z</time>
      </trkpt>
      <trkpt lat="45.89774" lon="4.70069">
        <ele>220</ele>
        <time>2018-03-16T11:10:14Z</time>
      </trkpt>
      <trkpt lat="45.89781" lon="4.70069">
        <ele>221</ele>
        <time>2018-03-16T11:10:16Z</time>
      </trkpt>
      <trkpt lat="45.89785" lon="4.7007">
        <ele>221</ele>
        <time>2018-03-16T11:10:17Z</time>
      </trkpt>
      <trkpt lat="45.89789" lon="4.7007">
        <ele>221</ele>
        <time>2018-03-16T11:10:18Z</time>
      </trkpt>
      <trkpt lat="45.89796" lon="4.70072">
        <ele>221</ele>
        <time>2018-03-16T11:10:19Z</time>
      </trkpt>
      <trkpt lat="45.89801" lon="4.70072">
        <ele>221</ele>
        <time>2018-03-16T11:10:20Z</time>
      </trkpt>
      <trkpt lat="45.89808" lon="4.70073">
        <ele>221</ele>
        <time>2018-03-16T11:10:21Z</time>
      </trkpt>
      <trkpt lat="45.89813" lon="4.70074">
        <ele>221</ele>
        <time>2018-03-16T11:10:22Z</time>
      </trkpt>
      <trkpt lat="45.89817" lon="4.70074">
        <ele>221</ele>
        <time>2018-03-16T11:10:23Z</time>
      </trkpt>
      <trkpt lat="45.89823" lon="4.70075">
        <ele>220</ele>
        <time>2018-03-16T11:10:24Z</time>
      </trkpt>
      <trkpt lat="45.89828" lon="4.70075">
        <ele>220</ele>
        <time>2018-03-16T11:10:25Z</time>
      </trkpt>
      <trkpt lat="45.89833" lon="4.70075">
        <ele>220</ele>
        <time>2018-03-16T11:10:26Z</time>
      </trkpt>
      <trkpt lat="45.89837" lon="4.70077">
        <ele>220</ele>
        <time>2018-03-16T11:10:27Z</time>
      </trkpt>
      <trkpt lat="45.89839" lon="4.70077">
        <ele>221</ele>
        <time>2018-03-16T11:10:28Z</time>
      </trkpt>
      <trkpt lat="45.89847" lon="4.70078">
        <ele>221</ele>
        <time>2018-03-16T11:10:29Z</time>
      </trkpt>
      <trkpt lat="45.89852" lon="4.70079">
        <ele>221</ele>
        <time>2018-03-16T11:10:30Z</time>
      </trkpt>
      <trkpt lat="45.89856" lon="4.7008">
        <ele>221</ele>
        <time>2018-03-16T11:10:31Z</time>
      </trkpt>
      <trkpt lat="45.89861" lon="4.7008">
        <ele>221</ele>
        <time>2018-03-16T11:10:32Z</time>
      </trkpt>
      <trkpt lat="45.89867" lon="4.7008">
        <ele>221</ele>
        <time>2018-03-16T11:10:33Z</time>
      </trkpt>
      <trkpt lat="45.89871" lon="4.7008">
        <ele>221</ele>
        <time>2018-03-16T11:10:34Z</time>
      </trkpt>
      <trkpt lat="45.89878" lon="4.7008">
        <ele>221</ele>
        <time>2018-03-16T11:10:35Z</time>
      </trkpt>
      <trkpt lat="45.89883" lon="4.70081">
        <ele>221</ele>
        <time>2018-03-16T11:10:36Z</time>
      </trkpt>
      <trkpt lat="45.89888" lon="4.70081">
        <ele>221</ele>
        <time>2018-03-16T11:10:37Z</time>
      </trkpt>
      <trkpt lat="45.89893" lon="4.70081">
        <ele>221</ele>
        <time>2018-03-16T11:10:38Z</time>
      </trkpt>
      <trkpt lat="45.89898" lon="4.70081">
        <ele>221</ele>
        <time>2018-03-16T11:10:39Z</time>
      </trkpt>
      <trkpt lat="45.89903" lon="4.70081">
        <ele>221</ele>
        <time>2018-03-16T11:10:40Z</time>
      </trkpt>
      <trkpt lat="45.89908" lon="4.70082">
        <ele>221</ele>
        <time>2018-03-16T11:10:41Z</time>
      </trkpt>
      <trkpt lat="45.89913" lon="4.70082">
        <ele>221</ele>
        <time>2018-03-16T11:10:42Z</time>
      </trkpt>
      <trkpt lat="45.89918" lon="4.70082">
        <ele>221</ele>
        <time>2018-03-16T11:10:43Z</time>
      </trkpt>
      <trkpt lat="45.89925" lon="4.70082">
        <ele>222</ele>
        <time>2018-03-16T11:10:45Z</time>
      </trkpt>
      <trkpt lat="45.89929" lon="4.70082">
        <ele>222</ele>
        <time>2018-03-16T11:10:46Z</time>
      </trkpt>
      <trkpt lat="45.89937" lon="4.70083">
        <ele>222</ele>
        <time>2018-03-16T11:10:48Z</time>
      </trkpt>
      <trkpt lat="45.89941" lon="4.70083">
        <ele>222</ele>
        <time>2018-03-16T11:10:49Z</time>
      </trkpt>
      <trkpt lat="45.89949" lon="4.70084">
        <ele>221</ele>
        <time>2018-03-16T11:10:51Z</time>
      </trkpt>
      <trkpt lat="45.89954" lon="4.70084">
        <ele>221</ele>
        <time>2018-03-16T11:10:52Z</time>
      </trkpt>
      <trkpt lat="45.89962" lon="4.70085">
        <ele>221</ele>
        <time>2018-03-16T11:10:54Z</time>
      </trkpt>
      <trkpt lat="45.89966" lon="4.70085">
        <ele>221</ele>
        <time>2018-03-16T11:10:55Z</time>
      </trkpt>
      <trkpt lat="45.89971" lon="4.70085">
        <ele>221</ele>
        <time>2018-03-16T11:10:56Z</time>
      </trkpt>
      <trkpt lat="45.89976" lon="4.70085">
        <ele>221</ele>
        <time>2018-03-16T11:10:57Z</time>
      </trkpt>
      <trkpt lat="45.89982" lon="4.70085">
        <ele>221</ele>
        <time>2018-03-16T11:10:58Z</time>
      </trkpt>
      <trkpt lat="45.89987" lon="4.70086">
        <ele>222</ele>
        <time>2018-03-16T11:10:59Z</time>
      </trkpt>
      <trkpt lat="45.89995" lon="4.70087">
        <ele>222</ele>
        <time>2018-03-16T11:11:01Z</time>
      </trkpt>
      <trkpt lat="45.9" lon="4.70087">
        <ele>222</ele>
        <time>2018-03-16T11:11:02Z</time>
      </trkpt>
      <trkpt lat="45.90005" lon="4.70088">
        <ele>222</ele>
        <time>2018-03-16T11:11:03Z</time>
      </trkpt>
      <trkpt lat="45.9001" lon="4.70089">
        <ele>222</ele>
        <time>2018-03-16T11:11:04Z</time>
      </trkpt>
      <trkpt lat="45.90015" lon="4.7009">
        <ele>222</ele>
        <time>2018-03-16T11:11:05Z</time>
      </trkpt>
      <trkpt lat="45.90021" lon="4.7009">
        <ele>222</ele>
        <time>2018-03-16T11:11:06Z</time>
      </trkpt>
      <trkpt lat="45.90025" lon="4.70091">
        <ele>222</ele>
        <time>2018-03-16T11:11:07Z</time>
      </trkpt>
      <trkpt lat="45.9003" lon="4.70092">
        <ele>222</ele>
        <time>2018-03-16T11:11:08Z</time>
      </trkpt>
      <trkpt lat="45.90035" lon="4.70092">
        <ele>222</ele>
        <time>2018-03-16T11:11:09Z</time>
      </trkpt>
      <trkpt lat="45.9004" lon="4.70093">
        <ele>222</ele>
        <time>2018-03-16T11:11:10Z</time>
      </trkpt>
      <trkpt lat="45.90044" lon="4.70092">
        <ele>222</ele>
        <time>2018-03-16T11:11:11Z</time>
      </trkpt>
      <trkpt lat="45.90049" lon="4.70091">
        <ele>222</ele>
        <time>2018-03-16T11:11:12Z</time>
      </trkpt>
      <trkpt lat="45.90054" lon="4.70091">
        <ele>222</ele>
        <time>2018-03-16T11:11:13Z</time>
      </trkpt>
      <trkpt lat="45.90059" lon="4.70091">
        <ele>223</ele>
        <time>2018-03-16T11:11:14Z</time>
      </trkpt>
      <trkpt lat="45.90065" lon="4.70092">
        <ele>223</ele>
        <time>2018-03-16T11:11:15Z</time>
      </trkpt>
      <trkpt lat="45.9007" lon="4.70091">
        <ele>223</ele>
        <time>2018-03-16T11:11:16Z</time>
      </trkpt>
      <trkpt lat="45.90074" lon="4.7009">
        <ele>223</ele>
        <time>2018-03-16T11:11:17Z</time>
      </trkpt>
      <trkpt lat="45.9008" lon="4.7009">
        <ele>223</ele>
        <time>2018-03-16T11:11:18Z</time>
      </trkpt>
      <trkpt lat="45.90085" lon="4.7009">
        <ele>224</ele>
        <time>2018-03-16T11:11:19Z</time>
      </trkpt>
      <trkpt lat="45.9009" lon="4.7009">
        <ele>224</ele>
        <time>2018-03-16T11:11:20Z</time>
      </trkpt>
      <trkpt lat="45.90095" lon="4.70089">
        <ele>224</ele>
        <time>2018-03-16T11:11:21Z</time>
      </trkpt>
      <trkpt lat="45.901" lon="4.70088">
        <ele>223</ele>
        <time>2018-03-16T11:11:22Z</time>
      </trkpt>
      <trkpt lat="45.90106" lon="4.70087">
        <ele>223</ele>
        <time>2018-03-16T11:11:23Z</time>
      </trkpt>
      <trkpt lat="45.90111" lon="4.70086">
        <ele>223</ele>
        <time>2018-03-16T11:11:24Z</time>
      </trkpt>
      <trkpt lat="45.90116" lon="4.70085">
        <ele>223</ele>
        <time>2018-03-16T11:11:25Z</time>
      </trkpt>
      <trkpt lat="45.90121" lon="4.70084">
        <ele>223</ele>
        <time>2018-03-16T11:11:26Z</time>
      </trkpt>
      <trkpt lat="45.90126" lon="4.70083">
        <ele>223</ele>
        <time>2018-03-16T11:11:27Z</time>
      </trkpt>
      <trkpt lat="45.90131" lon="4.70083">
        <ele>226</ele>
        <time>2018-03-16T11:11:28Z</time>
      </trkpt>
      <trkpt lat="45.9014" lon="4.70082">
        <ele>226</ele>
        <time>2018-03-16T11:11:30Z</time>
      </trkpt>
      <trkpt lat="45.90145" lon="4.70082">
        <ele>226</ele>
        <time>2018-03-16T11:11:31Z</time>
      </trkpt>
      <trkpt lat="45.90149" lon="4.70082">
        <ele>226</ele>
        <time>2018-03-16T11:11:32Z</time>
      </trkpt>
      <trkpt lat="45.90154" lon="4.70081">
        <ele>226</ele>
        <time>2018-03-16T11:11:33Z</time>
      </trkpt>
      <trkpt lat="45.90163" lon="4.70079">
        <ele>225</ele>
        <time>2018-03-16T11:11:35Z</time>
      </trkpt>
      <trkpt lat="45.90167" lon="4.70078">
        <ele>225</ele>
        <time>2018-03-16T11:11:36Z</time>
      </trkpt>
      <trkpt lat="45.90176" lon="4.70076">
        <ele>225</ele>
        <time>2018-03-16T11:11:38Z</time>
      </trkpt>
      <trkpt lat="45.90181" lon="4.70076">
        <ele>226</ele>
        <time>2018-03-16T11:11:39Z</time>
      </trkpt>
      <trkpt lat="45.90185" lon="4.70075">
        <ele>226</ele>
        <time>2018-03-16T11:11:40Z</time>
      </trkpt>
      <trkpt lat="45.9019" lon="4.70073">
        <ele>226</ele>
        <time>2018-03-16T11:11:41Z</time>
      </trkpt>
      <trkpt lat="45.90194" lon="4.70073">
        <ele>226</ele>
        <time>2018-03-16T11:11:42Z</time>
      </trkpt>
      <trkpt lat="45.90199" lon="4.70072">
        <ele>226</ele>
        <time>2018-03-16T11:11:43Z</time>
      </trkpt>
      <trkpt lat="45.90204" lon="4.70071">
        <ele>226</ele>
        <time>2018-03-16T11:11:44Z</time>
      </trkpt>
      <trkpt lat="45.90208" lon="4.7007">
        <ele>226</ele>
        <time>2018-03-16T11:11:45Z</time>
      </trkpt>
      <trkpt lat="45.90217" lon="4.70067">
        <ele>225</ele>
        <time>2018-03-16T11:11:47Z</time>
      </trkpt>
      <trkpt lat="45.90221" lon="4.70066">
        <ele>225</ele>
        <time>2018-03-16T11:11:48Z</time>
      </trkpt>
      <trkpt lat="45.90225" lon="4.70065">
        <ele>225</ele>
        <time>2018-03-16T11:11:49Z</time>
      </trkpt>
      <trkpt lat="45.9023" lon="4.70065">
        <ele>225</ele>
        <time>2018-03-16T11:11:50Z</time>
      </trkpt>
      <trkpt lat="45.90235" lon="4.70064">
        <ele>225</ele>
        <time>2018-03-16T11:11:51Z</time>
      </trkpt>
      <trkpt lat="45.90239" lon="4.70062">
        <ele>225</ele>
        <time>2018-03-16T11:11:52Z</time>
      </trkpt>
      <trkpt lat="45.90244" lon="4.70061">
        <ele>225</ele>
        <time>2018-03-16T11:11:53Z</time>
      </trkpt>
      <trkpt lat="45.90249" lon="4.7006">
        <ele>225</ele>
        <time>2018-03-16T11:11:54Z</time>
      </trkpt>
      <trkpt lat="45.90255" lon="4.7006">
        <ele>224</ele>
        <time>2018-03-16T11:11:55Z</time>
      </trkpt>
      <trkpt lat="45.9026" lon="4.70059">
        <ele>224</ele>
        <time>2018-03-16T11:11:56Z</time>
      </trkpt>
      <trkpt lat="45.90264" lon="4.70058">
        <ele>224</ele>
        <time>2018-03-16T11:11:57Z</time>
      </trkpt>
      <trkpt lat="45.90269" lon="4.70058">
        <ele>224</ele>
        <time>2018-03-16T11:11:58Z</time>
      </trkpt>
      <trkpt lat="45.90274" lon="4.70057">
        <ele>224</ele>
        <time>2018-03-16T11:11:59Z</time>
      </trkpt>
      <trkpt lat="45.90279" lon="4.70056">
        <ele>224</ele>
        <time>2018-03-16T11:12:00Z</time>
      </trkpt>
      <trkpt lat="45.90284" lon="4.70055">
        <ele>224</ele>
        <time>2018-03-16T11:12:01Z</time>
      </trkpt>
      <trkpt lat="45.90289" lon="4.70054">
        <ele>224</ele>
        <time>2018-03-16T11:12:02Z</time>
      </trkpt>
      <trkpt lat="45.90294" lon="4.70054">
        <ele>224</ele>
        <time>2018-03-16T11:12:03Z</time>
      </trkpt>
      <trkpt lat="45.903" lon="4.70053">
        <ele>224</ele>
        <time>2018-03-16T11:12:04Z</time>
      </trkpt>
      <trkpt lat="45.90305" lon="4.70052">
        <ele>224</ele>
        <time>2018-03-16T11:12:05Z</time>
      </trkpt>
      <trkpt lat="45.9031" lon="4.70051">
        <ele>224</ele>
        <time>2018-03-16T11:12:06Z</time>
      </trkpt>
      <trkpt lat="45.90315" lon="4.70049">
        <ele>224</ele>
        <time>2018-03-16T11:12:07Z</time>
      </trkpt>
      <trkpt lat="45.9032" lon="4.70048">
        <ele>224</ele>
        <time>2018-03-16T11:12:08Z</time>
      </trkpt>
      <trkpt lat="45.90325" lon="4.70047">
        <ele>224</ele>
        <time>2018-03-16T11:12:09Z</time>
      </trkpt>
      <trkpt lat="45.9033" lon="4.70046">
        <ele>224</ele>
        <time>2018-03-16T11:12:10Z</time>
      </trkpt>
      <trkpt lat="45.90336" lon="4.70045">
        <ele>224</ele>
        <time>2018-03-16T11:12:11Z</time>
      </trkpt>
      <trkpt lat="45.90341" lon="4.70044">
        <ele>224</ele>
        <time>2018-03-16T11:12:12Z</time>
      </trkpt>
      <trkpt lat="45.90346" lon="4.70044">
        <ele>224</ele>
        <time>2018-03-16T11:12:13Z</time>
      </trkpt>
      <trkpt lat="45.9035" lon="4.70043">
        <ele>224</ele>
        <time>2018-03-16T11:12:14Z</time>
      </trkpt>
      <trkpt lat="45.90357" lon="4.70042">
        <ele>224</ele>
        <time>2018-03-16T11:12:15Z</time>
      </trkpt>
      <trkpt lat="45.90362" lon="4.70041">
        <ele>224</ele>
        <time>2018-03-16T11:12:16Z</time>
      </trkpt>
      <trkpt lat="45.90367" lon="4.7004">
        <ele>224</ele>
        <time>2018-03-16T11:12:17Z</time>
      </trkpt>
      <trkpt lat="45.90372" lon="4.70039">
        <ele>224</ele>
        <time>2018-03-16T11:12:18Z</time>
      </trkpt>
      <trkpt lat="45.90376" lon="4.70038">
        <ele>224</ele>
        <time>2018-03-16T11:12:19Z</time>
      </trkpt>
      <trkpt lat="45.90381" lon="4.70037">
        <ele>224</ele>
        <time>2018-03-16T11:12:20Z</time>
      </trkpt>
      <trkpt lat="45.90386" lon="4.70035">
        <ele>225</ele>
        <time>2018-03-16T11:12:21Z</time>
      </trkpt>
      <trkpt lat="45.90391" lon="4.70034">
        <ele>225</ele>
        <time>2018-03-16T11:12:22Z</time>
      </trkpt>
      <trkpt lat="45.90397" lon="4.70033">
        <ele>225</ele>
        <time>2018-03-16T11:12:23Z</time>
      </trkpt>
      <trkpt lat="45.90402" lon="4.70033">
        <ele>225</ele>
        <time>2018-03-16T11:12:24Z</time>
      </trkpt>
      <trkpt lat="45.90407" lon="4.70032">
        <ele>225</ele>
        <time>2018-03-16T11:12:25Z</time>
      </trkpt>
      <trkpt lat="45.90413" lon="4.70031">
        <ele>225</ele>
        <time>2018-03-16T11:12:26Z</time>
      </trkpt>
      <trkpt lat="45.90418" lon="4.7003">
        <ele>225</ele>
        <time>2018-03-16T11:12:27Z</time>
      </trkpt>
      <trkpt lat="45.90424" lon="4.7003">
        <ele>225</ele>
        <time>2018-03-16T11:12:28Z</time>
      </trkpt>
      <trkpt lat="45.9043" lon="4.70029">
        <ele>225</ele>
        <time>2018-03-16T11:12:29Z</time>
      </trkpt>
      <trkpt lat="45.90436" lon="4.70029">
        <ele>225</ele>
        <time>2018-03-16T11:12:30Z</time>
      </trkpt>
      <trkpt lat="45.90442" lon="4.7003">
        <ele>225</ele>
        <time>2018-03-16T11:12:31Z</time>
      </trkpt>
      <trkpt lat="45.90448" lon="4.70029">
        <ele>225</ele>
        <time>2018-03-16T11:12:32Z</time>
      </trkpt>
      <trkpt lat="45.90454" lon="4.7003">
        <ele>225</ele>
        <time>2018-03-16T11:12:33Z</time>
      </trkpt>
      <trkpt lat="45.9046" lon="4.7003">
        <ele>225</ele>
        <time>2018-03-16T11:12:34Z</time>
      </trkpt>
      <trkpt lat="45.90466" lon="4.70031">
        <ele>225</ele>
        <time>2018-03-16T11:12:35Z</time>
      </trkpt>
      <trkpt lat="45.90473" lon="4.70031">
        <ele>225</ele>
        <time>2018-03-16T11:12:36Z</time>
      </trkpt>
      <trkpt lat="45.90478" lon="4.70031">
        <ele>225</ele>
        <time>2018-03-16T11:12:37Z</time>
      </trkpt>
      <trkpt lat="45.90485" lon="4.70031">
        <ele>225</ele>
        <time>2018-03-16T11:12:38Z</time>
      </trkpt>
      <trkpt lat="45.90491" lon="4.70032">
        <ele>225</ele>
        <time>2018-03-16T11:12:39Z</time>
      </trkpt>
      <trkpt lat="45.90497" lon="4.70034">
        <ele>225</ele>
        <time>2018-03-16T11:12:40Z</time>
      </trkpt>
      <trkpt lat="45.90503" lon="4.70035">
        <ele>224</ele>
        <time>2018-03-16T11:12:41Z</time>
      </trkpt>
      <trkpt lat="45.90509" lon="4.70036">
        <ele>224</ele>
        <time>2018-03-16T11:12:42Z</time>
      </trkpt>
      <trkpt lat="45.90515" lon="4.70037">
        <ele>224</ele>
        <time>2018-03-16T11:12:43Z</time>
      </trkpt>
      <trkpt lat="45.90522" lon="4.70038">
        <ele>224</ele>
        <time>2018-03-16T11:12:44Z</time>
      </trkpt>
      <trkpt lat="45.90529" lon="4.70039">
        <ele>224</ele>
        <time>2018-03-16T11:12:45Z</time>
      </trkpt>
      <trkpt lat="45.90536" lon="4.70041">
        <ele>224</ele>
        <time>2018-03-16T11:12:46Z</time>
      </trkpt>
      <trkpt lat="45.90543" lon="4.70043">
        <ele>224</ele>
        <time>2018-03-16T11:12:47Z</time>
      </trkpt>
      <trkpt lat="45.9055" lon="4.70045">
        <ele>224</ele>
        <time>2018-03-16T11:12:48Z</time>
      </trkpt>
      <trkpt lat="45.90556" lon="4.70048">
        <ele>224</ele>
        <time>2018-03-16T11:12:49Z</time>
      </trkpt>
      <trkpt lat="45.90562" lon="4.70052">
        <ele>224</ele>
        <time>2018-03-16T11:12:50Z</time>
      </trkpt>
      <trkpt lat="45.90568" lon="4.70056">
        <ele>223</ele>
        <time>2018-03-16T11:12:51Z</time>
      </trkpt>
      <trkpt lat="45.90574" lon="4.7006">
        <ele>223</ele>
        <time>2018-03-16T11:12:52Z</time>
      </trkpt>
      <trkpt lat="45.90579" lon="4.70061">
        <ele>223</ele>
        <time>2018-03-16T11:12:53Z</time>
      </trkpt>
      <trkpt lat="45.90586" lon="4.70064">
        <ele>223</ele>
        <time>2018-03-16T11:12:54Z</time>
      </trkpt>
      <trkpt lat="45.90592" lon="4.70068">
        <ele>223</ele>
        <time>2018-03-16T11:12:55Z</time>
      </trkpt>
      <trkpt lat="45.90598" lon="4.70071">
        <ele>223</ele>
        <time>2018-03-16T11:12:56Z</time>
      </trkpt>
      <trkpt lat="45.90605" lon="4.70075">
        <ele>223</ele>
        <time>2018-03-16T11:12:57Z</time>
      </trkpt>
      <trkpt lat="45.90611" lon="4.70078">
        <ele>223</ele>
        <time>2018-03-16T11:12:58Z</time>
      </trkpt>
      <trkpt lat="45.90617" lon="4.70082">
        <ele>224</ele>
        <time>2018-03-16T11:12:59Z</time>
      </trkpt>
      <trkpt lat="45.90623" lon="4.70086">
        <ele>221</ele>
        <time>2018-03-16T11:13:00Z</time>
      </trkpt>
      <trkpt lat="45.90629" lon="4.70089">
        <ele>221</ele>
        <time>2018-03-16T11:13:01Z</time>
      </trkpt>
      <trkpt lat="45.90636" lon="4.70092">
        <ele>221</ele>
        <time>2018-03-16T11:13:02Z</time>
      </trkpt>
      <trkpt lat="45.90642" lon="4.70096">
        <ele>221</ele>
        <time>2018-03-16T11:13:03Z</time>
      </trkpt>
      <trkpt lat="45.90648" lon="4.70099">
        <ele>222</ele>
        <time>2018-03-16T11:13:04Z</time>
      </trkpt>
      <trkpt lat="45.90654" lon="4.70103">
        <ele>222</ele>
        <time>2018-03-16T11:13:05Z</time>
      </trkpt>
      <trkpt lat="45.9066" lon="4.70106">
        <ele>222</ele>
        <time>2018-03-16T11:13:06Z</time>
      </trkpt>
      <trkpt lat="45.90667" lon="4.7011">
        <ele>221</ele>
        <time>2018-03-16T11:13:07Z</time>
      </trkpt>
      <trkpt lat="45.90672" lon="4.70114">
        <ele>222</ele>
        <time>2018-03-16T11:13:08Z</time>
      </trkpt>
      <trkpt lat="45.90677" lon="4.70118">
        <ele>221</ele>
        <time>2018-03-16T11:13:09Z</time>
      </trkpt>
      <trkpt lat="45.90683" lon="4.70123">
        <ele>221</ele>
        <time>2018-03-16T11:13:10Z</time>
      </trkpt>
      <trkpt lat="45.90688" lon="4.70129">
        <ele>221</ele>
        <time>2018-03-16T11:13:11Z</time>
      </trkpt>
      <trkpt lat="45.90693" lon="4.70134">
        <ele>221</ele>
        <time>2018-03-16T11:13:12Z</time>
      </trkpt>
      <trkpt lat="45.90699" lon="4.70139">
        <ele>221</ele>
        <time>2018-03-16T11:13:13Z</time>
      </trkpt>
      <trkpt lat="45.90704" lon="4.70142">
        <ele>221</ele>
        <time>2018-03-16T11:13:14Z</time>
      </trkpt>
      <trkpt lat="45.90711" lon="4.70142">
        <ele>220</ele>
        <time>2018-03-16T11:13:15Z</time>
      </trkpt>
      <trkpt lat="45.90717" lon="4.70141">
        <ele>220</ele>
        <time>2018-03-16T11:13:16Z</time>
      </trkpt>
      <trkpt lat="45.90723" lon="4.70139">
        <ele>220</ele>
        <time>2018-03-16T11:13:17Z</time>
      </trkpt>
      <trkpt lat="45.9073" lon="4.7014">
        <ele>220</ele>
        <time>2018-03-16T11:13:18Z</time>
      </trkpt>
      <trkpt lat="45.90736" lon="4.70141">
        <ele>220</ele>
        <time>2018-03-16T11:13:19Z</time>
      </trkpt>
      <trkpt lat="45.90743" lon="4.70141">
        <ele>220</ele>
        <time>2018-03-16T11:13:20Z</time>
      </trkpt>
      <trkpt lat="45.90751" lon="4.70142">
        <ele>219</ele>
        <time>2018-03-16T11:13:21Z</time>
      </trkpt>
      <trkpt lat="45.90758" lon="4.70142">
        <ele>219</ele>
        <time>2018-03-16T11:13:22Z</time>
      </trkpt>
      <trkpt lat="45.90765" lon="4.70143">
        <ele>219</ele>
        <time>2018-03-16T11:13:23Z</time>
      </trkpt>
      <trkpt lat="45.90771" lon="4.70142">
        <ele>219</ele>
        <time>2018-03-16T11:13:24Z</time>
      </trkpt>
      <trkpt lat="45.90779" lon="4.70142">
        <ele>219</ele>
        <time>2018-03-16T11:13:25Z</time>
      </trkpt>
      <trkpt lat="45.90786" lon="4.70142">
        <ele>219</ele>
        <time>2018-03-16T11:13:26Z</time>
      </trkpt>
      <trkpt lat="45.90792" lon="4.70143">
        <ele>219</ele>
        <time>2018-03-16T11:13:27Z</time>
      </trkpt>
      <trkpt lat="45.90799" lon="4.70143">
        <ele>219</ele>
        <time>2018-03-16T11:13:28Z</time>
      </trkpt>
      <trkpt lat="45.90806" lon="4.70142">
        <ele>219</ele>
        <time>2018-03-16T11:13:29Z</time>
      </trkpt>
      <trkpt lat="45.90814" lon="4.70143">
        <ele>219</ele>
        <time>2018-03-16T11:13:30Z</time>
      </trkpt>
      <trkpt lat="45.9082" lon="4.70142">
        <ele>218</ele>
        <time>2018-03-16T11:13:31Z</time>
      </trkpt>
      <trkpt lat="45.90828" lon="4.7014">
        <ele>218</ele>
        <time>2018-03-16T11:13:32Z</time>
      </trkpt>
      <trkpt lat="45.90835" lon="4.7014">
        <ele>218</ele>
        <time>2018-03-16T11:13:33Z</time>
      </trkpt>
      <trkpt lat="45.90841" lon="4.70139">
        <ele>218</ele>
        <time>2018-03-16T11:13:34Z</time>
      </trkpt>
      <trkpt lat="45.90847" lon="4.70139">
        <ele>218</ele>
        <time>2018-03-16T11:13:35Z</time>
      </trkpt>
      <trkpt lat="45.90853" lon="4.7014">
        <ele>218</ele>
        <time>2018-03-16T11:13:36Z</time>
      </trkpt>
      <trkpt lat="45.90859" lon="4.70139">
        <ele>218</ele>
        <time>2018-03-16T11:13:37Z</time>
      </trkpt>
      <trkpt lat="45.90865" lon="4.70139">
        <ele>218</ele>
        <time>2018-03-16T11:13:38Z</time>
      </trkpt>
      <trkpt lat="45.9087" lon="4.70138">
        <ele>218</ele>
        <time>2018-03-16T11:13:39Z</time>
      </trkpt>
      <trkpt lat="45.90876" lon="4.70138">
        <ele>218</ele>
        <time>2018-03-16T11:13:40Z</time>
      </trkpt>
      <trkpt lat="45.90882" lon="4.70137">
        <ele>218</ele>
        <time>2018-03-16T11:13:41Z</time>
      </trkpt>
      <trkpt lat="45.90888" lon="4.70136">
        <ele>218</ele>
        <time>2018-03-16T11:13:42Z</time>
      </trkpt>
      <trkpt lat="45.90894" lon="4.70134">
        <ele>218</ele>
        <time>2018-03-16T11:13:43Z</time>
      </trkpt>
      <trkpt lat="45.90899" lon="4.70134">
        <ele>218</ele>
        <time>2018-03-16T11:13:44Z</time>
      </trkpt>
      <trkpt lat="45.90905" lon="4.70134">
        <ele>218</ele>
        <time>2018-03-16T11:13:45Z</time>
      </trkpt>
      <trkpt lat="45.90911" lon="4.70132">
        <ele>218</ele>
        <time>2018-03-16T11:13:46Z</time>
      </trkpt>
      <trkpt lat="45.90916" lon="4.70132">
        <ele>218</ele>
        <time>2018-03-16T11:13:47Z</time>
      </trkpt>
      <trkpt lat="45.90922" lon="4.7013">
        <ele>219</ele>
        <time>2018-03-16T11:13:48Z</time>
      </trkpt>
      <trkpt lat="45.90929" lon="4.70131">
        <ele>219</ele>
        <time>2018-03-16T11:13:49Z</time>
      </trkpt>
      <trkpt lat="45.90936" lon="4.70129">
        <ele>219</ele>
        <time>2018-03-16T11:13:50Z</time>
      </trkpt>
      <trkpt lat="45.90942" lon="4.7013">
        <ele>219</ele>
        <time>2018-03-16T11:13:51Z</time>
      </trkpt>
      <trkpt lat="45.9095" lon="4.70132">
        <ele>219</ele>
        <time>2018-03-16T11:13:52Z</time>
      </trkpt>
      <trkpt lat="45.90956" lon="4.70133">
        <ele>219</ele>
        <time>2018-03-16T11:13:53Z</time>
      </trkpt>
      <trkpt lat="45.90962" lon="4.70136">
        <ele>219</ele>
        <time>2018-03-16T11:13:54Z</time>
      </trkpt>
      <trkpt lat="45.90968" lon="4.70138">
        <ele>219</ele>
        <time>2018-03-16T11:13:55Z</time>
      </trkpt>
      <trkpt lat="45.90974" lon="4.70139">
        <ele>218</ele>
        <time>2018-03-16T11:13:56Z</time>
      </trkpt>
      <trkpt lat="45.9098" lon="4.70141">
        <ele>218</ele>
        <time>2018-03-16T11:13:57Z</time>
      </trkpt>
      <trkpt lat="45.90986" lon="4.70144">
        <ele>218</ele>
        <time>2018-03-16T11:13:58Z</time>
      </trkpt>
      <trkpt lat="45.90992" lon="4.70146">
        <ele>218</ele>
        <time>2018-03-16T11:13:59Z</time>
      </trkpt>
      <trkpt lat="45.90999" lon="4.70148">
        <ele>218</ele>
        <time>2018-03-16T11:14:00Z</time>
      </trkpt>
      <trkpt lat="45.91005" lon="4.70151">
        <ele>218</ele>
        <time>2018-03-16T11:14:01Z</time>
      </trkpt>
      <trkpt lat="45.91013" lon="4.70153">
        <ele>218</ele>
        <time>2018-03-16T11:14:02Z</time>
      </trkpt>
      <trkpt lat="45.91019" lon="4.70155">
        <ele>218</ele>
        <time>2018-03-16T11:14:03Z</time>
      </trkpt>
      <trkpt lat="45.91025" lon="4.70158">
        <ele>218</ele>
        <time>2018-03-16T11:14:04Z</time>
      </trkpt>
      <trkpt lat="45.91032" lon="4.70159">
        <ele>218</ele>
        <time>2018-03-16T11:14:05Z</time>
      </trkpt>
      <trkpt lat="45.91039" lon="4.70161">
        <ele>218</ele>
        <time>2018-03-16T11:14:06Z</time>
      </trkpt>
      <trkpt lat="45.91046" lon="4.70165">
        <ele>218</ele>
        <time>2018-03-16T11:14:07Z</time>
      </trkpt>
      <trkpt lat="45.91053" lon="4.70168">
        <ele>216</ele>
        <time>2018-03-16T11:14:08Z</time>
      </trkpt>
      <trkpt lat="45.9106" lon="4.70171">
        <ele>216</ele>
        <time>2018-03-16T11:14:09Z</time>
      </trkpt>
      <trkpt lat="45.91068" lon="4.70174">
        <ele>216</ele>
        <time>2018-03-16T11:14:10Z</time>
      </trkpt>
      <trkpt lat="45.91075" lon="4.70176">
        <ele>216</ele>
        <time>2018-03-16T11:14:11Z</time>
      </trkpt>
      <trkpt lat="45.91082" lon="4.70178">
        <ele>216</ele>
        <time>2018-03-16T11:14:12Z</time>
      </trkpt>
      <trkpt lat="45.91089" lon="4.70181">
        <ele>216</ele>
        <time>2018-03-16T11:14:13Z</time>
      </trkpt>
      <trkpt lat="45.91096" lon="4.70184">
        <ele>216</ele>
        <time>2018-03-16T11:14:14Z</time>
      </trkpt>
      <trkpt lat="45.91103" lon="4.70186">
        <ele>215</ele>
        <time>2018-03-16T11:14:15Z</time>
      </trkpt>
      <trkpt lat="45.9111" lon="4.70188">
        <ele>215</ele>
        <time>2018-03-16T11:14:16Z</time>
      </trkpt>
      <trkpt lat="45.91116" lon="4.7019">
        <ele>215</ele>
        <time>2018-03-16T11:14:17Z</time>
      </trkpt>
      <trkpt lat="45.91123" lon="4.70192">
        <ele>215</ele>
        <time>2018-03-16T11:14:18Z</time>
      </trkpt>
      <trkpt lat="45.91132" lon="4.70194">
        <ele>215</ele>
        <time>2018-03-16T11:14:19Z</time>
      </trkpt>
      <trkpt lat="45.91139" lon="4.70195">
        <ele>215</ele>
        <time>2018-03-16T11:14:20Z</time>
      </trkpt>
      <trkpt lat="45.91147" lon="4.70196">
        <ele>215</ele>
        <time>2018-03-16T11:14:21Z</time>
      </trkpt>
      <trkpt lat="45.91154" lon="4.70198">
        <ele>215</ele>
        <time>2018-03-16T11:14:22Z</time>
      </trkpt>
      <trkpt lat="45.91161" lon="4.70201">
        <ele>215</ele>
        <time>2018-03-16T11:14:23Z</time>
      </trkpt>
      <trkpt lat="45.91168" lon="4.70203">
        <ele>214</ele>
        <time>2018-03-16T11:14:24Z</time>
      </trkpt>
      <trkpt lat="45.91175" lon="4.70206">
        <ele>214</ele>
        <time>2018-03-16T11:14:25Z</time>
      </trkpt>
      <trkpt lat="45.91182" lon="4.70207">
        <ele>214</ele>
        <time>2018-03-16T11:14:26Z</time>
      </trkpt>
      <trkpt lat="45.9119" lon="4.7021">
        <ele>214</ele>
        <time>2018-03-16T11:14:27Z</time>
      </trkpt>
      <trkpt lat="45.91198" lon="4.70212">
        <ele>214</ele>
        <time>2018-03-16T11:14:28Z</time>
      </trkpt>
      <trkpt lat="45.91205" lon="4.70215">
        <ele>214</ele>
        <time>2018-03-16T11:14:29Z</time>
      </trkpt>
      <trkpt lat="45.91212" lon="4.70218">
        <ele>214</ele>
        <time>2018-03-16T11:14:30Z</time>
      </trkpt>
      <trkpt lat="45.91221" lon="4.70222">
        <ele>213</ele>
        <time>2018-03-16T11:14:31Z</time>
      </trkpt>
      <trkpt lat="45.91228" lon="4.70224">
        <ele>213</ele>
        <time>2018-03-16T11:14:32Z</time>
      </trkpt>
      <trkpt lat="45.91234" lon="4.70228">
        <ele>213</ele>
        <time>2018-03-16T11:14:33Z</time>
      </trkpt>
      <trkpt lat="45.91242" lon="4.7023">
        <ele>213</ele>
        <time>2018-03-16T11:14:34Z</time>
      </trkpt>
      <trkpt lat="45.9125" lon="4.70232">
        <ele>213</ele>
        <time>2018-03-16T11:14:35Z</time>
      </trkpt>
      <trkpt lat="45.91257" lon="4.70235">
        <ele>213</ele>
        <time>2018-03-16T11:14:36Z</time>
      </trkpt>
      <trkpt lat="45.91265" lon="4.70237">
        <ele>213</ele>
        <time>2018-03-16T11:14:37Z</time>
      </trkpt>
      <trkpt lat="45.91273" lon="4.70239">
        <ele>213</ele>
        <time>2018-03-16T11:14:38Z</time>
      </trkpt>
      <trkpt lat="45.91281" lon="4.70242">
        <ele>213</ele>
        <time>2018-03-16T11:14:39Z</time>
      </trkpt>
      <trkpt lat="45.91288" lon="4.70245">
        <ele>214</ele>
        <time>2018-03-16T11:14:40Z</time>
      </trkpt>
      <trkpt lat="45.91297" lon="4.70248">
        <ele>214</ele>
        <time>2018-03-16T11:14:41Z</time>
      </trkpt>
      <trkpt lat="45.91304" lon="4.7025">
        <ele>210</ele>
        <time>2018-03-16T11:14:42Z</time>
      </trkpt>
      <trkpt lat="45.91312" lon="4.70255">
        <ele>210</ele>
        <time>2018-03-16T11:14:43Z</time>
      </trkpt>
      <trkpt lat="45.9132" lon="4.70259">
        <ele>211</ele>
        <time>2018-03-16T11:14:44Z</time>
      </trkpt>
      <trkpt lat="45.91327" lon="4.70263">
        <ele>211</ele>
        <time>2018-03-16T11:14:45Z</time>
      </trkpt>
      <trkpt lat="45.91334" lon="4.70268">
        <ele>211</ele>
        <time>2018-03-16T11:14:46Z</time>
      </trkpt>
      <trkpt lat="45.91341" lon="4.70272">
        <ele>210</ele>
        <time>2018-03-16T11:14:47Z</time>
      </trkpt>
      <trkpt lat="45.91348" lon="4.70277">
        <ele>210</ele>
        <time>2018-03-16T11:14:48Z</time>
      </trkpt>
      <trkpt lat="45.91355" lon="4.70282">
        <ele>210</ele>
        <time>2018-03-16T11:14:49Z</time>
      </trkpt>
      <trkpt lat="45.91361" lon="4.70286">
        <ele>210</ele>
        <time>2018-03-16T11:14:50Z</time>
      </trkpt>
      <trkpt lat="45.91368" lon="4.70292">
        <ele>209</ele>
        <time>2018-03-16T11:14:51Z</time>
      </trkpt>
      <trkpt lat="45.91374" lon="4.70298">
        <ele>209</ele>
        <time>2018-03-16T11:14:52Z</time>
      </trkpt>
      <trkpt lat="45.91382" lon="4.70304">
        <ele>209</ele>
        <time>2018-03-16T11:14:53Z</time>
      </trkpt>
      <trkpt lat="45.91389" lon="4.70308">
        <ele>209</ele>
        <time>2018-03-16T11:14:54Z</time>
      </trkpt>
      <trkpt lat="45.91395" lon="4.70314">
        <ele>209</ele>
        <time>2018-03-16T11:14:55Z</time>
      </trkpt>
      <trkpt lat="45.91401" lon="4.7032">
        <ele>209</ele>
        <time>2018-03-16T11:14:56Z</time>
      </trkpt>
      <trkpt lat="45.91409" lon="4.70322">
        <ele>209</ele>
        <time>2018-03-16T11:14:57Z</time>
      </trkpt>
      <trkpt lat="45.91414" lon="4.70329">
        <ele>208</ele>
        <time>2018-03-16T11:14:58Z</time>
      </trkpt>
      <trkpt lat="45.9142" lon="4.70334">
        <ele>208</ele>
        <time>2018-03-16T11:14:59Z</time>
      </trkpt>
      <trkpt lat="45.91426" lon="4.70339">
        <ele>207</ele>
        <time>2018-03-16T11:15:00Z</time>
      </trkpt>
      <trkpt lat="45.91433" lon="4.70344">
        <ele>207</ele>
        <time>2018-03-16T11:15:01Z</time>
      </trkpt>
      <trkpt lat="45.91439" lon="4.7035">
        <ele>207</ele>
        <time>2018-03-16T11:15:02Z</time>
      </trkpt>
      <trkpt lat="45.91446" lon="4.70356">
        <ele>207</ele>
        <time>2018-03-16T11:15:03Z</time>
      </trkpt>
      <trkpt lat="45.91453" lon="4.70361">
        <ele>206</ele>
        <time>2018-03-16T11:15:04Z</time>
      </trkpt>
      <trkpt lat="45.91461" lon="4.70368">
        <ele>206</ele>
        <time>2018-03-16T11:15:05Z</time>
      </trkpt>
      <trkpt lat="45.91467" lon="4.70372">
        <ele>206</ele>
        <time>2018-03-16T11:15:06Z</time>
      </trkpt>
      <trkpt lat="45.91473" lon="4.70377">
        <ele>206</ele>
        <time>2018-03-16T11:15:07Z</time>
      </trkpt>
      <trkpt lat="45.91479" lon="4.70383">
        <ele>206</ele>
        <time>2018-03-16T11:15:08Z</time>
      </trkpt>
      <trkpt lat="45.91486" lon="4.70388">
        <ele>205</ele>
        <time>2018-03-16T11:15:09Z</time>
      </trkpt>
      <trkpt lat="45.91491" lon="4.7039">
        <ele>205</ele>
        <time>2018-03-16T11:15:10Z</time>
      </trkpt>
      <trkpt lat="45.91499" lon="4.70396">
        <ele>205</ele>
        <time>2018-03-16T11:15:11Z</time>
      </trkpt>
      <trkpt lat="45.91506" lon="4.70401">
        <ele>205</ele>
        <time>2018-03-16T11:15:12Z</time>
      </trkpt>
      <trkpt lat="45.91511" lon="4.70406">
        <ele>205</ele>
        <time>2018-03-16T11:15:13Z</time>
      </trkpt>
      <trkpt lat="45.91518" lon="4.70411">
        <ele>205</ele>
        <time>2018-03-16T11:15:14Z</time>
      </trkpt>
      <trkpt lat="45.91525" lon="4.70416">
        <ele>205</ele>
        <time>2018-03-16T11:15:15Z</time>
      </trkpt>
      <trkpt lat="45.91531" lon="4.70422">
        <ele>203</ele>
        <time>2018-03-16T11:15:16Z</time>
      </trkpt>
      <trkpt lat="45.91538" lon="4.70427">
        <ele>203</ele>
        <time>2018-03-16T11:15:17Z</time>
      </trkpt>
      <trkpt lat="45.91544" lon="4.70432">
        <ele>203</ele>
        <time>2018-03-16T11:15:18Z</time>
      </trkpt>
      <trkpt lat="45.9155" lon="4.70439">
        <ele>203</ele>
        <time>2018-03-16T11:15:19Z</time>
      </trkpt>
      <trkpt lat="45.91556" lon="4.70444">
        <ele>203</ele>
        <time>2018-03-16T11:15:20Z</time>
      </trkpt>
      <trkpt lat="45.91563" lon="4.70449">
        <ele>203</ele>
        <time>2018-03-16T11:15:21Z</time>
      </trkpt>
      <trkpt lat="45.91569" lon="4.70454">
        <ele>203</ele>
        <time>2018-03-16T11:15:22Z</time>
      </trkpt>
      <trkpt lat="45.91575" lon="4.7046">
        <ele>203</ele>
        <time>2018-03-16T11:15:23Z</time>
      </trkpt>
      <trkpt lat="45.91581" lon="4.70465">
        <ele>203</ele>
        <time>2018-03-16T11:15:24Z</time>
      </trkpt>
      <trkpt lat="45.91587" lon="4.70471">
        <ele>203</ele>
        <time>2018-03-16T11:15:25Z</time>
      </trkpt>
      <trkpt lat="45.91593" lon="4.70475">
        <ele>202</ele>
        <time>2018-03-16T11:15:26Z</time>
      </trkpt>
      <trkpt lat="45.91599" lon="4.7048">
        <ele>202</ele>
        <time>2018-03-16T11:15:27Z</time>
      </trkpt>
      <trkpt lat="45.91606" lon="4.70485">
        <ele>202</ele>
        <time>2018-03-16T11:15:28Z</time>
      </trkpt>
      <trkpt lat="45.91611" lon="4.7049">
        <ele>202</ele>
        <time>2018-03-16T11:15:29Z</time>
      </trkpt>
      <trkpt lat="45.91618" lon="4.70496">
        <ele>202</ele>
        <time>2018-03-16T11:15:30Z</time>
      </trkpt>
      <trkpt lat="45.91625" lon="4.70502">
        <ele>199</ele>
        <time>2018-03-16T11:15:31Z</time>
      </trkpt>
      <trkpt lat="45.91632" lon="4.70507">
        <ele>199</ele>
        <time>2018-03-16T11:15:32Z</time>
      </trkpt>
      <trkpt lat="45.91638" lon="4.70513">
        <ele>199</ele>
        <time>2018-03-16T11:15:33Z</time>
      </trkpt>
      <trkpt lat="45.91645" lon="4.70517">
        <ele>199</ele>
        <time>2018-03-16T11:15:34Z</time>
      </trkpt>
      <trkpt lat="45.91652" lon="4.70521">
        <ele>199</ele>
        <time>2018-03-16T11:15:35Z</time>
      </trkpt>
      <trkpt lat="45.91658" lon="4.70527">
        <ele>198</ele>
        <time>2018-03-16T11:15:36Z</time>
      </trkpt>
      <trkpt lat="45.91664" lon="4.70532">
        <ele>198</ele>
        <time>2018-03-16T11:15:37Z</time>
      </trkpt>
      <trkpt lat="45.9167" lon="4.70536">
        <ele>198</ele>
        <time>2018-03-16T11:15:38Z</time>
      </trkpt>
      <trkpt lat="45.91677" lon="4.70539">
        <ele>198</ele>
        <time>2018-03-16T11:15:39Z</time>
      </trkpt>
      <trkpt lat="45.91683" lon="4.70544">
        <ele>198</ele>
        <time>2018-03-16T11:15:40Z</time>
      </trkpt>
      <trkpt lat="45.91688" lon="4.7055">
        <ele>198</ele>
        <time>2018-03-16T11:15:41Z</time>
      </trkpt>
      <trkpt lat="45.91694" lon="4.70555">
        <ele>198</ele>
        <time>2018-03-16T11:15:42Z</time>
      </trkpt>
      <trkpt lat="45.917" lon="4.70559">
        <ele>198</ele>
        <time>2018-03-16T11:15:43Z</time>
      </trkpt>
      <trkpt lat="45.91706" lon="4.70565">
        <ele>197</ele>
        <time>2018-03-16T11:15:44Z</time>
      </trkpt>
      <trkpt lat="45.9171" lon="4.70572">
        <ele>197</ele>
        <time>2018-03-16T11:15:45Z</time>
      </trkpt>
      <trkpt lat="45.91714" lon="4.70581">
        <ele>197</ele>
        <time>2018-03-16T11:15:46Z</time>
      </trkpt>
      <trkpt lat="45.91719" lon="4.70586">
        <ele>196</ele>
        <time>2018-03-16T11:15:47Z</time>
      </trkpt>
      <trkpt lat="45.91725" lon="4.70589">
        <ele>196</ele>
        <time>2018-03-16T11:15:48Z</time>
      </trkpt>
      <trkpt lat="45.91731" lon="4.7059">
        <ele>196</ele>
        <time>2018-03-16T11:15:49Z</time>
      </trkpt>
      <trkpt lat="45.91738" lon="4.7059">
        <ele>196</ele>
        <time>2018-03-16T11:15:50Z</time>
      </trkpt>
      <trkpt lat="45.91744" lon="4.70593">
        <ele>196</ele>
        <time>2018-03-16T11:15:51Z</time>
      </trkpt>
      <trkpt lat="45.9175" lon="4.70596">
        <ele>195</ele>
        <time>2018-03-16T11:15:52Z</time>
      </trkpt>
      <trkpt lat="45.91756" lon="4.706">
        <ele>195</ele>
        <time>2018-03-16T11:15:53Z</time>
      </trkpt>
      <trkpt lat="45.91764" lon="4.70603">
        <ele>195</ele>
        <time>2018-03-16T11:15:54Z</time>
      </trkpt>
      <trkpt lat="45.9177" lon="4.70605">
        <ele>195</ele>
        <time>2018-03-16T11:15:55Z</time>
      </trkpt>
      <trkpt lat="45.91776" lon="4.70608">
        <ele>195</ele>
        <time>2018-03-16T11:15:56Z</time>
      </trkpt>
      <trkpt lat="45.91782" lon="4.7061">
        <ele>194</ele>
        <time>2018-03-16T11:15:57Z</time>
      </trkpt>
      <trkpt lat="45.91789" lon="4.70611">
        <ele>194</ele>
        <time>2018-03-16T11:15:58Z</time>
      </trkpt>
      <trkpt lat="45.91796" lon="4.70613">
        <ele>194</ele>
        <time>2018-03-16T11:15:59Z</time>
      </trkpt>
      <trkpt lat="45.91802" lon="4.70614">
        <ele>194</ele>
        <time>2018-03-16T11:16:00Z</time>
      </trkpt>
      <trkpt lat="45.91809" lon="4.70615">
        <ele>194</ele>
        <time>2018-03-16T11:16:01Z</time>
      </trkpt>
      <trkpt lat="45.91816" lon="4.70616">
        <ele>194</ele>
        <time>2018-03-16T11:16:02Z</time>
      </trkpt>
      <trkpt lat="45.91823" lon="4.70616">
        <ele>194</ele>
        <time>2018-03-16T11:16:03Z</time>
      </trkpt>
      <trkpt lat="45.9183" lon="4.70617">
        <ele>194</ele>
        <time>2018-03-16T11:16:04Z</time>
      </trkpt>
      <trkpt lat="45.91837" lon="4.70618">
        <ele>194</ele>
        <time>2018-03-16T11:16:05Z</time>
      </trkpt>
      <trkpt lat="45.91843" lon="4.70618">
        <ele>194</ele>
        <time>2018-03-16T11:16:06Z</time>
      </trkpt>
      <trkpt lat="45.9185" lon="4.70617">
        <ele>194</ele>
        <time>2018-03-16T11:16:07Z</time>
      </trkpt>
      <trkpt lat="45.91856" lon="4.70617">
        <ele>194</ele>
        <time>2018-03-16T11:16:08Z</time>
      </trkpt>
      <trkpt lat="45.91864" lon="4.70616">
        <ele>194</ele>
        <time>2018-03-16T11:16:09Z</time>
      </trkpt>
      <trkpt lat="45.9187" lon="4.70615">
        <ele>194</ele>
        <time>2018-03-16T11:16:10Z</time>
      </trkpt>
      <trkpt lat="45.91877" lon="4.70614">
        <ele>194</ele>
        <time>2018-03-16T11:16:11Z</time>
      </trkpt>
      <trkpt lat="45.91883" lon="4.70615">
        <ele>194</ele>
        <time>2018-03-16T11:16:12Z</time>
      </trkpt>
      <trkpt lat="45.9189" lon="4.70614">
        <ele>194</ele>
        <time>2018-03-16T11:16:13Z</time>
      </trkpt>
      <trkpt lat="45.91897" lon="4.70614">
        <ele>194</ele>
        <time>2018-03-16T11:16:14Z</time>
      </trkpt>
      <trkpt lat="45.91904" lon="4.70614">
        <ele>194</ele>
        <time>2018-03-16T11:16:15Z</time>
      </trkpt>
      <trkpt lat="45.91911" lon="4.70614">
        <ele>194</ele>
        <time>2018-03-16T11:16:16Z</time>
      </trkpt>
      <trkpt lat="45.91918" lon="4.70613">
        <ele>195</ele>
        <time>2018-03-16T11:16:17Z</time>
      </trkpt>
      <trkpt lat="45.91926" lon="4.70613">
        <ele>195</ele>
        <time>2018-03-16T11:16:18Z</time>
      </trkpt>
      <trkpt lat="45.91933" lon="4.70612">
        <ele>194</ele>
        <time>2018-03-16T11:16:19Z</time>
      </trkpt>
      <trkpt lat="45.9194" lon="4.70611">
        <ele>194</ele>
        <time>2018-03-16T11:16:20Z</time>
      </trkpt>
      <trkpt lat="45.91948" lon="4.7061">
        <ele>194</ele>
        <time>2018-03-16T11:16:21Z</time>
      </trkpt>
      <trkpt lat="45.91956" lon="4.70609">
        <ele>194</ele>
        <time>2018-03-16T11:16:22Z</time>
      </trkpt>
      <trkpt lat="45.91963" lon="4.70609">
        <ele>194</ele>
        <time>2018-03-16T11:16:23Z</time>
      </trkpt>
      <trkpt lat="45.9197" lon="4.70608">
        <ele>194</ele>
        <time>2018-03-16T11:16:24Z</time>
      </trkpt>
      <trkpt lat="45.91977" lon="4.70607">
        <ele>194</ele>
        <time>2018-03-16T11:16:25Z</time>
      </trkpt>
      <trkpt lat="45.91984" lon="4.70606">
        <ele>194</ele>
        <time>2018-03-16T11:16:26Z</time>
      </trkpt>
      <trkpt lat="45.91991" lon="4.70605">
        <ele>194</ele>
        <time>2018-03-16T11:16:27Z</time>
      </trkpt>
      <trkpt lat="45.91998" lon="4.70605">
        <ele>194</ele>
        <time>2018-03-16T11:16:28Z</time>
      </trkpt>
      <trkpt lat="45.92005" lon="4.70604">
        <ele>194</ele>
        <time>2018-03-16T11:16:29Z</time>
      </trkpt>
      <trkpt lat="45.92012" lon="4.70603">
        <ele>194</ele>
        <time>2018-03-16T11:16:30Z</time>
      </trkpt>
      <trkpt lat="45.92018" lon="4.70602">
        <ele>194</ele>
        <time>2018-03-16T11:16:31Z</time>
      </trkpt>
      <trkpt lat="45.92026" lon="4.70601">
        <ele>194</ele>
        <time>2018-03-16T11:16:32Z</time>
      </trkpt>
      <trkpt lat="45.92033" lon="4.706">
        <ele>193</ele>
        <time>2018-03-16T11:16:33Z</time>
      </trkpt>
      <trkpt lat="45.9204" lon="4.70599">
        <ele>193</ele>
        <time>2018-03-16T11:16:34Z</time>
      </trkpt>
      <trkpt lat="45.92047" lon="4.70598">
        <ele>193</ele>
        <time>2018-03-16T11:16:35Z</time>
      </trkpt>
      <trkpt lat="45.92054" lon="4.70598">
        <ele>193</ele>
        <time>2018-03-16T11:16:36Z</time>
      </trkpt>
      <trkpt lat="45.92061" lon="4.70598">
        <ele>193</ele>
        <time>2018-03-16T11:16:37Z</time>
      </trkpt>
      <trkpt lat="45.92069" lon="4.70597">
        <ele>193</ele>
        <time>2018-03-16T11:16:38Z</time>
      </trkpt>
      <trkpt lat="45.92076" lon="4.70596">
        <ele>194</ele>
        <time>2018-03-16T11:16:39Z</time>
      </trkpt>
      <trkpt lat="45.92084" lon="4.70595">
        <ele>193</ele>
        <time>2018-03-16T11:16:40Z</time>
      </trkpt>
      <trkpt lat="45.92091" lon="4.70594">
        <ele>193</ele>
        <time>2018-03-16T11:16:41Z</time>
      </trkpt>
      <trkpt lat="45.92098" lon="4.70594">
        <ele>192</ele>
        <time>2018-03-16T11:16:42Z</time>
      </trkpt>
      <trkpt lat="45.92106" lon="4.70594">
        <ele>192</ele>
        <time>2018-03-16T11:16:43Z</time>
      </trkpt>
      <trkpt lat="45.92114" lon="4.70594">
        <ele>192</ele>
        <time>2018-03-16T11:16:44Z</time>
      </trkpt>
      <trkpt lat="45.92121" lon="4.70593">
        <ele>191</ele>
        <time>2018-03-16T11:16:45Z</time>
      </trkpt>
      <trkpt lat="45.9213" lon="4.70592">
        <ele>191</ele>
        <time>2018-03-16T11:16:46Z</time>
      </trkpt>
      <trkpt lat="45.92138" lon="4.70592">
        <ele>191</ele>
        <time>2018-03-16T11:16:47Z</time>
      </trkpt>
      <trkpt lat="45.92145" lon="4.70592">
        <ele>191</ele>
        <time>2018-03-16T11:16:48Z</time>
      </trkpt>
      <trkpt lat="45.92154" lon="4.70592">
        <ele>190</ele>
        <time>2018-03-16T11:16:49Z</time>
      </trkpt>
      <trkpt lat="45.92161" lon="4.70591">
        <ele>190</ele>
        <time>2018-03-16T11:16:50Z</time>
      </trkpt>
      <trkpt lat="45.92168" lon="4.70592">
        <ele>191</ele>
        <time>2018-03-16T11:16:51Z</time>
      </trkpt>
      <trkpt lat="45.92175" lon="4.70592">
        <ele>191</ele>
        <time>2018-03-16T11:16:52Z</time>
      </trkpt>
      <trkpt lat="45.92183" lon="4.70594">
        <ele>191</ele>
        <time>2018-03-16T11:16:53Z</time>
      </trkpt>
      <trkpt lat="45.9219" lon="4.70596">
        <ele>192</ele>
        <time>2018-03-16T11:16:54Z</time>
      </trkpt>
      <trkpt lat="45.92197" lon="4.70595">
        <ele>192</ele>
        <time>2018-03-16T11:16:55Z</time>
      </trkpt>
      <trkpt lat="45.92203" lon="4.70597">
        <ele>192</ele>
        <time>2018-03-16T11:16:56Z</time>
      </trkpt>
      <trkpt lat="45.92209" lon="4.70598">
        <ele>192</ele>
        <time>2018-03-16T11:16:57Z</time>
      </trkpt>
      <trkpt lat="45.92215" lon="4.70599">
        <ele>193</ele>
        <time>2018-03-16T11:16:58Z</time>
      </trkpt>
      <trkpt lat="45.92221" lon="4.70601">
        <ele>193</ele>
        <time>2018-03-16T11:16:59Z</time>
      </trkpt>
      <trkpt lat="45.92227" lon="4.70602">
        <ele>193</ele>
        <time>2018-03-16T11:17:00Z</time>
      </trkpt>
      <trkpt lat="45.92233" lon="4.70603">
        <ele>194</ele>
        <time>2018-03-16T11:17:01Z</time>
      </trkpt>
      <trkpt lat="45.92238" lon="4.70604">
        <ele>194</ele>
        <time>2018-03-16T11:17:02Z</time>
      </trkpt>
      <trkpt lat="45.92245" lon="4.70605">
        <ele>194</ele>
        <time>2018-03-16T11:17:03Z</time>
      </trkpt>
      <trkpt lat="45.9225" lon="4.70607">
        <ele>196</ele>
        <time>2018-03-16T11:17:04Z</time>
      </trkpt>
      <trkpt lat="45.92256" lon="4.70608">
        <ele>196</ele>
        <time>2018-03-16T11:17:05Z</time>
      </trkpt>
      <trkpt lat="45.92262" lon="4.70609">
        <ele>196</ele>
        <time>2018-03-16T11:17:06Z</time>
      </trkpt>
      <trkpt lat="45.92268" lon="4.70611">
        <ele>196</ele>
        <time>2018-03-16T11:17:07Z</time>
      </trkpt>
      <trkpt lat="45.92273" lon="4.70614">
        <ele>196</ele>
        <time>2018-03-16T11:17:08Z</time>
      </trkpt>
      <trkpt lat="45.92278" lon="4.70616">
        <ele>196</ele>
        <time>2018-03-16T11:17:09Z</time>
      </trkpt>
      <trkpt lat="45.92285" lon="4.70619">
        <ele>196</ele>
        <time>2018-03-16T11:17:10Z</time>
      </trkpt>
      <trkpt lat="45.92291" lon="4.70621">
        <ele>196</ele>
        <time>2018-03-16T11:17:11Z</time>
      </trkpt>
      <trkpt lat="45.92297" lon="4.70624">
        <ele>196</ele>
        <time>2018-03-16T11:17:12Z</time>
      </trkpt>
      <trkpt lat="45.92304" lon="4.70627">
        <ele>196</ele>
        <time>2018-03-16T11:17:13Z</time>
      </trkpt>
      <trkpt lat="45.9231" lon="4.7063">
        <ele>196</ele>
        <time>2018-03-16T11:17:14Z</time>
      </trkpt>
      <trkpt lat="45.92316" lon="4.70633">
        <ele>196</ele>
        <time>2018-03-16T11:17:15Z</time>
      </trkpt>
      <trkpt lat="45.9232" lon="4.70636">
        <ele>196</ele>
        <time>2018-03-16T11:17:16Z</time>
      </trkpt>
      <trkpt lat="45.92326" lon="4.7064">
        <ele>196</ele>
        <time>2018-03-16T11:17:17Z</time>
      </trkpt>
      <trkpt lat="45.92331" lon="4.70643">
        <ele>196</ele>
        <time>2018-03-16T11:17:18Z</time>
      </trkpt>
      <trkpt lat="45.92337" lon="4.70647">
        <ele>196</ele>
        <time>2018-03-16T11:17:19Z</time>
      </trkpt>
      <trkpt lat="45.92342" lon="4.70649">
        <ele>196</ele>
        <time>2018-03-16T11:17:20Z</time>
      </trkpt>
      <trkpt lat="45.92347" lon="4.70652">
        <ele>196</ele>
        <time>2018-03-16T11:17:21Z</time>
      </trkpt>
      <trkpt lat="45.92353" lon="4.70655">
        <ele>196</ele>
        <time>2018-03-16T11:17:22Z</time>
      </trkpt>
      <trkpt lat="45.92359" lon="4.70659">
        <ele>196</ele>
        <time>2018-03-16T11:17:23Z</time>
      </trkpt>
      <trkpt lat="45.92364" lon="4.70663">
        <ele>196</ele>
        <time>2018-03-16T11:17:24Z</time>
      </trkpt>
      <trkpt lat="45.92369" lon="4.70666">
        <ele>196</ele>
        <time>2018-03-16T11:17:25Z</time>
      </trkpt>
      <trkpt lat="45.92375" lon="4.70669">
        <ele>194</ele>
        <time>2018-03-16T11:17:26Z</time>
      </trkpt>
      <trkpt lat="45.92381" lon="4.70672">
        <ele>194</ele>
        <time>2018-03-16T11:17:27Z</time>
      </trkpt>
      <trkpt lat="45.92386" lon="4.70675">
        <ele>194</ele>
        <time>2018-03-16T11:17:28Z</time>
      </trkpt>
      <trkpt lat="45.92392" lon="4.70678">
        <ele>194</ele>
        <time>2018-03-16T11:17:29Z</time>
      </trkpt>
      <trkpt lat="45.92397" lon="4.7068">
        <ele>195</ele>
        <time>2018-03-16T11:17:30Z</time>
      </trkpt>
      <trkpt lat="45.92403" lon="4.70684">
        <ele>195</ele>
        <time>2018-03-16T11:17:31Z</time>
      </trkpt>
      <trkpt lat="45.92408" lon="4.70687">
        <ele>194</ele>
        <time>2018-03-16T11:17:32Z</time>
      </trkpt>
      <trkpt lat="45.92414" lon="4.7069">
        <ele>194</ele>
        <time>2018-03-16T11:17:33Z</time>
      </trkpt>
      <trkpt lat="45.92419" lon="4.70693">
        <ele>195</ele>
        <time>2018-03-16T11:17:34Z</time>
      </trkpt>
      <trkpt lat="45.92424" lon="4.70697">
        <ele>195</ele>
        <time>2018-03-16T11:17:35Z</time>
      </trkpt>
      <trkpt lat="45.9243" lon="4.707">
        <ele>195</ele>
        <time>2018-03-16T11:17:36Z</time>
      </trkpt>
      <trkpt lat="45.92435" lon="4.70702">
        <ele>194</ele>
        <time>2018-03-16T11:17:37Z</time>
      </trkpt>
      <trkpt lat="45.9244" lon="4.70706">
        <ele>194</ele>
        <time>2018-03-16T11:17:38Z</time>
      </trkpt>
      <trkpt lat="45.92446" lon="4.70709">
        <ele>194</ele>
        <time>2018-03-16T11:17:39Z</time>
      </trkpt>
      <trkpt lat="45.92451" lon="4.70712">
        <ele>194</ele>
        <time>2018-03-16T11:17:40Z</time>
      </trkpt>
      <trkpt lat="45.92457" lon="4.70715">
        <ele>194</ele>
        <time>2018-03-16T11:17:41Z</time>
      </trkpt>
      <trkpt lat="45.92463" lon="4.70719">
        <ele>194</ele>
        <time>2018-03-16T11:17:42Z</time>
      </trkpt>
      <trkpt lat="45.92468" lon="4.70722">
        <ele>194</ele>
        <time>2018-03-16T11:17:43Z</time>
      </trkpt>
      <trkpt lat="45.92473" lon="4.70726">
        <ele>194</ele>
        <time>2018-03-16T11:17:44Z</time>
      </trkpt>
      <trkpt lat="45.92479" lon="4.70729">
        <ele>194</ele>
        <time>2018-03-16T11:17:45Z</time>
      </trkpt>
      <trkpt lat="45.92485" lon="4.70732">
        <ele>194</ele>
        <time>2018-03-16T11:17:46Z</time>
      </trkpt>
      <trkpt lat="45.9249" lon="4.70734">
        <ele>194</ele>
        <time>2018-03-16T11:17:47Z</time>
      </trkpt>
      <trkpt lat="45.92496" lon="4.70737">
        <ele>194</ele>
        <time>2018-03-16T11:17:48Z</time>
      </trkpt>
      <trkpt lat="45.92502" lon="4.70739">
        <ele>195</ele>
        <time>2018-03-16T11:17:49Z</time>
      </trkpt>
      <trkpt lat="45.92507" lon="4.70743">
        <ele>195</ele>
        <time>2018-03-16T11:17:50Z</time>
      </trkpt>
      <trkpt lat="45.92512" lon="4.70746">
        <ele>195</ele>
        <time>2018-03-16T11:17:51Z</time>
      </trkpt>
      <trkpt lat="45.92518" lon="4.70749">
        <ele>196</ele>
        <time>2018-03-16T11:17:52Z</time>
      </trkpt>
      <trkpt lat="45.92523" lon="4.70752">
        <ele>195</ele>
        <time>2018-03-16T11:17:53Z</time>
      </trkpt>
      <trkpt lat="45.92527" lon="4.70755">
        <ele>195</ele>
        <time>2018-03-16T11:17:54Z</time>
      </trkpt>
      <trkpt lat="45.92532" lon="4.70758">
        <ele>195</ele>
        <time>2018-03-16T11:17:55Z</time>
      </trkpt>
      <trkpt lat="45.92537" lon="4.70761">
        <ele>195</ele>
        <time>2018-03-16T11:17:56Z</time>
      </trkpt>
      <trkpt lat="45.9254" lon="4.70763">
        <ele>195</ele>
        <time>2018-03-16T11:17:57Z</time>
      </trkpt>
      <trkpt lat="45.92545" lon="4.70766">
        <ele>195</ele>
        <time>2018-03-16T11:17:58Z</time>
      </trkpt>
      <trkpt lat="45.9255" lon="4.7077">
        <ele>196</ele>
        <time>2018-03-16T11:17:59Z</time>
      </trkpt>
      <trkpt lat="45.92556" lon="4.70773">
        <ele>196</ele>
        <time>2018-03-16T11:18:00Z</time>
      </trkpt>
      <trkpt lat="45.9256" lon="4.70776">
        <ele>196</ele>
        <time>2018-03-16T11:18:01Z</time>
      </trkpt>
      <trkpt lat="45.92564" lon="4.7078">
        <ele>196</ele>
        <time>2018-03-16T11:18:02Z</time>
      </trkpt>
      <trkpt lat="45.92569" lon="4.70783">
        <ele>196</ele>
        <time>2018-03-16T11:18:03Z</time>
      </trkpt>
      <trkpt lat="45.92576" lon="4.70791">
        <ele>196</ele>
        <time>2018-03-16T11:18:05Z</time>
      </trkpt>
      <trkpt lat="45.9258" lon="4.70795">
        <ele>196</ele>
        <time>2018-03-16T11:18:06Z</time>
      </trkpt>
      <trkpt lat="45.92584" lon="4.70799">
        <ele>198</ele>
        <time>2018-03-16T11:18:07Z</time>
      </trkpt>
      <trkpt lat="45.92588" lon="4.70803">
        <ele>198</ele>
        <time>2018-03-16T11:18:08Z</time>
      </trkpt>
      <trkpt lat="45.92594" lon="4.70807">
        <ele>198</ele>
        <time>2018-03-16T11:18:09Z</time>
      </trkpt>
      <trkpt lat="45.92599" lon="4.70811">
        <ele>198</ele>
        <time>2018-03-16T11:18:10Z</time>
      </trkpt>
      <trkpt lat="45.92602" lon="4.70816">
        <ele>198</ele>
        <time>2018-03-16T11:18:11Z</time>
      </trkpt>
      <trkpt lat="45.92607" lon="4.70819">
        <ele>198</ele>
        <time>2018-03-16T11:18:12Z</time>
      </trkpt>
      <trkpt lat="45.92612" lon="4.70824">
        <ele>198</ele>
        <time>2018-03-16T11:18:13Z</time>
      </trkpt>
      <trkpt lat="45.92616" lon="4.70828">
        <ele>199</ele>
        <time>2018-03-16T11:18:14Z</time>
      </trkpt>
      <trkpt lat="45.92621" lon="4.70832">
        <ele>199</ele>
        <time>2018-03-16T11:18:15Z</time>
      </trkpt>
      <trkpt lat="45.92625" lon="4.70836">
        <ele>198</ele>
        <time>2018-03-16T11:18:16Z</time>
      </trkpt>
      <trkpt lat="45.9263" lon="4.7084">
        <ele>198</ele>
        <time>2018-03-16T11:18:17Z</time>
      </trkpt>
      <trkpt lat="45.92633" lon="4.70844">
        <ele>198</ele>
        <time>2018-03-16T11:18:18Z</time>
      </trkpt>
      <trkpt lat="45.92638" lon="4.70849">
        <ele>198</ele>
        <time>2018-03-16T11:18:19Z</time>
      </trkpt>
      <trkpt lat="45.92641" lon="4.70853">
        <ele>198</ele>
        <time>2018-03-16T11:18:20Z</time>
      </trkpt>
      <trkpt lat="45.92645" lon="4.70858">
        <ele>198</ele>
        <time>2018-03-16T11:18:21Z</time>
      </trkpt>
      <trkpt lat="45.92649" lon="4.70862">
        <ele>198</ele>
        <time>2018-03-16T11:18:22Z</time>
      </trkpt>
      <trkpt lat="45.92653" lon="4.70866">
        <ele>198</ele>
        <time>2018-03-16T11:18:23Z</time>
      </trkpt>
      <trkpt lat="45.92657" lon="4.70871">
        <ele>198</ele>
        <time>2018-03-16T11:18:24Z</time>
      </trkpt>
      <trkpt lat="45.92662" lon="4.70876">
        <ele>198</ele>
        <time>2018-03-16T11:18:25Z</time>
      </trkpt>
      <trkpt lat="45.92666" lon="4.7088">
        <ele>197</ele>
        <time>2018-03-16T11:18:26Z</time>
      </trkpt>
      <trkpt lat="45.9267" lon="4.70885">
        <ele>198</ele>
        <time>2018-03-16T11:18:27Z</time>
      </trkpt>
      <trkpt lat="45.92674" lon="4.70888">
        <ele>198</ele>
        <time>2018-03-16T11:18:28Z</time>
      </trkpt>
      <trkpt lat="45.92678" lon="4.70892">
        <ele>197</ele>
        <time>2018-03-16T11:18:29Z</time>
      </trkpt>
      <trkpt lat="45.92682" lon="4.70896">
        <ele>197</ele>
        <time>2018-03-16T11:18:30Z</time>
      </trkpt>
      <trkpt lat="45.92686" lon="4.70899">
        <ele>197</ele>
        <time>2018-03-16T11:18:31Z</time>
      </trkpt>
      <trkpt lat="45.9269" lon="4.70902">
        <ele>197</ele>
        <time>2018-03-16T11:18:32Z</time>
      </trkpt>
      <trkpt lat="45.92694" lon="4.70905">
        <ele>197</ele>
        <time>2018-03-16T11:18:33Z</time>
      </trkpt>
      <trkpt lat="45.92699" lon="4.70909">
        <ele>197</ele>
        <time>2018-03-16T11:18:34Z</time>
      </trkpt>
      <trkpt lat="45.92704" lon="4.70912">
        <ele>197</ele>
        <time>2018-03-16T11:18:35Z</time>
      </trkpt>
      <trkpt lat="45.9271" lon="4.70914">
        <ele>197</ele>
        <time>2018-03-16T11:18:36Z</time>
      </trkpt>
      <trkpt lat="45.92716" lon="4.70917">
        <ele>197</ele>
        <time>2018-03-16T11:18:37Z</time>
      </trkpt>
      <trkpt lat="45.92721" lon="4.70918">
        <ele>195</ele>
        <time>2018-03-16T11:18:38Z</time>
      </trkpt>
      <trkpt lat="45.92727" lon="4.7092">
        <ele>195</ele>
        <time>2018-03-16T11:18:39Z</time>
      </trkpt>
      <trkpt lat="45.92733" lon="4.70922">
        <ele>195</ele>
        <time>2018-03-16T11:18:40Z</time>
      </trkpt>
      <trkpt lat="45.92739" lon="4.70922">
        <ele>195</ele>
        <time>2018-03-16T11:18:41Z</time>
      </trkpt>
      <trkpt lat="45.92745" lon="4.70923">
        <ele>195</ele>
        <time>2018-03-16T11:18:42Z</time>
      </trkpt>
      <trkpt lat="45.92752" lon="4.70924">
        <ele>196</ele>
        <time>2018-03-16T11:18:43Z</time>
      </trkpt>
      <trkpt lat="45.92757" lon="4.70925">
        <ele>196</ele>
        <time>2018-03-16T11:18:44Z</time>
      </trkpt>
      <trkpt lat="45.92763" lon="4.70926">
        <ele>196</ele>
        <time>2018-03-16T11:18:45Z</time>
      </trkpt>
      <trkpt lat="45.92767" lon="4.70928">
        <ele>196</ele>
        <time>2018-03-16T11:18:46Z</time>
      </trkpt>
      <trkpt lat="45.92771" lon="4.70929">
        <ele>196</ele>
        <time>2018-03-16T11:18:47Z</time>
      </trkpt>
      <trkpt lat="45.92776" lon="4.7093">
        <ele>196</ele>
        <time>2018-03-16T11:18:48Z</time>
      </trkpt>
      <trkpt lat="45.92781" lon="4.70931">
        <ele>196</ele>
        <time>2018-03-16T11:18:49Z</time>
      </trkpt>
      <trkpt lat="45.92785" lon="4.70932">
        <ele>196</ele>
        <time>2018-03-16T11:18:50Z</time>
      </trkpt>
      <trkpt lat="45.9279" lon="4.70933">
        <ele>196</ele>
        <time>2018-03-16T11:18:51Z</time>
      </trkpt>
      <trkpt lat="45.92795" lon="4.70935">
        <ele>196</ele>
        <time>2018-03-16T11:18:52Z</time>
      </trkpt>
      <trkpt lat="45.92803" lon="4.70941">
        <ele>196</ele>
        <time>2018-03-16T11:18:54Z</time>
      </trkpt>
      <trkpt lat="45.92806" lon="4.70945">
        <ele>196</ele>
        <time>2018-03-16T11:18:55Z</time>
      </trkpt>
      <trkpt lat="45.92814" lon="4.70951">
        <ele>196</ele>
        <time>2018-03-16T11:18:57Z</time>
      </trkpt>
      <trkpt lat="45.92818" lon="4.70951">
        <ele>197</ele>
        <time>2018-03-16T11:18:58Z</time>
      </trkpt>
      <trkpt lat="45.92823" lon="4.70949">
        <ele>197</ele>
        <time>2018-03-16T11:18:59Z</time>
      </trkpt>
      <trkpt lat="45.92828" lon="4.70947">
        <ele>197</ele>
        <time>2018-03-16T11:19:00Z</time>
      </trkpt>
      <trkpt lat="45.92832" lon="4.70944">
        <ele>197</ele>
        <time>2018-03-16T11:19:01Z</time>
      </trkpt>
      <trkpt lat="45.92836" lon="4.70942">
        <ele>198</ele>
        <time>2018-03-16T11:19:02Z</time>
      </trkpt>
      <trkpt lat="45.92841" lon="4.70942">
        <ele>198</ele>
        <time>2018-03-16T11:19:03Z</time>
      </trkpt>
      <trkpt lat="45.92846" lon="4.70942">
        <ele>198</ele>
        <time>2018-03-16T11:19:04Z</time>
      </trkpt>
      <trkpt lat="45.92851" lon="4.70944">
        <ele>198</ele>
        <time>2018-03-16T11:19:05Z</time>
      </trkpt>
      <trkpt lat="45.92856" lon="4.70945">
        <ele>198</ele>
        <time>2018-03-16T11:19:06Z</time>
      </trkpt>
      <trkpt lat="45.92861" lon="4.70946">
        <ele>198</ele>
        <time>2018-03-16T11:19:07Z</time>
      </trkpt>
      <trkpt lat="45.92866" lon="4.70947">
        <ele>198</ele>
        <time>2018-03-16T11:19:08Z</time>
      </trkpt>
      <trkpt lat="45.92871" lon="4.70949">
        <ele>198</ele>
        <time>2018-03-16T11:19:09Z</time>
      </trkpt>
      <trkpt lat="45.92876" lon="4.7095">
        <ele>198</ele>
        <time>2018-03-16T11:19:10Z</time>
      </trkpt>
      <trkpt lat="45.9288" lon="4.7095">
        <ele>198</ele>
        <time>2018-03-16T11:19:11Z</time>
      </trkpt>
      <trkpt lat="45.92886" lon="4.70951">
        <ele>198</ele>
        <time>2018-03-16T11:19:12Z</time>
      </trkpt>
      <trkpt lat="45.92892" lon="4.70953">
        <ele>198</ele>
        <time>2018-03-16T11:19:13Z</time>
      </trkpt>
      <trkpt lat="45.92897" lon="4.70954">
        <ele>198</ele>
        <time>2018-03-16T11:19:14Z</time>
      </trkpt>
      <trkpt lat="45.92903" lon="4.70956">
        <ele>198</ele>
        <time>2018-03-16T11:19:15Z</time>
      </trkpt>
      <trkpt lat="45.92909" lon="4.70958">
        <ele>198</ele>
        <time>2018-03-16T11:19:16Z</time>
      </trkpt>
      <trkpt lat="45.92914" lon="4.70958">
        <ele>198</ele>
        <time>2018-03-16T11:19:17Z</time>
      </trkpt>
      <trkpt lat="45.92921" lon="4.7096">
        <ele>198</ele>
        <time>2018-03-16T11:19:18Z</time>
      </trkpt>
      <trkpt lat="45.92927" lon="4.70962">
        <ele>198</ele>
        <time>2018-03-16T11:19:19Z</time>
      </trkpt>
      <trkpt lat="45.92934" lon="4.70963">
        <ele>198</ele>
        <time>2018-03-16T11:19:20Z</time>
      </trkpt>
      <trkpt lat="45.9294" lon="4.70964">
        <ele>198</ele>
        <time>2018-03-16T11:19:21Z</time>
      </trkpt>
      <trkpt lat="45.92946" lon="4.70966">
        <ele>198</ele>
        <time>2018-03-16T11:19:22Z</time>
      </trkpt>
      <trkpt lat="45.92953" lon="4.70968">
        <ele>198</ele>
        <time>2018-03-16T11:19:23Z</time>
      </trkpt>
      <trkpt lat="45.92959" lon="4.7097">
        <ele>198</ele>
        <time>2018-03-16T11:19:24Z</time>
      </trkpt>
      <trkpt lat="45.92966" lon="4.70972">
        <ele>198</ele>
        <time>2018-03-16T11:19:25Z</time>
      </trkpt>
      <trkpt lat="45.92974" lon="4.70974">
        <ele>198</ele>
        <time>2018-03-16T11:19:26Z</time>
      </trkpt>
      <trkpt lat="45.9298" lon="4.70976">
        <ele>198</ele>
        <time>2018-03-16T11:19:27Z</time>
      </trkpt>
      <trkpt lat="45.92986" lon="4.70976">
        <ele>198</ele>
        <time>2018-03-16T11:19:28Z</time>
      </trkpt>
      <trkpt lat="45.92992" lon="4.70978">
        <ele>198</ele>
        <time>2018-03-16T11:19:29Z</time>
      </trkpt>
      <trkpt lat="45.92998" lon="4.70979">
        <ele>198</ele>
        <time>2018-03-16T11:19:30Z</time>
      </trkpt>
      <trkpt lat="45.93003" lon="4.70982">
        <ele>198</ele>
        <time>2018-03-16T11:19:31Z</time>
      </trkpt>
      <trkpt lat="45.93009" lon="4.70984">
        <ele>198</ele>
        <time>2018-03-16T11:19:32Z</time>
      </trkpt>
      <trkpt lat="45.93015" lon="4.70987">
        <ele>198</ele>
        <time>2018-03-16T11:19:33Z</time>
      </trkpt>
      <trkpt lat="45.93022" lon="4.7099">
        <ele>198</ele>
        <time>2018-03-16T11:19:34Z</time>
      </trkpt>
      <trkpt lat="45.93028" lon="4.70993">
        <ele>198</ele>
        <time>2018-03-16T11:19:35Z</time>
      </trkpt>
      <trkpt lat="45.93034" lon="4.70997">
        <ele>198</ele>
        <time>2018-03-16T11:19:36Z</time>
      </trkpt>
      <trkpt lat="45.9304" lon="4.71001">
        <ele>197</ele>
        <time>2018-03-16T11:19:37Z</time>
      </trkpt>
      <trkpt lat="45.93046" lon="4.71004">
        <ele>197</ele>
        <time>2018-03-16T11:19:38Z</time>
      </trkpt>
      <trkpt lat="45.93052" lon="4.71009">
        <ele>197</ele>
        <time>2018-03-16T11:19:39Z</time>
      </trkpt>
      <trkpt lat="45.93058" lon="4.71014">
        <ele>197</ele>
        <time>2018-03-16T11:19:40Z</time>
      </trkpt>
      <trkpt lat="45.93064" lon="4.7102">
        <ele>197</ele>
        <time>2018-03-16T11:19:41Z</time>
      </trkpt>
      <trkpt lat="45.93069" lon="4.71026">
        <ele>197</ele>
        <time>2018-03-16T11:19:42Z</time>
      </trkpt>
      <trkpt lat="45.93074" lon="4.71031">
        <ele>197</ele>
        <time>2018-03-16T11:19:43Z</time>
      </trkpt>
      <trkpt lat="45.9308" lon="4.71038">
        <ele>196</ele>
        <time>2018-03-16T11:19:44Z</time>
      </trkpt>
      <trkpt lat="45.93084" lon="4.71044">
        <ele>196</ele>
        <time>2018-03-16T11:19:45Z</time>
      </trkpt>
      <trkpt lat="45.9309" lon="4.71051">
        <ele>196</ele>
        <time>2018-03-16T11:19:46Z</time>
      </trkpt>
      <trkpt lat="45.93095" lon="4.71058">
        <ele>195</ele>
        <time>2018-03-16T11:19:47Z</time>
      </trkpt>
      <trkpt lat="45.931" lon="4.71066">
        <ele>195</ele>
        <time>2018-03-16T11:19:48Z</time>
      </trkpt>
      <trkpt lat="45.93105" lon="4.71075">
        <ele>195</ele>
        <time>2018-03-16T11:19:49Z</time>
      </trkpt>
      <trkpt lat="45.9311" lon="4.71083">
        <ele>195</ele>
        <time>2018-03-16T11:19:50Z</time>
      </trkpt>
      <trkpt lat="45.93115" lon="4.71091">
        <ele>193</ele>
        <time>2018-03-16T11:19:51Z</time>
      </trkpt>
      <trkpt lat="45.93119" lon="4.71099">
        <ele>192</ele>
        <time>2018-03-16T11:19:52Z</time>
      </trkpt>
      <trkpt lat="45.93124" lon="4.71108">
        <ele>192</ele>
        <time>2018-03-16T11:19:53Z</time>
      </trkpt>
      <trkpt lat="45.93128" lon="4.71117">
        <ele>192</ele>
        <time>2018-03-16T11:19:54Z</time>
      </trkpt>
      <trkpt lat="45.93132" lon="4.71126">
        <ele>192</ele>
        <time>2018-03-16T11:19:55Z</time>
      </trkpt>
      <trkpt lat="45.93136" lon="4.71134">
        <ele>192</ele>
        <time>2018-03-16T11:19:56Z</time>
      </trkpt>
      <trkpt lat="45.9314" lon="4.71143">
        <ele>192</ele>
        <time>2018-03-16T11:19:57Z</time>
      </trkpt>
      <trkpt lat="45.93143" lon="4.71151">
        <ele>191</ele>
        <time>2018-03-16T11:19:58Z</time>
      </trkpt>
      <trkpt lat="45.93147" lon="4.71159">
        <ele>191</ele>
        <time>2018-03-16T11:19:59Z</time>
      </trkpt>
      <trkpt lat="45.93149" lon="4.71167">
        <ele>190</ele>
        <time>2018-03-16T11:20:00Z</time>
      </trkpt>
      <trkpt lat="45.93153" lon="4.71175">
        <ele>190</ele>
        <time>2018-03-16T11:20:01Z</time>
      </trkpt>
      <trkpt lat="45.93157" lon="4.71182">
        <ele>190</ele>
        <time>2018-03-16T11:20:02Z</time>
      </trkpt>
      <trkpt lat="45.93161" lon="4.71191">
        <ele>190</ele>
        <time>2018-03-16T11:20:03Z</time>
      </trkpt>
      <trkpt lat="45.93164" lon="4.71199">
        <ele>190</ele>
        <time>2018-03-16T11:20:04Z</time>
      </trkpt>
      <trkpt lat="45.93168" lon="4.71208">
        <ele>190</ele>
        <time>2018-03-16T11:20:05Z</time>
      </trkpt>
      <trkpt lat="45.93172" lon="4.71218">
        <ele>190</ele>
        <time>2018-03-16T11:20:06Z</time>
      </trkpt>
      <trkpt lat="45.93176" lon="4.71226">
        <ele>190</ele>
        <time>2018-03-16T11:20:07Z</time>
      </trkpt>
      <trkpt lat="45.93182" lon="4.71235">
        <ele>190</ele>
        <time>2018-03-16T11:20:08Z</time>
      </trkpt>
      <trkpt lat="45.93186" lon="4.71244">
        <ele>190</ele>
        <time>2018-03-16T11:20:09Z</time>
      </trkpt>
      <trkpt lat="45.9319" lon="4.71253">
        <ele>189</ele>
        <time>2018-03-16T11:20:10Z</time>
      </trkpt>
      <trkpt lat="45.93194" lon="4.71262">
        <ele>189</ele>
        <time>2018-03-16T11:20:11Z</time>
      </trkpt>
      <trkpt lat="45.93197" lon="4.7127">
        <ele>188</ele>
        <time>2018-03-16T11:20:12Z</time>
      </trkpt>
      <trkpt lat="45.93201" lon="4.71279">
        <ele>188</ele>
        <time>2018-03-16T11:20:13Z</time>
      </trkpt>
      <trkpt lat="45.93205" lon="4.71287">
        <ele>188</ele>
        <time>2018-03-16T11:20:14Z</time>
      </trkpt>
      <trkpt lat="45.93208" lon="4.71297">
        <ele>188</ele>
        <time>2018-03-16T11:20:15Z</time>
      </trkpt>
      <trkpt lat="45.93212" lon="4.71305">
        <ele>188</ele>
        <time>2018-03-16T11:20:16Z</time>
      </trkpt>
      <trkpt lat="45.93216" lon="4.71316">
        <ele>188</ele>
        <time>2018-03-16T11:20:17Z</time>
      </trkpt>
      <trkpt lat="45.93219" lon="4.71325">
        <ele>187</ele>
        <time>2018-03-16T11:20:18Z</time>
      </trkpt>
      <trkpt lat="45.93222" lon="4.71333">
        <ele>187</ele>
        <time>2018-03-16T11:20:19Z</time>
      </trkpt>
      <trkpt lat="45.93225" lon="4.71341">
        <ele>186</ele>
        <time>2018-03-16T11:20:20Z</time>
      </trkpt>
      <trkpt lat="45.93229" lon="4.71349">
        <ele>186</ele>
        <time>2018-03-16T11:20:21Z</time>
      </trkpt>
      <trkpt lat="45.93233" lon="4.71355">
        <ele>186</ele>
        <time>2018-03-16T11:20:22Z</time>
      </trkpt>
      <trkpt lat="45.93236" lon="4.7136">
        <ele>186</ele>
        <time>2018-03-16T11:20:23Z</time>
      </trkpt>
      <trkpt lat="45.93239" lon="4.71366">
        <ele>186</ele>
        <time>2018-03-16T11:20:24Z</time>
      </trkpt>
      <trkpt lat="45.93243" lon="4.71376">
        <ele>186</ele>
        <time>2018-03-16T11:20:26Z</time>
      </trkpt>
      <trkpt lat="45.93246" lon="4.71381">
        <ele>186</ele>
        <time>2018-03-16T11:20:27Z</time>
      </trkpt>
      <trkpt lat="45.9325" lon="4.71387">
        <ele>186</ele>
        <time>2018-03-16T11:20:28Z</time>
      </trkpt>
      <trkpt lat="45.93252" lon="4.71393">
        <ele>186</ele>
        <time>2018-03-16T11:20:29Z</time>
      </trkpt>
      <trkpt lat="45.93255" lon="4.71398">
        <ele>186</ele>
        <time>2018-03-16T11:20:30Z</time>
      </trkpt>
      <trkpt lat="45.93257" lon="4.71404">
        <ele>186</ele>
        <time>2018-03-16T11:20:31Z</time>
      </trkpt>
      <trkpt lat="45.9326" lon="4.71411">
        <ele>186</ele>
        <time>2018-03-16T11:20:32Z</time>
      </trkpt>
      <trkpt lat="45.93263" lon="4.71417">
        <ele>186</ele>
        <time>2018-03-16T11:20:33Z</time>
      </trkpt>
      <trkpt lat="45.93266" lon="4.71424">
        <ele>186</ele>
        <time>2018-03-16T11:20:34Z</time>
      </trkpt>
      <trkpt lat="45.93269" lon="4.7143">
        <ele>185</ele>
        <time>2018-03-16T11:20:35Z</time>
      </trkpt>
      <trkpt lat="45.93273" lon="4.71437">
        <ele>185</ele>
        <time>2018-03-16T11:20:36Z</time>
      </trkpt>
      <trkpt lat="45.93275" lon="4.71444">
        <ele>185</ele>
        <time>2018-03-16T11:20:37Z</time>
      </trkpt>
      <trkpt lat="45.93278" lon="4.71451">
        <ele>185</ele>
        <time>2018-03-16T11:20:38Z</time>
      </trkpt>
      <trkpt lat="45.93281" lon="4.71458">
        <ele>185</ele>
        <time>2018-03-16T11:20:39Z</time>
      </trkpt>
      <trkpt lat="45.93283" lon="4.71465">
        <ele>185</ele>
        <time>2018-03-16T11:20:40Z</time>
      </trkpt>
      <trkpt lat="45.93285" lon="4.71473">
        <ele>185</ele>
        <time>2018-03-16T11:20:41Z</time>
      </trkpt>
      <trkpt lat="45.93289" lon="4.7148">
        <ele>185</ele>
        <time>2018-03-16T11:20:42Z</time>
      </trkpt>
      <trkpt lat="45.93292" lon="4.71487">
        <ele>185</ele>
        <time>2018-03-16T11:20:43Z</time>
      </trkpt>
      <trkpt lat="45.93295" lon="4.71494">
        <ele>185</ele>
        <time>2018-03-16T11:20:44Z</time>
      </trkpt>
      <trkpt lat="45.93297" lon="4.71501">
        <ele>184</ele>
        <time>2018-03-16T11:20:45Z</time>
      </trkpt>
      <trkpt lat="45.93301" lon="4.71508">
        <ele>184</ele>
        <time>2018-03-16T11:20:46Z</time>
      </trkpt>
      <trkpt lat="45.93306" lon="4.71515">
        <ele>184</ele>
        <time>2018-03-16T11:20:47Z</time>
      </trkpt>
      <trkpt lat="45.93309" lon="4.71522">
        <ele>184</ele>
        <time>2018-03-16T11:20:48Z</time>
      </trkpt>
      <trkpt lat="45.93312" lon="4.71529">
        <ele>184</ele>
        <time>2018-03-16T11:20:49Z</time>
      </trkpt>
      <trkpt lat="45.93315" lon="4.71535">
        <ele>184</ele>
        <time>2018-03-16T11:20:50Z</time>
      </trkpt>
      <trkpt lat="45.93319" lon="4.71541">
        <ele>184</ele>
        <time>2018-03-16T11:20:51Z</time>
      </trkpt>
      <trkpt lat="45.93322" lon="4.71548">
        <ele>184</ele>
        <time>2018-03-16T11:20:52Z</time>
      </trkpt>
      <trkpt lat="45.93325" lon="4.71556">
        <ele>184</ele>
        <time>2018-03-16T11:20:53Z</time>
      </trkpt>
      <trkpt lat="45.93328" lon="4.71561">
        <ele>185</ele>
        <time>2018-03-16T11:20:54Z</time>
      </trkpt>
      <trkpt lat="45.93331" lon="4.71568">
        <ele>185</ele>
        <time>2018-03-16T11:20:55Z</time>
      </trkpt>
      <trkpt lat="45.93335" lon="4.71576">
        <ele>185</ele>
        <time>2018-03-16T11:20:56Z</time>
      </trkpt>
      <trkpt lat="45.93337" lon="4.71584">
        <ele>185</ele>
        <time>2018-03-16T11:20:57Z</time>
      </trkpt>
      <trkpt lat="45.9334" lon="4.71591">
        <ele>185</ele>
        <time>2018-03-16T11:20:58Z</time>
      </trkpt>
      <trkpt lat="45.93344" lon="4.716">
        <ele>185</ele>
        <time>2018-03-16T11:20:59Z</time>
      </trkpt>
      <trkpt lat="45.93347" lon="4.71607">
        <ele>185</ele>
        <time>2018-03-16T11:21:00Z</time>
      </trkpt>
      <trkpt lat="45.93352" lon="4.71614">
        <ele>185</ele>
        <time>2018-03-16T11:21:01Z</time>
      </trkpt>
      <trkpt lat="45.93354" lon="4.7162">
        <ele>185</ele>
        <time>2018-03-16T11:21:02Z</time>
      </trkpt>
      <trkpt lat="45.93358" lon="4.71627">
        <ele>185</ele>
        <time>2018-03-16T11:21:03Z</time>
      </trkpt>
      <trkpt lat="45.93361" lon="4.71636">
        <ele>185</ele>
        <time>2018-03-16T11:21:04Z</time>
      </trkpt>
      <trkpt lat="45.93364" lon="4.7164">
        <ele>185</ele>
        <time>2018-03-16T11:21:05Z</time>
      </trkpt>
      <trkpt lat="45.93367" lon="4.71648">
        <ele>185</ele>
        <time>2018-03-16T11:21:06Z</time>
      </trkpt>
      <trkpt lat="45.93369" lon="4.71655">
        <ele>185</ele>
        <time>2018-03-16T11:21:07Z</time>
      </trkpt>
      <trkpt lat="45.93373" lon="4.71663">
        <ele>185</ele>
        <time>2018-03-16T11:21:08Z</time>
      </trkpt>
      <trkpt lat="45.93376" lon="4.71672">
        <ele>185</ele>
        <time>2018-03-16T11:21:09Z</time>
      </trkpt>
      <trkpt lat="45.9338" lon="4.7168">
        <ele>185</ele>
        <time>2018-03-16T11:21:10Z</time>
      </trkpt>
      <trkpt lat="45.93385" lon="4.71689">
        <ele>184</ele>
        <time>2018-03-16T11:21:11Z</time>
      </trkpt>
      <trkpt lat="45.93389" lon="4.71696">
        <ele>184</ele>
        <time>2018-03-16T11:21:12Z</time>
      </trkpt>
      <trkpt lat="45.93392" lon="4.71706">
        <ele>184</ele>
        <time>2018-03-16T11:21:13Z</time>
      </trkpt>
      <trkpt lat="45.93398" lon="4.71716">
        <ele>184</ele>
        <time>2018-03-16T11:21:14Z</time>
      </trkpt>
      <trkpt lat="45.93401" lon="4.71726">
        <ele>184</ele>
        <time>2018-03-16T11:21:15Z</time>
      </trkpt>
      <trkpt lat="45.93406" lon="4.71736">
        <ele>184</ele>
        <time>2018-03-16T11:21:16Z</time>
      </trkpt>
      <trkpt lat="45.93409" lon="4.71743">
        <ele>184</ele>
        <time>2018-03-16T11:21:17Z</time>
      </trkpt>
      <trkpt lat="45.93413" lon="4.71752">
        <ele>183</ele>
        <time>2018-03-16T11:21:18Z</time>
      </trkpt>
      <trkpt lat="45.93418" lon="4.71762">
        <ele>182</ele>
        <time>2018-03-16T11:21:19Z</time>
      </trkpt>
      <trkpt lat="45.93425" lon="4.71772">
        <ele>182</ele>
        <time>2018-03-16T11:21:20Z</time>
      </trkpt>
      <trkpt lat="45.9343" lon="4.71782">
        <ele>182</ele>
        <time>2018-03-16T11:21:21Z</time>
      </trkpt>
      <trkpt lat="45.93431" lon="4.71789">
        <ele>182</ele>
        <time>2018-03-16T11:21:22Z</time>
      </trkpt>
      <trkpt lat="45.93436" lon="4.71799">
        <ele>182</ele>
        <time>2018-03-16T11:21:23Z</time>
      </trkpt>
      <trkpt lat="45.9344" lon="4.71809">
        <ele>182</ele>
        <time>2018-03-16T11:21:24Z</time>
      </trkpt>
      <trkpt lat="45.93444" lon="4.71818">
        <ele>182</ele>
        <time>2018-03-16T11:21:25Z</time>
      </trkpt>
      <trkpt lat="45.93449" lon="4.71828">
        <ele>182</ele>
        <time>2018-03-16T11:21:26Z</time>
      </trkpt>
      <trkpt lat="45.93454" lon="4.71837">
        <ele>181</ele>
        <time>2018-03-16T11:21:27Z</time>
      </trkpt>
      <trkpt lat="45.9346" lon="4.71845">
        <ele>181</ele>
        <time>2018-03-16T11:21:28Z</time>
      </trkpt>
      <trkpt lat="45.93467" lon="4.7185">
        <ele>180</ele>
        <time>2018-03-16T11:21:29Z</time>
      </trkpt>
      <trkpt lat="45.93474" lon="4.71853">
        <ele>180</ele>
        <time>2018-03-16T11:21:30Z</time>
      </trkpt>
      <trkpt lat="45.93483" lon="4.71851">
        <ele>180</ele>
        <time>2018-03-16T11:21:31Z</time>
      </trkpt>
      <trkpt lat="45.93491" lon="4.7185">
        <ele>180</ele>
        <time>2018-03-16T11:21:32Z</time>
      </trkpt>
      <trkpt lat="45.93499" lon="4.71848">
        <ele>180</ele>
        <time>2018-03-16T11:21:33Z</time>
      </trkpt>
      <trkpt lat="45.93507" lon="4.71849">
        <ele>179</ele>
        <time>2018-03-16T11:21:34Z</time>
      </trkpt>
      <trkpt lat="45.93515" lon="4.71847">
        <ele>179</ele>
        <time>2018-03-16T11:21:35Z</time>
      </trkpt>
      <trkpt lat="45.93522" lon="4.71846">
        <ele>179</ele>
        <time>2018-03-16T11:21:36Z</time>
      </trkpt>
      <trkpt lat="45.93529" lon="4.71845">
        <ele>179</ele>
        <time>2018-03-16T11:21:37Z</time>
      </trkpt>
      <trkpt lat="45.93536" lon="4.71843">
        <ele>179</ele>
        <time>2018-03-16T11:21:38Z</time>
      </trkpt>
      <trkpt lat="45.93543" lon="4.71842">
        <ele>179</ele>
        <time>2018-03-16T11:21:39Z</time>
      </trkpt>
      <trkpt lat="45.93553" lon="4.71842">
        <ele>179</ele>
        <time>2018-03-16T11:21:40Z</time>
      </trkpt>
      <trkpt lat="45.93562" lon="4.71842">
        <ele>179</ele>
        <time>2018-03-16T11:21:41Z</time>
      </trkpt>
      <trkpt lat="45.93569" lon="4.7184">
        <ele>179</ele>
        <time>2018-03-16T11:21:42Z</time>
      </trkpt>
      <trkpt lat="45.93575" lon="4.71838">
        <ele>180</ele>
        <time>2018-03-16T11:21:43Z</time>
      </trkpt>
      <trkpt lat="45.93583" lon="4.71837">
        <ele>180</ele>
        <time>2018-03-16T11:21:44Z</time>
      </trkpt>
      <trkpt lat="45.93591" lon="4.71836">
        <ele>179</ele>
        <time>2018-03-16T11:21:45Z</time>
      </trkpt>
      <trkpt lat="45.93597" lon="4.71833">
        <ele>180</ele>
        <time>2018-03-16T11:21:46Z</time>
      </trkpt>
      <trkpt lat="45.93603" lon="4.71828">
        <ele>179</ele>
        <time>2018-03-16T11:21:47Z</time>
      </trkpt>
      <trkpt lat="45.93608" lon="4.71823">
        <ele>179</ele>
        <time>2018-03-16T11:21:48Z</time>
      </trkpt>
      <trkpt lat="45.93613" lon="4.71817">
        <ele>179</ele>
        <time>2018-03-16T11:21:49Z</time>
      </trkpt>
      <trkpt lat="45.93618" lon="4.71812">
        <ele>179</ele>
        <time>2018-03-16T11:21:50Z</time>
      </trkpt>
      <trkpt lat="45.93623" lon="4.71808">
        <ele>179</ele>
        <time>2018-03-16T11:21:51Z</time>
      </trkpt>
      <trkpt lat="45.93628" lon="4.71804">
        <ele>179</ele>
        <time>2018-03-16T11:21:52Z</time>
      </trkpt>
      <trkpt lat="45.93635" lon="4.71802">
        <ele>179</ele>
        <time>2018-03-16T11:21:53Z</time>
      </trkpt>
      <trkpt lat="45.93641" lon="4.718">
        <ele>179</ele>
        <time>2018-03-16T11:21:54Z</time>
      </trkpt>
      <trkpt lat="45.93647" lon="4.71798">
        <ele>179</ele>
        <time>2018-03-16T11:21:55Z</time>
      </trkpt>
      <trkpt lat="45.93652" lon="4.71795">
        <ele>179</ele>
        <time>2018-03-16T11:21:56Z</time>
      </trkpt>
      <trkpt lat="45.93658" lon="4.71792">
        <ele>179</ele>
        <time>2018-03-16T11:21:57Z</time>
      </trkpt>
      <trkpt lat="45.93664" lon="4.71791">
        <ele>179</ele>
        <time>2018-03-16T11:21:58Z</time>
      </trkpt>
      <trkpt lat="45.9367" lon="4.71792">
        <ele>177</ele>
        <time>2018-03-16T11:21:59Z</time>
      </trkpt>
      <trkpt lat="45.93676" lon="4.71789">
        <ele>177</ele>
        <time>2018-03-16T11:22:00Z</time>
      </trkpt>
      <trkpt lat="45.93681" lon="4.71787">
        <ele>177</ele>
        <time>2018-03-16T11:22:01Z</time>
      </trkpt>
      <trkpt lat="45.93687" lon="4.71785">
        <ele>177</ele>
        <time>2018-03-16T11:22:02Z</time>
      </trkpt>
      <trkpt lat="45.93693" lon="4.71786">
        <ele>177</ele>
        <time>2018-03-16T11:22:03Z</time>
      </trkpt>
      <trkpt lat="45.93699" lon="4.71789">
        <ele>176</ele>
        <time>2018-03-16T11:22:04Z</time>
      </trkpt>
      <trkpt lat="45.93705" lon="4.71793">
        <ele>176</ele>
        <time>2018-03-16T11:22:05Z</time>
      </trkpt>
      <trkpt lat="45.93708" lon="4.71798">
        <ele>176</ele>
        <time>2018-03-16T11:22:06Z</time>
      </trkpt>
      <trkpt lat="45.93711" lon="4.71809">
        <ele>176</ele>
        <time>2018-03-16T11:22:07Z</time>
      </trkpt>
      <trkpt lat="45.93712" lon="4.71815">
        <ele>176</ele>
        <time>2018-03-16T11:22:08Z</time>
      </trkpt>
      <trkpt lat="45.93711" lon="4.71822">
        <ele>176</ele>
        <time>2018-03-16T11:22:09Z</time>
      </trkpt>
      <trkpt lat="45.93705" lon="4.7183">
        <ele>176</ele>
        <time>2018-03-16T11:22:12Z</time>
      </trkpt>
      <trkpt lat="45.93703" lon="4.71833">
        <ele>176</ele>
        <time>2018-03-16T11:22:13Z</time>
      </trkpt>
      <trkpt lat="45.93697" lon="4.71841">
        <ele>175</ele>
        <time>2018-03-16T11:22:25Z</time>
      </trkpt>
      <trkpt lat="45.93696" lon="4.71842">
        <ele>175</ele>
        <time>2018-03-16T11:22:26Z</time>
      </trkpt>
      <trkpt lat="45.93693" lon="4.71852">
        <ele>175</ele>
        <time>2018-03-16T11:22:31Z</time>
      </trkpt>
      <trkpt lat="45.93691" lon="4.71855">
        <ele>175</ele>
        <time>2018-03-16T11:22:32Z</time>
      </trkpt>
      <trkpt lat="45.93688" lon="4.71865">
        <ele>175</ele>
        <time>2018-03-16T11:22:35Z</time>
      </trkpt>
      <trkpt lat="45.93684" lon="4.71875">
        <ele>175</ele>
        <time>2018-03-16T11:22:36Z</time>
      </trkpt>
      <trkpt lat="45.93681" lon="4.71887">
        <ele>175</ele>
        <time>2018-03-16T11:22:38Z</time>
      </trkpt>
      <trkpt lat="45.93679" lon="4.71895">
        <ele>175</ele>
        <time>2018-03-16T11:22:39Z</time>
      </trkpt>
      <trkpt lat="45.93676" lon="4.71901">
        <ele>175</ele>
        <time>2018-03-16T11:22:40Z</time>
      </trkpt>
      <trkpt lat="45.93674" lon="4.71909">
        <ele>175</ele>
        <time>2018-03-16T11:22:41Z</time>
      </trkpt>
      <trkpt lat="45.93672" lon="4.71916">
        <ele>175</ele>
        <time>2018-03-16T11:22:42Z</time>
      </trkpt>
      <trkpt lat="45.93669" lon="4.71922">
        <ele>175</ele>
        <time>2018-03-16T11:22:43Z</time>
      </trkpt>
      <trkpt lat="45.93665" lon="4.71929">
        <ele>175</ele>
        <time>2018-03-16T11:22:44Z</time>
      </trkpt>
      <trkpt lat="45.93662" lon="4.71934">
        <ele>175</ele>
        <time>2018-03-16T11:22:45Z</time>
      </trkpt>
      <trkpt lat="45.93659" lon="4.71941">
        <ele>175</ele>
        <time>2018-03-16T11:22:46Z</time>
      </trkpt>
      <trkpt lat="45.93655" lon="4.71948">
        <ele>175</ele>
        <time>2018-03-16T11:22:47Z</time>
      </trkpt>
      <trkpt lat="45.93653" lon="4.71954">
        <ele>175</ele>
        <time>2018-03-16T11:22:48Z</time>
      </trkpt>
      <trkpt lat="45.9365" lon="4.71961">
        <ele>175</ele>
        <time>2018-03-16T11:22:49Z</time>
      </trkpt>
      <trkpt lat="45.93648" lon="4.71967">
        <ele>175</ele>
        <time>2018-03-16T11:22:50Z</time>
      </trkpt>
      <trkpt lat="45.93644" lon="4.71974">
        <ele>175</ele>
        <time>2018-03-16T11:22:51Z</time>
      </trkpt>
      <trkpt lat="45.93641" lon="4.7198">
        <ele>175</ele>
        <time>2018-03-16T11:22:52Z</time>
      </trkpt>
      <trkpt lat="45.93638" lon="4.71987">
        <ele>175</ele>
        <time>2018-03-16T11:22:53Z</time>
      </trkpt>
      <trkpt lat="45.93635" lon="4.71995">
        <ele>175</ele>
        <time>2018-03-16T11:22:54Z</time>
      </trkpt>
      <trkpt lat="45.93633" lon="4.72003">
        <ele>174</ele>
        <time>2018-03-16T11:22:55Z</time>
      </trkpt>
      <trkpt lat="45.93628" lon="4.7201">
        <ele>175</ele>
        <time>2018-03-16T11:22:56Z</time>
      </trkpt>
      <trkpt lat="45.93626" lon="4.72018">
        <ele>175</ele>
        <time>2018-03-16T11:22:57Z</time>
      </trkpt>
      <trkpt lat="45.93624" lon="4.72026">
        <ele>175</ele>
        <time>2018-03-16T11:22:58Z</time>
      </trkpt>
      <trkpt lat="45.93623" lon="4.72034">
        <ele>175</ele>
        <time>2018-03-16T11:22:59Z</time>
      </trkpt>
      <trkpt lat="45.9362" lon="4.7204">
        <ele>175</ele>
        <time>2018-03-16T11:23:00Z</time>
      </trkpt>
      <trkpt lat="45.93618" lon="4.72047">
        <ele>175</ele>
        <time>2018-03-16T11:23:01Z</time>
      </trkpt>
      <trkpt lat="45.93614" lon="4.72054">
        <ele>175</ele>
        <time>2018-03-16T11:23:02Z</time>
      </trkpt>
      <trkpt lat="45.93609" lon="4.72059">
        <ele>175</ele>
        <time>2018-03-16T11:23:03Z</time>
      </trkpt>
      <trkpt lat="45.93606" lon="4.72065">
        <ele>175</ele>
        <time>2018-03-16T11:23:04Z</time>
      </trkpt>
      <trkpt lat="45.93604" lon="4.72074">
        <ele>175</ele>
        <time>2018-03-16T11:23:05Z</time>
      </trkpt>
      <trkpt lat="45.936" lon="4.72082">
        <ele>175</ele>
        <time>2018-03-16T11:23:06Z</time>
      </trkpt>
      <trkpt lat="45.93596" lon="4.72088">
        <ele>175</ele>
        <time>2018-03-16T11:23:07Z</time>
      </trkpt>
      <trkpt lat="45.93592" lon="4.72094">
        <ele>175</ele>
        <time>2018-03-16T11:23:08Z</time>
      </trkpt>
      <trkpt lat="45.9359" lon="4.72101">
        <ele>175</ele>
        <time>2018-03-16T11:23:09Z</time>
      </trkpt>
      <trkpt lat="45.93588" lon="4.72108">
        <ele>174</ele>
        <time>2018-03-16T11:23:10Z</time>
      </trkpt>
      <trkpt lat="45.93585" lon="4.72115">
        <ele>174</ele>
        <time>2018-03-16T11:23:11Z</time>
      </trkpt>
      <trkpt lat="45.93583" lon="4.72122">
        <ele>175</ele>
        <time>2018-03-16T11:23:12Z</time>
      </trkpt>
      <trkpt lat="45.93581" lon="4.72128">
        <ele>174</ele>
        <time>2018-03-16T11:23:13Z</time>
      </trkpt>
      <trkpt lat="45.93578" lon="4.72136">
        <ele>174</ele>
        <time>2018-03-16T11:23:14Z</time>
      </trkpt>
      <trkpt lat="45.93575" lon="4.72144">
        <ele>174</ele>
        <time>2018-03-16T11:23:15Z</time>
      </trkpt>
      <trkpt lat="45.93572" lon="4.72151">
        <ele>174</ele>
        <time>2018-03-16T11:23:16Z</time>
      </trkpt>
      <trkpt lat="45.9357" lon="4.72159">
        <ele>174</ele>
        <time>2018-03-16T11:23:17Z</time>
      </trkpt>
      <trkpt lat="45.93567" lon="4.72166">
        <ele>174</ele>
        <time>2018-03-16T11:23:18Z</time>
      </trkpt>
      <trkpt lat="45.93565" lon="4.72172">
        <ele>173</ele>
        <time>2018-03-16T11:23:19Z</time>
      </trkpt>
      <trkpt lat="45.93562" lon="4.7218">
        <ele>173</ele>
        <time>2018-03-16T11:23:20Z</time>
      </trkpt>
      <trkpt lat="45.93558" lon="4.72188">
        <ele>173</ele>
        <time>2018-03-16T11:23:21Z</time>
      </trkpt>
      <trkpt lat="45.93556" lon="4.72195">
        <ele>173</ele>
        <time>2018-03-16T11:23:22Z</time>
      </trkpt>
      <trkpt lat="45.93553" lon="4.72202">
        <ele>173</ele>
        <time>2018-03-16T11:23:23Z</time>
      </trkpt>
      <trkpt lat="45.9355" lon="4.72207">
        <ele>173</ele>
        <time>2018-03-16T11:23:24Z</time>
      </trkpt>
      <trkpt lat="45.93547" lon="4.72214">
        <ele>173</ele>
        <time>2018-03-16T11:23:25Z</time>
      </trkpt>
      <trkpt lat="45.93544" lon="4.72225">
        <ele>172</ele>
        <time>2018-03-16T11:23:27Z</time>
      </trkpt>
      <trkpt lat="45.93543" lon="4.72231">
        <ele>172</ele>
        <time>2018-03-16T11:23:28Z</time>
      </trkpt>
      <trkpt lat="45.93539" lon="4.72238">
        <ele>172</ele>
        <time>2018-03-16T11:23:29Z</time>
      </trkpt>
      <trkpt lat="45.93538" lon="4.72244">
        <ele>172</ele>
        <time>2018-03-16T11:23:30Z</time>
      </trkpt>
      <trkpt lat="45.93534" lon="4.72254">
        <ele>172</ele>
        <time>2018-03-16T11:23:32Z</time>
      </trkpt>
      <trkpt lat="45.93532" lon="4.7226">
        <ele>172</ele>
        <time>2018-03-16T11:23:33Z</time>
      </trkpt>
      <trkpt lat="45.93529" lon="4.72265">
        <ele>172</ele>
        <time>2018-03-16T11:23:34Z</time>
      </trkpt>
      <trkpt lat="45.93526" lon="4.72272">
        <ele>172</ele>
        <time>2018-03-16T11:23:35Z</time>
      </trkpt>
      <trkpt lat="45.93523" lon="4.72278">
        <ele>172</ele>
        <time>2018-03-16T11:23:36Z</time>
      </trkpt>
      <trkpt lat="45.9352" lon="4.72285">
        <ele>172</ele>
        <time>2018-03-16T11:23:37Z</time>
      </trkpt>
      <trkpt lat="45.93518" lon="4.72292">
        <ele>172</ele>
        <time>2018-03-16T11:23:38Z</time>
      </trkpt>
      <trkpt lat="45.93515" lon="4.72298">
        <ele>172</ele>
        <time>2018-03-16T11:23:39Z</time>
      </trkpt>
      <trkpt lat="45.93512" lon="4.72305">
        <ele>173</ele>
        <time>2018-03-16T11:23:40Z</time>
      </trkpt>
      <trkpt lat="45.93508" lon="4.72311">
        <ele>173</ele>
        <time>2018-03-16T11:23:41Z</time>
      </trkpt>
      <trkpt lat="45.93503" lon="4.72319">
        <ele>173</ele>
        <time>2018-03-16T11:23:42Z</time>
      </trkpt>
      <trkpt lat="45.93499" lon="4.72325">
        <ele>173</ele>
        <time>2018-03-16T11:23:43Z</time>
      </trkpt>
      <trkpt lat="45.93495" lon="4.72331">
        <ele>173</ele>
        <time>2018-03-16T11:23:44Z</time>
      </trkpt>
      <trkpt lat="45.93491" lon="4.72336">
        <ele>173</ele>
        <time>2018-03-16T11:23:45Z</time>
      </trkpt>
      <trkpt lat="45.93486" lon="4.72342">
        <ele>173</ele>
        <time>2018-03-16T11:23:46Z</time>
      </trkpt>
      <trkpt lat="45.93481" lon="4.72348">
        <ele>173</ele>
        <time>2018-03-16T11:23:47Z</time>
      </trkpt>
      <trkpt lat="45.93477" lon="4.72353">
        <ele>173</ele>
        <time>2018-03-16T11:23:48Z</time>
      </trkpt>
      <trkpt lat="45.93474" lon="4.72359">
        <ele>173</ele>
        <time>2018-03-16T11:23:49Z</time>
      </trkpt>
      <trkpt lat="45.9347" lon="4.72365">
        <ele>173</ele>
        <time>2018-03-16T11:23:50Z</time>
      </trkpt>
      <trkpt lat="45.93465" lon="4.7237">
        <ele>173</ele>
        <time>2018-03-16T11:23:51Z</time>
      </trkpt>
      <trkpt lat="45.93461" lon="4.72376">
        <ele>173</ele>
        <time>2018-03-16T11:23:52Z</time>
      </trkpt>
      <trkpt lat="45.93456" lon="4.72381">
        <ele>173</ele>
        <time>2018-03-16T11:23:53Z</time>
      </trkpt>
      <trkpt lat="45.93452" lon="4.72387">
        <ele>173</ele>
        <time>2018-03-16T11:23:54Z</time>
      </trkpt>
      <trkpt lat="45.93446" lon="4.72391">
        <ele>173</ele>
        <time>2018-03-16T11:23:55Z</time>
      </trkpt>
      <trkpt lat="45.93441" lon="4.72395">
        <ele>173</ele>
        <time>2018-03-16T11:23:56Z</time>
      </trkpt>
      <trkpt lat="45.93435" lon="4.72399">
        <ele>173</ele>
        <time>2018-03-16T11:23:57Z</time>
      </trkpt>
      <trkpt lat="45.93429" lon="4.724">
        <ele>174</ele>
        <time>2018-03-16T11:23:58Z</time>
      </trkpt>
      <trkpt lat="45.93425" lon="4.72403">
        <ele>174</ele>
        <time>2018-03-16T11:23:59Z</time>
      </trkpt>
      <trkpt lat="45.93419" lon="4.72405">
        <ele>174</ele>
        <time>2018-03-16T11:24:00Z</time>
      </trkpt>
      <trkpt lat="45.93415" lon="4.72408">
        <ele>174</ele>
        <time>2018-03-16T11:24:01Z</time>
      </trkpt>
      <trkpt lat="45.93409" lon="4.72409">
        <ele>174</ele>
        <time>2018-03-16T11:24:02Z</time>
      </trkpt>
      <trkpt lat="45.93403" lon="4.72409">
        <ele>174</ele>
        <time>2018-03-16T11:24:03Z</time>
      </trkpt>
      <trkpt lat="45.93398" lon="4.7241">
        <ele>174</ele>
        <time>2018-03-16T11:24:04Z</time>
      </trkpt>
      <trkpt lat="45.93394" lon="4.72411">
        <ele>174</ele>
        <time>2018-03-16T11:24:05Z</time>
      </trkpt>
      <trkpt lat="45.93388" lon="4.72414">
        <ele>174</ele>
        <time>2018-03-16T11:24:06Z</time>
      </trkpt>
      <trkpt lat="45.93386" lon="4.72419">
        <ele>173</ele>
        <time>2018-03-16T11:24:07Z</time>
      </trkpt>
      <trkpt lat="45.93385" lon="4.72426">
        <ele>173</ele>
        <time>2018-03-16T11:24:08Z</time>
      </trkpt>
      <trkpt lat="45.93386" lon="4.72433">
        <ele>173</ele>
        <time>2018-03-16T11:24:09Z</time>
      </trkpt>
      <trkpt lat="45.93391" lon="4.72441">
        <ele>173</ele>
        <time>2018-03-16T11:24:10Z</time>
      </trkpt>
      <trkpt lat="45.93392" lon="4.72449">
        <ele>173</ele>
        <time>2018-03-16T11:24:11Z</time>
      </trkpt>
      <trkpt lat="45.93393" lon="4.72456">
        <ele>173</ele>
        <time>2018-03-16T11:24:12Z</time>
      </trkpt>
      <trkpt lat="45.9339" lon="4.72464">
        <ele>173</ele>
        <time>2018-03-16T11:24:13Z</time>
      </trkpt>
      <trkpt lat="45.93387" lon="4.7247">
        <ele>173</ele>
        <time>2018-03-16T11:24:14Z</time>
      </trkpt>
      <trkpt lat="45.93384" lon="4.72475">
        <ele>173</ele>
        <time>2018-03-16T11:24:15Z</time>
      </trkpt>
      <trkpt lat="45.93381" lon="4.7248">
        <ele>173</ele>
        <time>2018-03-16T11:24:16Z</time>
      </trkpt>
      <trkpt lat="45.93377" lon="4.72484">
        <ele>173</ele>
        <time>2018-03-16T11:24:17Z</time>
      </trkpt>
      <trkpt lat="45.93373" lon="4.72488">
        <ele>173</ele>
        <time>2018-03-16T11:24:18Z</time>
      </trkpt>
      <trkpt lat="45.93369" lon="4.72493">
        <ele>173</ele>
        <time>2018-03-16T11:24:19Z</time>
      </trkpt>
      <trkpt lat="45.93365" lon="4.72497">
        <ele>173</ele>
        <time>2018-03-16T11:24:20Z</time>
      </trkpt>
      <trkpt lat="45.9336" lon="4.72501">
        <ele>172</ele>
        <time>2018-03-16T11:24:21Z</time>
      </trkpt>
      <trkpt lat="45.93354" lon="4.72509">
        <ele>172</ele>
        <time>2018-03-16T11:24:23Z</time>
      </trkpt>
      <trkpt lat="45.93351" lon="4.72513">
        <ele>172</ele>
        <time>2018-03-16T11:24:24Z</time>
      </trkpt>
      <trkpt lat="45.93344" lon="4.72519">
        <ele>172</ele>
        <time>2018-03-16T11:24:26Z</time>
      </trkpt>
      <trkpt lat="45.9334" lon="4.72525">
        <ele>172</ele>
        <time>2018-03-16T11:24:27Z</time>
      </trkpt>
      <trkpt lat="45.93336" lon="4.72529">
        <ele>172</ele>
        <time>2018-03-16T11:24:28Z</time>
      </trkpt>
      <trkpt lat="45.93333" lon="4.72533">
        <ele>172</ele>
        <time>2018-03-16T11:24:29Z</time>
      </trkpt>
      <trkpt lat="45.93326" lon="4.7254">
        <ele>172</ele>
        <time>2018-03-16T11:24:31Z</time>
      </trkpt>
      <trkpt lat="45.93324" lon="4.72544">
        <ele>172</ele>
        <time>2018-03-16T11:24:32Z</time>
      </trkpt>
      <trkpt lat="45.93321" lon="4.72549">
        <ele>172</ele>
        <time>2018-03-16T11:24:33Z</time>
      </trkpt>
      <trkpt lat="45.93314" lon="4.72553">
        <ele>172</ele>
        <time>2018-03-16T11:24:34Z</time>
      </trkpt>
      <trkpt lat="45.9331" lon="4.72557">
        <ele>172</ele>
        <time>2018-03-16T11:24:35Z</time>
      </trkpt>
      <trkpt lat="45.93306" lon="4.72562">
        <ele>172</ele>
        <time>2018-03-16T11:24:36Z</time>
      </trkpt>
      <trkpt lat="45.93302" lon="4.72567">
        <ele>171</ele>
        <time>2018-03-16T11:24:37Z</time>
      </trkpt>
      <trkpt lat="45.93298" lon="4.72572">
        <ele>171</ele>
        <time>2018-03-16T11:24:38Z</time>
      </trkpt>
      <trkpt lat="45.93293" lon="4.72578">
        <ele>171</ele>
        <time>2018-03-16T11:24:39Z</time>
      </trkpt>
      <trkpt lat="45.93288" lon="4.72582">
        <ele>171</ele>
        <time>2018-03-16T11:24:40Z</time>
      </trkpt>
      <trkpt lat="45.93284" lon="4.72587">
        <ele>170</ele>
        <time>2018-03-16T11:24:41Z</time>
      </trkpt>
      <trkpt lat="45.9328" lon="4.72591">
        <ele>170</ele>
        <time>2018-03-16T11:24:42Z</time>
      </trkpt>
      <trkpt lat="45.93276" lon="4.72596">
        <ele>170</ele>
        <time>2018-03-16T11:24:43Z</time>
      </trkpt>
      <trkpt lat="45.93272" lon="4.72601">
        <ele>170</ele>
        <time>2018-03-16T11:24:44Z</time>
      </trkpt>
      <trkpt lat="45.93268" lon="4.72607">
        <ele>170</ele>
        <time>2018-03-16T11:24:45Z</time>
      </trkpt>
      <trkpt lat="45.93265" lon="4.72612">
        <ele>170</ele>
        <time>2018-03-16T11:24:46Z</time>
      </trkpt>
      <trkpt lat="45.93259" lon="4.72617">
        <ele>170</ele>
        <time>2018-03-16T11:24:47Z</time>
      </trkpt>
      <trkpt lat="45.93255" lon="4.72622">
        <ele>170</ele>
        <time>2018-03-16T11:24:48Z</time>
      </trkpt>
      <trkpt lat="45.93251" lon="4.72627">
        <ele>170</ele>
        <time>2018-03-16T11:24:49Z</time>
      </trkpt>
      <trkpt lat="45.93247" lon="4.72629">
        <ele>170</ele>
        <time>2018-03-16T11:24:50Z</time>
      </trkpt>
      <trkpt lat="45.93243" lon="4.72634">
        <ele>170</ele>
        <time>2018-03-16T11:24:51Z</time>
      </trkpt>
      <trkpt lat="45.93238" lon="4.7264">
        <ele>170</ele>
        <time>2018-03-16T11:24:52Z</time>
      </trkpt>
      <trkpt lat="45.93234" lon="4.72646">
        <ele>170</ele>
        <time>2018-03-16T11:24:53Z</time>
      </trkpt>
      <trkpt lat="45.9323" lon="4.72651">
        <ele>170</ele>
        <time>2018-03-16T11:24:54Z</time>
      </trkpt>
      <trkpt lat="45.93227" lon="4.72657">
        <ele>170</ele>
        <time>2018-03-16T11:24:55Z</time>
      </trkpt>
      <trkpt lat="45.93223" lon="4.72662">
        <ele>170</ele>
        <time>2018-03-16T11:24:56Z</time>
      </trkpt>
      <trkpt lat="45.93219" lon="4.72668">
        <ele>169</ele>
        <time>2018-03-16T11:24:57Z</time>
      </trkpt>
      <trkpt lat="45.93214" lon="4.72673">
        <ele>169</ele>
        <time>2018-03-16T11:24:58Z</time>
      </trkpt>
      <trkpt lat="45.93209" lon="4.72678">
        <ele>169</ele>
        <time>2018-03-16T11:24:59Z</time>
      </trkpt>
      <trkpt lat="45.93204" lon="4.72683">
        <ele>169</ele>
        <time>2018-03-16T11:25:00Z</time>
      </trkpt>
      <trkpt lat="45.93199" lon="4.7269">
        <ele>169</ele>
        <time>2018-03-16T11:25:01Z</time>
      </trkpt>
      <trkpt lat="45.93195" lon="4.72695">
        <ele>169</ele>
        <time>2018-03-16T11:25:02Z</time>
      </trkpt>
      <trkpt lat="45.9319" lon="4.727">
        <ele>169</ele>
        <time>2018-03-16T11:25:03Z</time>
      </trkpt>
      <trkpt lat="45.93185" lon="4.72705">
        <ele>169</ele>
        <time>2018-03-16T11:25:04Z</time>
      </trkpt>
      <trkpt lat="45.93181" lon="4.72711">
        <ele>169</ele>
        <time>2018-03-16T11:25:05Z</time>
      </trkpt>
      <trkpt lat="45.93176" lon="4.72717">
        <ele>170</ele>
        <time>2018-03-16T11:25:06Z</time>
      </trkpt>
      <trkpt lat="45.93171" lon="4.72722">
        <ele>170</ele>
        <time>2018-03-16T11:25:07Z</time>
      </trkpt>
      <trkpt lat="45.93166" lon="4.72728">
        <ele>170</ele>
        <time>2018-03-16T11:25:08Z</time>
      </trkpt>
      <trkpt lat="45.9316" lon="4.72734">
        <ele>170</ele>
        <time>2018-03-16T11:25:09Z</time>
      </trkpt>
      <trkpt lat="45.93155" lon="4.72739">
        <ele>170</ele>
        <time>2018-03-16T11:25:10Z</time>
      </trkpt>
      <trkpt lat="45.9315" lon="4.72745">
        <ele>170</ele>
        <time>2018-03-16T11:25:11Z</time>
      </trkpt>
      <trkpt lat="45.93145" lon="4.7275">
        <ele>170</ele>
        <time>2018-03-16T11:25:12Z</time>
      </trkpt>
      <trkpt lat="45.93141" lon="4.72756">
        <ele>171</ele>
        <time>2018-03-16T11:25:13Z</time>
      </trkpt>
      <trkpt lat="45.93137" lon="4.72762">
        <ele>171</ele>
        <time>2018-03-16T11:25:14Z</time>
      </trkpt>
      <trkpt lat="45.93132" lon="4.72768">
        <ele>171</ele>
        <time>2018-03-16T11:25:15Z</time>
      </trkpt>
      <trkpt lat="45.93127" lon="4.72774">
        <ele>171</ele>
        <time>2018-03-16T11:25:16Z</time>
      </trkpt>
      <trkpt lat="45.93122" lon="4.7278">
        <ele>171</ele>
        <time>2018-03-16T11:25:17Z</time>
      </trkpt>
      <trkpt lat="45.93117" lon="4.72786">
        <ele>171</ele>
        <time>2018-03-16T11:25:18Z</time>
      </trkpt>
      <trkpt lat="45.93113" lon="4.72793">
        <ele>171</ele>
        <time>2018-03-16T11:25:19Z</time>
      </trkpt>
      <trkpt lat="45.93107" lon="4.72798">
        <ele>171</ele>
        <time>2018-03-16T11:25:20Z</time>
      </trkpt>
      <trkpt lat="45.93102" lon="4.72803">
        <ele>171</ele>
        <time>2018-03-16T11:25:21Z</time>
      </trkpt>
      <trkpt lat="45.93097" lon="4.72809">
        <ele>172</ele>
        <time>2018-03-16T11:25:22Z</time>
      </trkpt>
      <trkpt lat="45.93092" lon="4.72814">
        <ele>172</ele>
        <time>2018-03-16T11:25:23Z</time>
      </trkpt>
      <trkpt lat="45.93087" lon="4.72819">
        <ele>172</ele>
        <time>2018-03-16T11:25:24Z</time>
      </trkpt>
      <trkpt lat="45.93082" lon="4.72824">
        <ele>173</ele>
        <time>2018-03-16T11:25:25Z</time>
      </trkpt>
      <trkpt lat="45.93078" lon="4.72829">
        <ele>173</ele>
        <time>2018-03-16T11:25:26Z</time>
      </trkpt>
      <trkpt lat="45.93068" lon="4.72839">
        <ele>173</ele>
        <time>2018-03-16T11:25:28Z</time>
      </trkpt>
      <trkpt lat="45.93063" lon="4.72846">
        <ele>172</ele>
        <time>2018-03-16T11:25:29Z</time>
      </trkpt>
      <trkpt lat="45.93056" lon="4.72851">
        <ele>172</ele>
        <time>2018-03-16T11:25:30Z</time>
      </trkpt>
      <trkpt lat="45.9305" lon="4.7286">
        <ele>172</ele>
        <time>2018-03-16T11:25:32Z</time>
      </trkpt>
      <trkpt lat="45.93046" lon="4.72867">
        <ele>172</ele>
        <time>2018-03-16T11:25:33Z</time>
      </trkpt>
      <trkpt lat="45.93041" lon="4.72874">
        <ele>172</ele>
        <time>2018-03-16T11:25:34Z</time>
      </trkpt>
      <trkpt lat="45.93035" lon="4.72878">
        <ele>172</ele>
        <time>2018-03-16T11:25:35Z</time>
      </trkpt>
      <trkpt lat="45.9303" lon="4.72883">
        <ele>172</ele>
        <time>2018-03-16T11:25:36Z</time>
      </trkpt>
      <trkpt lat="45.93026" lon="4.72889">
        <ele>172</ele>
        <time>2018-03-16T11:25:37Z</time>
      </trkpt>
      <trkpt lat="45.93021" lon="4.72894">
        <ele>172</ele>
        <time>2018-03-16T11:25:38Z</time>
      </trkpt>
      <trkpt lat="45.93016" lon="4.729">
        <ele>172</ele>
        <time>2018-03-16T11:25:39Z</time>
      </trkpt>
      <trkpt lat="45.93012" lon="4.72905">
        <ele>171</ele>
        <time>2018-03-16T11:25:40Z</time>
      </trkpt>
      <trkpt lat="45.93007" lon="4.72911">
        <ele>171</ele>
        <time>2018-03-16T11:25:41Z</time>
      </trkpt>
      <trkpt lat="45.93003" lon="4.72916">
        <ele>171</ele>
        <time>2018-03-16T11:25:42Z</time>
      </trkpt>
      <trkpt lat="45.92998" lon="4.72922">
        <ele>171</ele>
        <time>2018-03-16T11:25:43Z</time>
      </trkpt>
      <trkpt lat="45.92995" lon="4.72928">
        <ele>171</ele>
        <time>2018-03-16T11:25:44Z</time>
      </trkpt>
      <trkpt lat="45.9299" lon="4.72934">
        <ele>171</ele>
        <time>2018-03-16T11:25:45Z</time>
      </trkpt>
      <trkpt lat="45.92986" lon="4.72938">
        <ele>171</ele>
        <time>2018-03-16T11:25:46Z</time>
      </trkpt>
      <trkpt lat="45.92982" lon="4.72943">
        <ele>171</ele>
        <time>2018-03-16T11:25:47Z</time>
      </trkpt>
      <trkpt lat="45.92977" lon="4.72949">
        <ele>171</ele>
        <time>2018-03-16T11:25:48Z</time>
      </trkpt>
      <trkpt lat="45.92974" lon="4.72953">
        <ele>171</ele>
        <time>2018-03-16T11:25:49Z</time>
      </trkpt>
      <trkpt lat="45.9297" lon="4.72959">
        <ele>171</ele>
        <time>2018-03-16T11:25:50Z</time>
      </trkpt>
      <trkpt lat="45.92966" lon="4.72964">
        <ele>171</ele>
        <time>2018-03-16T11:25:51Z</time>
      </trkpt>
      <trkpt lat="45.92961" lon="4.72969">
        <ele>171</ele>
        <time>2018-03-16T11:25:52Z</time>
      </trkpt>
      <trkpt lat="45.92956" lon="4.72975">
        <ele>171</ele>
        <time>2018-03-16T11:25:53Z</time>
      </trkpt>
      <trkpt lat="45.92952" lon="4.7298">
        <ele>171</ele>
        <time>2018-03-16T11:25:54Z</time>
      </trkpt>
      <trkpt lat="45.92947" lon="4.72986">
        <ele>171</ele>
        <time>2018-03-16T11:25:55Z</time>
      </trkpt>
      <trkpt lat="45.92943" lon="4.72991">
        <ele>171</ele>
        <time>2018-03-16T11:25:56Z</time>
      </trkpt>
      <trkpt lat="45.92938" lon="4.72996">
        <ele>171</ele>
        <time>2018-03-16T11:25:57Z</time>
      </trkpt>
      <trkpt lat="45.92933" lon="4.73001">
        <ele>171</ele>
        <time>2018-03-16T11:25:58Z</time>
      </trkpt>
      <trkpt lat="45.92929" lon="4.73006">
        <ele>172</ele>
        <time>2018-03-16T11:25:59Z</time>
      </trkpt>
      <trkpt lat="45.92926" lon="4.73011">
        <ele>172</ele>
        <time>2018-03-16T11:26:00Z</time>
      </trkpt>
      <trkpt lat="45.92921" lon="4.73016">
        <ele>172</ele>
        <time>2018-03-16T11:26:01Z</time>
      </trkpt>
      <trkpt lat="45.92917" lon="4.73022">
        <ele>172</ele>
        <time>2018-03-16T11:26:02Z</time>
      </trkpt>
      <trkpt lat="45.92912" lon="4.73027">
        <ele>172</ele>
        <time>2018-03-16T11:26:03Z</time>
      </trkpt>
      <trkpt lat="45.92908" lon="4.73032">
        <ele>172</ele>
        <time>2018-03-16T11:26:04Z</time>
      </trkpt>
      <trkpt lat="45.92905" lon="4.73037">
        <ele>172</ele>
        <time>2018-03-16T11:26:05Z</time>
      </trkpt>
      <trkpt lat="45.92901" lon="4.73043">
        <ele>172</ele>
        <time>2018-03-16T11:26:06Z</time>
      </trkpt>
      <trkpt lat="45.92898" lon="4.73049">
        <ele>172</ele>
        <time>2018-03-16T11:26:07Z</time>
      </trkpt>
      <trkpt lat="45.92893" lon="4.73054">
        <ele>172</ele>
        <time>2018-03-16T11:26:08Z</time>
      </trkpt>
      <trkpt lat="45.92889" lon="4.7306">
        <ele>172</ele>
        <time>2018-03-16T11:26:09Z</time>
      </trkpt>
      <trkpt lat="45.92885" lon="4.73066">
        <ele>172</ele>
        <time>2018-03-16T11:26:10Z</time>
      </trkpt>
      <trkpt lat="45.92881" lon="4.73071">
        <ele>172</ele>
        <time>2018-03-16T11:26:11Z</time>
      </trkpt>
      <trkpt lat="45.92878" lon="4.73076">
        <ele>172</ele>
        <time>2018-03-16T11:26:12Z</time>
      </trkpt>
      <trkpt lat="45.92875" lon="4.73083">
        <ele>172</ele>
        <time>2018-03-16T11:26:13Z</time>
      </trkpt>
      <trkpt lat="45.92871" lon="4.73089">
        <ele>172</ele>
        <time>2018-03-16T11:26:14Z</time>
      </trkpt>
      <trkpt lat="45.92867" lon="4.73095">
        <ele>172</ele>
        <time>2018-03-16T11:26:15Z</time>
      </trkpt>
      <trkpt lat="45.92864" lon="4.731">
        <ele>171</ele>
        <time>2018-03-16T11:26:16Z</time>
      </trkpt>
      <trkpt lat="45.9286" lon="4.73105">
        <ele>171</ele>
        <time>2018-03-16T11:26:17Z</time>
      </trkpt>
      <trkpt lat="45.92853" lon="4.73102">
        <ele>171</ele>
        <time>2018-03-16T11:26:19Z</time>
      </trkpt>
      <trkpt lat="45.9285" lon="4.73098">
        <ele>171</ele>
        <time>2018-03-16T11:26:20Z</time>
      </trkpt>
      <trkpt lat="45.92848" lon="4.73092">
        <ele>171</ele>
        <time>2018-03-16T11:26:21Z</time>
      </trkpt>
      <trkpt lat="45.92846" lon="4.73085">
        <ele>171</ele>
        <time>2018-03-16T11:26:22Z</time>
      </trkpt>
      <trkpt lat="45.92845" lon="4.73079">
        <ele>171</ele>
        <time>2018-03-16T11:26:23Z</time>
      </trkpt>
      <trkpt lat="45.92844" lon="4.73072">
        <ele>171</ele>
        <time>2018-03-16T11:26:24Z</time>
      </trkpt>
      <trkpt lat="45.92843" lon="4.73065">
        <ele>171</ele>
        <time>2018-03-16T11:26:25Z</time>
      </trkpt>
      <trkpt lat="45.92842" lon="4.73057">
        <ele>171</ele>
        <time>2018-03-16T11:26:26Z</time>
      </trkpt>
      <trkpt lat="45.92841" lon="4.7305">
        <ele>171</ele>
        <time>2018-03-16T11:26:27Z</time>
      </trkpt>
      <trkpt lat="45.92839" lon="4.73044">
        <ele>171</ele>
        <time>2018-03-16T11:26:28Z</time>
      </trkpt>
      <trkpt lat="45.92837" lon="4.73035">
        <ele>171</ele>
        <time>2018-03-16T11:26:29Z</time>
      </trkpt>
      <trkpt lat="45.92836" lon="4.73028">
        <ele>171</ele>
        <time>2018-03-16T11:26:30Z</time>
      </trkpt>
      <trkpt lat="45.92834" lon="4.73021">
        <ele>171</ele>
        <time>2018-03-16T11:26:31Z</time>
      </trkpt>
      <trkpt lat="45.92833" lon="4.73014">
        <ele>170</ele>
        <time>2018-03-16T11:26:32Z</time>
      </trkpt>
      <trkpt lat="45.92832" lon="4.73007">
        <ele>170</ele>
        <time>2018-03-16T11:26:33Z</time>
      </trkpt>
      <trkpt lat="45.92831" lon="4.73">
        <ele>170</ele>
        <time>2018-03-16T11:26:34Z</time>
      </trkpt>
      <trkpt lat="45.92831" lon="4.72992">
        <ele>170</ele>
        <time>2018-03-16T11:26:35Z</time>
      </trkpt>
      <trkpt lat="45.9283" lon="4.72984">
        <ele>170</ele>
        <time>2018-03-16T11:26:36Z</time>
      </trkpt>
      <trkpt lat="45.9283" lon="4.72977">
        <ele>170</ele>
        <time>2018-03-16T11:26:37Z</time>
      </trkpt>
      <trkpt lat="45.92829" lon="4.72968">
        <ele>170</ele>
        <time>2018-03-16T11:26:38Z</time>
      </trkpt>
      <trkpt lat="45.92829" lon="4.72961">
        <ele>170</ele>
        <time>2018-03-16T11:26:39Z</time>
      </trkpt>
      <trkpt lat="45.92829" lon="4.72953">
        <ele>170</ele>
        <time>2018-03-16T11:26:40Z</time>
      </trkpt>
      <trkpt lat="45.92828" lon="4.72945">
        <ele>170</ele>
        <time>2018-03-16T11:26:41Z</time>
      </trkpt>
      <trkpt lat="45.92827" lon="4.72937">
        <ele>170</ele>
        <time>2018-03-16T11:26:42Z</time>
      </trkpt>
      <trkpt lat="45.92826" lon="4.72929">
        <ele>170</ele>
        <time>2018-03-16T11:26:43Z</time>
      </trkpt>
      <trkpt lat="45.92825" lon="4.72922">
        <ele>170</ele>
        <time>2018-03-16T11:26:44Z</time>
      </trkpt>
      <trkpt lat="45.92824" lon="4.72914">
        <ele>170</ele>
        <time>2018-03-16T11:26:45Z</time>
      </trkpt>
      <trkpt lat="45.92823" lon="4.72907">
        <ele>170</ele>
        <time>2018-03-16T11:26:46Z</time>
      </trkpt>
      <trkpt lat="45.92822" lon="4.729">
        <ele>170</ele>
        <time>2018-03-16T11:26:47Z</time>
      </trkpt>
      <trkpt lat="45.92821" lon="4.72893">
        <ele>170</ele>
        <time>2018-03-16T11:26:48Z</time>
      </trkpt>
      <trkpt lat="45.9282" lon="4.72886">
        <ele>170</ele>
        <time>2018-03-16T11:26:49Z</time>
      </trkpt>
      <trkpt lat="45.92819" lon="4.7288">
        <ele>170</ele>
        <time>2018-03-16T11:26:50Z</time>
      </trkpt>
      <trkpt lat="45.92817" lon="4.72873">
        <ele>170</ele>
        <time>2018-03-16T11:26:51Z</time>
      </trkpt>
      <trkpt lat="45.92816" lon="4.72866">
        <ele>170</ele>
        <time>2018-03-16T11:26:52Z</time>
      </trkpt>
      <trkpt lat="45.92814" lon="4.72859">
        <ele>170</ele>
        <time>2018-03-16T11:26:53Z</time>
      </trkpt>
      <trkpt lat="45.92813" lon="4.72853">
        <ele>170</ele>
        <time>2018-03-16T11:26:54Z</time>
      </trkpt>
      <trkpt lat="45.92811" lon="4.72845">
        <ele>170</ele>
        <time>2018-03-16T11:26:55Z</time>
      </trkpt>
      <trkpt lat="45.9281" lon="4.72838">
        <ele>170</ele>
        <time>2018-03-16T11:26:56Z</time>
      </trkpt>
      <trkpt lat="45.92808" lon="4.72831">
        <ele>171</ele>
        <time>2018-03-16T11:26:57Z</time>
      </trkpt>
      <trkpt lat="45.92807" lon="4.72825">
        <ele>171</ele>
        <time>2018-03-16T11:26:58Z</time>
      </trkpt>
      <trkpt lat="45.92806" lon="4.72818">
        <ele>171</ele>
        <time>2018-03-16T11:26:59Z</time>
      </trkpt>
      <trkpt lat="45.92805" lon="4.72811">
        <ele>171</ele>
        <time>2018-03-16T11:27:00Z</time>
      </trkpt>
      <trkpt lat="45.92803" lon="4.72799">
        <ele>171</ele>
        <time>2018-03-16T11:27:02Z</time>
      </trkpt>
      <trkpt lat="45.92802" lon="4.72793">
        <ele>171</ele>
        <time>2018-03-16T11:27:03Z</time>
      </trkpt>
      <trkpt lat="45.92796" lon="4.72786">
        <ele>171</ele>
        <time>2018-03-16T11:27:05Z</time>
      </trkpt>
      <trkpt lat="45.92793" lon="4.72786">
        <ele>171</ele>
        <time>2018-03-16T11:27:06Z</time>
      </trkpt>
      <trkpt lat="45.92785" lon="4.72789">
        <ele>170</ele>
        <time>2018-03-16T11:27:08Z</time>
      </trkpt>
      <trkpt lat="45.92782" lon="4.72793">
        <ele>170</ele>
        <time>2018-03-16T11:27:09Z</time>
      </trkpt>
      <trkpt lat="45.92777" lon="4.72796">
        <ele>170</ele>
        <time>2018-03-16T11:27:10Z</time>
      </trkpt>
      <trkpt lat="45.92773" lon="4.72801">
        <ele>170</ele>
        <time>2018-03-16T11:27:11Z</time>
      </trkpt>
      <trkpt lat="45.92769" lon="4.72805">
        <ele>170</ele>
        <time>2018-03-16T11:27:12Z</time>
      </trkpt>
      <trkpt lat="45.92765" lon="4.72809">
        <ele>170</ele>
        <time>2018-03-16T11:27:13Z</time>
      </trkpt>
      <trkpt lat="45.92761" lon="4.72812">
        <ele>170</ele>
        <time>2018-03-16T11:27:14Z</time>
      </trkpt>
      <trkpt lat="45.92756" lon="4.72816">
        <ele>170</ele>
        <time>2018-03-16T11:27:15Z</time>
      </trkpt>
      <trkpt lat="45.92752" lon="4.72819">
        <ele>170</ele>
        <time>2018-03-16T11:27:16Z</time>
      </trkpt>
      <trkpt lat="45.92747" lon="4.72822">
        <ele>169</ele>
        <time>2018-03-16T11:27:17Z</time>
      </trkpt>
      <trkpt lat="45.92742" lon="4.72826">
        <ele>169</ele>
        <time>2018-03-16T11:27:18Z</time>
      </trkpt>
      <trkpt lat="45.92737" lon="4.72829">
        <ele>169</ele>
        <time>2018-03-16T11:27:19Z</time>
      </trkpt>
      <trkpt lat="45.92732" lon="4.72833">
        <ele>169</ele>
        <time>2018-03-16T11:27:20Z</time>
      </trkpt>
      <trkpt lat="45.92727" lon="4.72837">
        <ele>169</ele>
        <time>2018-03-16T11:27:21Z</time>
      </trkpt>
      <trkpt lat="45.92722" lon="4.7284">
        <ele>169</ele>
        <time>2018-03-16T11:27:22Z</time>
      </trkpt>
      <trkpt lat="45.92717" lon="4.72844">
        <ele>169</ele>
        <time>2018-03-16T11:27:23Z</time>
      </trkpt>
      <trkpt lat="45.92712" lon="4.72848">
        <ele>169</ele>
        <time>2018-03-16T11:27:24Z</time>
      </trkpt>
      <trkpt lat="45.92707" lon="4.72852">
        <ele>169</ele>
        <time>2018-03-16T11:27:25Z</time>
      </trkpt>
      <trkpt lat="45.92703" lon="4.72855">
        <ele>169</ele>
        <time>2018-03-16T11:27:26Z</time>
      </trkpt>
      <trkpt lat="45.92698" lon="4.7286">
        <ele>169</ele>
        <time>2018-03-16T11:27:27Z</time>
      </trkpt>
      <trkpt lat="45.92692" lon="4.72864">
        <ele>169</ele>
        <time>2018-03-16T11:27:28Z</time>
      </trkpt>
      <trkpt lat="45.92687" lon="4.72868">
        <ele>169</ele>
        <time>2018-03-16T11:27:29Z</time>
      </trkpt>
      <trkpt lat="45.92682" lon="4.72872">
        <ele>169</ele>
        <time>2018-03-16T11:27:30Z</time>
      </trkpt>
      <trkpt lat="45.92677" lon="4.72877">
        <ele>170</ele>
        <time>2018-03-16T11:27:31Z</time>
      </trkpt>
      <trkpt lat="45.92673" lon="4.72881">
        <ele>170</ele>
        <time>2018-03-16T11:27:32Z</time>
      </trkpt>
      <trkpt lat="45.92667" lon="4.72885">
        <ele>170</ele>
        <time>2018-03-16T11:27:33Z</time>
      </trkpt>
      <trkpt lat="45.92662" lon="4.72888">
        <ele>169</ele>
        <time>2018-03-16T11:27:34Z</time>
      </trkpt>
      <trkpt lat="45.92657" lon="4.72893">
        <ele>169</ele>
        <time>2018-03-16T11:27:35Z</time>
      </trkpt>
      <trkpt lat="45.92651" lon="4.72897">
        <ele>169</ele>
        <time>2018-03-16T11:27:36Z</time>
      </trkpt>
      <trkpt lat="45.92646" lon="4.72901">
        <ele>169</ele>
        <time>2018-03-16T11:27:37Z</time>
      </trkpt>
      <trkpt lat="45.9264" lon="4.72906">
        <ele>169</ele>
        <time>2018-03-16T11:27:38Z</time>
      </trkpt>
      <trkpt lat="45.92635" lon="4.72911">
        <ele>169</ele>
        <time>2018-03-16T11:27:39Z</time>
      </trkpt>
      <trkpt lat="45.9263" lon="4.72915">
        <ele>169</ele>
        <time>2018-03-16T11:27:40Z</time>
      </trkpt>
      <trkpt lat="45.92625" lon="4.72919">
        <ele>169</ele>
        <time>2018-03-16T11:27:41Z</time>
      </trkpt>
      <trkpt lat="45.92619" lon="4.72923">
        <ele>169</ele>
        <time>2018-03-16T11:27:42Z</time>
      </trkpt>
      <trkpt lat="45.92614" lon="4.72928">
        <ele>169</ele>
        <time>2018-03-16T11:27:43Z</time>
      </trkpt>
      <trkpt lat="45.92609" lon="4.72935">
        <ele>169</ele>
        <time>2018-03-16T11:27:44Z</time>
      </trkpt>
      <trkpt lat="45.92605" lon="4.7294">
        <ele>169</ele>
        <time>2018-03-16T11:27:45Z</time>
      </trkpt>
      <trkpt lat="45.926" lon="4.72946">
        <ele>169</ele>
        <time>2018-03-16T11:27:46Z</time>
      </trkpt>
      <trkpt lat="45.92595" lon="4.72953">
        <ele>169</ele>
        <time>2018-03-16T11:27:47Z</time>
      </trkpt>
      <trkpt lat="45.9259" lon="4.72958">
        <ele>169</ele>
        <time>2018-03-16T11:27:48Z</time>
      </trkpt>
      <trkpt lat="45.92585" lon="4.72964">
        <ele>169</ele>
        <time>2018-03-16T11:27:49Z</time>
      </trkpt>
      <trkpt lat="45.9258" lon="4.72969">
        <ele>169</ele>
        <time>2018-03-16T11:27:50Z</time>
      </trkpt>
      <trkpt lat="45.92575" lon="4.72975">
        <ele>169</ele>
        <time>2018-03-16T11:27:51Z</time>
      </trkpt>
      <trkpt lat="45.92571" lon="4.7298">
        <ele>169</ele>
        <time>2018-03-16T11:27:52Z</time>
      </trkpt>
      <trkpt lat="45.92565" lon="4.72985">
        <ele>169</ele>
        <time>2018-03-16T11:27:53Z</time>
      </trkpt>
      <trkpt lat="45.9256" lon="4.7299">
        <ele>169</ele>
        <time>2018-03-16T11:27:54Z</time>
      </trkpt>
      <trkpt lat="45.92556" lon="4.72995">
        <ele>169</ele>
        <time>2018-03-16T11:27:55Z</time>
      </trkpt>
      <trkpt lat="45.92551" lon="4.73">
        <ele>169</ele>
        <time>2018-03-16T11:27:56Z</time>
      </trkpt>
      <trkpt lat="45.92546" lon="4.73004">
        <ele>169</ele>
        <time>2018-03-16T11:27:57Z</time>
      </trkpt>
      <trkpt lat="45.92542" lon="4.73008">
        <ele>169</ele>
        <time>2018-03-16T11:27:58Z</time>
      </trkpt>
      <trkpt lat="45.92538" lon="4.73014">
        <ele>169</ele>
        <time>2018-03-16T11:27:59Z</time>
      </trkpt>
      <trkpt lat="45.92533" lon="4.73018">
        <ele>169</ele>
        <time>2018-03-16T11:28:00Z</time>
      </trkpt>
      <trkpt lat="45.92528" lon="4.73023">
        <ele>169</ele>
        <time>2018-03-16T11:28:01Z</time>
      </trkpt>
      <trkpt lat="45.92523" lon="4.73028">
        <ele>169</ele>
        <time>2018-03-16T11:28:02Z</time>
      </trkpt>
      <trkpt lat="45.92517" lon="4.73032">
        <ele>169</ele>
        <time>2018-03-16T11:28:03Z</time>
      </trkpt>
      <trkpt lat="45.92512" lon="4.73035">
        <ele>169</ele>
        <time>2018-03-16T11:28:04Z</time>
      </trkpt>
      <trkpt lat="45.92508" lon="4.73039">
        <ele>169</ele>
        <time>2018-03-16T11:28:05Z</time>
      </trkpt>
      <trkpt lat="45.92503" lon="4.73044">
        <ele>170</ele>
        <time>2018-03-16T11:28:06Z</time>
      </trkpt>
      <trkpt lat="45.92498" lon="4.73048">
        <ele>170</ele>
        <time>2018-03-16T11:28:07Z</time>
      </trkpt>
      <trkpt lat="45.92494" lon="4.73053">
        <ele>170</ele>
        <time>2018-03-16T11:28:08Z</time>
      </trkpt>
      <trkpt lat="45.9249" lon="4.73056">
        <ele>170</ele>
        <time>2018-03-16T11:28:09Z</time>
      </trkpt>
      <trkpt lat="45.92485" lon="4.7306">
        <ele>170</ele>
        <time>2018-03-16T11:28:10Z</time>
      </trkpt>
      <trkpt lat="45.9248" lon="4.73063">
        <ele>170</ele>
        <time>2018-03-16T11:28:11Z</time>
      </trkpt>
      <trkpt lat="45.92475" lon="4.73068">
        <ele>170</ele>
        <time>2018-03-16T11:28:12Z</time>
      </trkpt>
      <trkpt lat="45.92471" lon="4.73072">
        <ele>170</ele>
        <time>2018-03-16T11:28:13Z</time>
      </trkpt>
      <trkpt lat="45.92466" lon="4.73076">
        <ele>170</ele>
        <time>2018-03-16T11:28:14Z</time>
      </trkpt>
      <trkpt lat="45.92462" lon="4.7308">
        <ele>170</ele>
        <time>2018-03-16T11:28:15Z</time>
      </trkpt>
      <trkpt lat="45.92457" lon="4.73085">
        <ele>170</ele>
        <time>2018-03-16T11:28:16Z</time>
      </trkpt>
      <trkpt lat="45.92453" lon="4.7309">
        <ele>170</ele>
        <time>2018-03-16T11:28:17Z</time>
      </trkpt>
      <trkpt lat="45.9245" lon="4.73094">
        <ele>170</ele>
        <time>2018-03-16T11:28:18Z</time>
      </trkpt>
      <trkpt lat="45.92445" lon="4.73097">
        <ele>170</ele>
        <time>2018-03-16T11:28:19Z</time>
      </trkpt>
      <trkpt lat="45.9244" lon="4.73101">
        <ele>170</ele>
        <time>2018-03-16T11:28:20Z</time>
      </trkpt>
      <trkpt lat="45.92436" lon="4.73105">
        <ele>170</ele>
        <time>2018-03-16T11:28:21Z</time>
      </trkpt>
      <trkpt lat="45.92431" lon="4.73109">
        <ele>170</ele>
        <time>2018-03-16T11:28:22Z</time>
      </trkpt>
      <trkpt lat="45.92426" lon="4.73112">
        <ele>170</ele>
        <time>2018-03-16T11:28:23Z</time>
      </trkpt>
      <trkpt lat="45.92421" lon="4.73116">
        <ele>170</ele>
        <time>2018-03-16T11:28:24Z</time>
      </trkpt>
      <trkpt lat="45.92417" lon="4.7312">
        <ele>170</ele>
        <time>2018-03-16T11:28:25Z</time>
      </trkpt>
      <trkpt lat="45.92413" lon="4.73124">
        <ele>171</ele>
        <time>2018-03-16T11:28:26Z</time>
      </trkpt>
      <trkpt lat="45.92411" lon="4.73129">
        <ele>171</ele>
        <time>2018-03-16T11:28:27Z</time>
      </trkpt>
      <trkpt lat="45.92409" lon="4.73136">
        <ele>171</ele>
        <time>2018-03-16T11:28:28Z</time>
      </trkpt>
      <trkpt lat="45.92408" lon="4.73143">
        <ele>171</ele>
        <time>2018-03-16T11:28:29Z</time>
      </trkpt>
      <trkpt lat="45.92408" lon="4.7315">
        <ele>171</ele>
        <time>2018-03-16T11:28:30Z</time>
      </trkpt>
      <trkpt lat="45.92409" lon="4.73156">
        <ele>170</ele>
        <time>2018-03-16T11:28:31Z</time>
      </trkpt>
      <trkpt lat="45.9241" lon="4.73164">
        <ele>170</ele>
        <time>2018-03-16T11:28:32Z</time>
      </trkpt>
      <trkpt lat="45.9241" lon="4.73171">
        <ele>170</ele>
        <time>2018-03-16T11:28:33Z</time>
      </trkpt>
      <trkpt lat="45.9241" lon="4.73178">
        <ele>171</ele>
        <time>2018-03-16T11:28:34Z</time>
      </trkpt>
      <trkpt lat="45.92411" lon="4.73185">
        <ele>171</ele>
        <time>2018-03-16T11:28:35Z</time>
      </trkpt>
      <trkpt lat="45.92411" lon="4.73192">
        <ele>171</ele>
        <time>2018-03-16T11:28:36Z</time>
      </trkpt>
      <trkpt lat="45.92412" lon="4.73199">
        <ele>171</ele>
        <time>2018-03-16T11:28:37Z</time>
      </trkpt>
      <trkpt lat="45.92413" lon="4.73206">
        <ele>171</ele>
        <time>2018-03-16T11:28:38Z</time>
      </trkpt>
      <trkpt lat="45.92413" lon="4.73212">
        <ele>171</ele>
        <time>2018-03-16T11:28:39Z</time>
      </trkpt>
      <trkpt lat="45.92413" lon="4.73219">
        <ele>171</ele>
        <time>2018-03-16T11:28:40Z</time>
      </trkpt>
      <trkpt lat="45.92413" lon="4.73225">
        <ele>171</ele>
        <time>2018-03-16T11:28:41Z</time>
      </trkpt>
      <trkpt lat="45.92414" lon="4.73232">
        <ele>171</ele>
        <time>2018-03-16T11:28:42Z</time>
      </trkpt>
      <trkpt lat="45.92414" lon="4.73239">
        <ele>171</ele>
        <time>2018-03-16T11:28:43Z</time>
      </trkpt>
      <trkpt lat="45.92415" lon="4.73252">
        <ele>171</ele>
        <time>2018-03-16T11:28:45Z</time>
      </trkpt>
      <trkpt lat="45.92416" lon="4.73259">
        <ele>171</ele>
        <time>2018-03-16T11:28:46Z</time>
      </trkpt>
      <trkpt lat="45.92416" lon="4.73265">
        <ele>171</ele>
        <time>2018-03-16T11:28:47Z</time>
      </trkpt>
      <trkpt lat="45.92416" lon="4.73272">
        <ele>171</ele>
        <time>2018-03-16T11:28:48Z</time>
      </trkpt>
      <trkpt lat="45.92416" lon="4.73279">
        <ele>171</ele>
        <time>2018-03-16T11:28:49Z</time>
      </trkpt>
      <trkpt lat="45.92417" lon="4.73286">
        <ele>171</ele>
        <time>2018-03-16T11:28:50Z</time>
      </trkpt>
      <trkpt lat="45.92417" lon="4.73293">
        <ele>171</ele>
        <time>2018-03-16T11:28:51Z</time>
      </trkpt>
      <trkpt lat="45.92418" lon="4.733">
        <ele>171</ele>
        <time>2018-03-16T11:28:52Z</time>
      </trkpt>
      <trkpt lat="45.92417" lon="4.73307">
        <ele>171</ele>
        <time>2018-03-16T11:28:53Z</time>
      </trkpt>
      <trkpt lat="45.92418" lon="4.73314">
        <ele>171</ele>
        <time>2018-03-16T11:28:54Z</time>
      </trkpt>
      <trkpt lat="45.92419" lon="4.7332">
        <ele>171</ele>
        <time>2018-03-16T11:28:55Z</time>
      </trkpt>
      <trkpt lat="45.92419" lon="4.73327">
        <ele>171</ele>
        <time>2018-03-16T11:28:56Z</time>
      </trkpt>
      <trkpt lat="45.92419" lon="4.73334">
        <ele>171</ele>
        <time>2018-03-16T11:28:57Z</time>
      </trkpt>
      <trkpt lat="45.9242" lon="4.7334">
        <ele>171</ele>
        <time>2018-03-16T11:28:58Z</time>
      </trkpt>
      <trkpt lat="45.92421" lon="4.73347">
        <ele>171</ele>
        <time>2018-03-16T11:28:59Z</time>
      </trkpt>
      <trkpt lat="45.92421" lon="4.73354">
        <ele>171</ele>
        <time>2018-03-16T11:29:00Z</time>
      </trkpt>
      <trkpt lat="45.92423" lon="4.7336">
        <ele>172</ele>
        <time>2018-03-16T11:29:01Z</time>
      </trkpt>
      <trkpt lat="45.92425" lon="4.73367">
        <ele>172</ele>
        <time>2018-03-16T11:29:02Z</time>
      </trkpt>
      <trkpt lat="45.92426" lon="4.73373">
        <ele>172</ele>
        <time>2018-03-16T11:29:03Z</time>
      </trkpt>
      <trkpt lat="45.92428" lon="4.73379">
        <ele>172</ele>
        <time>2018-03-16T11:29:04Z</time>
      </trkpt>
      <trkpt lat="45.92428" lon="4.73386">
        <ele>172</ele>
        <time>2018-03-16T11:29:05Z</time>
      </trkpt>
      <trkpt lat="45.9243" lon="4.73392">
        <ele>172</ele>
        <time>2018-03-16T11:29:06Z</time>
      </trkpt>
      <trkpt lat="45.92432" lon="4.73398">
        <ele>172</ele>
        <time>2018-03-16T11:29:07Z</time>
      </trkpt>
      <trkpt lat="45.92434" lon="4.73404">
        <ele>172</ele>
        <time>2018-03-16T11:29:08Z</time>
      </trkpt>
      <trkpt lat="45.92441" lon="4.73411">
        <ele>172</ele>
        <time>2018-03-16T11:29:10Z</time>
      </trkpt>
      <trkpt lat="45.92444" lon="4.73414">
        <ele>172</ele>
        <time>2018-03-16T11:29:11Z</time>
      </trkpt>
      <trkpt lat="45.92452" lon="4.7342">
        <ele>173</ele>
        <time>2018-03-16T11:29:13Z</time>
      </trkpt>
      <trkpt lat="45.92456" lon="4.73422">
        <ele>173</ele>
        <time>2018-03-16T11:29:14Z</time>
      </trkpt>
      <trkpt lat="45.92463" lon="4.73429">
        <ele>173</ele>
        <time>2018-03-16T11:29:16Z</time>
      </trkpt>
      <trkpt lat="45.92465" lon="4.73435">
        <ele>173</ele>
        <time>2018-03-16T11:29:17Z</time>
      </trkpt>
      <trkpt lat="45.92468" lon="4.73441">
        <ele>173</ele>
        <time>2018-03-16T11:29:18Z</time>
      </trkpt>
      <trkpt lat="45.9247" lon="4.73447">
        <ele>173</ele>
        <time>2018-03-16T11:29:19Z</time>
      </trkpt>
      <trkpt lat="45.92472" lon="4.73454">
        <ele>173</ele>
        <time>2018-03-16T11:29:20Z</time>
      </trkpt>
      <trkpt lat="45.92473" lon="4.7346">
        <ele>173</ele>
        <time>2018-03-16T11:29:21Z</time>
      </trkpt>
      <trkpt lat="45.92473" lon="4.73467">
        <ele>173</ele>
        <time>2018-03-16T11:29:22Z</time>
      </trkpt>
      <trkpt lat="45.92473" lon="4.73474">
        <ele>173</ele>
        <time>2018-03-16T11:29:23Z</time>
      </trkpt>
      <trkpt lat="45.92473" lon="4.7348">
        <ele>173</ele>
        <time>2018-03-16T11:29:24Z</time>
      </trkpt>
      <trkpt lat="45.92473" lon="4.73487">
        <ele>173</ele>
        <time>2018-03-16T11:29:25Z</time>
      </trkpt>
      <trkpt lat="45.92473" lon="4.73494">
        <ele>173</ele>
        <time>2018-03-16T11:29:26Z</time>
      </trkpt>
      <trkpt lat="45.92473" lon="4.735">
        <ele>174</ele>
        <time>2018-03-16T11:29:27Z</time>
      </trkpt>
      <trkpt lat="45.92475" lon="4.73507">
        <ele>174</ele>
        <time>2018-03-16T11:29:28Z</time>
      </trkpt>
      <trkpt lat="45.92476" lon="4.73513">
        <ele>174</ele>
        <time>2018-03-16T11:29:29Z</time>
      </trkpt>
      <trkpt lat="45.92475" lon="4.73525">
        <ele>174</ele>
        <time>2018-03-16T11:29:32Z</time>
      </trkpt>
      <trkpt lat="45.92475" lon="4.73529">
        <ele>174</ele>
        <time>2018-03-16T11:29:33Z</time>
      </trkpt>
      <trkpt lat="45.92474" lon="4.73538">
        <ele>174</ele>
        <time>2018-03-16T11:29:35Z</time>
      </trkpt>
      <trkpt lat="45.92474" lon="4.73543">
        <ele>173</ele>
        <time>2018-03-16T11:29:36Z</time>
      </trkpt>
      <trkpt lat="45.92473" lon="4.73558">
        <ele>173</ele>
        <time>2018-03-16T11:29:37Z</time>
      </trkpt>
      <trkpt lat="45.92473" lon="4.73565">
        <ele>173</ele>
        <time>2018-03-16T11:29:38Z</time>
      </trkpt>
      <trkpt lat="45.92474" lon="4.73571">
        <ele>173</ele>
        <time>2018-03-16T11:29:39Z</time>
      </trkpt>
      <trkpt lat="45.92474" lon="4.73579">
        <ele>173</ele>
        <time>2018-03-16T11:29:40Z</time>
      </trkpt>
      <trkpt lat="45.92475" lon="4.73585">
        <ele>174</ele>
        <time>2018-03-16T11:29:41Z</time>
      </trkpt>
      <trkpt lat="45.92475" lon="4.73598">
        <ele>174</ele>
        <time>2018-03-16T11:29:43Z</time>
      </trkpt>
      <trkpt lat="45.92476" lon="4.73605">
        <ele>174</ele>
        <time>2018-03-16T11:29:44Z</time>
      </trkpt>
      <trkpt lat="45.92477" lon="4.73612">
        <ele>174</ele>
        <time>2018-03-16T11:29:45Z</time>
      </trkpt>
      <trkpt lat="45.92477" lon="4.7362">
        <ele>174</ele>
        <time>2018-03-16T11:29:46Z</time>
      </trkpt>
      <trkpt lat="45.92476" lon="4.73628">
        <ele>174</ele>
        <time>2018-03-16T11:29:47Z</time>
      </trkpt>
      <trkpt lat="45.92474" lon="4.73635">
        <ele>174</ele>
        <time>2018-03-16T11:29:48Z</time>
      </trkpt>
      <trkpt lat="45.92474" lon="4.73642">
        <ele>174</ele>
        <time>2018-03-16T11:29:49Z</time>
      </trkpt>
      <trkpt lat="45.92474" lon="4.73649">
        <ele>174</ele>
        <time>2018-03-16T11:29:50Z</time>
      </trkpt>
      <trkpt lat="45.92474" lon="4.73661">
        <ele>174</ele>
        <time>2018-03-16T11:29:52Z</time>
      </trkpt>
      <trkpt lat="45.92473" lon="4.73667">
        <ele>174</ele>
        <time>2018-03-16T11:29:53Z</time>
      </trkpt>
      <trkpt lat="45.92473" lon="4.73679">
        <ele>174</ele>
        <time>2018-03-16T11:29:55Z</time>
      </trkpt>
      <trkpt lat="45.92472" lon="4.73684">
        <ele>174</ele>
        <time>2018-03-16T11:29:56Z</time>
      </trkpt>
      <trkpt lat="45.9247" lon="4.73692">
        <ele>174</ele>
        <time>2018-03-16T11:29:58Z</time>
      </trkpt>
      <trkpt lat="45.92468" lon="4.73699">
        <ele>174</ele>
        <time>2018-03-16T11:29:59Z</time>
      </trkpt>
      <trkpt lat="45.92464" lon="4.7371">
        <ele>174</ele>
        <time>2018-03-16T11:30:09Z</time>
      </trkpt>
      <trkpt lat="45.92464" lon="4.73711">
        <ele>174</ele>
        <time>2018-03-16T11:30:10Z</time>
      </trkpt>
      <trkpt lat="45.92461" lon="4.73711">
        <ele>174</ele>
        <time>2018-03-16T11:30:15Z</time>
      </trkpt>
      <trkpt lat="45.92461" lon="4.73711">
        <ele>174</ele>
        <time>2018-03-16T11:30:16Z</time>
      </trkpt>
      <trkpt lat="45.9246" lon="4.7371">
        <ele>174</ele>
        <time>2018-03-16T11:30:30Z</time>
      </trkpt>
      <trkpt lat="45.9246" lon="4.73711">
        <ele>174</ele>
        <time>2018-03-16T11:30:31Z</time>
      </trkpt>
      <trkpt lat="45.92457" lon="4.73712">
        <ele>174</ele>
        <time>2018-03-16T11:30:44.525Z</time>
      </trkpt>
    </trkseg>
  </trk>
</gpx>